<?xml version="1.0"?>
<gpx
 version="1.1"
 creator="Satmap Active 20"
 xmlns:xsi="http://www.w3.org/2001/XMLSchema-instance"
 xmlns="http://www.topografix.com/GPX/1/1"
 xmlns:satmap="http://www.satmap.com/updates/xmlschemas/GpxExtensions/v2/GpxExtensions_v2.xsd"
 xsi:schemaLocation="http://www.topografix.com/GPX/1/1 http://www.topografix.com/GPX/1/1/gpx.xsd">
<metadata>
<time>2023-03-17T09:21:23Z</time>
<extensions>
<satmap:platform>43</satmap:platform>
<satmap:software version="3.12.831">SM15.exe</satmap:software>
<satmap:username>Jim Grant</satmap:username>
<satmap:network_ids>
<satmap:network_id type="wifi">00-23-A7-EC-D5-78</satmap:network_id>
<satmap:network_id type="bluetooth">80-BB-EB-D7-5B-7C</satmap:network_id>
</satmap:network_ids>
<satmap:snap_type>simple</satmap:snap_type>
</extensions>
</metadata>
<trk>
<name>2023-03-17_0921</name>
<desc>Track 1</desc>
<number>1</number>
<trkseg>
<trkpt lat="53.158657" lon="-2.096801"><ele>173</ele><time>2023-03-17T09:21:23Z</time><name>PT1</name></trkpt>
<trkpt lat="53.158658" lon="-2.096788"><ele>173</ele><time>2023-03-17T09:21:36Z</time><name>PT2</name></trkpt>
<trkpt lat="53.158661" lon="-2.096781"><ele>173</ele><time>2023-03-17T09:21:39Z</time><name>PT3</name></trkpt>
<trkpt lat="53.158663" lon="-2.096777"><ele>173</ele><time>2023-03-17T09:21:42Z</time><name>PT4</name></trkpt>
<trkpt lat="53.158650" lon="-2.096789"><ele>172</ele><time>2023-03-17T09:22:11Z</time><name>PT5</name></trkpt>
<trkpt lat="53.158655" lon="-2.096792"><ele>171</ele><time>2023-03-17T09:22:14Z</time><name>PT6</name></trkpt>
<trkpt lat="53.158674" lon="-2.096795"><ele>172</ele><time>2023-03-17T09:22:51Z</time><name>PT7</name></trkpt>
<trkpt lat="53.158680" lon="-2.096800"><ele>171</ele><time>2023-03-17T09:22:54Z</time><name>PT8</name></trkpt>
<trkpt lat="53.158688" lon="-2.096808"><ele>172</ele><time>2023-03-17T09:23:12Z</time><name>PT9</name></trkpt>
<trkpt lat="53.158695" lon="-2.096792"><ele>170</ele><time>2023-03-17T09:24:24Z</time><name>PT10</name></trkpt>
<trkpt lat="53.158697" lon="-2.096788"><ele>170</ele><time>2023-03-17T09:24:27Z</time><name>PT11</name></trkpt>
<trkpt lat="53.158699" lon="-2.096786"><ele>170</ele><time>2023-03-17T09:24:30Z</time><name>PT12</name></trkpt>
<trkpt lat="53.158704" lon="-2.096788"><ele>171</ele><time>2023-03-17T09:24:36Z</time><name>PT13</name></trkpt>
<trkpt lat="53.158708" lon="-2.096797"><ele>171</ele><time>2023-03-17T09:24:41Z</time><name>PT14</name></trkpt>
<trkpt lat="53.158708" lon="-2.096794"><ele>171</ele><time>2023-03-17T09:25:12Z</time><name>PT15</name></trkpt>
<trkpt lat="53.158714" lon="-2.096793"><ele>170</ele><time>2023-03-17T09:25:38Z</time><name>PT16</name></trkpt>
<trkpt lat="53.158714" lon="-2.096799"><ele>170</ele><time>2023-03-17T09:25:42Z</time><name>PT17</name></trkpt>
<trkpt lat="53.158716" lon="-2.096796"><ele>170</ele><time>2023-03-17T09:25:45Z</time><name>PT18</name></trkpt>
<trkpt lat="53.158719" lon="-2.096787"><ele>170</ele><time>2023-03-17T09:25:50Z</time><name>PT19</name></trkpt>
<trkpt lat="53.158732" lon="-2.096797"><ele>171</ele><time>2023-03-17T09:26:48Z</time><name>PT20</name></trkpt>
<trkpt lat="53.158738" lon="-2.096805"><ele>170</ele><time>2023-03-17T09:26:54Z</time><name>PT21</name></trkpt>
<trkpt lat="53.158770" lon="-2.096838"><ele>169</ele><time>2023-03-17T09:27:45Z</time><name>PT22</name></trkpt>
<trkpt lat="53.158800" lon="-2.096830"><ele>168</ele><time>2023-03-17T09:27:48Z</time><name>PT23</name></trkpt>
<trkpt lat="53.158827" lon="-2.096827"><ele>167</ele><time>2023-03-17T09:27:51Z</time><name>PT24</name></trkpt>
<trkpt lat="53.158851" lon="-2.096805"><ele>165</ele><time>2023-03-17T09:27:56Z</time><name>PT25</name></trkpt>
<trkpt lat="53.158877" lon="-2.096800"><ele>165</ele><time>2023-03-17T09:28:00Z</time><name>PT26</name></trkpt>
<trkpt lat="53.158912" lon="-2.096825"><ele>166</ele><time>2023-03-17T09:28:03Z</time><name>PT27</name></trkpt>
<trkpt lat="53.158948" lon="-2.096846"><ele>167</ele><time>2023-03-17T09:28:06Z</time><name>PT28</name></trkpt>
<trkpt lat="53.158991" lon="-2.096891"><ele>167</ele><time>2023-03-17T09:28:09Z</time><name>PT29</name></trkpt>
<trkpt lat="53.159022" lon="-2.096922"><ele>167</ele><time>2023-03-17T09:28:12Z</time><name>PT30</name></trkpt>
<trkpt lat="53.159063" lon="-2.096965"><ele>167</ele><time>2023-03-17T09:28:17Z</time><name>PT31</name></trkpt>
<trkpt lat="53.159095" lon="-2.096998"><ele>167</ele><time>2023-03-17T09:28:20Z</time><name>PT32</name></trkpt>
<trkpt lat="53.159139" lon="-2.097033"><ele>167</ele><time>2023-03-17T09:28:24Z</time><name>PT33</name></trkpt>
<trkpt lat="53.159173" lon="-2.097074"><ele>165</ele><time>2023-03-17T09:28:27Z</time><name>PT34</name></trkpt>
<trkpt lat="53.159213" lon="-2.097102"><ele>164</ele><time>2023-03-17T09:28:32Z</time><name>PT35</name></trkpt>
<trkpt lat="53.159259" lon="-2.097142"><ele>164</ele><time>2023-03-17T09:28:36Z</time><name>PT36</name></trkpt>
<trkpt lat="53.159297" lon="-2.097165"><ele>165</ele><time>2023-03-17T09:28:39Z</time><name>PT37</name></trkpt>
<trkpt lat="53.159323" lon="-2.097151"><ele>163</ele><time>2023-03-17T09:28:42Z</time><name>PT38</name></trkpt>
<trkpt lat="53.159346" lon="-2.097112"><ele>162</ele><time>2023-03-17T09:28:45Z</time><name>PT39</name></trkpt>
<trkpt lat="53.159385" lon="-2.097063"><ele>160</ele><time>2023-03-17T09:28:48Z</time><name>PT40</name></trkpt>
<trkpt lat="53.159426" lon="-2.097000"><ele>160</ele><time>2023-03-17T09:28:53Z</time><name>PT41</name></trkpt>
<trkpt lat="53.159456" lon="-2.096960"><ele>160</ele><time>2023-03-17T09:28:56Z</time><name>PT42</name></trkpt>
<trkpt lat="53.159498" lon="-2.096906"><ele>160</ele><time>2023-03-17T09:29:00Z</time><name>PT43</name></trkpt>
<trkpt lat="53.159528" lon="-2.096839"><ele>159</ele><time>2023-03-17T09:29:03Z</time><name>PT44</name></trkpt>
<trkpt lat="53.159558" lon="-2.096776"><ele>159</ele><time>2023-03-17T09:29:08Z</time><name>PT45</name></trkpt>
<trkpt lat="53.159582" lon="-2.096731"><ele>158</ele><time>2023-03-17T09:29:11Z</time><name>PT46</name></trkpt>
<trkpt lat="53.159601" lon="-2.096678"><ele>159</ele><time>2023-03-17T09:29:14Z</time><name>PT47</name></trkpt>
<trkpt lat="53.159627" lon="-2.096642"><ele>158</ele><time>2023-03-17T09:29:17Z</time><name>PT48</name></trkpt>
<trkpt lat="53.159641" lon="-2.096592"><ele>159</ele><time>2023-03-17T09:29:20Z</time><name>PT49</name></trkpt>
<trkpt lat="53.159656" lon="-2.096530"><ele>159</ele><time>2023-03-17T09:29:23Z</time><name>PT50</name></trkpt>
<trkpt lat="53.159681" lon="-2.096453"><ele>159</ele><time>2023-03-17T09:29:27Z</time><name>PT51</name></trkpt>
<trkpt lat="53.159696" lon="-2.096386"><ele>158</ele><time>2023-03-17T09:29:30Z</time><name>PT52</name></trkpt>
<trkpt lat="53.159713" lon="-2.096331"><ele>158</ele><time>2023-03-17T09:29:33Z</time><name>PT53</name></trkpt>
<trkpt lat="53.159725" lon="-2.096283"><ele>156</ele><time>2023-03-17T09:29:36Z</time><name>PT54</name></trkpt>
<trkpt lat="53.159753" lon="-2.096218"><ele>156</ele><time>2023-03-17T09:29:41Z</time><name>PT55</name></trkpt>
<trkpt lat="53.159771" lon="-2.096144"><ele>156</ele><time>2023-03-17T09:29:45Z</time><name>PT56</name></trkpt>
<trkpt lat="53.159785" lon="-2.096075"><ele>156</ele><time>2023-03-17T09:29:48Z</time><name>PT57</name></trkpt>
<trkpt lat="53.159816" lon="-2.095993"><ele>158</ele><time>2023-03-17T09:29:51Z</time><name>PT58</name></trkpt>
<trkpt lat="53.159847" lon="-2.095909"><ele>158</ele><time>2023-03-17T09:29:56Z</time><name>PT59</name></trkpt>
<trkpt lat="53.159866" lon="-2.095851"><ele>159</ele><time>2023-03-17T09:29:59Z</time><name>PT60</name></trkpt>
<trkpt lat="53.159890" lon="-2.095771"><ele>158</ele><time>2023-03-17T09:30:03Z</time><name>PT61</name></trkpt>
<trkpt lat="53.159917" lon="-2.095697"><ele>158</ele><time>2023-03-17T09:30:06Z</time><name>PT62</name></trkpt>
<trkpt lat="53.159943" lon="-2.095623"><ele>158</ele><time>2023-03-17T09:30:11Z</time><name>PT63</name></trkpt>
<trkpt lat="53.159962" lon="-2.095566"><ele>158</ele><time>2023-03-17T09:30:14Z</time><name>PT64</name></trkpt>
<trkpt lat="53.159972" lon="-2.095514"><ele>157</ele><time>2023-03-17T09:30:17Z</time><name>PT65</name></trkpt>
<trkpt lat="53.159994" lon="-2.095446"><ele>157</ele><time>2023-03-17T09:30:20Z</time><name>PT66</name></trkpt>
<trkpt lat="53.160024" lon="-2.095369"><ele>157</ele><time>2023-03-17T09:30:24Z</time><name>PT67</name></trkpt>
<trkpt lat="53.160047" lon="-2.095313"><ele>157</ele><time>2023-03-17T09:30:27Z</time><name>PT68</name></trkpt>
<trkpt lat="53.160076" lon="-2.095235"><ele>158</ele><time>2023-03-17T09:30:30Z</time><name>PT69</name></trkpt>
<trkpt lat="53.160095" lon="-2.095173"><ele>159</ele><time>2023-03-17T09:30:33Z</time><name>PT70</name></trkpt>
<trkpt lat="53.160128" lon="-2.095113"><ele>159</ele><time>2023-03-17T09:30:38Z</time><name>PT71</name></trkpt>
<trkpt lat="53.160164" lon="-2.095058"><ele>159</ele><time>2023-03-17T09:30:42Z</time><name>PT72</name></trkpt>
<trkpt lat="53.160188" lon="-2.095006"><ele>158</ele><time>2023-03-17T09:30:45Z</time><name>PT73</name></trkpt>
<trkpt lat="53.160214" lon="-2.094976"><ele>158</ele><time>2023-03-17T09:30:48Z</time><name>PT74</name></trkpt>
<trkpt lat="53.160239" lon="-2.094935"><ele>159</ele><time>2023-03-17T09:30:51Z</time><name>PT75</name></trkpt>
<trkpt lat="53.160275" lon="-2.094868"><ele>159</ele><time>2023-03-17T09:30:56Z</time><name>PT76</name></trkpt>
<trkpt lat="53.160308" lon="-2.094827"><ele>159</ele><time>2023-03-17T09:30:59Z</time><name>PT77</name></trkpt>
<trkpt lat="53.160346" lon="-2.094781"><ele>159</ele><time>2023-03-17T09:31:03Z</time><name>PT78</name></trkpt>
<trkpt lat="53.160388" lon="-2.094722"><ele>160</ele><time>2023-03-17T09:31:06Z</time><name>PT79</name></trkpt>
<trkpt lat="53.160421" lon="-2.094670"><ele>162</ele><time>2023-03-17T09:31:09Z</time><name>PT80</name></trkpt>
<trkpt lat="53.160451" lon="-2.094622"><ele>162</ele><time>2023-03-17T09:31:12Z</time><name>PT81</name></trkpt>
<trkpt lat="53.160494" lon="-2.094589"><ele>162</ele><time>2023-03-17T09:31:17Z</time><name>PT82</name></trkpt>
<trkpt lat="53.160519" lon="-2.094566"><ele>161</ele><time>2023-03-17T09:31:20Z</time><name>PT83</name></trkpt>
<trkpt lat="53.160553" lon="-2.094523"><ele>160</ele><time>2023-03-17T09:31:24Z</time><name>PT84</name></trkpt>
<trkpt lat="53.160570" lon="-2.094504"><ele>161</ele><time>2023-03-17T09:31:27Z</time><name>PT85</name></trkpt>
<trkpt lat="53.160598" lon="-2.094449"><ele>159</ele><time>2023-03-17T09:31:30Z</time><name>PT86</name></trkpt>
<trkpt lat="53.160632" lon="-2.094407"><ele>158</ele><time>2023-03-17T09:31:33Z</time><name>PT87</name></trkpt>
<trkpt lat="53.160677" lon="-2.094361"><ele>157</ele><time>2023-03-17T09:31:38Z</time><name>PT88</name></trkpt>
<trkpt lat="53.160706" lon="-2.094322"><ele>157</ele><time>2023-03-17T09:31:41Z</time><name>PT89</name></trkpt>
<trkpt lat="53.160733" lon="-2.094281"><ele>154</ele><time>2023-03-17T09:31:45Z</time><name>PT90</name></trkpt>
<trkpt lat="53.160756" lon="-2.094246"><ele>152</ele><time>2023-03-17T09:31:48Z</time><name>PT91</name></trkpt>
<trkpt lat="53.160776" lon="-2.094195"><ele>152</ele><time>2023-03-17T09:31:51Z</time><name>PT92</name></trkpt>
<trkpt lat="53.160790" lon="-2.094148"><ele>150</ele><time>2023-03-17T09:31:54Z</time><name>PT93</name></trkpt>
<trkpt lat="53.160836" lon="-2.094098"><ele>151</ele><time>2023-03-17T09:31:57Z</time><name>PT94</name></trkpt>
<trkpt lat="53.160888" lon="-2.094054"><ele>154</ele><time>2023-03-17T09:32:02Z</time><name>PT95</name></trkpt>
<trkpt lat="53.160934" lon="-2.094017"><ele>156</ele><time>2023-03-17T09:32:06Z</time><name>PT96</name></trkpt>
<trkpt lat="53.160976" lon="-2.093965"><ele>157</ele><time>2023-03-17T09:32:09Z</time><name>PT97</name></trkpt>
<trkpt lat="53.161009" lon="-2.093911"><ele>158</ele><time>2023-03-17T09:32:14Z</time><name>PT98</name></trkpt>
<trkpt lat="53.161029" lon="-2.093852"><ele>160</ele><time>2023-03-17T09:32:17Z</time><name>PT99</name></trkpt>
<trkpt lat="53.161062" lon="-2.093784"><ele>161</ele><time>2023-03-17T09:32:21Z</time><name>PT100</name></trkpt>
<trkpt lat="53.161080" lon="-2.093732"><ele>161</ele><time>2023-03-17T09:32:24Z</time><name>PT101</name></trkpt>
<trkpt lat="53.161108" lon="-2.093699"><ele>163</ele><time>2023-03-17T09:32:27Z</time><name>PT102</name></trkpt>
<trkpt lat="53.161133" lon="-2.093644"><ele>163</ele><time>2023-03-17T09:32:30Z</time><name>PT103</name></trkpt>
<trkpt lat="53.161140" lon="-2.093595"><ele>163</ele><time>2023-03-17T09:32:35Z</time><name>PT104</name></trkpt>
<trkpt lat="53.161135" lon="-2.093552"><ele>162</ele><time>2023-03-17T09:32:38Z</time><name>PT105</name></trkpt>
<trkpt lat="53.161140" lon="-2.093514"><ele>163</ele><time>2023-03-17T09:32:41Z</time><name>PT106</name></trkpt>
<trkpt lat="53.161150" lon="-2.093488"><ele>164</ele><time>2023-03-17T09:32:44Z</time><name>PT107</name></trkpt>
<trkpt lat="53.161179" lon="-2.093454"><ele>164</ele><time>2023-03-17T09:32:48Z</time><name>PT108</name></trkpt>
<trkpt lat="53.161214" lon="-2.093423"><ele>163</ele><time>2023-03-17T09:32:51Z</time><name>PT109</name></trkpt>
<trkpt lat="53.161230" lon="-2.093406"><ele>163</ele><time>2023-03-17T09:32:56Z</time><name>PT110</name></trkpt>
<trkpt lat="53.161256" lon="-2.093373"><ele>163</ele><time>2023-03-17T09:33:00Z</time><name>PT111</name></trkpt>
<trkpt lat="53.161285" lon="-2.093347"><ele>164</ele><time>2023-03-17T09:33:03Z</time><name>PT112</name></trkpt>
<trkpt lat="53.161312" lon="-2.093278"><ele>162</ele><time>2023-03-17T09:33:06Z</time><name>PT113</name></trkpt>
<trkpt lat="53.161344" lon="-2.093225"><ele>162</ele><time>2023-03-17T09:33:11Z</time><name>PT114</name></trkpt>
<trkpt lat="53.161362" lon="-2.093192"><ele>164</ele><time>2023-03-17T09:33:14Z</time><name>PT115</name></trkpt>
<trkpt lat="53.161371" lon="-2.093164"><ele>161</ele><time>2023-03-17T09:33:17Z</time><name>PT116</name></trkpt>
<trkpt lat="53.161376" lon="-2.093124"><ele>157</ele><time>2023-03-17T09:33:20Z</time><name>PT117</name></trkpt>
<trkpt lat="53.161367" lon="-2.093048"><ele>153</ele><time>2023-03-17T09:33:24Z</time><name>PT118</name></trkpt>
<trkpt lat="53.161386" lon="-2.093015"><ele>153</ele><time>2023-03-17T09:33:27Z</time><name>PT119</name></trkpt>
<trkpt lat="53.161420" lon="-2.092957"><ele>156</ele><time>2023-03-17T09:33:32Z</time><name>PT120</name></trkpt>
<trkpt lat="53.161447" lon="-2.092905"><ele>158</ele><time>2023-03-17T09:33:36Z</time><name>PT121</name></trkpt>
<trkpt lat="53.161488" lon="-2.092851"><ele>159</ele><time>2023-03-17T09:33:39Z</time><name>PT122</name></trkpt>
<trkpt lat="53.161517" lon="-2.092819"><ele>159</ele><time>2023-03-17T09:33:42Z</time><name>PT123</name></trkpt>
<trkpt lat="53.161536" lon="-2.092796"><ele>156</ele><time>2023-03-17T09:33:47Z</time><name>PT124</name></trkpt>
<trkpt lat="53.161576" lon="-2.092776"><ele>154</ele><time>2023-03-17T09:33:51Z</time><name>PT125</name></trkpt>
<trkpt lat="53.161602" lon="-2.092735"><ele>151</ele><time>2023-03-17T09:33:54Z</time><name>PT126</name></trkpt>
<trkpt lat="53.161632" lon="-2.092671"><ele>147</ele><time>2023-03-17T09:33:59Z</time><name>PT127</name></trkpt>
<trkpt lat="53.161661" lon="-2.092631"><ele>145</ele><time>2023-03-17T09:34:03Z</time><name>PT128</name></trkpt>
<trkpt lat="53.161681" lon="-2.092587"><ele>147</ele><time>2023-03-17T09:34:06Z</time><name>PT129</name></trkpt>
<trkpt lat="53.161702" lon="-2.092541"><ele>147</ele><time>2023-03-17T09:34:09Z</time><name>PT130</name></trkpt>
<trkpt lat="53.161717" lon="-2.092499"><ele>147</ele><time>2023-03-17T09:34:12Z</time><name>PT131</name></trkpt>
<trkpt lat="53.161728" lon="-2.092419"><ele>151</ele><time>2023-03-17T09:34:17Z</time><name>PT132</name></trkpt>
<trkpt lat="53.161754" lon="-2.092388"><ele>151</ele><time>2023-03-17T09:34:20Z</time><name>PT133</name></trkpt>
<trkpt lat="53.161771" lon="-2.092360"><ele>151</ele><time>2023-03-17T09:34:24Z</time><name>PT134</name></trkpt>
<trkpt lat="53.161819" lon="-2.092309"><ele>152</ele><time>2023-03-17T09:34:27Z</time><name>PT135</name></trkpt>
<trkpt lat="53.161853" lon="-2.092278"><ele>152</ele><time>2023-03-17T09:34:30Z</time><name>PT136</name></trkpt>
<trkpt lat="53.161885" lon="-2.092246"><ele>154</ele><time>2023-03-17T09:34:35Z</time><name>PT137</name></trkpt>
<trkpt lat="53.161939" lon="-2.092196"><ele>157</ele><time>2023-03-17T09:34:39Z</time><name>PT138</name></trkpt>
<trkpt lat="53.161966" lon="-2.092177"><ele>158</ele><time>2023-03-17T09:34:42Z</time><name>PT139</name></trkpt>
<trkpt lat="53.162003" lon="-2.092156"><ele>160</ele><time>2023-03-17T09:34:45Z</time><name>PT140</name></trkpt>
<trkpt lat="53.162053" lon="-2.092122"><ele>161</ele><time>2023-03-17T09:34:48Z</time><name>PT141</name></trkpt>
<trkpt lat="53.162094" lon="-2.092084"><ele>163</ele><time>2023-03-17T09:34:53Z</time><name>PT142</name></trkpt>
<trkpt lat="53.162126" lon="-2.092061"><ele>164</ele><time>2023-03-17T09:34:56Z</time><name>PT143</name></trkpt>
<trkpt lat="53.162147" lon="-2.092045"><ele>165</ele><time>2023-03-17T09:34:59Z</time><name>PT144</name></trkpt>
<trkpt lat="53.162176" lon="-2.091975"><ele>165</ele><time>2023-03-17T09:35:06Z</time><name>PT145</name></trkpt>
<trkpt lat="53.162223" lon="-2.091921"><ele>165</ele><time>2023-03-17T09:35:20Z</time><name>PT146</name></trkpt>
<trkpt lat="53.162308" lon="-2.091864"><ele>163</ele><time>2023-03-17T09:35:24Z</time><name>PT147</name></trkpt>
<trkpt lat="53.162362" lon="-2.091849"><ele>160</ele><time>2023-03-17T09:35:27Z</time><name>PT148</name></trkpt>
<trkpt lat="53.162415" lon="-2.091812"><ele>160</ele><time>2023-03-17T09:35:30Z</time><name>PT149</name></trkpt>
<trkpt lat="53.162463" lon="-2.091758"><ele>159</ele><time>2023-03-17T09:35:35Z</time><name>PT150</name></trkpt>
<trkpt lat="53.162495" lon="-2.091724"><ele>159</ele><time>2023-03-17T09:35:38Z</time><name>PT151</name></trkpt>
<trkpt lat="53.162527" lon="-2.091658"><ele>159</ele><time>2023-03-17T09:35:42Z</time><name>PT152</name></trkpt>
<trkpt lat="53.162561" lon="-2.091625"><ele>159</ele><time>2023-03-17T09:35:45Z</time><name>PT153</name></trkpt>
<trkpt lat="53.162604" lon="-2.091572"><ele>160</ele><time>2023-03-17T09:35:48Z</time><name>PT154</name></trkpt>
<trkpt lat="53.162651" lon="-2.091508"><ele>161</ele><time>2023-03-17T09:35:51Z</time><name>PT155</name></trkpt>
<trkpt lat="53.162676" lon="-2.091455"><ele>161</ele><time>2023-03-17T09:35:54Z</time><name>PT156</name></trkpt>
<trkpt lat="53.162696" lon="-2.091401"><ele>164</ele><time>2023-03-17T09:35:57Z</time><name>PT157</name></trkpt>
<trkpt lat="53.162724" lon="-2.091332"><ele>165</ele><time>2023-03-17T09:36:02Z</time><name>PT158</name></trkpt>
<trkpt lat="53.162736" lon="-2.091276"><ele>166</ele><time>2023-03-17T09:36:05Z</time><name>PT159</name></trkpt>
<trkpt lat="53.162755" lon="-2.091187"><ele>166</ele><time>2023-03-17T09:36:09Z</time><name>PT160</name></trkpt>
<trkpt lat="53.162769" lon="-2.091143"><ele>166</ele><time>2023-03-17T09:36:12Z</time><name>PT161</name></trkpt>
<trkpt lat="53.162776" lon="-2.091052"><ele>168</ele><time>2023-03-17T09:36:15Z</time><name>PT162</name></trkpt>
<trkpt lat="53.162790" lon="-2.090999"><ele>169</ele><time>2023-03-17T09:36:18Z</time><name>PT163</name></trkpt>
<trkpt lat="53.162816" lon="-2.090925"><ele>172</ele><time>2023-03-17T09:36:23Z</time><name>PT164</name></trkpt>
<trkpt lat="53.162838" lon="-2.090878"><ele>173</ele><time>2023-03-17T09:36:26Z</time><name>PT165</name></trkpt>
<trkpt lat="53.162856" lon="-2.090815"><ele>174</ele><time>2023-03-17T09:36:30Z</time><name>PT166</name></trkpt>
<trkpt lat="53.162872" lon="-2.090768"><ele>176</ele><time>2023-03-17T09:36:33Z</time><name>PT167</name></trkpt>
<trkpt lat="53.162896" lon="-2.090702"><ele>177</ele><time>2023-03-17T09:36:38Z</time><name>PT168</name></trkpt>
<trkpt lat="53.162928" lon="-2.090639"><ele>177</ele><time>2023-03-17T09:36:42Z</time><name>PT169</name></trkpt>
<trkpt lat="53.162948" lon="-2.090597"><ele>176</ele><time>2023-03-17T09:36:45Z</time><name>PT170</name></trkpt>
<trkpt lat="53.162978" lon="-2.090534"><ele>178</ele><time>2023-03-17T09:36:48Z</time><name>PT171</name></trkpt>
<trkpt lat="53.163010" lon="-2.090481"><ele>179</ele><time>2023-03-17T09:36:53Z</time><name>PT172</name></trkpt>
<trkpt lat="53.163036" lon="-2.090432"><ele>181</ele><time>2023-03-17T09:36:56Z</time><name>PT173</name></trkpt>
<trkpt lat="53.163062" lon="-2.090393"><ele>181</ele><time>2023-03-17T09:37:00Z</time><name>PT174</name></trkpt>
<trkpt lat="53.163078" lon="-2.090374"><ele>180</ele><time>2023-03-17T09:37:03Z</time><name>PT175</name></trkpt>
<trkpt lat="53.163079" lon="-2.090358"><ele>179</ele><time>2023-03-17T09:37:06Z</time><name>PT176</name></trkpt>
<trkpt lat="53.163084" lon="-2.090352"><ele>179</ele><time>2023-03-17T09:37:15Z</time><name>PT177</name></trkpt>
<trkpt lat="53.163085" lon="-2.090325"><ele>179</ele><time>2023-03-17T09:37:18Z</time><name>PT178</name></trkpt>
<trkpt lat="53.163082" lon="-2.090288"><ele>179</ele><time>2023-03-17T09:37:21Z</time><name>PT179</name></trkpt>
<trkpt lat="53.163090" lon="-2.090280"><ele>180</ele><time>2023-03-17T09:37:26Z</time><name>PT180</name></trkpt>
<trkpt lat="53.163107" lon="-2.090233"><ele>179</ele><time>2023-03-17T09:37:33Z</time><name>PT181</name></trkpt>
<trkpt lat="53.163126" lon="-2.090188"><ele>177</ele><time>2023-03-17T09:37:36Z</time><name>PT182</name></trkpt>
<trkpt lat="53.163161" lon="-2.090190"><ele>177</ele><time>2023-03-17T09:37:41Z</time><name>PT183</name></trkpt>
<trkpt lat="53.163195" lon="-2.090155"><ele>178</ele><time>2023-03-17T09:37:44Z</time><name>PT184</name></trkpt>
<trkpt lat="53.163234" lon="-2.090118"><ele>178</ele><time>2023-03-17T09:37:48Z</time><name>PT185</name></trkpt>
<trkpt lat="53.163266" lon="-2.090103"><ele>180</ele><time>2023-03-17T09:37:51Z</time><name>PT186</name></trkpt>
<trkpt lat="53.163288" lon="-2.090100"><ele>179</ele><time>2023-03-17T09:37:56Z</time><name>PT187</name></trkpt>
<trkpt lat="53.163305" lon="-2.090084"><ele>179</ele><time>2023-03-17T09:37:59Z</time><name>PT188</name></trkpt>
<trkpt lat="53.163334" lon="-2.090058"><ele>177</ele><time>2023-03-17T09:38:03Z</time><name>PT189</name></trkpt>
<trkpt lat="53.163356" lon="-2.090037"><ele>177</ele><time>2023-03-17T09:38:06Z</time><name>PT190</name></trkpt>
<trkpt lat="53.163377" lon="-2.090015"><ele>177</ele><time>2023-03-17T09:38:11Z</time><name>PT191</name></trkpt>
<trkpt lat="53.163398" lon="-2.089984"><ele>178</ele><time>2023-03-17T09:38:15Z</time><name>PT192</name></trkpt>
<trkpt lat="53.163419" lon="-2.089965"><ele>178</ele><time>2023-03-17T09:38:18Z</time><name>PT193</name></trkpt>
<trkpt lat="53.163445" lon="-2.089956"><ele>177</ele><time>2023-03-17T09:38:21Z</time><name>PT194</name></trkpt>
<trkpt lat="53.163461" lon="-2.089930"><ele>177</ele><time>2023-03-17T09:38:26Z</time><name>PT195</name></trkpt>
<trkpt lat="53.163498" lon="-2.089896"><ele>177</ele><time>2023-03-17T09:38:30Z</time><name>PT196</name></trkpt>
<trkpt lat="53.163536" lon="-2.089866"><ele>178</ele><time>2023-03-17T09:38:33Z</time><name>PT197</name></trkpt>
<trkpt lat="53.163603" lon="-2.089844"><ele>180</ele><time>2023-03-17T09:38:36Z</time><name>PT198</name></trkpt>
<trkpt lat="53.163641" lon="-2.089821"><ele>184</ele><time>2023-03-17T09:38:39Z</time><name>PT199</name></trkpt>
<trkpt lat="53.163661" lon="-2.089812"><ele>185</ele><time>2023-03-17T09:38:42Z</time><name>PT200</name></trkpt>
<trkpt lat="53.163701" lon="-2.089780"><ele>186</ele><time>2023-03-17T09:38:47Z</time><name>PT201</name></trkpt>
<trkpt lat="53.163727" lon="-2.089754"><ele>187</ele><time>2023-03-17T09:38:51Z</time><name>PT202</name></trkpt>
<trkpt lat="53.163743" lon="-2.089751"><ele>187</ele><time>2023-03-17T09:38:54Z</time><name>PT203</name></trkpt>
<trkpt lat="53.163759" lon="-2.089740"><ele>189</ele><time>2023-03-17T09:38:57Z</time><name>PT204</name></trkpt>
<trkpt lat="53.163762" lon="-2.089738"><ele>190</ele><time>2023-03-17T09:39:02Z</time><name>PT205</name></trkpt>
<trkpt lat="53.163768" lon="-2.089745"><ele>190</ele><time>2023-03-17T09:39:17Z</time><name>PT206</name></trkpt>
<trkpt lat="53.163790" lon="-2.089744"><ele>190</ele><time>2023-03-17T09:39:20Z</time><name>PT207</name></trkpt>
<trkpt lat="53.163818" lon="-2.089729"><ele>190</ele><time>2023-03-17T09:39:24Z</time><name>PT208</name></trkpt>
<trkpt lat="53.163822" lon="-2.089692"><ele>189</ele><time>2023-03-17T09:39:27Z</time><name>PT209</name></trkpt>
<trkpt lat="53.163823" lon="-2.089696"><ele>189</ele><time>2023-03-17T09:39:30Z</time><name>PT210</name></trkpt>
<trkpt lat="53.163862" lon="-2.089652"><ele>189</ele><time>2023-03-17T09:39:50Z</time><name>PT211</name></trkpt>
<trkpt lat="53.163905" lon="-2.089602"><ele>188</ele><time>2023-03-17T09:39:54Z</time><name>PT212</name></trkpt>
<trkpt lat="53.163930" lon="-2.089565"><ele>188</ele><time>2023-03-17T09:39:57Z</time><name>PT213</name></trkpt>
<trkpt lat="53.163958" lon="-2.089528"><ele>188</ele><time>2023-03-17T09:40:00Z</time><name>PT214</name></trkpt>
<trkpt lat="53.163992" lon="-2.089504"><ele>189</ele><time>2023-03-17T09:40:03Z</time><name>PT215</name></trkpt>
<trkpt lat="53.164030" lon="-2.089470"><ele>191</ele><time>2023-03-17T09:40:08Z</time><name>PT216</name></trkpt>
<trkpt lat="53.164054" lon="-2.089452"><ele>191</ele><time>2023-03-17T09:40:11Z</time><name>PT217</name></trkpt>
<trkpt lat="53.164075" lon="-2.089418"><ele>191</ele><time>2023-03-17T09:40:15Z</time><name>PT218</name></trkpt>
<trkpt lat="53.164092" lon="-2.089393"><ele>190</ele><time>2023-03-17T09:40:18Z</time><name>PT219</name></trkpt>
<trkpt lat="53.164122" lon="-2.089362"><ele>191</ele><time>2023-03-17T09:40:21Z</time><name>PT220</name></trkpt>
<trkpt lat="53.164161" lon="-2.089321"><ele>191</ele><time>2023-03-17T09:40:26Z</time><name>PT221</name></trkpt>
<trkpt lat="53.164188" lon="-2.089295"><ele>191</ele><time>2023-03-17T09:40:29Z</time><name>PT222</name></trkpt>
<trkpt lat="53.164218" lon="-2.089236"><ele>192</ele><time>2023-03-17T09:40:33Z</time><name>PT223</name></trkpt>
<trkpt lat="53.164238" lon="-2.089206"><ele>192</ele><time>2023-03-17T09:40:36Z</time><name>PT224</name></trkpt>
<trkpt lat="53.164259" lon="-2.089171"><ele>193</ele><time>2023-03-17T09:40:39Z</time><name>PT225</name></trkpt>
<trkpt lat="53.164289" lon="-2.089146"><ele>194</ele><time>2023-03-17T09:40:42Z</time><name>PT226</name></trkpt>
<trkpt lat="53.164321" lon="-2.089118"><ele>193</ele><time>2023-03-17T09:40:45Z</time><name>PT227</name></trkpt>
<trkpt lat="53.164333" lon="-2.089090"><ele>193</ele><time>2023-03-17T09:40:48Z</time><name>PT228</name></trkpt>
<trkpt lat="53.164353" lon="-2.089069"><ele>192</ele><time>2023-03-17T09:40:53Z</time><name>PT229</name></trkpt>
<trkpt lat="53.164375" lon="-2.089063"><ele>191</ele><time>2023-03-17T09:40:56Z</time><name>PT230</name></trkpt>
<trkpt lat="53.164401" lon="-2.089053"><ele>191</ele><time>2023-03-17T09:40:59Z</time><name>PT231</name></trkpt>
<trkpt lat="53.164432" lon="-2.089035"><ele>190</ele><time>2023-03-17T09:41:03Z</time><name>PT232</name></trkpt>
<trkpt lat="53.164464" lon="-2.089020"><ele>187</ele><time>2023-03-17T09:41:06Z</time><name>PT233</name></trkpt>
<trkpt lat="53.164497" lon="-2.089007"><ele>186</ele><time>2023-03-17T09:41:09Z</time><name>PT234</name></trkpt>
<trkpt lat="53.164533" lon="-2.088989"><ele>185</ele><time>2023-03-17T09:41:12Z</time><name>PT235</name></trkpt>
<trkpt lat="53.164568" lon="-2.088978"><ele>186</ele><time>2023-03-17T09:41:15Z</time><name>PT236</name></trkpt>
<trkpt lat="53.164610" lon="-2.088964"><ele>186</ele><time>2023-03-17T09:41:20Z</time><name>PT237</name></trkpt>
<trkpt lat="53.164661" lon="-2.088956"><ele>188</ele><time>2023-03-17T09:41:24Z</time><name>PT238</name></trkpt>
<trkpt lat="53.164702" lon="-2.088937"><ele>188</ele><time>2023-03-17T09:41:27Z</time><name>PT239</name></trkpt>
<trkpt lat="53.164747" lon="-2.088924"><ele>189</ele><time>2023-03-17T09:41:30Z</time><name>PT240</name></trkpt>
<trkpt lat="53.164780" lon="-2.088915"><ele>189</ele><time>2023-03-17T09:41:33Z</time><name>PT241</name></trkpt>
<trkpt lat="53.164825" lon="-2.088906"><ele>190</ele><time>2023-03-17T09:41:38Z</time><name>PT242</name></trkpt>
<trkpt lat="53.164869" lon="-2.088893"><ele>190</ele><time>2023-03-17T09:41:42Z</time><name>PT243</name></trkpt>
<trkpt lat="53.164900" lon="-2.088890"><ele>191</ele><time>2023-03-17T09:41:45Z</time><name>PT244</name></trkpt>
<trkpt lat="53.164928" lon="-2.088890"><ele>191</ele><time>2023-03-17T09:41:48Z</time><name>PT245</name></trkpt>
<trkpt lat="53.164943" lon="-2.088890"><ele>193</ele><time>2023-03-17T09:41:53Z</time><name>PT246</name></trkpt>
<trkpt lat="53.164952" lon="-2.088876"><ele>193</ele><time>2023-03-17T09:41:56Z</time><name>PT247</name></trkpt>
<trkpt lat="53.164960" lon="-2.088871"><ele>193</ele><time>2023-03-17T09:42:00Z</time><name>PT248</name></trkpt>
<trkpt lat="53.164969" lon="-2.088868"><ele>192</ele><time>2023-03-17T09:42:12Z</time><name>PT249</name></trkpt>
<trkpt lat="53.165017" lon="-2.088872"><ele>193</ele><time>2023-03-17T09:42:17Z</time><name>PT250</name></trkpt>
<trkpt lat="53.165049" lon="-2.088883"><ele>194</ele><time>2023-03-17T09:42:21Z</time><name>PT251</name></trkpt>
<trkpt lat="53.165062" lon="-2.088888"><ele>194</ele><time>2023-03-17T09:42:24Z</time><name>PT252</name></trkpt>
<trkpt lat="53.165077" lon="-2.088883"><ele>195</ele><time>2023-03-17T09:42:27Z</time><name>PT253</name></trkpt>
<trkpt lat="53.165084" lon="-2.088883"><ele>195</ele><time>2023-03-17T09:42:30Z</time><name>PT254</name></trkpt>
<trkpt lat="53.165084" lon="-2.088883"><ele>195</ele><time>2023-03-17T09:42:33Z</time><name>PT255</name></trkpt>
<trkpt lat="53.165083" lon="-2.088875"><ele>195</ele><time>2023-03-17T09:42:42Z</time><name>PT256</name></trkpt>
<trkpt lat="53.165096" lon="-2.088862"><ele>196</ele><time>2023-03-17T09:42:45Z</time><name>PT257</name></trkpt>
<trkpt lat="53.165125" lon="-2.088817"><ele>195</ele><time>2023-03-17T09:42:48Z</time><name>PT258</name></trkpt>
<trkpt lat="53.165169" lon="-2.088737"><ele>195</ele><time>2023-03-17T09:42:51Z</time><name>PT259</name></trkpt>
<trkpt lat="53.165202" lon="-2.088707"><ele>195</ele><time>2023-03-17T09:42:54Z</time><name>PT260</name></trkpt>
<trkpt lat="53.165247" lon="-2.088665"><ele>194</ele><time>2023-03-17T09:42:59Z</time><name>PT261</name></trkpt>
<trkpt lat="53.165291" lon="-2.088624"><ele>194</ele><time>2023-03-17T09:43:03Z</time><name>PT262</name></trkpt>
<trkpt lat="53.165324" lon="-2.088595"><ele>194</ele><time>2023-03-17T09:43:06Z</time><name>PT263</name></trkpt>
<trkpt lat="53.165357" lon="-2.088555"><ele>195</ele><time>2023-03-17T09:43:09Z</time><name>PT264</name></trkpt>
<trkpt lat="53.165367" lon="-2.088540"><ele>195</ele><time>2023-03-17T09:43:14Z</time><name>PT265</name></trkpt>
<trkpt lat="53.165372" lon="-2.088540"><ele>194</ele><time>2023-03-17T09:43:18Z</time><name>PT266</name></trkpt>
<trkpt lat="53.165364" lon="-2.088534"><ele>195</ele><time>2023-03-17T09:43:45Z</time><name>PT267</name></trkpt>
<trkpt lat="53.165373" lon="-2.088512"><ele>195</ele><time>2023-03-17T09:43:56Z</time><name>PT268</name></trkpt>
<trkpt lat="53.165396" lon="-2.088484"><ele>196</ele><time>2023-03-17T09:43:59Z</time><name>PT269</name></trkpt>
<trkpt lat="53.165432" lon="-2.088446"><ele>196</ele><time>2023-03-17T09:44:03Z</time><name>PT270</name></trkpt>
<trkpt lat="53.165460" lon="-2.088420"><ele>194</ele><time>2023-03-17T09:44:06Z</time><name>PT271</name></trkpt>
<trkpt lat="53.165484" lon="-2.088383"><ele>195</ele><time>2023-03-17T09:44:09Z</time><name>PT272</name></trkpt>
<trkpt lat="53.165508" lon="-2.088344"><ele>195</ele><time>2023-03-17T09:44:12Z</time><name>PT273</name></trkpt>
<trkpt lat="53.165530" lon="-2.088307"><ele>194</ele><time>2023-03-17T09:44:15Z</time><name>PT274</name></trkpt>
<trkpt lat="53.165557" lon="-2.088267"><ele>195</ele><time>2023-03-17T09:44:18Z</time><name>PT275</name></trkpt>
<trkpt lat="53.165582" lon="-2.088206"><ele>194</ele><time>2023-03-17T09:44:21Z</time><name>PT276</name></trkpt>
<trkpt lat="53.165609" lon="-2.088121"><ele>195</ele><time>2023-03-17T09:44:26Z</time><name>PT277</name></trkpt>
<trkpt lat="53.165638" lon="-2.088062"><ele>194</ele><time>2023-03-17T09:44:30Z</time><name>PT278</name></trkpt>
<trkpt lat="53.165667" lon="-2.088005"><ele>193</ele><time>2023-03-17T09:44:33Z</time><name>PT279</name></trkpt>
<trkpt lat="53.165695" lon="-2.087923"><ele>193</ele><time>2023-03-17T09:44:38Z</time><name>PT280</name></trkpt>
<trkpt lat="53.165725" lon="-2.087862"><ele>193</ele><time>2023-03-17T09:44:42Z</time><name>PT281</name></trkpt>
<trkpt lat="53.165752" lon="-2.087792"><ele>193</ele><time>2023-03-17T09:44:45Z</time><name>PT282</name></trkpt>
<trkpt lat="53.165781" lon="-2.087723"><ele>194</ele><time>2023-03-17T09:44:50Z</time><name>PT283</name></trkpt>
<trkpt lat="53.165797" lon="-2.087666"><ele>194</ele><time>2023-03-17T09:44:53Z</time><name>PT284</name></trkpt>
<trkpt lat="53.165820" lon="-2.087618"><ele>193</ele><time>2023-03-17T09:44:56Z</time><name>PT285</name></trkpt>
<trkpt lat="53.165838" lon="-2.087573"><ele>193</ele><time>2023-03-17T09:44:59Z</time><name>PT286</name></trkpt>
<trkpt lat="53.165866" lon="-2.087506"><ele>193</ele><time>2023-03-17T09:45:03Z</time><name>PT287</name></trkpt>
<trkpt lat="53.165885" lon="-2.087447"><ele>193</ele><time>2023-03-17T09:45:06Z</time><name>PT288</name></trkpt>
<trkpt lat="53.165914" lon="-2.087368"><ele>194</ele><time>2023-03-17T09:45:09Z</time><name>PT289</name></trkpt>
<trkpt lat="53.165941" lon="-2.087309"><ele>195</ele><time>2023-03-17T09:45:12Z</time><name>PT290</name></trkpt>
<trkpt lat="53.165970" lon="-2.087238"><ele>195</ele><time>2023-03-17T09:45:17Z</time><name>PT291</name></trkpt>
<trkpt lat="53.165995" lon="-2.087188"><ele>195</ele><time>2023-03-17T09:45:20Z</time><name>PT292</name></trkpt>
<trkpt lat="53.166027" lon="-2.087127"><ele>194</ele><time>2023-03-17T09:45:24Z</time><name>PT293</name></trkpt>
<trkpt lat="53.166044" lon="-2.087083"><ele>193</ele><time>2023-03-17T09:45:27Z</time><name>PT294</name></trkpt>
<trkpt lat="53.166058" lon="-2.087045"><ele>194</ele><time>2023-03-17T09:45:30Z</time><name>PT295</name></trkpt>
<trkpt lat="53.166074" lon="-2.087026"><ele>194</ele><time>2023-03-17T09:45:33Z</time><name>PT296</name></trkpt>
<trkpt lat="53.166092" lon="-2.086964"><ele>195</ele><time>2023-03-17T09:45:36Z</time><name>PT297</name></trkpt>
<trkpt lat="53.166095" lon="-2.086908"><ele>195</ele><time>2023-03-17T09:45:41Z</time><name>PT298</name></trkpt>
<trkpt lat="53.166113" lon="-2.086857"><ele>196</ele><time>2023-03-17T09:45:44Z</time><name>PT299</name></trkpt>
<trkpt lat="53.166127" lon="-2.086795"><ele>195</ele><time>2023-03-17T09:45:48Z</time><name>PT300</name></trkpt>
<trkpt lat="53.166141" lon="-2.086744"><ele>196</ele><time>2023-03-17T09:45:51Z</time><name>PT301</name></trkpt>
<trkpt lat="53.166155" lon="-2.086678"><ele>196</ele><time>2023-03-17T09:45:54Z</time><name>PT302</name></trkpt>
<trkpt lat="53.166170" lon="-2.086629"><ele>196</ele><time>2023-03-17T09:45:57Z</time><name>PT303</name></trkpt>
<trkpt lat="53.166179" lon="-2.086571"><ele>197</ele><time>2023-03-17T09:46:00Z</time><name>PT304</name></trkpt>
<trkpt lat="53.166204" lon="-2.086499"><ele>197</ele><time>2023-03-17T09:46:05Z</time><name>PT305</name></trkpt>
<trkpt lat="53.166228" lon="-2.086438"><ele>197</ele><time>2023-03-17T09:46:09Z</time><name>PT306</name></trkpt>
<trkpt lat="53.166248" lon="-2.086382"><ele>197</ele><time>2023-03-17T09:46:12Z</time><name>PT307</name></trkpt>
<trkpt lat="53.166281" lon="-2.086315"><ele>198</ele><time>2023-03-17T09:46:15Z</time><name>PT308</name></trkpt>
<trkpt lat="53.166295" lon="-2.086246"><ele>198</ele><time>2023-03-17T09:46:20Z</time><name>PT309</name></trkpt>
<trkpt lat="53.166315" lon="-2.086191"><ele>197</ele><time>2023-03-17T09:46:23Z</time><name>PT310</name></trkpt>
<trkpt lat="53.166338" lon="-2.086119"><ele>197</ele><time>2023-03-17T09:46:27Z</time><name>PT311</name></trkpt>
<trkpt lat="53.166351" lon="-2.086053"><ele>198</ele><time>2023-03-17T09:46:30Z</time><name>PT312</name></trkpt>
<trkpt lat="53.166370" lon="-2.085985"><ele>198</ele><time>2023-03-17T09:46:33Z</time><name>PT313</name></trkpt>
<trkpt lat="53.166392" lon="-2.085922"><ele>198</ele><time>2023-03-17T09:46:38Z</time><name>PT314</name></trkpt>
<trkpt lat="53.166406" lon="-2.085864"><ele>198</ele><time>2023-03-17T09:46:41Z</time><name>PT315</name></trkpt>
<trkpt lat="53.166425" lon="-2.085800"><ele>197</ele><time>2023-03-17T09:46:45Z</time><name>PT316</name></trkpt>
<trkpt lat="53.166436" lon="-2.085721"><ele>198</ele><time>2023-03-17T09:46:48Z</time><name>PT317</name></trkpt>
<trkpt lat="53.166461" lon="-2.085652"><ele>198</ele><time>2023-03-17T09:46:51Z</time><name>PT318</name></trkpt>
<trkpt lat="53.166473" lon="-2.085572"><ele>198</ele><time>2023-03-17T09:46:56Z</time><name>PT319</name></trkpt>
<trkpt lat="53.166489" lon="-2.085497"><ele>198</ele><time>2023-03-17T09:47:00Z</time><name>PT320</name></trkpt>
<trkpt lat="53.166497" lon="-2.085417"><ele>197</ele><time>2023-03-17T09:47:03Z</time><name>PT321</name></trkpt>
<trkpt lat="53.166511" lon="-2.085367"><ele>197</ele><time>2023-03-17T09:47:06Z</time><name>PT322</name></trkpt>
<trkpt lat="53.166526" lon="-2.085301"><ele>198</ele><time>2023-03-17T09:47:09Z</time><name>PT323</name></trkpt>
<trkpt lat="53.166534" lon="-2.085242"><ele>198</ele><time>2023-03-17T09:47:12Z</time><name>PT324</name></trkpt>
<trkpt lat="53.166545" lon="-2.085164"><ele>199</ele><time>2023-03-17T09:47:17Z</time><name>PT325</name></trkpt>
<trkpt lat="53.166552" lon="-2.085091"><ele>199</ele><time>2023-03-17T09:47:20Z</time><name>PT326</name></trkpt>
<trkpt lat="53.166567" lon="-2.085033"><ele>200</ele><time>2023-03-17T09:47:23Z</time><name>PT327</name></trkpt>
<trkpt lat="53.166593" lon="-2.085002"><ele>201</ele><time>2023-03-17T09:47:26Z</time><name>PT328</name></trkpt>
<trkpt lat="53.166629" lon="-2.084986"><ele>200</ele><time>2023-03-17T09:47:30Z</time><name>PT329</name></trkpt>
<trkpt lat="53.166668" lon="-2.084977"><ele>201</ele><time>2023-03-17T09:47:33Z</time><name>PT330</name></trkpt>
<trkpt lat="53.166695" lon="-2.084973"><ele>202</ele><time>2023-03-17T09:47:38Z</time><name>PT331</name></trkpt>
<trkpt lat="53.166716" lon="-2.084922"><ele>202</ele><time>2023-03-17T09:47:42Z</time><name>PT332</name></trkpt>
<trkpt lat="53.166731" lon="-2.084905"><ele>202</ele><time>2023-03-17T09:47:45Z</time><name>PT333</name></trkpt>
<trkpt lat="53.166733" lon="-2.084902"><ele>202</ele><time>2023-03-17T09:47:48Z</time><name>PT334</name></trkpt>
<trkpt lat="53.166739" lon="-2.084896"><ele>201</ele><time>2023-03-17T09:47:53Z</time><name>PT335</name></trkpt>
<trkpt lat="53.166750" lon="-2.084878"><ele>201</ele><time>2023-03-17T09:47:57Z</time><name>PT336</name></trkpt>
<trkpt lat="53.166753" lon="-2.084878"><ele>201</ele><time>2023-03-17T09:48:00Z</time><name>PT337</name></trkpt>
<trkpt lat="53.166784" lon="-2.084876"><ele>200</ele><time>2023-03-17T09:48:03Z</time><name>PT338</name></trkpt>
<trkpt lat="53.166835" lon="-2.084849"><ele>201</ele><time>2023-03-17T09:48:06Z</time><name>PT339</name></trkpt>
<trkpt lat="53.166879" lon="-2.084842"><ele>202</ele><time>2023-03-17T09:48:11Z</time><name>PT340</name></trkpt>
<trkpt lat="53.166925" lon="-2.084836"><ele>202</ele><time>2023-03-17T09:48:15Z</time><name>PT341</name></trkpt>
<trkpt lat="53.166959" lon="-2.084828"><ele>202</ele><time>2023-03-17T09:48:18Z</time><name>PT342</name></trkpt>
<trkpt lat="53.166994" lon="-2.084832"><ele>201</ele><time>2023-03-17T09:48:21Z</time><name>PT343</name></trkpt>
<trkpt lat="53.167038" lon="-2.084828"><ele>201</ele><time>2023-03-17T09:48:26Z</time><name>PT344</name></trkpt>
<trkpt lat="53.167072" lon="-2.084831"><ele>202</ele><time>2023-03-17T09:48:29Z</time><name>PT345</name></trkpt>
<trkpt lat="53.167101" lon="-2.084859"><ele>203</ele><time>2023-03-17T09:48:33Z</time><name>PT346</name></trkpt>
<trkpt lat="53.167132" lon="-2.084875"><ele>201</ele><time>2023-03-17T09:48:36Z</time><name>PT347</name></trkpt>
<trkpt lat="53.167158" lon="-2.084861"><ele>200</ele><time>2023-03-17T09:48:39Z</time><name>PT348</name></trkpt>
<trkpt lat="53.167205" lon="-2.084810"><ele>198</ele><time>2023-03-17T09:48:44Z</time><name>PT349</name></trkpt>
<trkpt lat="53.167231" lon="-2.084775"><ele>197</ele><time>2023-03-17T09:48:47Z</time><name>PT350</name></trkpt>
<trkpt lat="53.167254" lon="-2.084714"><ele>196</ele><time>2023-03-17T09:48:51Z</time><name>PT351</name></trkpt>
<trkpt lat="53.167275" lon="-2.084667"><ele>196</ele><time>2023-03-17T09:48:54Z</time><name>PT352</name></trkpt>
<trkpt lat="53.167295" lon="-2.084593"><ele>196</ele><time>2023-03-17T09:48:57Z</time><name>PT353</name></trkpt>
<trkpt lat="53.167302" lon="-2.084536"><ele>196</ele><time>2023-03-17T09:49:02Z</time><name>PT354</name></trkpt>
<trkpt lat="53.167310" lon="-2.084468"><ele>196</ele><time>2023-03-17T09:49:05Z</time><name>PT355</name></trkpt>
<trkpt lat="53.167332" lon="-2.084404"><ele>197</ele><time>2023-03-17T09:49:08Z</time><name>PT356</name></trkpt>
<trkpt lat="53.167356" lon="-2.084356"><ele>198</ele><time>2023-03-17T09:49:11Z</time><name>PT357</name></trkpt>
<trkpt lat="53.167394" lon="-2.084302"><ele>198</ele><time>2023-03-17T09:49:15Z</time><name>PT358</name></trkpt>
<trkpt lat="53.167422" lon="-2.084263"><ele>198</ele><time>2023-03-17T09:49:18Z</time><name>PT359</name></trkpt>
<trkpt lat="53.167458" lon="-2.084210"><ele>198</ele><time>2023-03-17T09:49:21Z</time><name>PT360</name></trkpt>
<trkpt lat="53.167489" lon="-2.084181"><ele>199</ele><time>2023-03-17T09:49:24Z</time><name>PT361</name></trkpt>
<trkpt lat="53.167535" lon="-2.084156"><ele>198</ele><time>2023-03-17T09:49:29Z</time><name>PT362</name></trkpt>
<trkpt lat="53.167574" lon="-2.084128"><ele>199</ele><time>2023-03-17T09:49:32Z</time><name>PT363</name></trkpt>
<trkpt lat="53.167609" lon="-2.084099"><ele>200</ele><time>2023-03-17T09:49:36Z</time><name>PT364</name></trkpt>
<trkpt lat="53.167647" lon="-2.084063"><ele>199</ele><time>2023-03-17T09:49:39Z</time><name>PT365</name></trkpt>
<trkpt lat="53.167690" lon="-2.084042"><ele>198</ele><time>2023-03-17T09:49:44Z</time><name>PT366</name></trkpt>
<trkpt lat="53.167725" lon="-2.084010"><ele>196</ele><time>2023-03-17T09:49:48Z</time><name>PT367</name></trkpt>
<trkpt lat="53.167757" lon="-2.083972"><ele>196</ele><time>2023-03-17T09:49:51Z</time><name>PT368</name></trkpt>
<trkpt lat="53.167801" lon="-2.083946"><ele>196</ele><time>2023-03-17T09:49:54Z</time><name>PT369</name></trkpt>
<trkpt lat="53.167827" lon="-2.083922"><ele>197</ele><time>2023-03-17T09:49:57Z</time><name>PT370</name></trkpt>
<trkpt lat="53.167868" lon="-2.083890"><ele>196</ele><time>2023-03-17T09:50:02Z</time><name>PT371</name></trkpt>
<trkpt lat="53.167907" lon="-2.083849"><ele>196</ele><time>2023-03-17T09:50:06Z</time><name>PT372</name></trkpt>
<trkpt lat="53.167935" lon="-2.083828"><ele>196</ele><time>2023-03-17T09:50:09Z</time><name>PT373</name></trkpt>
<trkpt lat="53.167980" lon="-2.083788"><ele>197</ele><time>2023-03-17T09:50:12Z</time><name>PT374</name></trkpt>
<trkpt lat="53.168022" lon="-2.083757"><ele>198</ele><time>2023-03-17T09:50:17Z</time><name>PT375</name></trkpt>
<trkpt lat="53.168053" lon="-2.083727"><ele>198</ele><time>2023-03-17T09:50:20Z</time><name>PT376</name></trkpt>
<trkpt lat="53.168086" lon="-2.083695"><ele>198</ele><time>2023-03-17T09:50:23Z</time><name>PT377</name></trkpt>
<trkpt lat="53.168125" lon="-2.083663"><ele>198</ele><time>2023-03-17T09:50:27Z</time><name>PT378</name></trkpt>
<trkpt lat="53.168161" lon="-2.083634"><ele>198</ele><time>2023-03-17T09:50:30Z</time><name>PT379</name></trkpt>
<trkpt lat="53.168190" lon="-2.083613"><ele>198</ele><time>2023-03-17T09:50:33Z</time><name>PT380</name></trkpt>
<trkpt lat="53.168225" lon="-2.083588"><ele>197</ele><time>2023-03-17T09:50:38Z</time><name>PT381</name></trkpt>
<trkpt lat="53.168250" lon="-2.083567"><ele>196</ele><time>2023-03-17T09:50:41Z</time><name>PT382</name></trkpt>
<trkpt lat="53.168291" lon="-2.083560"><ele>196</ele><time>2023-03-17T09:50:45Z</time><name>PT383</name></trkpt>
<trkpt lat="53.168323" lon="-2.083554"><ele>198</ele><time>2023-03-17T09:50:48Z</time><name>PT384</name></trkpt>
<trkpt lat="53.168351" lon="-2.083552"><ele>196</ele><time>2023-03-17T09:50:51Z</time><name>PT385</name></trkpt>
<trkpt lat="53.168383" lon="-2.083538"><ele>197</ele><time>2023-03-17T09:50:54Z</time><name>PT386</name></trkpt>
<trkpt lat="53.168416" lon="-2.083537"><ele>195</ele><time>2023-03-17T09:50:57Z</time><name>PT387</name></trkpt>
<trkpt lat="53.168449" lon="-2.083527"><ele>194</ele><time>2023-03-17T09:51:02Z</time><name>PT388</name></trkpt>
<trkpt lat="53.168485" lon="-2.083529"><ele>193</ele><time>2023-03-17T09:51:06Z</time><name>PT389</name></trkpt>
<trkpt lat="53.168533" lon="-2.083520"><ele>193</ele><time>2023-03-17T09:51:09Z</time><name>PT390</name></trkpt>
<trkpt lat="53.168556" lon="-2.083518"><ele>192</ele><time>2023-03-17T09:51:12Z</time><name>PT391</name></trkpt>
<trkpt lat="53.168587" lon="-2.083518"><ele>191</ele><time>2023-03-17T09:51:15Z</time><name>PT392</name></trkpt>
<trkpt lat="53.168626" lon="-2.083503"><ele>190</ele><time>2023-03-17T09:51:20Z</time><name>PT393</name></trkpt>
<trkpt lat="53.168657" lon="-2.083487"><ele>189</ele><time>2023-03-17T09:51:23Z</time><name>PT394</name></trkpt>
<trkpt lat="53.168690" lon="-2.083474"><ele>189</ele><time>2023-03-17T09:51:27Z</time><name>PT395</name></trkpt>
<trkpt lat="53.168726" lon="-2.083459"><ele>189</ele><time>2023-03-17T09:51:30Z</time><name>PT396</name></trkpt>
<trkpt lat="53.168755" lon="-2.083442"><ele>186</ele><time>2023-03-17T09:51:35Z</time><name>PT397</name></trkpt>
<trkpt lat="53.168782" lon="-2.083426"><ele>186</ele><time>2023-03-17T09:51:38Z</time><name>PT398</name></trkpt>
<trkpt lat="53.168816" lon="-2.083420"><ele>184</ele><time>2023-03-17T09:51:42Z</time><name>PT399</name></trkpt>
<trkpt lat="53.168838" lon="-2.083403"><ele>184</ele><time>2023-03-17T09:51:45Z</time><name>PT400</name></trkpt>
<trkpt lat="53.168866" lon="-2.083377"><ele>184</ele><time>2023-03-17T09:51:48Z</time><name>PT401</name></trkpt>
<trkpt lat="53.168904" lon="-2.083342"><ele>184</ele><time>2023-03-17T09:51:53Z</time><name>PT402</name></trkpt>
<trkpt lat="53.168935" lon="-2.083317"><ele>184</ele><time>2023-03-17T09:51:56Z</time><name>PT403</name></trkpt>
<trkpt lat="53.168965" lon="-2.083287"><ele>183</ele><time>2023-03-17T09:52:00Z</time><name>PT404</name></trkpt>
<trkpt lat="53.168994" lon="-2.083249"><ele>183</ele><time>2023-03-17T09:52:03Z</time><name>PT405</name></trkpt>
<trkpt lat="53.169025" lon="-2.083220"><ele>181</ele><time>2023-03-17T09:52:06Z</time><name>PT406</name></trkpt>
<trkpt lat="53.169069" lon="-2.083180"><ele>181</ele><time>2023-03-17T09:52:11Z</time><name>PT407</name></trkpt>
<trkpt lat="53.169108" lon="-2.083143"><ele>179</ele><time>2023-03-17T09:52:15Z</time><name>PT408</name></trkpt>
<trkpt lat="53.169152" lon="-2.083097"><ele>179</ele><time>2023-03-17T09:52:18Z</time><name>PT409</name></trkpt>
<trkpt lat="53.169188" lon="-2.083055"><ele>178</ele><time>2023-03-17T09:52:23Z</time><name>PT410</name></trkpt>
<trkpt lat="53.169214" lon="-2.083023"><ele>177</ele><time>2023-03-17T09:52:26Z</time><name>PT411</name></trkpt>
<trkpt lat="53.169264" lon="-2.082982"><ele>176</ele><time>2023-03-17T09:52:30Z</time><name>PT412</name></trkpt>
<trkpt lat="53.169290" lon="-2.082958"><ele>175</ele><time>2023-03-17T09:52:33Z</time><name>PT413</name></trkpt>
<trkpt lat="53.169335" lon="-2.082940"><ele>174</ele><time>2023-03-17T09:52:36Z</time><name>PT414</name></trkpt>
<trkpt lat="53.169385" lon="-2.082914"><ele>174</ele><time>2023-03-17T09:52:41Z</time><name>PT415</name></trkpt>
<trkpt lat="53.169435" lon="-2.082887"><ele>174</ele><time>2023-03-17T09:52:45Z</time><name>PT416</name></trkpt>
<trkpt lat="53.169477" lon="-2.082862"><ele>173</ele><time>2023-03-17T09:52:48Z</time><name>PT417</name></trkpt>
<trkpt lat="53.169508" lon="-2.082845"><ele>172</ele><time>2023-03-17T09:52:51Z</time><name>PT418</name></trkpt>
<trkpt lat="53.169543" lon="-2.082825"><ele>172</ele><time>2023-03-17T09:52:56Z</time><name>PT419</name></trkpt>
<trkpt lat="53.169561" lon="-2.082814"><ele>173</ele><time>2023-03-17T09:53:00Z</time><name>PT420</name></trkpt>
<trkpt lat="53.169567" lon="-2.082801"><ele>173</ele><time>2023-03-17T09:53:03Z</time><name>PT421</name></trkpt>
<trkpt lat="53.169586" lon="-2.082748"><ele>171</ele><time>2023-03-17T09:53:08Z</time><name>PT422</name></trkpt>
<trkpt lat="53.169595" lon="-2.082750"><ele>170</ele><time>2023-03-17T09:53:11Z</time><name>PT423</name></trkpt>
<trkpt lat="53.169626" lon="-2.082742"><ele>170</ele><time>2023-03-17T09:53:21Z</time><name>PT424</name></trkpt>
<trkpt lat="53.169659" lon="-2.082754"><ele>168</ele><time>2023-03-17T09:53:24Z</time><name>PT425</name></trkpt>
<trkpt lat="53.169699" lon="-2.082778"><ele>166</ele><time>2023-03-17T09:53:29Z</time><name>PT426</name></trkpt>
<trkpt lat="53.169730" lon="-2.082794"><ele>165</ele><time>2023-03-17T09:53:32Z</time><name>PT427</name></trkpt>
<trkpt lat="53.169769" lon="-2.082813"><ele>166</ele><time>2023-03-17T09:53:36Z</time><name>PT428</name></trkpt>
<trkpt lat="53.169796" lon="-2.082830"><ele>166</ele><time>2023-03-17T09:53:39Z</time><name>PT429</name></trkpt>
<trkpt lat="53.169810" lon="-2.082823"><ele>166</ele><time>2023-03-17T09:53:42Z</time><name>PT430</name></trkpt>
<trkpt lat="53.169824" lon="-2.082827"><ele>166</ele><time>2023-03-17T09:53:47Z</time><name>PT431</name></trkpt>
<trkpt lat="53.169838" lon="-2.082826"><ele>166</ele><time>2023-03-17T09:53:51Z</time><name>PT432</name></trkpt>
<trkpt lat="53.169842" lon="-2.082818"><ele>166</ele><time>2023-03-17T09:53:54Z</time><name>PT433</name></trkpt>
<trkpt lat="53.169842" lon="-2.082812"><ele>166</ele><time>2023-03-17T09:53:57Z</time><name>PT434</name></trkpt>
<trkpt lat="53.169846" lon="-2.082791"><ele>168</ele><time>2023-03-17T09:54:02Z</time><name>PT435</name></trkpt>
<trkpt lat="53.169850" lon="-2.082775"><ele>167</ele><time>2023-03-17T09:54:05Z</time><name>PT436</name></trkpt>
<trkpt lat="53.169848" lon="-2.082719"><ele>169</ele><time>2023-03-17T09:54:09Z</time><name>PT437</name></trkpt>
<trkpt lat="53.169843" lon="-2.082652"><ele>171</ele><time>2023-03-17T09:54:12Z</time><name>PT438</name></trkpt>
<trkpt lat="53.169838" lon="-2.082620"><ele>171</ele><time>2023-03-17T09:54:15Z</time><name>PT439</name></trkpt>
<trkpt lat="53.169838" lon="-2.082555"><ele>170</ele><time>2023-03-17T09:54:20Z</time><name>PT440</name></trkpt>
<trkpt lat="53.169841" lon="-2.082513"><ele>169</ele><time>2023-03-17T09:54:23Z</time><name>PT441</name></trkpt>
<trkpt lat="53.169876" lon="-2.082420"><ele>171</ele><time>2023-03-17T09:54:27Z</time><name>PT442</name></trkpt>
<trkpt lat="53.169894" lon="-2.082380"><ele>170</ele><time>2023-03-17T09:54:30Z</time><name>PT443</name></trkpt>
<trkpt lat="53.169905" lon="-2.082333"><ele>170</ele><time>2023-03-17T09:54:33Z</time><name>PT444</name></trkpt>
<trkpt lat="53.169907" lon="-2.082277"><ele>168</ele><time>2023-03-17T09:54:36Z</time><name>PT445</name></trkpt>
<trkpt lat="53.169908" lon="-2.082243"><ele>164</ele><time>2023-03-17T09:54:39Z</time><name>PT446</name></trkpt>
<trkpt lat="53.169911" lon="-2.082198"><ele>162</ele><time>2023-03-17T09:54:44Z</time><name>PT447</name></trkpt>
<trkpt lat="53.169911" lon="-2.082138"><ele>162</ele><time>2023-03-17T09:54:47Z</time><name>PT448</name></trkpt>
<trkpt lat="53.169930" lon="-2.082063"><ele>161</ele><time>2023-03-17T09:54:51Z</time><name>PT449</name></trkpt>
<trkpt lat="53.169947" lon="-2.081993"><ele>160</ele><time>2023-03-17T09:54:55Z</time><name>PT450</name></trkpt>
<trkpt lat="53.169966" lon="-2.081921"><ele>161</ele><time>2023-03-17T09:54:59Z</time><name>PT451</name></trkpt>
<trkpt lat="53.169972" lon="-2.081783"><ele>163</ele><time>2023-03-17T09:55:03Z</time><name>PT452</name></trkpt>
<trkpt lat="53.169971" lon="-2.081692"><ele>163</ele><time>2023-03-17T09:55:06Z</time><name>PT453</name></trkpt>
<trkpt lat="53.169970" lon="-2.081609"><ele>163</ele><time>2023-03-17T09:55:11Z</time><name>PT454</name></trkpt>
<trkpt lat="53.169963" lon="-2.081525"><ele>162</ele><time>2023-03-17T09:55:15Z</time><name>PT455</name></trkpt>
<trkpt lat="53.169961" lon="-2.081453"><ele>162</ele><time>2023-03-17T09:55:18Z</time><name>PT456</name></trkpt>
<trkpt lat="53.169947" lon="-2.081374"><ele>163</ele><time>2023-03-17T09:55:21Z</time><name>PT457</name></trkpt>
<trkpt lat="53.169947" lon="-2.081308"><ele>164</ele><time>2023-03-17T09:55:24Z</time><name>PT458</name></trkpt>
<trkpt lat="53.169948" lon="-2.081237"><ele>163</ele><time>2023-03-17T09:55:29Z</time><name>PT459</name></trkpt>
<trkpt lat="53.169949" lon="-2.081175"><ele>162</ele><time>2023-03-17T09:55:32Z</time><name>PT460</name></trkpt>
<trkpt lat="53.169945" lon="-2.081098"><ele>160</ele><time>2023-03-17T09:55:36Z</time><name>PT461</name></trkpt>
<trkpt lat="53.169943" lon="-2.081041"><ele>161</ele><time>2023-03-17T09:55:39Z</time><name>PT462</name></trkpt>
<trkpt lat="53.169945" lon="-2.080956"><ele>161</ele><time>2023-03-17T09:55:42Z</time><name>PT463</name></trkpt>
<trkpt lat="53.169949" lon="-2.080914"><ele>161</ele><time>2023-03-17T09:55:45Z</time><name>PT464</name></trkpt>
<trkpt lat="53.169953" lon="-2.080846"><ele>162</ele><time>2023-03-17T09:55:50Z</time><name>PT465</name></trkpt>
<trkpt lat="53.169953" lon="-2.080763"><ele>163</ele><time>2023-03-17T09:55:54Z</time><name>PT466</name></trkpt>
<trkpt lat="53.169964" lon="-2.080699"><ele>164</ele><time>2023-03-17T09:55:57Z</time><name>PT467</name></trkpt>
<trkpt lat="53.169975" lon="-2.080633"><ele>161</ele><time>2023-03-17T09:56:00Z</time><name>PT468</name></trkpt>
<trkpt lat="53.169991" lon="-2.080547"><ele>164</ele><time>2023-03-17T09:56:05Z</time><name>PT469</name></trkpt>
<trkpt lat="53.169996" lon="-2.080475"><ele>163</ele><time>2023-03-17T09:56:08Z</time><name>PT470</name></trkpt>
<trkpt lat="53.169999" lon="-2.080395"><ele>165</ele><time>2023-03-17T09:56:12Z</time><name>PT471</name></trkpt>
<trkpt lat="53.170008" lon="-2.080348"><ele>166</ele><time>2023-03-17T09:56:15Z</time><name>PT472</name></trkpt>
<trkpt lat="53.170013" lon="-2.080299"><ele>163</ele><time>2023-03-17T09:56:18Z</time><name>PT473</name></trkpt>
<trkpt lat="53.170022" lon="-2.080251"><ele>162</ele><time>2023-03-17T09:56:21Z</time><name>PT474</name></trkpt>
<trkpt lat="53.170032" lon="-2.080184"><ele>163</ele><time>2023-03-17T09:56:24Z</time><name>PT475</name></trkpt>
<trkpt lat="53.170051" lon="-2.080087"><ele>166</ele><time>2023-03-17T09:56:29Z</time><name>PT476</name></trkpt>
<trkpt lat="53.170070" lon="-2.079992"><ele>168</ele><time>2023-03-17T09:56:33Z</time><name>PT477</name></trkpt>
<trkpt lat="53.170082" lon="-2.079911"><ele>173</ele><time>2023-03-17T09:56:36Z</time><name>PT478</name></trkpt>
<trkpt lat="53.170086" lon="-2.079823"><ele>175</ele><time>2023-03-17T09:56:39Z</time><name>PT479</name></trkpt>
<trkpt lat="53.170096" lon="-2.079754"><ele>174</ele><time>2023-03-17T09:56:44Z</time><name>PT480</name></trkpt>
<trkpt lat="53.170105" lon="-2.079658"><ele>176</ele><time>2023-03-17T09:56:47Z</time><name>PT481</name></trkpt>
<trkpt lat="53.170112" lon="-2.079556"><ele>176</ele><time>2023-03-17T09:56:51Z</time><name>PT482</name></trkpt>
<trkpt lat="53.170129" lon="-2.079516"><ele>175</ele><time>2023-03-17T09:56:54Z</time><name>PT483</name></trkpt>
<trkpt lat="53.170141" lon="-2.079469"><ele>171</ele><time>2023-03-17T09:56:57Z</time><name>PT484</name></trkpt>
<trkpt lat="53.170148" lon="-2.079405"><ele>169</ele><time>2023-03-17T09:57:02Z</time><name>PT485</name></trkpt>
<trkpt lat="53.170153" lon="-2.079344"><ele>167</ele><time>2023-03-17T09:57:05Z</time><name>PT486</name></trkpt>
<trkpt lat="53.170168" lon="-2.079275"><ele>166</ele><time>2023-03-17T09:57:09Z</time><name>PT487</name></trkpt>
<trkpt lat="53.170181" lon="-2.079205"><ele>166</ele><time>2023-03-17T09:57:12Z</time><name>PT488</name></trkpt>
<trkpt lat="53.170201" lon="-2.079145"><ele>167</ele><time>2023-03-17T09:57:15Z</time><name>PT489</name></trkpt>
<trkpt lat="53.170211" lon="-2.079095"><ele>167</ele><time>2023-03-17T09:57:18Z</time><name>PT490</name></trkpt>
<trkpt lat="53.170210" lon="-2.078974"><ele>163</ele><time>2023-03-17T09:57:21Z</time><name>PT491</name></trkpt>
<trkpt lat="53.170218" lon="-2.078905"><ele>163</ele><time>2023-03-17T09:57:24Z</time><name>PT492</name></trkpt>
<trkpt lat="53.170245" lon="-2.078826"><ele>163</ele><time>2023-03-17T09:57:29Z</time><name>PT493</name></trkpt>
<trkpt lat="53.170248" lon="-2.078763"><ele>161</ele><time>2023-03-17T09:57:32Z</time><name>PT494</name></trkpt>
<trkpt lat="53.170261" lon="-2.078698"><ele>160</ele><time>2023-03-17T09:57:36Z</time><name>PT495</name></trkpt>
<trkpt lat="53.170279" lon="-2.078651"><ele>161</ele><time>2023-03-17T09:57:39Z</time><name>PT496</name></trkpt>
<trkpt lat="53.170292" lon="-2.078582"><ele>160</ele><time>2023-03-17T09:57:42Z</time><name>PT497</name></trkpt>
<trkpt lat="53.170291" lon="-2.078513"><ele>161</ele><time>2023-03-17T09:57:45Z</time><name>PT498</name></trkpt>
<trkpt lat="53.170310" lon="-2.078443"><ele>161</ele><time>2023-03-17T09:57:50Z</time><name>PT499</name></trkpt>
<trkpt lat="53.170324" lon="-2.078397"><ele>162</ele><time>2023-03-17T09:57:53Z</time><name>PT500</name></trkpt>
<trkpt lat="53.170326" lon="-2.078357"><ele>160</ele><time>2023-03-17T09:57:56Z</time><name>PT501</name></trkpt>
<trkpt lat="53.170336" lon="-2.078267"><ele>161</ele><time>2023-03-17T09:58:00Z</time><name>PT502</name></trkpt>
<trkpt lat="53.170353" lon="-2.078193"><ele>163</ele><time>2023-03-17T09:58:03Z</time><name>PT503</name></trkpt>
<trkpt lat="53.170353" lon="-2.078135"><ele>162</ele><time>2023-03-17T09:58:06Z</time><name>PT504</name></trkpt>
<trkpt lat="53.170367" lon="-2.078081"><ele>163</ele><time>2023-03-17T09:58:09Z</time><name>PT505</name></trkpt>
<trkpt lat="53.170380" lon="-2.078009"><ele>163</ele><time>2023-03-17T09:58:14Z</time><name>PT506</name></trkpt>
<trkpt lat="53.170394" lon="-2.077935"><ele>163</ele><time>2023-03-17T09:58:18Z</time><name>PT507</name></trkpt>
<trkpt lat="53.170405" lon="-2.077882"><ele>161</ele><time>2023-03-17T09:58:21Z</time><name>PT508</name></trkpt>
<trkpt lat="53.170413" lon="-2.077738"><ele>168</ele><time>2023-03-17T09:58:24Z</time><name>PT509</name></trkpt>
<trkpt lat="53.170420" lon="-2.077631"><ele>169</ele><time>2023-03-17T09:58:29Z</time><name>PT510</name></trkpt>
<trkpt lat="53.170433" lon="-2.077517"><ele>172</ele><time>2023-03-17T09:58:32Z</time><name>PT511</name></trkpt>
<trkpt lat="53.170446" lon="-2.077427"><ele>173</ele><time>2023-03-17T09:58:36Z</time><name>PT512</name></trkpt>
<trkpt lat="53.170456" lon="-2.077364"><ele>172</ele><time>2023-03-17T09:58:39Z</time><name>PT513</name></trkpt>
<trkpt lat="53.170469" lon="-2.077282"><ele>173</ele><time>2023-03-17T09:58:42Z</time><name>PT514</name></trkpt>
<trkpt lat="53.170474" lon="-2.077226"><ele>171</ele><time>2023-03-17T09:58:45Z</time><name>PT515</name></trkpt>
<trkpt lat="53.170495" lon="-2.077153"><ele>171</ele><time>2023-03-17T09:58:50Z</time><name>PT516</name></trkpt>
<trkpt lat="53.170494" lon="-2.077110"><ele>170</ele><time>2023-03-17T09:58:53Z</time><name>PT517</name></trkpt>
<trkpt lat="53.170491" lon="-2.077069"><ele>167</ele><time>2023-03-17T09:58:56Z</time><name>PT518</name></trkpt>
<trkpt lat="53.170502" lon="-2.077038"><ele>165</ele><time>2023-03-17T09:58:59Z</time><name>PT519</name></trkpt>
<trkpt lat="53.170506" lon="-2.076985"><ele>163</ele><time>2023-03-17T09:59:03Z</time><name>PT520</name></trkpt>
<trkpt lat="53.170529" lon="-2.076942"><ele>164</ele><time>2023-03-17T09:59:06Z</time><name>PT521</name></trkpt>
<trkpt lat="53.170541" lon="-2.076875"><ele>163</ele><time>2023-03-17T09:59:09Z</time><name>PT522</name></trkpt>
<trkpt lat="53.170577" lon="-2.076812"><ele>165</ele><time>2023-03-17T09:59:12Z</time><name>PT523</name></trkpt>
<trkpt lat="53.170594" lon="-2.076768"><ele>166</ele><time>2023-03-17T09:59:15Z</time><name>PT524</name></trkpt>
<trkpt lat="53.170608" lon="-2.076720"><ele>166</ele><time>2023-03-17T09:59:18Z</time><name>PT525</name></trkpt>
<trkpt lat="53.170629" lon="-2.076652"><ele>168</ele><time>2023-03-17T09:59:21Z</time><name>PT526</name></trkpt>
<trkpt lat="53.170639" lon="-2.076605"><ele>170</ele><time>2023-03-17T09:59:24Z</time><name>PT527</name></trkpt>
<trkpt lat="53.170665" lon="-2.076527"><ele>168</ele><time>2023-03-17T09:59:29Z</time><name>PT528</name></trkpt>
<trkpt lat="53.170675" lon="-2.076467"><ele>167</ele><time>2023-03-17T09:59:32Z</time><name>PT529</name></trkpt>
<trkpt lat="53.170701" lon="-2.076401"><ele>168</ele><time>2023-03-17T09:59:35Z</time><name>PT530</name></trkpt>
<trkpt lat="53.170723" lon="-2.076345"><ele>164</ele><time>2023-03-17T09:59:39Z</time><name>PT531</name></trkpt>
<trkpt lat="53.170738" lon="-2.076309"><ele>162</ele><time>2023-03-17T09:59:42Z</time><name>PT532</name></trkpt>
<trkpt lat="53.170758" lon="-2.076254"><ele>164</ele><time>2023-03-17T09:59:45Z</time><name>PT533</name></trkpt>
<trkpt lat="53.170760" lon="-2.076163"><ele>164</ele><time>2023-03-17T09:59:48Z</time><name>PT534</name></trkpt>
<trkpt lat="53.170783" lon="-2.076084"><ele>164</ele><time>2023-03-17T09:59:51Z</time><name>PT535</name></trkpt>
<trkpt lat="53.170793" lon="-2.076043"><ele>164</ele><time>2023-03-17T09:59:54Z</time><name>PT536</name></trkpt>
<trkpt lat="53.170806" lon="-2.075996"><ele>164</ele><time>2023-03-17T09:59:57Z</time><name>PT537</name></trkpt>
<trkpt lat="53.170815" lon="-2.075921"><ele>164</ele><time>2023-03-17T10:00:02Z</time><name>PT538</name></trkpt>
<trkpt lat="53.170839" lon="-2.075828"><ele>166</ele><time>2023-03-17T10:00:06Z</time><name>PT539</name></trkpt>
<trkpt lat="53.170870" lon="-2.075755"><ele>166</ele><time>2023-03-17T10:00:09Z</time><name>PT540</name></trkpt>
<trkpt lat="53.170883" lon="-2.075691"><ele>166</ele><time>2023-03-17T10:00:12Z</time><name>PT541</name></trkpt>
<trkpt lat="53.170904" lon="-2.075615"><ele>164</ele><time>2023-03-17T10:00:17Z</time><name>PT542</name></trkpt>
<trkpt lat="53.170926" lon="-2.075566"><ele>165</ele><time>2023-03-17T10:00:20Z</time><name>PT543</name></trkpt>
<trkpt lat="53.170926" lon="-2.075510"><ele>164</ele><time>2023-03-17T10:00:23Z</time><name>PT544</name></trkpt>
<trkpt lat="53.170952" lon="-2.075443"><ele>166</ele><time>2023-03-17T10:00:26Z</time><name>PT545</name></trkpt>
<trkpt lat="53.170966" lon="-2.075379"><ele>163</ele><time>2023-03-17T10:00:30Z</time><name>PT546</name></trkpt>
<trkpt lat="53.170990" lon="-2.075283"><ele>162</ele><time>2023-03-17T10:00:33Z</time><name>PT547</name></trkpt>
<trkpt lat="53.171025" lon="-2.075190"><ele>164</ele><time>2023-03-17T10:00:38Z</time><name>PT548</name></trkpt>
<trkpt lat="53.171040" lon="-2.075121"><ele>166</ele><time>2023-03-17T10:00:41Z</time><name>PT549</name></trkpt>
<trkpt lat="53.171053" lon="-2.075087"><ele>164</ele><time>2023-03-17T10:00:44Z</time><name>PT550</name></trkpt>
<trkpt lat="53.171063" lon="-2.075036"><ele>162</ele><time>2023-03-17T10:00:48Z</time><name>PT551</name></trkpt>
<trkpt lat="53.171079" lon="-2.074991"><ele>162</ele><time>2023-03-17T10:00:51Z</time><name>PT552</name></trkpt>
<trkpt lat="53.171103" lon="-2.074948"><ele>159</ele><time>2023-03-17T10:00:54Z</time><name>PT553</name></trkpt>
<trkpt lat="53.171129" lon="-2.074876"><ele>159</ele><time>2023-03-17T10:00:59Z</time><name>PT554</name></trkpt>
<trkpt lat="53.171148" lon="-2.074784"><ele>159</ele><time>2023-03-17T10:01:03Z</time><name>PT555</name></trkpt>
<trkpt lat="53.171153" lon="-2.074697"><ele>161</ele><time>2023-03-17T10:01:06Z</time><name>PT556</name></trkpt>
<trkpt lat="53.171168" lon="-2.074630"><ele>162</ele><time>2023-03-17T10:01:09Z</time><name>PT557</name></trkpt>
<trkpt lat="53.171189" lon="-2.074514"><ele>164</ele><time>2023-03-17T10:01:14Z</time><name>PT558</name></trkpt>
<trkpt lat="53.171197" lon="-2.074447"><ele>164</ele><time>2023-03-17T10:01:17Z</time><name>PT559</name></trkpt>
<trkpt lat="53.171205" lon="-2.074368"><ele>165</ele><time>2023-03-17T10:01:21Z</time><name>PT560</name></trkpt>
<trkpt lat="53.171226" lon="-2.074279"><ele>167</ele><time>2023-03-17T10:01:24Z</time><name>PT561</name></trkpt>
<trkpt lat="53.171238" lon="-2.074199"><ele>168</ele><time>2023-03-17T10:01:29Z</time><name>PT562</name></trkpt>
<trkpt lat="53.171247" lon="-2.074119"><ele>168</ele><time>2023-03-17T10:01:33Z</time><name>PT563</name></trkpt>
<trkpt lat="53.171276" lon="-2.074038"><ele>169</ele><time>2023-03-17T10:01:36Z</time><name>PT564</name></trkpt>
<trkpt lat="53.171282" lon="-2.073977"><ele>168</ele><time>2023-03-17T10:01:39Z</time><name>PT565</name></trkpt>
<trkpt lat="53.171292" lon="-2.073909"><ele>169</ele><time>2023-03-17T10:01:44Z</time><name>PT566</name></trkpt>
<trkpt lat="53.171303" lon="-2.073854"><ele>171</ele><time>2023-03-17T10:01:47Z</time><name>PT567</name></trkpt>
<trkpt lat="53.171331" lon="-2.073815"><ele>173</ele><time>2023-03-17T10:01:50Z</time><name>PT568</name></trkpt>
<trkpt lat="53.171337" lon="-2.073764"><ele>172</ele><time>2023-03-17T10:01:54Z</time><name>PT569</name></trkpt>
<trkpt lat="53.171355" lon="-2.073717"><ele>170</ele><time>2023-03-17T10:01:57Z</time><name>PT570</name></trkpt>
<trkpt lat="53.171349" lon="-2.073624"><ele>167</ele><time>2023-03-17T10:02:00Z</time><name>PT571</name></trkpt>
<trkpt lat="53.171357" lon="-2.073539"><ele>167</ele><time>2023-03-17T10:02:05Z</time><name>PT572</name></trkpt>
<trkpt lat="53.171362" lon="-2.073469"><ele>165</ele><time>2023-03-17T10:02:08Z</time><name>PT573</name></trkpt>
<trkpt lat="53.171369" lon="-2.073398"><ele>165</ele><time>2023-03-17T10:02:12Z</time><name>PT574</name></trkpt>
<trkpt lat="53.171388" lon="-2.073325"><ele>168</ele><time>2023-03-17T10:02:15Z</time><name>PT575</name></trkpt>
<trkpt lat="53.171407" lon="-2.073255"><ele>168</ele><time>2023-03-17T10:02:20Z</time><name>PT576</name></trkpt>
<trkpt lat="53.171431" lon="-2.073187"><ele>168</ele><time>2023-03-17T10:02:24Z</time><name>PT577</name></trkpt>
<trkpt lat="53.171458" lon="-2.073109"><ele>169</ele><time>2023-03-17T10:02:27Z</time><name>PT578</name></trkpt>
<trkpt lat="53.171485" lon="-2.073066"><ele>170</ele><time>2023-03-17T10:02:30Z</time><name>PT579</name></trkpt>
<trkpt lat="53.171504" lon="-2.073022"><ele>165</ele><time>2023-03-17T10:02:33Z</time><name>PT580</name></trkpt>
<trkpt lat="53.171527" lon="-2.072960"><ele>166</ele><time>2023-03-17T10:02:36Z</time><name>PT581</name></trkpt>
<trkpt lat="53.171531" lon="-2.072878"><ele>168</ele><time>2023-03-17T10:02:41Z</time><name>PT582</name></trkpt>
<trkpt lat="53.171537" lon="-2.072823"><ele>168</ele><time>2023-03-17T10:02:44Z</time><name>PT583</name></trkpt>
<trkpt lat="53.171532" lon="-2.072773"><ele>167</ele><time>2023-03-17T10:02:47Z</time><name>PT584</name></trkpt>
<trkpt lat="53.171550" lon="-2.072716"><ele>166</ele><time>2023-03-17T10:02:50Z</time><name>PT585</name></trkpt>
<trkpt lat="53.171564" lon="-2.072630"><ele>167</ele><time>2023-03-17T10:02:54Z</time><name>PT586</name></trkpt>
<trkpt lat="53.171576" lon="-2.072578"><ele>166</ele><time>2023-03-17T10:02:57Z</time><name>PT587</name></trkpt>
<trkpt lat="53.171608" lon="-2.072497"><ele>166</ele><time>2023-03-17T10:03:00Z</time><name>PT588</name></trkpt>
<trkpt lat="53.171615" lon="-2.072416"><ele>165</ele><time>2023-03-17T10:03:05Z</time><name>PT589</name></trkpt>
<trkpt lat="53.171654" lon="-2.072277"><ele>168</ele><time>2023-03-17T10:03:09Z</time><name>PT590</name></trkpt>
<trkpt lat="53.171697" lon="-2.072163"><ele>170</ele><time>2023-03-17T10:03:12Z</time><name>PT591</name></trkpt>
<trkpt lat="53.171720" lon="-2.072089"><ele>171</ele><time>2023-03-17T10:03:15Z</time><name>PT592</name></trkpt>
<trkpt lat="53.171739" lon="-2.072019"><ele>171</ele><time>2023-03-17T10:03:18Z</time><name>PT593</name></trkpt>
<trkpt lat="53.171762" lon="-2.071949"><ele>171</ele><time>2023-03-17T10:03:21Z</time><name>PT594</name></trkpt>
<trkpt lat="53.171776" lon="-2.071886"><ele>172</ele><time>2023-03-17T10:03:24Z</time><name>PT595</name></trkpt>
<trkpt lat="53.171803" lon="-2.071788"><ele>173</ele><time>2023-03-17T10:03:29Z</time><name>PT596</name></trkpt>
<trkpt lat="53.171818" lon="-2.071715"><ele>174</ele><time>2023-03-17T10:03:33Z</time><name>PT597</name></trkpt>
<trkpt lat="53.171827" lon="-2.071655"><ele>173</ele><time>2023-03-17T10:03:36Z</time><name>PT598</name></trkpt>
<trkpt lat="53.171835" lon="-2.071567"><ele>173</ele><time>2023-03-17T10:03:39Z</time><name>PT599</name></trkpt>
<trkpt lat="53.171843" lon="-2.071477"><ele>173</ele><time>2023-03-17T10:03:44Z</time><name>PT600</name></trkpt>
<trkpt lat="53.171849" lon="-2.071412"><ele>173</ele><time>2023-03-17T10:03:47Z</time><name>PT601</name></trkpt>
<trkpt lat="53.171856" lon="-2.071373"><ele>173</ele><time>2023-03-17T10:03:50Z</time><name>PT602</name></trkpt>
<trkpt lat="53.171871" lon="-2.071343"><ele>173</ele><time>2023-03-17T10:03:53Z</time><name>PT603</name></trkpt>
<trkpt lat="53.171856" lon="-2.071257"><ele>172</ele><time>2023-03-17T10:03:57Z</time><name>PT604</name></trkpt>
<trkpt lat="53.171856" lon="-2.071197"><ele>173</ele><time>2023-03-17T10:04:00Z</time><name>PT605</name></trkpt>
<trkpt lat="53.171848" lon="-2.071118"><ele>172</ele><time>2023-03-17T10:04:03Z</time><name>PT606</name></trkpt>
<trkpt lat="53.171846" lon="-2.071067"><ele>172</ele><time>2023-03-17T10:04:06Z</time><name>PT607</name></trkpt>
<trkpt lat="53.171847" lon="-2.071024"><ele>170</ele><time>2023-03-17T10:04:09Z</time><name>PT608</name></trkpt>
<trkpt lat="53.171857" lon="-2.070975"><ele>169</ele><time>2023-03-17T10:04:12Z</time><name>PT609</name></trkpt>
<trkpt lat="53.171863" lon="-2.070946"><ele>169</ele><time>2023-03-17T10:04:15Z</time><name>PT610</name></trkpt>
<trkpt lat="53.171860" lon="-2.070897"><ele>169</ele><time>2023-03-17T10:04:18Z</time><name>PT611</name></trkpt>
<trkpt lat="53.171863" lon="-2.070826"><ele>166</ele><time>2023-03-17T10:04:23Z</time><name>PT612</name></trkpt>
<trkpt lat="53.171869" lon="-2.070772"><ele>166</ele><time>2023-03-17T10:04:26Z</time><name>PT613</name></trkpt>
<trkpt lat="53.171876" lon="-2.070657"><ele>168</ele><time>2023-03-17T10:04:30Z</time><name>PT614</name></trkpt>
<trkpt lat="53.171874" lon="-2.070646"><ele>169</ele><time>2023-03-17T10:04:33Z</time><name>PT615</name></trkpt>
<trkpt lat="53.171889" lon="-2.070545"><ele>165</ele><time>2023-03-17T10:04:38Z</time><name>PT616</name></trkpt>
<trkpt lat="53.171894" lon="-2.070467"><ele>165</ele><time>2023-03-17T10:04:41Z</time><name>PT617</name></trkpt>
<trkpt lat="53.171903" lon="-2.070396"><ele>164</ele><time>2023-03-17T10:04:44Z</time><name>PT618</name></trkpt>
<trkpt lat="53.171914" lon="-2.070338"><ele>164</ele><time>2023-03-17T10:04:47Z</time><name>PT619</name></trkpt>
<trkpt lat="53.171926" lon="-2.070274"><ele>163</ele><time>2023-03-17T10:04:51Z</time><name>PT620</name></trkpt>
<trkpt lat="53.171946" lon="-2.070197"><ele>163</ele><time>2023-03-17T10:04:54Z</time><name>PT621</name></trkpt>
<trkpt lat="53.171961" lon="-2.070132"><ele>164</ele><time>2023-03-17T10:04:59Z</time><name>PT622</name></trkpt>
<trkpt lat="53.171977" lon="-2.070070"><ele>164</ele><time>2023-03-17T10:05:02Z</time><name>PT623</name></trkpt>
<trkpt lat="53.171986" lon="-2.070022"><ele>164</ele><time>2023-03-17T10:05:05Z</time><name>PT624</name></trkpt>
<trkpt lat="53.172015" lon="-2.069971"><ele>163</ele><time>2023-03-17T10:05:09Z</time><name>PT625</name></trkpt>
<trkpt lat="53.172031" lon="-2.069924"><ele>161</ele><time>2023-03-17T10:05:12Z</time><name>PT626</name></trkpt>
<trkpt lat="53.172045" lon="-2.069877"><ele>160</ele><time>2023-03-17T10:05:17Z</time><name>PT627</name></trkpt>
<trkpt lat="53.172081" lon="-2.069823"><ele>162</ele><time>2023-03-17T10:05:21Z</time><name>PT628</name></trkpt>
<trkpt lat="53.172124" lon="-2.069784"><ele>164</ele><time>2023-03-17T10:05:24Z</time><name>PT629</name></trkpt>
<trkpt lat="53.172183" lon="-2.069745"><ele>166</ele><time>2023-03-17T10:05:27Z</time><name>PT630</name></trkpt>
<trkpt lat="53.172219" lon="-2.069732"><ele>167</ele><time>2023-03-17T10:05:30Z</time><name>PT631</name></trkpt>
<trkpt lat="53.172270" lon="-2.069718"><ele>168</ele><time>2023-03-17T10:05:35Z</time><name>PT632</name></trkpt>
<trkpt lat="53.172309" lon="-2.069702"><ele>169</ele><time>2023-03-17T10:05:38Z</time><name>PT633</name></trkpt>
<trkpt lat="53.172345" lon="-2.069675"><ele>169</ele><time>2023-03-17T10:05:41Z</time><name>PT634</name></trkpt>
<trkpt lat="53.172375" lon="-2.069644"><ele>169</ele><time>2023-03-17T10:05:45Z</time><name>PT635</name></trkpt>
<trkpt lat="53.172392" lon="-2.069622"><ele>169</ele><time>2023-03-17T10:05:48Z</time><name>PT636</name></trkpt>
<trkpt lat="53.172400" lon="-2.069614"><ele>169</ele><time>2023-03-17T10:05:51Z</time><name>PT637</name></trkpt>
<trkpt lat="53.172397" lon="-2.069614"><ele>169</ele><time>2023-03-17T10:05:54Z</time><name>PT638</name></trkpt>
<trkpt lat="53.172402" lon="-2.069617"><ele>168</ele><time>2023-03-17T10:05:57Z</time><name>PT639</name></trkpt>
<trkpt lat="53.172416" lon="-2.069579"><ele>167</ele><time>2023-03-17T10:06:09Z</time><name>PT640</name></trkpt>
<trkpt lat="53.172433" lon="-2.069570"><ele>169</ele><time>2023-03-17T10:06:12Z</time><name>PT641</name></trkpt>
<trkpt lat="53.172429" lon="-2.069580"><ele>169</ele><time>2023-03-17T10:06:15Z</time><name>PT642</name></trkpt>
<trkpt lat="53.172432" lon="-2.069578"><ele>169</ele><time>2023-03-17T10:06:20Z</time><name>PT643</name></trkpt>
<trkpt lat="53.172439" lon="-2.069570"><ele>169</ele><time>2023-03-17T10:06:24Z</time><name>PT644</name></trkpt>
<trkpt lat="53.172443" lon="-2.069560"><ele>168</ele><time>2023-03-17T10:06:30Z</time><name>PT645</name></trkpt>
<trkpt lat="53.172450" lon="-2.069549"><ele>168</ele><time>2023-03-17T10:06:33Z</time><name>PT646</name></trkpt>
<trkpt lat="53.172457" lon="-2.069562"><ele>167</ele><time>2023-03-17T10:06:38Z</time><name>PT647</name></trkpt>
<trkpt lat="53.172456" lon="-2.069561"><ele>167</ele><time>2023-03-17T10:06:42Z</time><name>PT648</name></trkpt>
<trkpt lat="53.172462" lon="-2.069566"><ele>166</ele><time>2023-03-17T10:07:20Z</time><name>PT649</name></trkpt>
<trkpt lat="53.172463" lon="-2.069577"><ele>165</ele><time>2023-03-17T10:07:23Z</time><name>PT650</name></trkpt>
<trkpt lat="53.172479" lon="-2.069609"><ele>165</ele><time>2023-03-17T10:07:27Z</time><name>PT651</name></trkpt>
<trkpt lat="53.172505" lon="-2.069599"><ele>165</ele><time>2023-03-17T10:07:30Z</time><name>PT652</name></trkpt>
<trkpt lat="53.172525" lon="-2.069580"><ele>164</ele><time>2023-03-17T10:07:33Z</time><name>PT653</name></trkpt>
<trkpt lat="53.172541" lon="-2.069572"><ele>164</ele><time>2023-03-17T10:07:36Z</time><name>PT654</name></trkpt>
<trkpt lat="53.172569" lon="-2.069555"><ele>162</ele><time>2023-03-17T10:07:39Z</time><name>PT655</name></trkpt>
<trkpt lat="53.172608" lon="-2.069566"><ele>164</ele><time>2023-03-17T10:07:44Z</time><name>PT656</name></trkpt>
<trkpt lat="53.172615" lon="-2.069582"><ele>162</ele><time>2023-03-17T10:07:47Z</time><name>PT657</name></trkpt>
<trkpt lat="53.172619" lon="-2.069589"><ele>162</ele><time>2023-03-17T10:07:51Z</time><name>PT658</name></trkpt>
<trkpt lat="53.172627" lon="-2.069574"><ele>160</ele><time>2023-03-17T10:08:02Z</time><name>PT659</name></trkpt>
<trkpt lat="53.172648" lon="-2.069540"><ele>159</ele><time>2023-03-17T10:08:05Z</time><name>PT660</name></trkpt>
<trkpt lat="53.172673" lon="-2.069510"><ele>157</ele><time>2023-03-17T10:08:08Z</time><name>PT661</name></trkpt>
<trkpt lat="53.172680" lon="-2.069498"><ele>157</ele><time>2023-03-17T10:08:12Z</time><name>PT662</name></trkpt>
<trkpt lat="53.172701" lon="-2.069503"><ele>157</ele><time>2023-03-17T10:08:15Z</time><name>PT663</name></trkpt>
<trkpt lat="53.172715" lon="-2.069482"><ele>154</ele><time>2023-03-17T10:08:18Z</time><name>PT664</name></trkpt>
<trkpt lat="53.172760" lon="-2.069477"><ele>154</ele><time>2023-03-17T10:08:21Z</time><name>PT665</name></trkpt>
<trkpt lat="53.172837" lon="-2.069468"><ele>156</ele><time>2023-03-17T10:08:26Z</time><name>PT666</name></trkpt>
<trkpt lat="53.172901" lon="-2.069459"><ele>158</ele><time>2023-03-17T10:08:30Z</time><name>PT667</name></trkpt>
<trkpt lat="53.172934" lon="-2.069476"><ele>158</ele><time>2023-03-17T10:08:33Z</time><name>PT668</name></trkpt>
<trkpt lat="53.172941" lon="-2.069482"><ele>159</ele><time>2023-03-17T10:08:36Z</time><name>PT669</name></trkpt>
<trkpt lat="53.172977" lon="-2.069476"><ele>161</ele><time>2023-03-17T10:08:53Z</time><name>PT670</name></trkpt>
<trkpt lat="53.173003" lon="-2.069498"><ele>161</ele><time>2023-03-17T10:08:56Z</time><name>PT671</name></trkpt>
<trkpt lat="53.173007" lon="-2.069507"><ele>161</ele><time>2023-03-17T10:08:59Z</time><name>PT672</name></trkpt>
<trkpt lat="53.173032" lon="-2.069506"><ele>160</ele><time>2023-03-17T10:09:12Z</time><name>PT673</name></trkpt>
<trkpt lat="53.173044" lon="-2.069513"><ele>160</ele><time>2023-03-17T10:09:17Z</time><name>PT674</name></trkpt>
<trkpt lat="53.173053" lon="-2.069517"><ele>159</ele><time>2023-03-17T10:09:29Z</time><name>PT675</name></trkpt>
<trkpt lat="53.173098" lon="-2.069516"><ele>158</ele><time>2023-03-17T10:09:33Z</time><name>PT676</name></trkpt>
<trkpt lat="53.173126" lon="-2.069496"><ele>158</ele><time>2023-03-17T10:09:36Z</time><name>PT677</name></trkpt>
<trkpt lat="53.173141" lon="-2.069497"><ele>159</ele><time>2023-03-17T10:09:39Z</time><name>PT678</name></trkpt>
<trkpt lat="53.173190" lon="-2.069480"><ele>159</ele><time>2023-03-17T10:09:44Z</time><name>PT679</name></trkpt>
<trkpt lat="53.173226" lon="-2.069480"><ele>158</ele><time>2023-03-17T10:09:47Z</time><name>PT680</name></trkpt>
<trkpt lat="53.173268" lon="-2.069475"><ele>160</ele><time>2023-03-17T10:09:50Z</time><name>PT681</name></trkpt>
<trkpt lat="53.173301" lon="-2.069466"><ele>160</ele><time>2023-03-17T10:09:53Z</time><name>PT682</name></trkpt>
<trkpt lat="53.173341" lon="-2.069446"><ele>162</ele><time>2023-03-17T10:09:56Z</time><name>PT683</name></trkpt>
<trkpt lat="53.173388" lon="-2.069431"><ele>161</ele><time>2023-03-17T10:10:00Z</time><name>PT684</name></trkpt>
<trkpt lat="53.173441" lon="-2.069395"><ele>161</ele><time>2023-03-17T10:10:03Z</time><name>PT685</name></trkpt>
<trkpt lat="53.173482" lon="-2.069373"><ele>161</ele><time>2023-03-17T10:10:06Z</time><name>PT686</name></trkpt>
<trkpt lat="53.173524" lon="-2.069350"><ele>161</ele><time>2023-03-17T10:10:09Z</time><name>PT687</name></trkpt>
<trkpt lat="53.173582" lon="-2.069334"><ele>163</ele><time>2023-03-17T10:10:14Z</time><name>PT688</name></trkpt>
<trkpt lat="53.173617" lon="-2.069316"><ele>163</ele><time>2023-03-17T10:10:17Z</time><name>PT689</name></trkpt>
<trkpt lat="53.173641" lon="-2.069285"><ele>163</ele><time>2023-03-17T10:10:20Z</time><name>PT690</name></trkpt>
<trkpt lat="53.173676" lon="-2.069267"><ele>163</ele><time>2023-03-17T10:10:23Z</time><name>PT691</name></trkpt>
<trkpt lat="53.173712" lon="-2.069248"><ele>162</ele><time>2023-03-17T10:10:27Z</time><name>PT692</name></trkpt>
<trkpt lat="53.173742" lon="-2.069225"><ele>162</ele><time>2023-03-17T10:10:30Z</time><name>PT693</name></trkpt>
<trkpt lat="53.173776" lon="-2.069207"><ele>162</ele><time>2023-03-17T10:10:33Z</time><name>PT694</name></trkpt>
<trkpt lat="53.173826" lon="-2.069155"><ele>163</ele><time>2023-03-17T10:10:36Z</time><name>PT695</name></trkpt>
<trkpt lat="53.173859" lon="-2.069143"><ele>164</ele><time>2023-03-17T10:10:39Z</time><name>PT696</name></trkpt>
<trkpt lat="53.173891" lon="-2.069114"><ele>164</ele><time>2023-03-17T10:10:42Z</time><name>PT697</name></trkpt>
<trkpt lat="53.173918" lon="-2.069093"><ele>162</ele><time>2023-03-17T10:10:45Z</time><name>PT698</name></trkpt>
<trkpt lat="53.173946" lon="-2.069072"><ele>161</ele><time>2023-03-17T10:10:48Z</time><name>PT699</name></trkpt>
<trkpt lat="53.173976" lon="-2.069042"><ele>160</ele><time>2023-03-17T10:10:53Z</time><name>PT700</name></trkpt>
<trkpt lat="53.174002" lon="-2.069013"><ele>161</ele><time>2023-03-17T10:10:56Z</time><name>PT701</name></trkpt>
<trkpt lat="53.174054" lon="-2.068976"><ele>163</ele><time>2023-03-17T10:11:00Z</time><name>PT702</name></trkpt>
<trkpt lat="53.174075" lon="-2.068962"><ele>162</ele><time>2023-03-17T10:11:03Z</time><name>PT703</name></trkpt>
<trkpt lat="53.174108" lon="-2.068928"><ele>162</ele><time>2023-03-17T10:11:06Z</time><name>PT704</name></trkpt>
<trkpt lat="53.174134" lon="-2.068906"><ele>162</ele><time>2023-03-17T10:11:09Z</time><name>PT705</name></trkpt>
<trkpt lat="53.174164" lon="-2.068882"><ele>161</ele><time>2023-03-17T10:11:14Z</time><name>PT706</name></trkpt>
<trkpt lat="53.174186" lon="-2.068856"><ele>162</ele><time>2023-03-17T10:11:17Z</time><name>PT707</name></trkpt>
<trkpt lat="53.174216" lon="-2.068824"><ele>163</ele><time>2023-03-17T10:11:21Z</time><name>PT708</name></trkpt>
<trkpt lat="53.174237" lon="-2.068806"><ele>162</ele><time>2023-03-17T10:11:24Z</time><name>PT709</name></trkpt>
<trkpt lat="53.174255" lon="-2.068763"><ele>163</ele><time>2023-03-17T10:11:27Z</time><name>PT710</name></trkpt>
<trkpt lat="53.174277" lon="-2.068715"><ele>163</ele><time>2023-03-17T10:11:32Z</time><name>PT711</name></trkpt>
<trkpt lat="53.174291" lon="-2.068695"><ele>163</ele><time>2023-03-17T10:11:35Z</time><name>PT712</name></trkpt>
<trkpt lat="53.174320" lon="-2.068684"><ele>163</ele><time>2023-03-17T10:11:39Z</time><name>PT713</name></trkpt>
<trkpt lat="53.174342" lon="-2.068647"><ele>163</ele><time>2023-03-17T10:11:42Z</time><name>PT714</name></trkpt>
<trkpt lat="53.174371" lon="-2.068602"><ele>163</ele><time>2023-03-17T10:11:47Z</time><name>PT715</name></trkpt>
<trkpt lat="53.174381" lon="-2.068566"><ele>163</ele><time>2023-03-17T10:11:51Z</time><name>PT716</name></trkpt>
<trkpt lat="53.174397" lon="-2.068513"><ele>163</ele><time>2023-03-17T10:11:54Z</time><name>PT717</name></trkpt>
<trkpt lat="53.174419" lon="-2.068474"><ele>162</ele><time>2023-03-17T10:11:57Z</time><name>PT718</name></trkpt>
<trkpt lat="53.174439" lon="-2.068418"><ele>164</ele><time>2023-03-17T10:12:00Z</time><name>PT719</name></trkpt>
<trkpt lat="53.174464" lon="-2.068361"><ele>164</ele><time>2023-03-17T10:12:05Z</time><name>PT720</name></trkpt>
<trkpt lat="53.174490" lon="-2.068317"><ele>163</ele><time>2023-03-17T10:12:08Z</time><name>PT721</name></trkpt>
<trkpt lat="53.174513" lon="-2.068253"><ele>163</ele><time>2023-03-17T10:12:12Z</time><name>PT722</name></trkpt>
<trkpt lat="53.174575" lon="-2.068169"><ele>160</ele><time>2023-03-17T10:12:15Z</time><name>PT723</name></trkpt>
<trkpt lat="53.174607" lon="-2.068099"><ele>158</ele><time>2023-03-17T10:12:18Z</time><name>PT724</name></trkpt>
<trkpt lat="53.174638" lon="-2.068014"><ele>157</ele><time>2023-03-17T10:12:23Z</time><name>PT725</name></trkpt>
<trkpt lat="53.174663" lon="-2.067968"><ele>156</ele><time>2023-03-17T10:12:26Z</time><name>PT726</name></trkpt>
<trkpt lat="53.174705" lon="-2.067939"><ele>154</ele><time>2023-03-17T10:12:29Z</time><name>PT727</name></trkpt>
<trkpt lat="53.174750" lon="-2.067887"><ele>155</ele><time>2023-03-17T10:12:32Z</time><name>PT728</name></trkpt>
<trkpt lat="53.174769" lon="-2.067856"><ele>155</ele><time>2023-03-17T10:12:35Z</time><name>PT729</name></trkpt>
<trkpt lat="53.174791" lon="-2.067817"><ele>155</ele><time>2023-03-17T10:12:38Z</time><name>PT730</name></trkpt>
<trkpt lat="53.174814" lon="-2.067761"><ele>156</ele><time>2023-03-17T10:12:41Z</time><name>PT731</name></trkpt>
<trkpt lat="53.174842" lon="-2.067716"><ele>157</ele><time>2023-03-17T10:12:45Z</time><name>PT732</name></trkpt>
<trkpt lat="53.174859" lon="-2.067644"><ele>157</ele><time>2023-03-17T10:12:48Z</time><name>PT733</name></trkpt>
<trkpt lat="53.174874" lon="-2.067586"><ele>158</ele><time>2023-03-17T10:12:53Z</time><name>PT734</name></trkpt>
<trkpt lat="53.174884" lon="-2.067547"><ele>158</ele><time>2023-03-17T10:12:56Z</time><name>PT735</name></trkpt>
<trkpt lat="53.174892" lon="-2.067515"><ele>159</ele><time>2023-03-17T10:13:00Z</time><name>PT736</name></trkpt>
<trkpt lat="53.174912" lon="-2.067461"><ele>157</ele><time>2023-03-17T10:13:03Z</time><name>PT737</name></trkpt>
<trkpt lat="53.174958" lon="-2.067426"><ele>156</ele><time>2023-03-17T10:13:06Z</time><name>PT738</name></trkpt>
<trkpt lat="53.174985" lon="-2.067416"><ele>157</ele><time>2023-03-17T10:13:09Z</time><name>PT739</name></trkpt>
<trkpt lat="53.174989" lon="-2.067396"><ele>156</ele><time>2023-03-17T10:13:14Z</time><name>PT740</name></trkpt>
<trkpt lat="53.174983" lon="-2.067346"><ele>156</ele><time>2023-03-17T10:13:27Z</time><name>PT741</name></trkpt>
<trkpt lat="53.174984" lon="-2.067336"><ele>156</ele><time>2023-03-17T10:13:32Z</time><name>PT742</name></trkpt>
<trkpt lat="53.174984" lon="-2.067284"><ele>158</ele><time>2023-03-17T10:13:39Z</time><name>PT743</name></trkpt>
<trkpt lat="53.174978" lon="-2.067229"><ele>158</ele><time>2023-03-17T10:13:42Z</time><name>PT744</name></trkpt>
<trkpt lat="53.174972" lon="-2.067183"><ele>158</ele><time>2023-03-17T10:13:45Z</time><name>PT745</name></trkpt>
<trkpt lat="53.174971" lon="-2.067172"><ele>158</ele><time>2023-03-17T10:14:03Z</time><name>PT746</name></trkpt>
<trkpt lat="53.174967" lon="-2.067165"><ele>159</ele><time>2023-03-17T10:14:17Z</time><name>PT747</name></trkpt>
<trkpt lat="53.174967" lon="-2.067164"><ele>160</ele><time>2023-03-17T10:14:21Z</time><name>PT748</name></trkpt>
<trkpt lat="53.174972" lon="-2.067149"><ele>160</ele><time>2023-03-17T10:14:35Z</time><name>PT749</name></trkpt>
<trkpt lat="53.174958" lon="-2.067143"><ele>159</ele><time>2023-03-17T10:14:38Z</time><name>PT750</name></trkpt>
<trkpt lat="53.174966" lon="-2.067170"><ele>161</ele><time>2023-03-17T10:14:42Z</time><name>PT751</name></trkpt>
<trkpt lat="53.174972" lon="-2.067165"><ele>162</ele><time>2023-03-17T10:14:45Z</time><name>PT752</name></trkpt>
<trkpt lat="53.174977" lon="-2.067156"><ele>162</ele><time>2023-03-17T10:14:51Z</time><name>PT753</name></trkpt>
<trkpt lat="53.174968" lon="-2.067152"><ele>162</ele><time>2023-03-17T10:14:56Z</time><name>PT754</name></trkpt>
<trkpt lat="53.174966" lon="-2.067153"><ele>162</ele><time>2023-03-17T10:15:00Z</time><name>PT755</name></trkpt>
<trkpt lat="53.174973" lon="-2.067127"><ele>164</ele><time>2023-03-17T10:15:50Z</time><name>PT756</name></trkpt>
<trkpt lat="53.174980" lon="-2.067098"><ele>164</ele><time>2023-03-17T10:15:54Z</time><name>PT757</name></trkpt>
<trkpt lat="53.174986" lon="-2.067081"><ele>166</ele><time>2023-03-17T10:16:03Z</time><name>PT758</name></trkpt>
<trkpt lat="53.174982" lon="-2.067077"><ele>169</ele><time>2023-03-17T10:16:35Z</time><name>PT759</name></trkpt>
<trkpt lat="53.174980" lon="-2.067087"><ele>168</ele><time>2023-03-17T10:16:57Z</time><name>PT760</name></trkpt>
<trkpt lat="53.174974" lon="-2.067081"><ele>169</ele><time>2023-03-17T10:17:00Z</time><name>PT761</name></trkpt>
<trkpt lat="53.174970" lon="-2.067098"><ele>168</ele><time>2023-03-17T10:17:15Z</time><name>PT762</name></trkpt>
<trkpt lat="53.174981" lon="-2.067111"><ele>167</ele><time>2023-03-17T10:17:18Z</time><name>PT763</name></trkpt>
<trkpt lat="53.174989" lon="-2.067113"><ele>168</ele><time>2023-03-17T10:17:21Z</time><name>PT764</name></trkpt>
<trkpt lat="53.174993" lon="-2.067112"><ele>168</ele><time>2023-03-17T10:17:26Z</time><name>PT765</name></trkpt>
<trkpt lat="53.174992" lon="-2.067099"><ele>168</ele><time>2023-03-17T10:18:05Z</time><name>PT766</name></trkpt>
<trkpt lat="53.174992" lon="-2.067086"><ele>168</ele><time>2023-03-17T10:18:09Z</time><name>PT767</name></trkpt>
<trkpt lat="53.174999" lon="-2.067103"><ele>174</ele><time>2023-03-17T10:18:33Z</time><name>PT768</name></trkpt>
<trkpt lat="53.175005" lon="-2.067104"><ele>174</ele><time>2023-03-17T10:18:38Z</time><name>PT769</name></trkpt>
<trkpt lat="53.174997" lon="-2.067090"><ele>174</ele><time>2023-03-17T10:18:54Z</time><name>PT770</name></trkpt>
<trkpt lat="53.174998" lon="-2.067081"><ele>175</ele><time>2023-03-17T10:19:47Z</time><name>PT771</name></trkpt>
<trkpt lat="53.174996" lon="-2.067074"><ele>175</ele><time>2023-03-17T10:19:51Z</time><name>PT772</name></trkpt>
<trkpt lat="53.175000" lon="-2.067103"><ele>181</ele><time>2023-03-17T10:20:24Z</time><name>PT773</name></trkpt>
<trkpt lat="53.175001" lon="-2.067098"><ele>180</ele><time>2023-03-17T10:20:27Z</time><name>PT774</name></trkpt>
<trkpt lat="53.174992" lon="-2.067112"><ele>178</ele><time>2023-03-17T10:20:32Z</time><name>PT775</name></trkpt>
<trkpt lat="53.174985" lon="-2.067103"><ele>178</ele><time>2023-03-17T10:20:36Z</time><name>PT776</name></trkpt>
<trkpt lat="53.174978" lon="-2.067089"><ele>177</ele><time>2023-03-17T10:20:47Z</time><name>PT777</name></trkpt>
<trkpt lat="53.174979" lon="-2.067086"><ele>176</ele><time>2023-03-17T10:20:57Z</time><name>PT778</name></trkpt>
<trkpt lat="53.174979" lon="-2.067082"><ele>176</ele><time>2023-03-17T10:21:00Z</time><name>PT779</name></trkpt>
<trkpt lat="53.174978" lon="-2.067075"><ele>177</ele><time>2023-03-17T10:21:03Z</time><name>PT780</name></trkpt>
<trkpt lat="53.174966" lon="-2.067072"><ele>177</ele><time>2023-03-17T10:21:06Z</time><name>PT781</name></trkpt>
<trkpt lat="53.174971" lon="-2.067072"><ele>177</ele><time>2023-03-17T10:21:09Z</time><name>PT782</name></trkpt>
<trkpt lat="53.174972" lon="-2.067073"><ele>177</ele><time>2023-03-17T10:21:14Z</time><name>PT783</name></trkpt>
<trkpt lat="53.174974" lon="-2.067068"><ele>176</ele><time>2023-03-17T10:21:18Z</time><name>PT784</name></trkpt>
<trkpt lat="53.174969" lon="-2.067049"><ele>176</ele><time>2023-03-17T10:21:21Z</time><name>PT785</name></trkpt>
<trkpt lat="53.174960" lon="-2.067054"><ele>176</ele><time>2023-03-17T10:21:24Z</time><name>PT786</name></trkpt>
<trkpt lat="53.174962" lon="-2.067052"><ele>176</ele><time>2023-03-17T10:21:36Z</time><name>PT787</name></trkpt>
<trkpt lat="53.174961" lon="-2.067052"><ele>176</ele><time>2023-03-17T10:21:39Z</time><name>PT788</name></trkpt>
<trkpt lat="53.174920" lon="-2.067100"><ele>175</ele><time>2023-03-17T10:21:57Z</time><name>PT789</name></trkpt>
<trkpt lat="53.174915" lon="-2.067087"><ele>174</ele><time>2023-03-17T10:22:02Z</time><name>PT790</name></trkpt>
<trkpt lat="53.174913" lon="-2.067109"><ele>174</ele><time>2023-03-17T10:22:05Z</time><name>PT791</name></trkpt>
<trkpt lat="53.174919" lon="-2.067123"><ele>173</ele><time>2023-03-17T10:22:09Z</time><name>PT792</name></trkpt>
<trkpt lat="53.174912" lon="-2.067138"><ele>172</ele><time>2023-03-17T10:22:18Z</time><name>PT793</name></trkpt>
<trkpt lat="53.174912" lon="-2.067156"><ele>172</ele><time>2023-03-17T10:22:23Z</time><name>PT794</name></trkpt>
<trkpt lat="53.174909" lon="-2.067180"><ele>172</ele><time>2023-03-17T10:22:33Z</time><name>PT795</name></trkpt>
<trkpt lat="53.174912" lon="-2.067191"><ele>172</ele><time>2023-03-17T10:22:36Z</time><name>PT796</name></trkpt>
<trkpt lat="53.174928" lon="-2.067200"><ele>171</ele><time>2023-03-17T10:23:05Z</time><name>PT797</name></trkpt>
<trkpt lat="53.174933" lon="-2.067198"><ele>171</ele><time>2023-03-17T10:23:08Z</time><name>PT798</name></trkpt>
<trkpt lat="53.174938" lon="-2.067177"><ele>173</ele><time>2023-03-17T10:23:15Z</time><name>PT799</name></trkpt>
<trkpt lat="53.174945" lon="-2.067150"><ele>174</ele><time>2023-03-17T10:23:18Z</time><name>PT800</name></trkpt>
<trkpt lat="53.174948" lon="-2.067143"><ele>174</ele><time>2023-03-17T10:23:23Z</time><name>PT801</name></trkpt>
<trkpt lat="53.174950" lon="-2.067129"><ele>175</ele><time>2023-03-17T10:23:26Z</time><name>PT802</name></trkpt>
<trkpt lat="53.174955" lon="-2.067125"><ele>175</ele><time>2023-03-17T10:23:29Z</time><name>PT803</name></trkpt>
<trkpt lat="53.174963" lon="-2.067191"><ele>174</ele><time>2023-03-17T10:23:42Z</time><name>PT804</name></trkpt>
<trkpt lat="53.174955" lon="-2.067239"><ele>171</ele><time>2023-03-17T10:23:47Z</time><name>PT805</name></trkpt>
<trkpt lat="53.174960" lon="-2.067239"><ele>170</ele><time>2023-03-17T10:23:53Z</time><name>PT806</name></trkpt>
<trkpt lat="53.174981" lon="-2.067269"><ele>167</ele><time>2023-03-17T10:23:57Z</time><name>PT807</name></trkpt>
<trkpt lat="53.174999" lon="-2.067283"><ele>167</ele><time>2023-03-17T10:24:00Z</time><name>PT808</name></trkpt>
<trkpt lat="53.175021" lon="-2.067288"><ele>169</ele><time>2023-03-17T10:24:05Z</time><name>PT809</name></trkpt>
<trkpt lat="53.175037" lon="-2.067298"><ele>170</ele><time>2023-03-17T10:24:08Z</time><name>PT810</name></trkpt>
<trkpt lat="53.175053" lon="-2.067284"><ele>171</ele><time>2023-03-17T10:24:11Z</time><name>PT811</name></trkpt>
<trkpt lat="53.175073" lon="-2.067273"><ele>172</ele><time>2023-03-17T10:24:18Z</time><name>PT812</name></trkpt>
<trkpt lat="53.175110" lon="-2.067263"><ele>171</ele><time>2023-03-17T10:24:21Z</time><name>PT813</name></trkpt>
<trkpt lat="53.175131" lon="-2.067254"><ele>171</ele><time>2023-03-17T10:24:24Z</time><name>PT814</name></trkpt>
<trkpt lat="53.175153" lon="-2.067256"><ele>171</ele><time>2023-03-17T10:24:27Z</time><name>PT815</name></trkpt>
<trkpt lat="53.175164" lon="-2.067266"><ele>170</ele><time>2023-03-17T10:24:30Z</time><name>PT816</name></trkpt>
<trkpt lat="53.175176" lon="-2.067281"><ele>170</ele><time>2023-03-17T10:24:35Z</time><name>PT817</name></trkpt>
<trkpt lat="53.175197" lon="-2.067289"><ele>171</ele><time>2023-03-17T10:24:38Z</time><name>PT818</name></trkpt>
<trkpt lat="53.175213" lon="-2.067276"><ele>172</ele><time>2023-03-17T10:24:41Z</time><name>PT819</name></trkpt>
<trkpt lat="53.175245" lon="-2.067273"><ele>171</ele><time>2023-03-17T10:24:45Z</time><name>PT820</name></trkpt>
<trkpt lat="53.175274" lon="-2.067266"><ele>170</ele><time>2023-03-17T10:24:48Z</time><name>PT821</name></trkpt>
<trkpt lat="53.175317" lon="-2.067228"><ele>171</ele><time>2023-03-17T10:24:51Z</time><name>PT822</name></trkpt>
<trkpt lat="53.175350" lon="-2.067198"><ele>170</ele><time>2023-03-17T10:24:56Z</time><name>PT823</name></trkpt>
<trkpt lat="53.175391" lon="-2.067178"><ele>170</ele><time>2023-03-17T10:25:00Z</time><name>PT824</name></trkpt>
<trkpt lat="53.175421" lon="-2.067157"><ele>171</ele><time>2023-03-17T10:25:03Z</time><name>PT825</name></trkpt>
<trkpt lat="53.175458" lon="-2.067114"><ele>172</ele><time>2023-03-17T10:25:06Z</time><name>PT826</name></trkpt>
<trkpt lat="53.175486" lon="-2.067083"><ele>173</ele><time>2023-03-17T10:25:09Z</time><name>PT827</name></trkpt>
<trkpt lat="53.175511" lon="-2.067050"><ele>174</ele><time>2023-03-17T10:25:12Z</time><name>PT828</name></trkpt>
<trkpt lat="53.175549" lon="-2.067005"><ele>177</ele><time>2023-03-17T10:25:17Z</time><name>PT829</name></trkpt>
<trkpt lat="53.175584" lon="-2.066977"><ele>177</ele><time>2023-03-17T10:25:21Z</time><name>PT830</name></trkpt>
<trkpt lat="53.175618" lon="-2.066947"><ele>177</ele><time>2023-03-17T10:25:24Z</time><name>PT831</name></trkpt>
<trkpt lat="53.175643" lon="-2.066925"><ele>177</ele><time>2023-03-17T10:25:29Z</time><name>PT832</name></trkpt>
<trkpt lat="53.175669" lon="-2.066915"><ele>177</ele><time>2023-03-17T10:25:32Z</time><name>PT833</name></trkpt>
<trkpt lat="53.175694" lon="-2.066902"><ele>178</ele><time>2023-03-17T10:25:35Z</time><name>PT834</name></trkpt>
<trkpt lat="53.175727" lon="-2.066884"><ele>179</ele><time>2023-03-17T10:25:39Z</time><name>PT835</name></trkpt>
<trkpt lat="53.175763" lon="-2.066860"><ele>181</ele><time>2023-03-17T10:25:42Z</time><name>PT836</name></trkpt>
<trkpt lat="53.175804" lon="-2.066850"><ele>181</ele><time>2023-03-17T10:25:47Z</time><name>PT837</name></trkpt>
<trkpt lat="53.175830" lon="-2.066844"><ele>181</ele><time>2023-03-17T10:25:50Z</time><name>PT838</name></trkpt>
<trkpt lat="53.175861" lon="-2.066846"><ele>182</ele><time>2023-03-17T10:25:54Z</time><name>PT839</name></trkpt>
<trkpt lat="53.175877" lon="-2.066839"><ele>184</ele><time>2023-03-17T10:25:57Z</time><name>PT840</name></trkpt>
<trkpt lat="53.175898" lon="-2.066836"><ele>185</ele><time>2023-03-17T10:26:00Z</time><name>PT841</name></trkpt>
<trkpt lat="53.175915" lon="-2.066836"><ele>185</ele><time>2023-03-17T10:26:03Z</time><name>PT842</name></trkpt>
<trkpt lat="53.175957" lon="-2.066850"><ele>186</ele><time>2023-03-17T10:26:06Z</time><name>PT843</name></trkpt>
<trkpt lat="53.175988" lon="-2.066880"><ele>185</ele><time>2023-03-17T10:26:11Z</time><name>PT844</name></trkpt>
<trkpt lat="53.176010" lon="-2.066893"><ele>185</ele><time>2023-03-17T10:26:15Z</time><name>PT845</name></trkpt>
<trkpt lat="53.176024" lon="-2.066915"><ele>185</ele><time>2023-03-17T10:26:18Z</time><name>PT846</name></trkpt>
<trkpt lat="53.176034" lon="-2.066961"><ele>185</ele><time>2023-03-17T10:26:21Z</time><name>PT847</name></trkpt>
<trkpt lat="53.176025" lon="-2.067009"><ele>183</ele><time>2023-03-17T10:26:26Z</time><name>PT848</name></trkpt>
<trkpt lat="53.176019" lon="-2.067043"><ele>182</ele><time>2023-03-17T10:26:29Z</time><name>PT849</name></trkpt>
<trkpt lat="53.176004" lon="-2.067093"><ele>181</ele><time>2023-03-17T10:26:33Z</time><name>PT850</name></trkpt>
<trkpt lat="53.175980" lon="-2.067120"><ele>182</ele><time>2023-03-17T10:26:36Z</time><name>PT851</name></trkpt>
<trkpt lat="53.175958" lon="-2.067151"><ele>182</ele><time>2023-03-17T10:26:39Z</time><name>PT852</name></trkpt>
<trkpt lat="53.175948" lon="-2.067182"><ele>182</ele><time>2023-03-17T10:26:42Z</time><name>PT853</name></trkpt>
<trkpt lat="53.175941" lon="-2.067213"><ele>182</ele><time>2023-03-17T10:26:45Z</time><name>PT854</name></trkpt>
<trkpt lat="53.175926" lon="-2.067243"><ele>183</ele><time>2023-03-17T10:26:50Z</time><name>PT855</name></trkpt>
<trkpt lat="53.175925" lon="-2.067328"><ele>183</ele><time>2023-03-17T10:26:53Z</time><name>PT856</name></trkpt>
<trkpt lat="53.175961" lon="-2.067381"><ele>181</ele><time>2023-03-17T10:26:57Z</time><name>PT857</name></trkpt>
<trkpt lat="53.175971" lon="-2.067413"><ele>182</ele><time>2023-03-17T10:27:00Z</time><name>PT858</name></trkpt>
<trkpt lat="53.175984" lon="-2.067432"><ele>181</ele><time>2023-03-17T10:27:03Z</time><name>PT859</name></trkpt>
<trkpt lat="53.176007" lon="-2.067467"><ele>182</ele><time>2023-03-17T10:27:06Z</time><name>PT860</name></trkpt>
<trkpt lat="53.176027" lon="-2.067510"><ele>184</ele><time>2023-03-17T10:27:11Z</time><name>PT861</name></trkpt>
<trkpt lat="53.176055" lon="-2.067539"><ele>187</ele><time>2023-03-17T10:27:15Z</time><name>PT862</name></trkpt>
<trkpt lat="53.176069" lon="-2.067564"><ele>188</ele><time>2023-03-17T10:27:18Z</time><name>PT863</name></trkpt>
<trkpt lat="53.176080" lon="-2.067587"><ele>189</ele><time>2023-03-17T10:27:21Z</time><name>PT864</name></trkpt>
<trkpt lat="53.176096" lon="-2.067616"><ele>191</ele><time>2023-03-17T10:27:24Z</time><name>PT865</name></trkpt>
<trkpt lat="53.176115" lon="-2.067641"><ele>193</ele><time>2023-03-17T10:27:29Z</time><name>PT866</name></trkpt>
<trkpt lat="53.176126" lon="-2.067672"><ele>193</ele><time>2023-03-17T10:27:32Z</time><name>PT867</name></trkpt>
<trkpt lat="53.176148" lon="-2.067713"><ele>195</ele><time>2023-03-17T10:27:36Z</time><name>PT868</name></trkpt>
<trkpt lat="53.176164" lon="-2.067746"><ele>196</ele><time>2023-03-17T10:27:39Z</time><name>PT869</name></trkpt>
<trkpt lat="53.176187" lon="-2.067792"><ele>196</ele><time>2023-03-17T10:27:42Z</time><name>PT870</name></trkpt>
<trkpt lat="53.176203" lon="-2.067837"><ele>196</ele><time>2023-03-17T10:27:47Z</time><name>PT871</name></trkpt>
<trkpt lat="53.176221" lon="-2.067874"><ele>197</ele><time>2023-03-17T10:27:51Z</time><name>PT872</name></trkpt>
<trkpt lat="53.176243" lon="-2.067904"><ele>198</ele><time>2023-03-17T10:27:54Z</time><name>PT873</name></trkpt>
<trkpt lat="53.176260" lon="-2.067935"><ele>199</ele><time>2023-03-17T10:27:57Z</time><name>PT874</name></trkpt>
<trkpt lat="53.176282" lon="-2.067985"><ele>200</ele><time>2023-03-17T10:28:00Z</time><name>PT875</name></trkpt>
<trkpt lat="53.176305" lon="-2.068031"><ele>202</ele><time>2023-03-17T10:28:05Z</time><name>PT876</name></trkpt>
<trkpt lat="53.176344" lon="-2.068064"><ele>204</ele><time>2023-03-17T10:28:09Z</time><name>PT877</name></trkpt>
<trkpt lat="53.176365" lon="-2.068087"><ele>204</ele><time>2023-03-17T10:28:12Z</time><name>PT878</name></trkpt>
<trkpt lat="53.176400" lon="-2.068129"><ele>205</ele><time>2023-03-17T10:28:15Z</time><name>PT879</name></trkpt>
<trkpt lat="53.176423" lon="-2.068179"><ele>206</ele><time>2023-03-17T10:28:20Z</time><name>PT880</name></trkpt>
<trkpt lat="53.176442" lon="-2.068215"><ele>207</ele><time>2023-03-17T10:28:23Z</time><name>PT881</name></trkpt>
<trkpt lat="53.176463" lon="-2.068252"><ele>207</ele><time>2023-03-17T10:28:27Z</time><name>PT882</name></trkpt>
<trkpt lat="53.176488" lon="-2.068280"><ele>207</ele><time>2023-03-17T10:28:30Z</time><name>PT883</name></trkpt>
<trkpt lat="53.176502" lon="-2.068305"><ele>208</ele><time>2023-03-17T10:28:33Z</time><name>PT884</name></trkpt>
<trkpt lat="53.176519" lon="-2.068326"><ele>208</ele><time>2023-03-17T10:28:36Z</time><name>PT885</name></trkpt>
<trkpt lat="53.176542" lon="-2.068368"><ele>209</ele><time>2023-03-17T10:28:41Z</time><name>PT886</name></trkpt>
<trkpt lat="53.176547" lon="-2.068417"><ele>209</ele><time>2023-03-17T10:28:45Z</time><name>PT887</name></trkpt>
<trkpt lat="53.176546" lon="-2.068450"><ele>210</ele><time>2023-03-17T10:28:48Z</time><name>PT888</name></trkpt>
<trkpt lat="53.176548" lon="-2.068504"><ele>210</ele><time>2023-03-17T10:28:51Z</time><name>PT889</name></trkpt>
<trkpt lat="53.176561" lon="-2.068560"><ele>211</ele><time>2023-03-17T10:28:56Z</time><name>PT890</name></trkpt>
<trkpt lat="53.176569" lon="-2.068608"><ele>211</ele><time>2023-03-17T10:28:59Z</time><name>PT891</name></trkpt>
<trkpt lat="53.176579" lon="-2.068644"><ele>211</ele><time>2023-03-17T10:29:02Z</time><name>PT892</name></trkpt>
<trkpt lat="53.176592" lon="-2.068680"><ele>211</ele><time>2023-03-17T10:29:05Z</time><name>PT893</name></trkpt>
<trkpt lat="53.176612" lon="-2.068738"><ele>211</ele><time>2023-03-17T10:29:09Z</time><name>PT894</name></trkpt>
<trkpt lat="53.176627" lon="-2.068768"><ele>211</ele><time>2023-03-17T10:29:12Z</time><name>PT895</name></trkpt>
<trkpt lat="53.176647" lon="-2.068828"><ele>212</ele><time>2023-03-17T10:29:15Z</time><name>PT896</name></trkpt>
<trkpt lat="53.176663" lon="-2.068884"><ele>210</ele><time>2023-03-17T10:29:20Z</time><name>PT897</name></trkpt>
<trkpt lat="53.176670" lon="-2.068930"><ele>211</ele><time>2023-03-17T10:29:23Z</time><name>PT898</name></trkpt>
<trkpt lat="53.176683" lon="-2.068963"><ele>210</ele><time>2023-03-17T10:29:26Z</time><name>PT899</name></trkpt>
<trkpt lat="53.176704" lon="-2.069012"><ele>212</ele><time>2023-03-17T10:29:30Z</time><name>PT900</name></trkpt>
<trkpt lat="53.176714" lon="-2.069057"><ele>211</ele><time>2023-03-17T10:29:33Z</time><name>PT901</name></trkpt>
<trkpt lat="53.176731" lon="-2.069086"><ele>212</ele><time>2023-03-17T10:29:36Z</time><name>PT902</name></trkpt>
<trkpt lat="53.176741" lon="-2.069114"><ele>214</ele><time>2023-03-17T10:29:39Z</time><name>PT903</name></trkpt>
<trkpt lat="53.176758" lon="-2.069168"><ele>214</ele><time>2023-03-17T10:29:44Z</time><name>PT904</name></trkpt>
<trkpt lat="53.176772" lon="-2.069207"><ele>215</ele><time>2023-03-17T10:29:47Z</time><name>PT905</name></trkpt>
<trkpt lat="53.176792" lon="-2.069242"><ele>215</ele><time>2023-03-17T10:29:51Z</time><name>PT906</name></trkpt>
<trkpt lat="53.176809" lon="-2.069281"><ele>215</ele><time>2023-03-17T10:29:54Z</time><name>PT907</name></trkpt>
<trkpt lat="53.176828" lon="-2.069306"><ele>215</ele><time>2023-03-17T10:29:59Z</time><name>PT908</name></trkpt>
<trkpt lat="53.176831" lon="-2.069309"><ele>215</ele><time>2023-03-17T10:30:02Z</time><name>PT909</name></trkpt>
<trkpt lat="53.176840" lon="-2.069329"><ele>215</ele><time>2023-03-17T10:30:05Z</time><name>PT910</name></trkpt>
<trkpt lat="53.176854" lon="-2.069353"><ele>216</ele><time>2023-03-17T10:30:09Z</time><name>PT911</name></trkpt>
<trkpt lat="53.176849" lon="-2.069385"><ele>216</ele><time>2023-03-17T10:30:12Z</time><name>PT912</name></trkpt>
<trkpt lat="53.176835" lon="-2.069403"><ele>217</ele><time>2023-03-17T10:30:15Z</time><name>PT913</name></trkpt>
<trkpt lat="53.176811" lon="-2.069437"><ele>217</ele><time>2023-03-17T10:30:20Z</time><name>PT914</name></trkpt>
<trkpt lat="53.176797" lon="-2.069459"><ele>217</ele><time>2023-03-17T10:30:23Z</time><name>PT915</name></trkpt>
<trkpt lat="53.176784" lon="-2.069492"><ele>218</ele><time>2023-03-17T10:30:27Z</time><name>PT916</name></trkpt>
<trkpt lat="53.176770" lon="-2.069525"><ele>218</ele><time>2023-03-17T10:30:30Z</time><name>PT917</name></trkpt>
<trkpt lat="53.176753" lon="-2.069576"><ele>218</ele><time>2023-03-17T10:30:33Z</time><name>PT918</name></trkpt>
<trkpt lat="53.176736" lon="-2.069612"><ele>218</ele><time>2023-03-17T10:30:38Z</time><name>PT919</name></trkpt>
<trkpt lat="53.176730" lon="-2.069643"><ele>220</ele><time>2023-03-17T10:30:41Z</time><name>PT920</name></trkpt>
<trkpt lat="53.176714" lon="-2.069685"><ele>222</ele><time>2023-03-17T10:30:45Z</time><name>PT921</name></trkpt>
<trkpt lat="53.176704" lon="-2.069738"><ele>222</ele><time>2023-03-17T10:30:48Z</time><name>PT922</name></trkpt>
<trkpt lat="53.176694" lon="-2.069788"><ele>221</ele><time>2023-03-17T10:30:51Z</time><name>PT923</name></trkpt>
<trkpt lat="53.176689" lon="-2.069817"><ele>218</ele><time>2023-03-17T10:30:54Z</time><name>PT924</name></trkpt>
<trkpt lat="53.176670" lon="-2.069884"><ele>219</ele><time>2023-03-17T10:30:59Z</time><name>PT925</name></trkpt>
<trkpt lat="53.176664" lon="-2.069936"><ele>220</ele><time>2023-03-17T10:31:02Z</time><name>PT926</name></trkpt>
<trkpt lat="53.176651" lon="-2.070033"><ele>219</ele><time>2023-03-17T10:31:06Z</time><name>PT927</name></trkpt>
<trkpt lat="53.176652" lon="-2.070090"><ele>218</ele><time>2023-03-17T10:31:09Z</time><name>PT928</name></trkpt>
<trkpt lat="53.176646" lon="-2.070186"><ele>217</ele><time>2023-03-17T10:31:14Z</time><name>PT929</name></trkpt>
<trkpt lat="53.176645" lon="-2.070258"><ele>217</ele><time>2023-03-17T10:31:18Z</time><name>PT930</name></trkpt>
<trkpt lat="53.176641" lon="-2.070314"><ele>216</ele><time>2023-03-17T10:31:21Z</time><name>PT931</name></trkpt>
<trkpt lat="53.176638" lon="-2.070427"><ele>216</ele><time>2023-03-17T10:31:24Z</time><name>PT932</name></trkpt>
<trkpt lat="53.176640" lon="-2.070503"><ele>215</ele><time>2023-03-17T10:31:29Z</time><name>PT933</name></trkpt>
<trkpt lat="53.176645" lon="-2.070566"><ele>214</ele><time>2023-03-17T10:31:32Z</time><name>PT934</name></trkpt>
<trkpt lat="53.176638" lon="-2.070659"><ele>214</ele><time>2023-03-17T10:31:36Z</time><name>PT935</name></trkpt>
<trkpt lat="53.176635" lon="-2.070745"><ele>215</ele><time>2023-03-17T10:31:39Z</time><name>PT936</name></trkpt>
<trkpt lat="53.176639" lon="-2.070822"><ele>217</ele><time>2023-03-17T10:31:44Z</time><name>PT937</name></trkpt>
<trkpt lat="53.176640" lon="-2.070905"><ele>218</ele><time>2023-03-17T10:31:48Z</time><name>PT938</name></trkpt>
<trkpt lat="53.176642" lon="-2.070969"><ele>218</ele><time>2023-03-17T10:31:51Z</time><name>PT939</name></trkpt>
<trkpt lat="53.176643" lon="-2.071045"><ele>218</ele><time>2023-03-17T10:31:54Z</time><name>PT940</name></trkpt>
<trkpt lat="53.176638" lon="-2.071107"><ele>219</ele><time>2023-03-17T10:31:59Z</time><name>PT941</name></trkpt>
<trkpt lat="53.176646" lon="-2.071147"><ele>218</ele><time>2023-03-17T10:32:02Z</time><name>PT942</name></trkpt>
<trkpt lat="53.176671" lon="-2.071201"><ele>217</ele><time>2023-03-17T10:32:06Z</time><name>PT943</name></trkpt>
<trkpt lat="53.176681" lon="-2.071241"><ele>218</ele><time>2023-03-17T10:32:09Z</time><name>PT944</name></trkpt>
<trkpt lat="53.176703" lon="-2.071312"><ele>216</ele><time>2023-03-17T10:32:12Z</time><name>PT945</name></trkpt>
<trkpt lat="53.176723" lon="-2.071366"><ele>216</ele><time>2023-03-17T10:32:17Z</time><name>PT946</name></trkpt>
<trkpt lat="53.176740" lon="-2.071416"><ele>214</ele><time>2023-03-17T10:32:21Z</time><name>PT947</name></trkpt>
<trkpt lat="53.176757" lon="-2.071468"><ele>212</ele><time>2023-03-17T10:32:24Z</time><name>PT948</name></trkpt>
<trkpt lat="53.176772" lon="-2.071504"><ele>212</ele><time>2023-03-17T10:32:27Z</time><name>PT949</name></trkpt>
<trkpt lat="53.176795" lon="-2.071573"><ele>211</ele><time>2023-03-17T10:32:32Z</time><name>PT950</name></trkpt>
<trkpt lat="53.176815" lon="-2.071640"><ele>212</ele><time>2023-03-17T10:32:36Z</time><name>PT951</name></trkpt>
<trkpt lat="53.176839" lon="-2.071679"><ele>211</ele><time>2023-03-17T10:32:39Z</time><name>PT952</name></trkpt>
<trkpt lat="53.176857" lon="-2.071736"><ele>210</ele><time>2023-03-17T10:32:44Z</time><name>PT953</name></trkpt>
<trkpt lat="53.176868" lon="-2.071786"><ele>210</ele><time>2023-03-17T10:32:47Z</time><name>PT954</name></trkpt>
<trkpt lat="53.176887" lon="-2.071839"><ele>209</ele><time>2023-03-17T10:32:51Z</time><name>PT955</name></trkpt>
<trkpt lat="53.176895" lon="-2.071900"><ele>208</ele><time>2023-03-17T10:32:54Z</time><name>PT956</name></trkpt>
<trkpt lat="53.176907" lon="-2.071936"><ele>206</ele><time>2023-03-17T10:32:57Z</time><name>PT957</name></trkpt>
<trkpt lat="53.176917" lon="-2.072006"><ele>207</ele><time>2023-03-17T10:33:00Z</time><name>PT958</name></trkpt>
<trkpt lat="53.176922" lon="-2.072095"><ele>208</ele><time>2023-03-17T10:33:03Z</time><name>PT959</name></trkpt>
<trkpt lat="53.176916" lon="-2.072190"><ele>211</ele><time>2023-03-17T10:33:08Z</time><name>PT960</name></trkpt>
<trkpt lat="53.176909" lon="-2.072240"><ele>211</ele><time>2023-03-17T10:33:11Z</time><name>PT961</name></trkpt>
<trkpt lat="53.176892" lon="-2.072317"><ele>213</ele><time>2023-03-17T10:33:15Z</time><name>PT962</name></trkpt>
<trkpt lat="53.176866" lon="-2.072401"><ele>213</ele><time>2023-03-17T10:33:18Z</time><name>PT963</name></trkpt>
<trkpt lat="53.176842" lon="-2.072495"><ele>214</ele><time>2023-03-17T10:33:23Z</time><name>PT964</name></trkpt>
<trkpt lat="53.176823" lon="-2.072557"><ele>215</ele><time>2023-03-17T10:33:27Z</time><name>PT965</name></trkpt>
<trkpt lat="53.176807" lon="-2.072618"><ele>214</ele><time>2023-03-17T10:33:30Z</time><name>PT966</name></trkpt>
<trkpt lat="53.176793" lon="-2.072680"><ele>215</ele><time>2023-03-17T10:33:33Z</time><name>PT967</name></trkpt>
<trkpt lat="53.176775" lon="-2.072759"><ele>215</ele><time>2023-03-17T10:33:36Z</time><name>PT968</name></trkpt>
<trkpt lat="53.176766" lon="-2.072820"><ele>214</ele><time>2023-03-17T10:33:39Z</time><name>PT969</name></trkpt>
<trkpt lat="53.176764" lon="-2.072894"><ele>213</ele><time>2023-03-17T10:33:44Z</time><name>PT970</name></trkpt>
<trkpt lat="53.176773" lon="-2.072932"><ele>212</ele><time>2023-03-17T10:33:47Z</time><name>PT971</name></trkpt>
<trkpt lat="53.176776" lon="-2.072958"><ele>212</ele><time>2023-03-17T10:33:50Z</time><name>PT972</name></trkpt>
<trkpt lat="53.176778" lon="-2.073008"><ele>212</ele><time>2023-03-17T10:33:57Z</time><name>PT973</name></trkpt>
<trkpt lat="53.176785" lon="-2.073093"><ele>212</ele><time>2023-03-17T10:34:00Z</time><name>PT974</name></trkpt>
<trkpt lat="53.176794" lon="-2.073174"><ele>211</ele><time>2023-03-17T10:34:05Z</time><name>PT975</name></trkpt>
<trkpt lat="53.176811" lon="-2.073243"><ele>212</ele><time>2023-03-17T10:34:09Z</time><name>PT976</name></trkpt>
<trkpt lat="53.176833" lon="-2.073281"><ele>212</ele><time>2023-03-17T10:34:12Z</time><name>PT977</name></trkpt>
<trkpt lat="53.176846" lon="-2.073336"><ele>212</ele><time>2023-03-17T10:34:15Z</time><name>PT978</name></trkpt>
<trkpt lat="53.176868" lon="-2.073391"><ele>213</ele><time>2023-03-17T10:34:18Z</time><name>PT979</name></trkpt>
<trkpt lat="53.176885" lon="-2.073440"><ele>213</ele><time>2023-03-17T10:34:21Z</time><name>PT980</name></trkpt>
<trkpt lat="53.176906" lon="-2.073498"><ele>214</ele><time>2023-03-17T10:34:26Z</time><name>PT981</name></trkpt>
<trkpt lat="53.176922" lon="-2.073568"><ele>216</ele><time>2023-03-17T10:34:30Z</time><name>PT982</name></trkpt>
<trkpt lat="53.176946" lon="-2.073633"><ele>217</ele><time>2023-03-17T10:34:33Z</time><name>PT983</name></trkpt>
<trkpt lat="53.176962" lon="-2.073680"><ele>218</ele><time>2023-03-17T10:34:36Z</time><name>PT984</name></trkpt>
<trkpt lat="53.176978" lon="-2.073736"><ele>218</ele><time>2023-03-17T10:34:39Z</time><name>PT985</name></trkpt>
<trkpt lat="53.176999" lon="-2.073804"><ele>218</ele><time>2023-03-17T10:34:44Z</time><name>PT986</name></trkpt>
<trkpt lat="53.177008" lon="-2.073855"><ele>219</ele><time>2023-03-17T10:34:47Z</time><name>PT987</name></trkpt>
<trkpt lat="53.177027" lon="-2.073926"><ele>220</ele><time>2023-03-17T10:34:51Z</time><name>PT988</name></trkpt>
<trkpt lat="53.177050" lon="-2.073981"><ele>220</ele><time>2023-03-17T10:34:54Z</time><name>PT989</name></trkpt>
<trkpt lat="53.177073" lon="-2.074041"><ele>220</ele><time>2023-03-17T10:34:57Z</time><name>PT990</name></trkpt>
<trkpt lat="53.177089" lon="-2.074097"><ele>220</ele><time>2023-03-17T10:35:00Z</time><name>PT991</name></trkpt>
<trkpt lat="53.177112" lon="-2.074153"><ele>220</ele><time>2023-03-17T10:35:05Z</time><name>PT992</name></trkpt>
<trkpt lat="53.177133" lon="-2.074220"><ele>221</ele><time>2023-03-17T10:35:09Z</time><name>PT993</name></trkpt>
<trkpt lat="53.177150" lon="-2.074262"><ele>221</ele><time>2023-03-17T10:35:12Z</time><name>PT994</name></trkpt>
<trkpt lat="53.177170" lon="-2.074331"><ele>221</ele><time>2023-03-17T10:35:15Z</time><name>PT995</name></trkpt>
<trkpt lat="53.177180" lon="-2.074385"><ele>221</ele><time>2023-03-17T10:35:18Z</time><name>PT996</name></trkpt>
<trkpt lat="53.177198" lon="-2.074456"><ele>220</ele><time>2023-03-17T10:35:23Z</time><name>PT997</name></trkpt>
<trkpt lat="53.177219" lon="-2.074527"><ele>220</ele><time>2023-03-17T10:35:27Z</time><name>PT998</name></trkpt>
<trkpt lat="53.177233" lon="-2.074583"><ele>220</ele><time>2023-03-17T10:35:30Z</time><name>PT999</name></trkpt>
<trkpt lat="53.177250" lon="-2.074642"><ele>219</ele><time>2023-03-17T10:35:33Z</time><name>PT1000</name></trkpt>
<trkpt lat="53.177261" lon="-2.074700"><ele>219</ele><time>2023-03-17T10:35:36Z</time><name>PT1001</name></trkpt>
<trkpt lat="53.177277" lon="-2.074779"><ele>219</ele><time>2023-03-17T10:35:39Z</time><name>PT1002</name></trkpt>
<trkpt lat="53.177287" lon="-2.074865"><ele>218</ele><time>2023-03-17T10:35:44Z</time><name>PT1003</name></trkpt>
<trkpt lat="53.177297" lon="-2.074937"><ele>218</ele><time>2023-03-17T10:35:48Z</time><name>PT1004</name></trkpt>
<trkpt lat="53.177305" lon="-2.075017"><ele>218</ele><time>2023-03-17T10:35:51Z</time><name>PT1005</name></trkpt>
<trkpt lat="53.177315" lon="-2.075093"><ele>218</ele><time>2023-03-17T10:35:56Z</time><name>PT1006</name></trkpt>
<trkpt lat="53.177322" lon="-2.075170"><ele>219</ele><time>2023-03-17T10:36:00Z</time><name>PT1007</name></trkpt>
<trkpt lat="53.177329" lon="-2.075217"><ele>219</ele><time>2023-03-17T10:36:03Z</time><name>PT1008</name></trkpt>
<trkpt lat="53.177334" lon="-2.075285"><ele>218</ele><time>2023-03-17T10:36:06Z</time><name>PT1009</name></trkpt>
<trkpt lat="53.177341" lon="-2.075356"><ele>220</ele><time>2023-03-17T10:36:11Z</time><name>PT1010</name></trkpt>
<trkpt lat="53.177346" lon="-2.075418"><ele>220</ele><time>2023-03-17T10:36:15Z</time><name>PT1011</name></trkpt>
<trkpt lat="53.177355" lon="-2.075485"><ele>220</ele><time>2023-03-17T10:36:18Z</time><name>PT1012</name></trkpt>
<trkpt lat="53.177359" lon="-2.075540"><ele>220</ele><time>2023-03-17T10:36:21Z</time><name>PT1013</name></trkpt>
<trkpt lat="53.177370" lon="-2.075608"><ele>220</ele><time>2023-03-17T10:36:26Z</time><name>PT1014</name></trkpt>
<trkpt lat="53.177377" lon="-2.075659"><ele>220</ele><time>2023-03-17T10:36:29Z</time><name>PT1015</name></trkpt>
<trkpt lat="53.177384" lon="-2.075730"><ele>220</ele><time>2023-03-17T10:36:33Z</time><name>PT1016</name></trkpt>
<trkpt lat="53.177393" lon="-2.075789"><ele>220</ele><time>2023-03-17T10:36:36Z</time><name>PT1017</name></trkpt>
<trkpt lat="53.177403" lon="-2.075847"><ele>220</ele><time>2023-03-17T10:36:39Z</time><name>PT1018</name></trkpt>
<trkpt lat="53.177418" lon="-2.075916"><ele>220</ele><time>2023-03-17T10:36:42Z</time><name>PT1019</name></trkpt>
<trkpt lat="53.177425" lon="-2.075977"><ele>220</ele><time>2023-03-17T10:36:45Z</time><name>PT1020</name></trkpt>
<trkpt lat="53.177440" lon="-2.076045"><ele>221</ele><time>2023-03-17T10:36:50Z</time><name>PT1021</name></trkpt>
<trkpt lat="53.177450" lon="-2.076098"><ele>221</ele><time>2023-03-17T10:36:53Z</time><name>PT1022</name></trkpt>
<trkpt lat="53.177461" lon="-2.076146"><ele>221</ele><time>2023-03-17T10:36:56Z</time><name>PT1023</name></trkpt>
<trkpt lat="53.177473" lon="-2.076195"><ele>221</ele><time>2023-03-17T10:36:59Z</time><name>PT1024</name></trkpt>
<trkpt lat="53.177483" lon="-2.076267"><ele>221</ele><time>2023-03-17T10:37:03Z</time><name>PT1025</name></trkpt>
<trkpt lat="53.177501" lon="-2.076332"><ele>221</ele><time>2023-03-17T10:37:06Z</time><name>PT1026</name></trkpt>
<trkpt lat="53.177513" lon="-2.076391"><ele>222</ele><time>2023-03-17T10:37:09Z</time><name>PT1027</name></trkpt>
<trkpt lat="53.177526" lon="-2.076453"><ele>222</ele><time>2023-03-17T10:37:14Z</time><name>PT1028</name></trkpt>
<trkpt lat="53.177541" lon="-2.076527"><ele>221</ele><time>2023-03-17T10:37:18Z</time><name>PT1029</name></trkpt>
<trkpt lat="53.177555" lon="-2.076580"><ele>222</ele><time>2023-03-17T10:37:21Z</time><name>PT1030</name></trkpt>
<trkpt lat="53.177562" lon="-2.076641"><ele>222</ele><time>2023-03-17T10:37:24Z</time><name>PT1031</name></trkpt>
<trkpt lat="53.177579" lon="-2.076704"><ele>222</ele><time>2023-03-17T10:37:27Z</time><name>PT1032</name></trkpt>
<trkpt lat="53.177584" lon="-2.076775"><ele>221</ele><time>2023-03-17T10:37:32Z</time><name>PT1033</name></trkpt>
<trkpt lat="53.177593" lon="-2.076819"><ele>221</ele><time>2023-03-17T10:37:35Z</time><name>PT1034</name></trkpt>
<trkpt lat="53.177608" lon="-2.076871"><ele>221</ele><time>2023-03-17T10:37:39Z</time><name>PT1035</name></trkpt>
<trkpt lat="53.177623" lon="-2.076890"><ele>221</ele><time>2023-03-17T10:37:42Z</time><name>PT1036</name></trkpt>
<trkpt lat="53.177644" lon="-2.076900"><ele>221</ele><time>2023-03-17T10:37:45Z</time><name>PT1037</name></trkpt>
<trkpt lat="53.177656" lon="-2.076911"><ele>221</ele><time>2023-03-17T10:37:48Z</time><name>PT1038</name></trkpt>
<trkpt lat="53.177657" lon="-2.076911"><ele>221</ele><time>2023-03-17T10:37:53Z</time><name>PT1039</name></trkpt>
<trkpt lat="53.177667" lon="-2.076917"><ele>221</ele><time>2023-03-17T10:37:57Z</time><name>PT1040</name></trkpt>
<trkpt lat="53.177667" lon="-2.076928"><ele>221</ele><time>2023-03-17T10:38:00Z</time><name>PT1041</name></trkpt>
<trkpt lat="53.177675" lon="-2.076980"><ele>220</ele><time>2023-03-17T10:38:03Z</time><name>PT1042</name></trkpt>
<trkpt lat="53.177717" lon="-2.077037"><ele>219</ele><time>2023-03-17T10:38:06Z</time><name>PT1043</name></trkpt>
<trkpt lat="53.177747" lon="-2.077070"><ele>219</ele><time>2023-03-17T10:38:09Z</time><name>PT1044</name></trkpt>
<trkpt lat="53.177776" lon="-2.077131"><ele>219</ele><time>2023-03-17T10:38:12Z</time><name>PT1045</name></trkpt>
<trkpt lat="53.177812" lon="-2.077193"><ele>218</ele><time>2023-03-17T10:38:17Z</time><name>PT1046</name></trkpt>
<trkpt lat="53.177845" lon="-2.077240"><ele>218</ele><time>2023-03-17T10:38:20Z</time><name>PT1047</name></trkpt>
<trkpt lat="53.177877" lon="-2.077306"><ele>218</ele><time>2023-03-17T10:38:24Z</time><name>PT1048</name></trkpt>
<trkpt lat="53.177897" lon="-2.077355"><ele>217</ele><time>2023-03-17T10:38:27Z</time><name>PT1049</name></trkpt>
<trkpt lat="53.177935" lon="-2.077421"><ele>217</ele><time>2023-03-17T10:38:30Z</time><name>PT1050</name></trkpt>
<trkpt lat="53.177962" lon="-2.077471"><ele>218</ele><time>2023-03-17T10:38:33Z</time><name>PT1051</name></trkpt>
<trkpt lat="53.177995" lon="-2.077532"><ele>218</ele><time>2023-03-17T10:38:38Z</time><name>PT1052</name></trkpt>
<trkpt lat="53.178021" lon="-2.077580"><ele>218</ele><time>2023-03-17T10:38:41Z</time><name>PT1053</name></trkpt>
<trkpt lat="53.178052" lon="-2.077641"><ele>218</ele><time>2023-03-17T10:38:45Z</time><name>PT1054</name></trkpt>
<trkpt lat="53.178076" lon="-2.077687"><ele>218</ele><time>2023-03-17T10:38:48Z</time><name>PT1055</name></trkpt>
<trkpt lat="53.178110" lon="-2.077743"><ele>218</ele><time>2023-03-17T10:38:51Z</time><name>PT1056</name></trkpt>
<trkpt lat="53.178135" lon="-2.077787"><ele>218</ele><time>2023-03-17T10:38:54Z</time><name>PT1057</name></trkpt>
<trkpt lat="53.178159" lon="-2.077832"><ele>218</ele><time>2023-03-17T10:38:57Z</time><name>PT1058</name></trkpt>
<trkpt lat="53.178192" lon="-2.077895"><ele>218</ele><time>2023-03-17T10:39:02Z</time><name>PT1059</name></trkpt>
<trkpt lat="53.178217" lon="-2.077937"><ele>218</ele><time>2023-03-17T10:39:05Z</time><name>PT1060</name></trkpt>
<trkpt lat="53.178253" lon="-2.077989"><ele>218</ele><time>2023-03-17T10:39:09Z</time><name>PT1061</name></trkpt>
<trkpt lat="53.178285" lon="-2.078049"><ele>217</ele><time>2023-03-17T10:39:12Z</time><name>PT1062</name></trkpt>
<trkpt lat="53.178308" lon="-2.078094"><ele>217</ele><time>2023-03-17T10:39:15Z</time><name>PT1063</name></trkpt>
<trkpt lat="53.178341" lon="-2.078152"><ele>217</ele><time>2023-03-17T10:39:20Z</time><name>PT1064</name></trkpt>
<trkpt lat="53.178364" lon="-2.078197"><ele>217</ele><time>2023-03-17T10:39:23Z</time><name>PT1065</name></trkpt>
<trkpt lat="53.178396" lon="-2.078242"><ele>216</ele><time>2023-03-17T10:39:26Z</time><name>PT1066</name></trkpt>
<trkpt lat="53.178430" lon="-2.078298"><ele>216</ele><time>2023-03-17T10:39:30Z</time><name>PT1067</name></trkpt>
<trkpt lat="53.178456" lon="-2.078359"><ele>216</ele><time>2023-03-17T10:39:33Z</time><name>PT1068</name></trkpt>
<trkpt lat="53.178472" lon="-2.078405"><ele>216</ele><time>2023-03-17T10:39:36Z</time><name>PT1069</name></trkpt>
<trkpt lat="53.178480" lon="-2.078450"><ele>216</ele><time>2023-03-17T10:39:41Z</time><name>PT1070</name></trkpt>
<trkpt lat="53.178482" lon="-2.078461"><ele>216</ele><time>2023-03-17T10:39:45Z</time><name>PT1071</name></trkpt>
<trkpt lat="53.178518" lon="-2.078500"><ele>215</ele><time>2023-03-17T10:40:06Z</time><name>PT1072</name></trkpt>
<trkpt lat="53.178573" lon="-2.078491"><ele>215</ele><time>2023-03-17T10:40:11Z</time><name>PT1073</name></trkpt>
<trkpt lat="53.178612" lon="-2.078468"><ele>215</ele><time>2023-03-17T10:40:14Z</time><name>PT1074</name></trkpt>
<trkpt lat="53.178659" lon="-2.078442"><ele>216</ele><time>2023-03-17T10:40:18Z</time><name>PT1075</name></trkpt>
<trkpt lat="53.178690" lon="-2.078426"><ele>216</ele><time>2023-03-17T10:40:21Z</time><name>PT1076</name></trkpt>
<trkpt lat="53.178737" lon="-2.078411"><ele>217</ele><time>2023-03-17T10:40:24Z</time><name>PT1077</name></trkpt>
<trkpt lat="53.178778" lon="-2.078394"><ele>218</ele><time>2023-03-17T10:40:29Z</time><name>PT1078</name></trkpt>
<trkpt lat="53.178825" lon="-2.078370"><ele>219</ele><time>2023-03-17T10:40:33Z</time><name>PT1079</name></trkpt>
<trkpt lat="53.178871" lon="-2.078365"><ele>219</ele><time>2023-03-17T10:40:36Z</time><name>PT1080</name></trkpt>
<trkpt lat="53.178904" lon="-2.078355"><ele>219</ele><time>2023-03-17T10:40:39Z</time><name>PT1081</name></trkpt>
<trkpt lat="53.178949" lon="-2.078350"><ele>218</ele><time>2023-03-17T10:40:44Z</time><name>PT1082</name></trkpt>
<trkpt lat="53.178977" lon="-2.078339"><ele>218</ele><time>2023-03-17T10:40:47Z</time><name>PT1083</name></trkpt>
<trkpt lat="53.179012" lon="-2.078345"><ele>218</ele><time>2023-03-17T10:40:50Z</time><name>PT1084</name></trkpt>
<trkpt lat="53.179047" lon="-2.078328"><ele>218</ele><time>2023-03-17T10:40:53Z</time><name>PT1085</name></trkpt>
<trkpt lat="53.179087" lon="-2.078323"><ele>218</ele><time>2023-03-17T10:40:57Z</time><name>PT1086</name></trkpt>
<trkpt lat="53.179120" lon="-2.078314"><ele>218</ele><time>2023-03-17T10:41:00Z</time><name>PT1087</name></trkpt>
<trkpt lat="53.179161" lon="-2.078312"><ele>219</ele><time>2023-03-17T10:41:03Z</time><name>PT1088</name></trkpt>
<trkpt lat="53.179206" lon="-2.078300"><ele>217</ele><time>2023-03-17T10:41:08Z</time><name>PT1089</name></trkpt>
<trkpt lat="53.179230" lon="-2.078289"><ele>218</ele><time>2023-03-17T10:41:11Z</time><name>PT1090</name></trkpt>
<trkpt lat="53.179267" lon="-2.078280"><ele>217</ele><time>2023-03-17T10:41:15Z</time><name>PT1091</name></trkpt>
<trkpt lat="53.179297" lon="-2.078267"><ele>216</ele><time>2023-03-17T10:41:18Z</time><name>PT1092</name></trkpt>
<trkpt lat="53.179321" lon="-2.078255"><ele>217</ele><time>2023-03-17T10:41:21Z</time><name>PT1093</name></trkpt>
<trkpt lat="53.179343" lon="-2.078246"><ele>218</ele><time>2023-03-17T10:41:24Z</time><name>PT1094</name></trkpt>
<trkpt lat="53.179373" lon="-2.078243"><ele>218</ele><time>2023-03-17T10:41:27Z</time><name>PT1095</name></trkpt>
<trkpt lat="53.179403" lon="-2.078242"><ele>219</ele><time>2023-03-17T10:41:30Z</time><name>PT1096</name></trkpt>
<trkpt lat="53.179427" lon="-2.078236"><ele>220</ele><time>2023-03-17T10:41:35Z</time><name>PT1097</name></trkpt>
<trkpt lat="53.179430" lon="-2.078236"><ele>220</ele><time>2023-03-17T10:41:39Z</time><name>PT1098</name></trkpt>
<trkpt lat="53.179436" lon="-2.078231"><ele>220</ele><time>2023-03-17T10:41:42Z</time><name>PT1099</name></trkpt>
<trkpt lat="53.179477" lon="-2.078206"><ele>220</ele><time>2023-03-17T10:41:45Z</time><name>PT1100</name></trkpt>
<trkpt lat="53.179505" lon="-2.078172"><ele>221</ele><time>2023-03-17T10:41:50Z</time><name>PT1101</name></trkpt>
<trkpt lat="53.179541" lon="-2.078143"><ele>220</ele><time>2023-03-17T10:41:54Z</time><name>PT1102</name></trkpt>
<trkpt lat="53.179560" lon="-2.078124"><ele>219</ele><time>2023-03-17T10:41:57Z</time><name>PT1103</name></trkpt>
<trkpt lat="53.179588" lon="-2.078097"><ele>219</ele><time>2023-03-17T10:42:00Z</time><name>PT1104</name></trkpt>
<trkpt lat="53.179614" lon="-2.078079"><ele>219</ele><time>2023-03-17T10:42:03Z</time><name>PT1105</name></trkpt>
<trkpt lat="53.179647" lon="-2.078039"><ele>218</ele><time>2023-03-17T10:42:08Z</time><name>PT1106</name></trkpt>
<trkpt lat="53.179677" lon="-2.078024"><ele>218</ele><time>2023-03-17T10:42:11Z</time><name>PT1107</name></trkpt>
<trkpt lat="53.179692" lon="-2.078005"><ele>218</ele><time>2023-03-17T10:42:14Z</time><name>PT1108</name></trkpt>
<trkpt lat="53.179717" lon="-2.077981"><ele>218</ele><time>2023-03-17T10:42:18Z</time><name>PT1109</name></trkpt>
<trkpt lat="53.179744" lon="-2.077961"><ele>219</ele><time>2023-03-17T10:42:21Z</time><name>PT1110</name></trkpt>
<trkpt lat="53.179754" lon="-2.077938"><ele>218</ele><time>2023-03-17T10:42:24Z</time><name>PT1111</name></trkpt>
<trkpt lat="53.179769" lon="-2.077922"><ele>219</ele><time>2023-03-17T10:42:27Z</time><name>PT1112</name></trkpt>
<trkpt lat="53.179788" lon="-2.077901"><ele>220</ele><time>2023-03-17T10:42:32Z</time><name>PT1113</name></trkpt>
<trkpt lat="53.179817" lon="-2.077887"><ele>221</ele><time>2023-03-17T10:42:35Z</time><name>PT1114</name></trkpt>
<trkpt lat="53.179838" lon="-2.077853"><ele>221</ele><time>2023-03-17T10:42:39Z</time><name>PT1115</name></trkpt>
<trkpt lat="53.179879" lon="-2.077814"><ele>221</ele><time>2023-03-17T10:42:42Z</time><name>PT1116</name></trkpt>
<trkpt lat="53.179904" lon="-2.077788"><ele>221</ele><time>2023-03-17T10:42:45Z</time><name>PT1117</name></trkpt>
<trkpt lat="53.179939" lon="-2.077757"><ele>221</ele><time>2023-03-17T10:42:50Z</time><name>PT1118</name></trkpt>
<trkpt lat="53.179959" lon="-2.077734"><ele>220</ele><time>2023-03-17T10:42:54Z</time><name>PT1119</name></trkpt>
<trkpt lat="53.179969" lon="-2.077705"><ele>221</ele><time>2023-03-17T10:42:57Z</time><name>PT1120</name></trkpt>
<trkpt lat="53.179970" lon="-2.077680"><ele>221</ele><time>2023-03-17T10:43:00Z</time><name>PT1121</name></trkpt>
<trkpt lat="53.179987" lon="-2.077651"><ele>221</ele><time>2023-03-17T10:43:03Z</time><name>PT1122</name></trkpt>
<trkpt lat="53.180022" lon="-2.077625"><ele>222</ele><time>2023-03-17T10:43:06Z</time><name>PT1123</name></trkpt>
<trkpt lat="53.180066" lon="-2.077591"><ele>224</ele><time>2023-03-17T10:43:09Z</time><name>PT1124</name></trkpt>
<trkpt lat="53.180091" lon="-2.077538"><ele>223</ele><time>2023-03-17T10:43:14Z</time><name>PT1125</name></trkpt>
<trkpt lat="53.180125" lon="-2.077494"><ele>225</ele><time>2023-03-17T10:43:17Z</time><name>PT1126</name></trkpt>
<trkpt lat="53.180148" lon="-2.077456"><ele>228</ele><time>2023-03-17T10:43:21Z</time><name>PT1127</name></trkpt>
<trkpt lat="53.180165" lon="-2.077423"><ele>230</ele><time>2023-03-17T10:43:24Z</time><name>PT1128</name></trkpt>
<trkpt lat="53.180186" lon="-2.077376"><ele>232</ele><time>2023-03-17T10:43:27Z</time><name>PT1129</name></trkpt>
<trkpt lat="53.180198" lon="-2.077321"><ele>234</ele><time>2023-03-17T10:43:32Z</time><name>PT1130</name></trkpt>
<trkpt lat="53.180220" lon="-2.077265"><ele>234</ele><time>2023-03-17T10:43:36Z</time><name>PT1131</name></trkpt>
<trkpt lat="53.180219" lon="-2.077259"><ele>233</ele><time>2023-03-17T10:43:39Z</time><name>PT1132</name></trkpt>
<trkpt lat="53.180223" lon="-2.077257"><ele>234</ele><time>2023-03-17T10:43:42Z</time><name>PT1133</name></trkpt>
<trkpt lat="53.180226" lon="-2.077258"><ele>233</ele><time>2023-03-17T10:43:47Z</time><name>PT1134</name></trkpt>
<trkpt lat="53.180228" lon="-2.077262"><ele>233</ele><time>2023-03-17T10:43:51Z</time><name>PT1135</name></trkpt>
<trkpt lat="53.180233" lon="-2.077271"><ele>232</ele><time>2023-03-17T10:43:57Z</time><name>PT1136</name></trkpt>
<trkpt lat="53.180244" lon="-2.077235"><ele>232</ele><time>2023-03-17T10:44:03Z</time><name>PT1137</name></trkpt>
<trkpt lat="53.180261" lon="-2.077245"><ele>232</ele><time>2023-03-17T10:44:06Z</time><name>PT1138</name></trkpt>
<trkpt lat="53.180273" lon="-2.077274"><ele>231</ele><time>2023-03-17T10:44:11Z</time><name>PT1139</name></trkpt>
<trkpt lat="53.180286" lon="-2.077288"><ele>231</ele><time>2023-03-17T10:44:15Z</time><name>PT1140</name></trkpt>
<trkpt lat="53.180301" lon="-2.077300"><ele>231</ele><time>2023-03-17T10:44:21Z</time><name>PT1141</name></trkpt>
<trkpt lat="53.180312" lon="-2.077324"><ele>230</ele><time>2023-03-17T10:44:24Z</time><name>PT1142</name></trkpt>
<trkpt lat="53.180318" lon="-2.077338"><ele>230</ele><time>2023-03-17T10:44:29Z</time><name>PT1143</name></trkpt>
<trkpt lat="53.180321" lon="-2.077337"><ele>230</ele><time>2023-03-17T10:44:32Z</time><name>PT1144</name></trkpt>
<trkpt lat="53.180331" lon="-2.077357"><ele>231</ele><time>2023-03-17T10:44:35Z</time><name>PT1145</name></trkpt>
<trkpt lat="53.180348" lon="-2.077346"><ele>231</ele><time>2023-03-17T10:44:39Z</time><name>PT1146</name></trkpt>
<trkpt lat="53.180351" lon="-2.077338"><ele>231</ele><time>2023-03-17T10:44:42Z</time><name>PT1147</name></trkpt>
<trkpt lat="53.180358" lon="-2.077329"><ele>231</ele><time>2023-03-17T10:44:45Z</time><name>PT1148</name></trkpt>
<trkpt lat="53.180368" lon="-2.077321"><ele>228</ele><time>2023-03-17T10:44:48Z</time><name>PT1149</name></trkpt>
<trkpt lat="53.180376" lon="-2.077310"><ele>226</ele><time>2023-03-17T10:44:51Z</time><name>PT1150</name></trkpt>
<trkpt lat="53.180393" lon="-2.077298"><ele>224</ele><time>2023-03-17T10:44:56Z</time><name>PT1151</name></trkpt>
<trkpt lat="53.180424" lon="-2.077280"><ele>229</ele><time>2023-03-17T10:45:00Z</time><name>PT1152</name></trkpt>
<trkpt lat="53.180428" lon="-2.077283"><ele>230</ele><time>2023-03-17T10:45:03Z</time><name>PT1153</name></trkpt>
<trkpt lat="53.180431" lon="-2.077286"><ele>229</ele><time>2023-03-17T10:45:06Z</time><name>PT1154</name></trkpt>
<trkpt lat="53.180422" lon="-2.077286"><ele>228</ele><time>2023-03-17T10:45:11Z</time><name>PT1155</name></trkpt>
<trkpt lat="53.180435" lon="-2.077268"><ele>228</ele><time>2023-03-17T10:45:15Z</time><name>PT1156</name></trkpt>
<trkpt lat="53.180436" lon="-2.077264"><ele>228</ele><time>2023-03-17T10:45:18Z</time><name>PT1157</name></trkpt>
<trkpt lat="53.180459" lon="-2.077214"><ele>227</ele><time>2023-03-17T10:45:23Z</time><name>PT1158</name></trkpt>
<trkpt lat="53.180494" lon="-2.077163"><ele>228</ele><time>2023-03-17T10:45:27Z</time><name>PT1159</name></trkpt>
<trkpt lat="53.180529" lon="-2.077114"><ele>226</ele><time>2023-03-17T10:45:30Z</time><name>PT1160</name></trkpt>
<trkpt lat="53.180564" lon="-2.077065"><ele>226</ele><time>2023-03-17T10:45:35Z</time><name>PT1161</name></trkpt>
<trkpt lat="53.180593" lon="-2.077037"><ele>227</ele><time>2023-03-17T10:45:38Z</time><name>PT1162</name></trkpt>
<trkpt lat="53.180624" lon="-2.077000"><ele>227</ele><time>2023-03-17T10:45:42Z</time><name>PT1163</name></trkpt>
<trkpt lat="53.180663" lon="-2.076966"><ele>228</ele><time>2023-03-17T10:45:45Z</time><name>PT1164</name></trkpt>
<trkpt lat="53.180703" lon="-2.076936"><ele>229</ele><time>2023-03-17T10:45:50Z</time><name>PT1165</name></trkpt>
<trkpt lat="53.180744" lon="-2.076903"><ele>230</ele><time>2023-03-17T10:45:54Z</time><name>PT1166</name></trkpt>
<trkpt lat="53.180777" lon="-2.076887"><ele>230</ele><time>2023-03-17T10:45:57Z</time><name>PT1167</name></trkpt>
<trkpt lat="53.180807" lon="-2.076864"><ele>230</ele><time>2023-03-17T10:46:00Z</time><name>PT1168</name></trkpt>
<trkpt lat="53.180849" lon="-2.076838"><ele>231</ele><time>2023-03-17T10:46:03Z</time><name>PT1169</name></trkpt>
<trkpt lat="53.180893" lon="-2.076805"><ele>232</ele><time>2023-03-17T10:46:08Z</time><name>PT1170</name></trkpt>
<trkpt lat="53.180928" lon="-2.076790"><ele>232</ele><time>2023-03-17T10:46:11Z</time><name>PT1171</name></trkpt>
<trkpt lat="53.180962" lon="-2.076769"><ele>232</ele><time>2023-03-17T10:46:14Z</time><name>PT1172</name></trkpt>
<trkpt lat="53.181003" lon="-2.076751"><ele>232</ele><time>2023-03-17T10:46:18Z</time><name>PT1173</name></trkpt>
<trkpt lat="53.181038" lon="-2.076739"><ele>233</ele><time>2023-03-17T10:46:21Z</time><name>PT1174</name></trkpt>
<trkpt lat="53.181081" lon="-2.076713"><ele>234</ele><time>2023-03-17T10:46:24Z</time><name>PT1175</name></trkpt>
<trkpt lat="53.181125" lon="-2.076695"><ele>236</ele><time>2023-03-17T10:46:29Z</time><name>PT1176</name></trkpt>
<trkpt lat="53.181159" lon="-2.076683"><ele>237</ele><time>2023-03-17T10:46:32Z</time><name>PT1177</name></trkpt>
<trkpt lat="53.181203" lon="-2.076664"><ele>238</ele><time>2023-03-17T10:46:36Z</time><name>PT1178</name></trkpt>
<trkpt lat="53.181235" lon="-2.076653"><ele>238</ele><time>2023-03-17T10:46:39Z</time><name>PT1179</name></trkpt>
<trkpt lat="53.181285" lon="-2.076641"><ele>239</ele><time>2023-03-17T10:46:42Z</time><name>PT1180</name></trkpt>
<trkpt lat="53.181317" lon="-2.076626"><ele>239</ele><time>2023-03-17T10:46:45Z</time><name>PT1181</name></trkpt>
<trkpt lat="53.181359" lon="-2.076608"><ele>239</ele><time>2023-03-17T10:46:50Z</time><name>PT1182</name></trkpt>
<trkpt lat="53.181394" lon="-2.076596"><ele>240</ele><time>2023-03-17T10:46:53Z</time><name>PT1183</name></trkpt>
<trkpt lat="53.181438" lon="-2.076577"><ele>239</ele><time>2023-03-17T10:46:57Z</time><name>PT1184</name></trkpt>
<trkpt lat="53.181486" lon="-2.076554"><ele>240</ele><time>2023-03-17T10:47:00Z</time><name>PT1185</name></trkpt>
<trkpt lat="53.181520" lon="-2.076542"><ele>240</ele><time>2023-03-17T10:47:03Z</time><name>PT1186</name></trkpt>
<trkpt lat="53.181562" lon="-2.076519"><ele>240</ele><time>2023-03-17T10:47:08Z</time><name>PT1187</name></trkpt>
<trkpt lat="53.181606" lon="-2.076491"><ele>240</ele><time>2023-03-17T10:47:11Z</time><name>PT1188</name></trkpt>
<trkpt lat="53.181638" lon="-2.076480"><ele>240</ele><time>2023-03-17T10:47:14Z</time><name>PT1189</name></trkpt>
<trkpt lat="53.181670" lon="-2.076467"><ele>241</ele><time>2023-03-17T10:47:17Z</time><name>PT1190</name></trkpt>
<trkpt lat="53.181715" lon="-2.076452"><ele>241</ele><time>2023-03-17T10:47:21Z</time><name>PT1191</name></trkpt>
<trkpt lat="53.181743" lon="-2.076435"><ele>241</ele><time>2023-03-17T10:47:24Z</time><name>PT1192</name></trkpt>
<trkpt lat="53.181787" lon="-2.076405"><ele>241</ele><time>2023-03-17T10:47:27Z</time><name>PT1193</name></trkpt>
<trkpt lat="53.181825" lon="-2.076372"><ele>241</ele><time>2023-03-17T10:47:32Z</time><name>PT1194</name></trkpt>
<trkpt lat="53.181851" lon="-2.076350"><ele>241</ele><time>2023-03-17T10:47:35Z</time><name>PT1195</name></trkpt>
<trkpt lat="53.181895" lon="-2.076318"><ele>241</ele><time>2023-03-17T10:47:39Z</time><name>PT1196</name></trkpt>
<trkpt lat="53.181927" lon="-2.076296"><ele>241</ele><time>2023-03-17T10:47:42Z</time><name>PT1197</name></trkpt>
<trkpt lat="53.181962" lon="-2.076267"><ele>240</ele><time>2023-03-17T10:47:45Z</time><name>PT1198</name></trkpt>
<trkpt lat="53.181992" lon="-2.076240"><ele>241</ele><time>2023-03-17T10:47:48Z</time><name>PT1199</name></trkpt>
<trkpt lat="53.182024" lon="-2.076217"><ele>241</ele><time>2023-03-17T10:47:53Z</time><name>PT1200</name></trkpt>
<trkpt lat="53.182061" lon="-2.076195"><ele>241</ele><time>2023-03-17T10:47:57Z</time><name>PT1201</name></trkpt>
<trkpt lat="53.182094" lon="-2.076172"><ele>241</ele><time>2023-03-17T10:48:00Z</time><name>PT1202</name></trkpt>
<trkpt lat="53.182140" lon="-2.076142"><ele>243</ele><time>2023-03-17T10:48:03Z</time><name>PT1203</name></trkpt>
<trkpt lat="53.182170" lon="-2.076112"><ele>243</ele><time>2023-03-17T10:48:06Z</time><name>PT1204</name></trkpt>
<trkpt lat="53.182204" lon="-2.076099"><ele>244</ele><time>2023-03-17T10:48:09Z</time><name>PT1205</name></trkpt>
<trkpt lat="53.182244" lon="-2.076071"><ele>244</ele><time>2023-03-17T10:48:14Z</time><name>PT1206</name></trkpt>
<trkpt lat="53.182282" lon="-2.076046"><ele>243</ele><time>2023-03-17T10:48:18Z</time><name>PT1207</name></trkpt>
<trkpt lat="53.182302" lon="-2.076023"><ele>242</ele><time>2023-03-17T10:48:21Z</time><name>PT1208</name></trkpt>
<trkpt lat="53.182319" lon="-2.076024"><ele>241</ele><time>2023-03-17T10:48:24Z</time><name>PT1209</name></trkpt>
<trkpt lat="53.182320" lon="-2.076024"><ele>241</ele><time>2023-03-17T10:48:29Z</time><name>PT1210</name></trkpt>
<trkpt lat="53.182349" lon="-2.076008"><ele>241</ele><time>2023-03-17T10:48:50Z</time><name>PT1211</name></trkpt>
<trkpt lat="53.182364" lon="-2.075999"><ele>241</ele><time>2023-03-17T10:48:53Z</time><name>PT1212</name></trkpt>
<trkpt lat="53.182372" lon="-2.075994"><ele>242</ele><time>2023-03-17T10:49:33Z</time><name>PT1213</name></trkpt>
<trkpt lat="53.182417" lon="-2.075966"><ele>241</ele><time>2023-03-17T10:49:38Z</time><name>PT1214</name></trkpt>
<trkpt lat="53.182449" lon="-2.075944"><ele>241</ele><time>2023-03-17T10:49:41Z</time><name>PT1215</name></trkpt>
<trkpt lat="53.182486" lon="-2.075920"><ele>241</ele><time>2023-03-17T10:49:45Z</time><name>PT1216</name></trkpt>
<trkpt lat="53.182517" lon="-2.075900"><ele>241</ele><time>2023-03-17T10:49:48Z</time><name>PT1217</name></trkpt>
<trkpt lat="53.182563" lon="-2.075876"><ele>241</ele><time>2023-03-17T10:49:51Z</time><name>PT1218</name></trkpt>
<trkpt lat="53.182595" lon="-2.075857"><ele>241</ele><time>2023-03-17T10:49:54Z</time><name>PT1219</name></trkpt>
<trkpt lat="53.182640" lon="-2.075832"><ele>242</ele><time>2023-03-17T10:49:59Z</time><name>PT1220</name></trkpt>
<trkpt lat="53.182673" lon="-2.075803"><ele>242</ele><time>2023-03-17T10:50:02Z</time><name>PT1221</name></trkpt>
<trkpt lat="53.182718" lon="-2.075769"><ele>242</ele><time>2023-03-17T10:50:06Z</time><name>PT1222</name></trkpt>
<trkpt lat="53.182765" lon="-2.075729"><ele>243</ele><time>2023-03-17T10:50:09Z</time><name>PT1223</name></trkpt>
<trkpt lat="53.182804" lon="-2.075684"><ele>243</ele><time>2023-03-17T10:50:14Z</time><name>PT1224</name></trkpt>
<trkpt lat="53.182839" lon="-2.075633"><ele>242</ele><time>2023-03-17T10:50:18Z</time><name>PT1225</name></trkpt>
<trkpt lat="53.182872" lon="-2.075605"><ele>243</ele><time>2023-03-17T10:50:21Z</time><name>PT1226</name></trkpt>
<trkpt lat="53.182901" lon="-2.075579"><ele>243</ele><time>2023-03-17T10:50:24Z</time><name>PT1227</name></trkpt>
<trkpt lat="53.182926" lon="-2.075558"><ele>243</ele><time>2023-03-17T10:50:27Z</time><name>PT1228</name></trkpt>
<trkpt lat="53.182934" lon="-2.075553"><ele>243</ele><time>2023-03-17T10:50:30Z</time><name>PT1229</name></trkpt>
<trkpt lat="53.182972" lon="-2.075522"><ele>243</ele><time>2023-03-17T10:50:38Z</time><name>PT1230</name></trkpt>
<trkpt lat="53.183017" lon="-2.075490"><ele>244</ele><time>2023-03-17T10:50:42Z</time><name>PT1231</name></trkpt>
<trkpt lat="53.183046" lon="-2.075469"><ele>245</ele><time>2023-03-17T10:50:45Z</time><name>PT1232</name></trkpt>
<trkpt lat="53.183074" lon="-2.075446"><ele>244</ele><time>2023-03-17T10:50:48Z</time><name>PT1233</name></trkpt>
<trkpt lat="53.183097" lon="-2.075426"><ele>244</ele><time>2023-03-17T10:50:51Z</time><name>PT1234</name></trkpt>
<trkpt lat="53.183134" lon="-2.075393"><ele>244</ele><time>2023-03-17T10:50:54Z</time><name>PT1235</name></trkpt>
<trkpt lat="53.183164" lon="-2.075363"><ele>244</ele><time>2023-03-17T10:50:57Z</time><name>PT1236</name></trkpt>
<trkpt lat="53.183189" lon="-2.075336"><ele>244</ele><time>2023-03-17T10:51:00Z</time><name>PT1237</name></trkpt>
<trkpt lat="53.183224" lon="-2.075299"><ele>243</ele><time>2023-03-17T10:51:05Z</time><name>PT1238</name></trkpt>
<trkpt lat="53.183249" lon="-2.075273"><ele>244</ele><time>2023-03-17T10:51:08Z</time><name>PT1239</name></trkpt>
<trkpt lat="53.183274" lon="-2.075248"><ele>244</ele><time>2023-03-17T10:51:11Z</time><name>PT1240</name></trkpt>
<trkpt lat="53.183308" lon="-2.075209"><ele>244</ele><time>2023-03-17T10:51:15Z</time><name>PT1241</name></trkpt>
<trkpt lat="53.183332" lon="-2.075173"><ele>243</ele><time>2023-03-17T10:51:18Z</time><name>PT1242</name></trkpt>
<trkpt lat="53.183367" lon="-2.075130"><ele>243</ele><time>2023-03-17T10:51:21Z</time><name>PT1243</name></trkpt>
<trkpt lat="53.183388" lon="-2.075102"><ele>243</ele><time>2023-03-17T10:51:24Z</time><name>PT1244</name></trkpt>
<trkpt lat="53.183411" lon="-2.075058"><ele>243</ele><time>2023-03-17T10:51:29Z</time><name>PT1245</name></trkpt>
<trkpt lat="53.183438" lon="-2.075018"><ele>243</ele><time>2023-03-17T10:51:33Z</time><name>PT1246</name></trkpt>
<trkpt lat="53.183460" lon="-2.074989"><ele>243</ele><time>2023-03-17T10:51:36Z</time><name>PT1247</name></trkpt>
<trkpt lat="53.183492" lon="-2.074941"><ele>243</ele><time>2023-03-17T10:51:39Z</time><name>PT1248</name></trkpt>
<trkpt lat="53.183508" lon="-2.074926"><ele>242</ele><time>2023-03-17T10:51:42Z</time><name>PT1249</name></trkpt>
<trkpt lat="53.183530" lon="-2.074912"><ele>242</ele><time>2023-03-17T10:51:45Z</time><name>PT1250</name></trkpt>
<trkpt lat="53.183562" lon="-2.074890"><ele>241</ele><time>2023-03-17T10:51:50Z</time><name>PT1251</name></trkpt>
<trkpt lat="53.183591" lon="-2.074878"><ele>240</ele><time>2023-03-17T10:51:53Z</time><name>PT1252</name></trkpt>
<trkpt lat="53.183633" lon="-2.074868"><ele>240</ele><time>2023-03-17T10:51:57Z</time><name>PT1253</name></trkpt>
<trkpt lat="53.183664" lon="-2.074891"><ele>239</ele><time>2023-03-17T10:52:00Z</time><name>PT1254</name></trkpt>
<trkpt lat="53.183691" lon="-2.074899"><ele>239</ele><time>2023-03-17T10:52:03Z</time><name>PT1255</name></trkpt>
<trkpt lat="53.183708" lon="-2.074952"><ele>239</ele><time>2023-03-17T10:52:08Z</time><name>PT1256</name></trkpt>
<trkpt lat="53.183735" lon="-2.074975"><ele>239</ele><time>2023-03-17T10:52:11Z</time><name>PT1257</name></trkpt>
<trkpt lat="53.183766" lon="-2.075002"><ele>239</ele><time>2023-03-17T10:52:15Z</time><name>PT1258</name></trkpt>
<trkpt lat="53.183792" lon="-2.075017"><ele>238</ele><time>2023-03-17T10:52:18Z</time><name>PT1259</name></trkpt>
<trkpt lat="53.183841" lon="-2.075035"><ele>239</ele><time>2023-03-17T10:52:21Z</time><name>PT1260</name></trkpt>
<trkpt lat="53.183874" lon="-2.075015"><ele>239</ele><time>2023-03-17T10:52:26Z</time><name>PT1261</name></trkpt>
<trkpt lat="53.183898" lon="-2.075009"><ele>239</ele><time>2023-03-17T10:52:29Z</time><name>PT1262</name></trkpt>
<trkpt lat="53.183924" lon="-2.075018"><ele>240</ele><time>2023-03-17T10:52:32Z</time><name>PT1263</name></trkpt>
<trkpt lat="53.183953" lon="-2.075033"><ele>241</ele><time>2023-03-17T10:52:36Z</time><name>PT1264</name></trkpt>
<trkpt lat="53.183970" lon="-2.075034"><ele>241</ele><time>2023-03-17T10:52:39Z</time><name>PT1265</name></trkpt>
<trkpt lat="53.184002" lon="-2.075031"><ele>242</ele><time>2023-03-17T10:52:42Z</time><name>PT1266</name></trkpt>
<trkpt lat="53.184031" lon="-2.075058"><ele>243</ele><time>2023-03-17T10:52:47Z</time><name>PT1267</name></trkpt>
<trkpt lat="53.184042" lon="-2.075070"><ele>243</ele><time>2023-03-17T10:52:50Z</time><name>PT1268</name></trkpt>
<trkpt lat="53.184050" lon="-2.075072"><ele>242</ele><time>2023-03-17T10:52:54Z</time><name>PT1269</name></trkpt>
<trkpt lat="53.184064" lon="-2.075079"><ele>242</ele><time>2023-03-17T10:52:57Z</time><name>PT1270</name></trkpt>
<trkpt lat="53.184079" lon="-2.075075"><ele>241</ele><time>2023-03-17T10:53:00Z</time><name>PT1271</name></trkpt>
<trkpt lat="53.184083" lon="-2.075049"><ele>241</ele><time>2023-03-17T10:53:05Z</time><name>PT1272</name></trkpt>
<trkpt lat="53.184084" lon="-2.075047"><ele>241</ele><time>2023-03-17T10:53:08Z</time><name>PT1273</name></trkpt>
<trkpt lat="53.184082" lon="-2.075036"><ele>240</ele><time>2023-03-17T10:53:11Z</time><name>PT1274</name></trkpt>
<trkpt lat="53.184102" lon="-2.075040"><ele>240</ele><time>2023-03-17T10:53:14Z</time><name>PT1275</name></trkpt>
<trkpt lat="53.184134" lon="-2.075050"><ele>240</ele><time>2023-03-17T10:53:18Z</time><name>PT1276</name></trkpt>
<trkpt lat="53.184152" lon="-2.075083"><ele>241</ele><time>2023-03-17T10:53:21Z</time><name>PT1277</name></trkpt>
<trkpt lat="53.184184" lon="-2.075112"><ele>241</ele><time>2023-03-17T10:53:24Z</time><name>PT1278</name></trkpt>
<trkpt lat="53.184212" lon="-2.075166"><ele>241</ele><time>2023-03-17T10:53:29Z</time><name>PT1279</name></trkpt>
<trkpt lat="53.184244" lon="-2.075205"><ele>241</ele><time>2023-03-17T10:53:33Z</time><name>PT1280</name></trkpt>
<trkpt lat="53.184265" lon="-2.075223"><ele>240</ele><time>2023-03-17T10:53:36Z</time><name>PT1281</name></trkpt>
<trkpt lat="53.184284" lon="-2.075250"><ele>241</ele><time>2023-03-17T10:53:39Z</time><name>PT1282</name></trkpt>
<trkpt lat="53.184288" lon="-2.075285"><ele>240</ele><time>2023-03-17T10:53:42Z</time><name>PT1283</name></trkpt>
<trkpt lat="53.184312" lon="-2.075333"><ele>240</ele><time>2023-03-17T10:53:47Z</time><name>PT1284</name></trkpt>
<trkpt lat="53.184345" lon="-2.075352"><ele>240</ele><time>2023-03-17T10:53:51Z</time><name>PT1285</name></trkpt>
<trkpt lat="53.184372" lon="-2.075388"><ele>241</ele><time>2023-03-17T10:53:54Z</time><name>PT1286</name></trkpt>
<trkpt lat="53.184401" lon="-2.075390"><ele>241</ele><time>2023-03-17T10:53:59Z</time><name>PT1287</name></trkpt>
<trkpt lat="53.184426" lon="-2.075398"><ele>241</ele><time>2023-03-17T10:54:02Z</time><name>PT1288</name></trkpt>
<trkpt lat="53.184454" lon="-2.075400"><ele>242</ele><time>2023-03-17T10:54:06Z</time><name>PT1289</name></trkpt>
<trkpt lat="53.184479" lon="-2.075410"><ele>242</ele><time>2023-03-17T10:54:09Z</time><name>PT1290</name></trkpt>
<trkpt lat="53.184508" lon="-2.075422"><ele>243</ele><time>2023-03-17T10:54:12Z</time><name>PT1291</name></trkpt>
<trkpt lat="53.184549" lon="-2.075437"><ele>243</ele><time>2023-03-17T10:54:15Z</time><name>PT1292</name></trkpt>
<trkpt lat="53.184583" lon="-2.075450"><ele>243</ele><time>2023-03-17T10:54:20Z</time><name>PT1293</name></trkpt>
<trkpt lat="53.184602" lon="-2.075450"><ele>243</ele><time>2023-03-17T10:54:23Z</time><name>PT1294</name></trkpt>
<trkpt lat="53.184623" lon="-2.075467"><ele>243</ele><time>2023-03-17T10:54:26Z</time><name>PT1295</name></trkpt>
<trkpt lat="53.184648" lon="-2.075470"><ele>243</ele><time>2023-03-17T10:54:29Z</time><name>PT1296</name></trkpt>
<trkpt lat="53.184672" lon="-2.075483"><ele>243</ele><time>2023-03-17T10:54:32Z</time><name>PT1297</name></trkpt>
<trkpt lat="53.184704" lon="-2.075498"><ele>243</ele><time>2023-03-17T10:54:36Z</time><name>PT1298</name></trkpt>
<trkpt lat="53.184736" lon="-2.075502"><ele>243</ele><time>2023-03-17T10:54:39Z</time><name>PT1299</name></trkpt>
<trkpt lat="53.184771" lon="-2.075510"><ele>244</ele><time>2023-03-17T10:54:42Z</time><name>PT1300</name></trkpt>
<trkpt lat="53.184803" lon="-2.075520"><ele>244</ele><time>2023-03-17T10:54:45Z</time><name>PT1301</name></trkpt>
<trkpt lat="53.184840" lon="-2.075535"><ele>244</ele><time>2023-03-17T10:54:50Z</time><name>PT1302</name></trkpt>
<trkpt lat="53.184880" lon="-2.075550"><ele>244</ele><time>2023-03-17T10:54:54Z</time><name>PT1303</name></trkpt>
<trkpt lat="53.184906" lon="-2.075561"><ele>245</ele><time>2023-03-17T10:54:57Z</time><name>PT1304</name></trkpt>
<trkpt lat="53.184942" lon="-2.075576"><ele>245</ele><time>2023-03-17T10:55:00Z</time><name>PT1305</name></trkpt>
<trkpt lat="53.184969" lon="-2.075588"><ele>245</ele><time>2023-03-17T10:55:03Z</time><name>PT1306</name></trkpt>
<trkpt lat="53.185004" lon="-2.075607"><ele>245</ele><time>2023-03-17T10:55:08Z</time><name>PT1307</name></trkpt>
<trkpt lat="53.185025" lon="-2.075620"><ele>245</ele><time>2023-03-17T10:55:11Z</time><name>PT1308</name></trkpt>
<trkpt lat="53.185055" lon="-2.075645"><ele>245</ele><time>2023-03-17T10:55:15Z</time><name>PT1309</name></trkpt>
<trkpt lat="53.185095" lon="-2.075662"><ele>246</ele><time>2023-03-17T10:55:18Z</time><name>PT1310</name></trkpt>
<trkpt lat="53.185131" lon="-2.075682"><ele>246</ele><time>2023-03-17T10:55:23Z</time><name>PT1311</name></trkpt>
<trkpt lat="53.185167" lon="-2.075715"><ele>246</ele><time>2023-03-17T10:55:27Z</time><name>PT1312</name></trkpt>
<trkpt lat="53.185192" lon="-2.075741"><ele>246</ele><time>2023-03-17T10:55:30Z</time><name>PT1313</name></trkpt>
<trkpt lat="53.185218" lon="-2.075769"><ele>245</ele><time>2023-03-17T10:55:33Z</time><name>PT1314</name></trkpt>
<trkpt lat="53.185258" lon="-2.075793"><ele>245</ele><time>2023-03-17T10:55:36Z</time><name>PT1315</name></trkpt>
<trkpt lat="53.185295" lon="-2.075802"><ele>245</ele><time>2023-03-17T10:55:41Z</time><name>PT1316</name></trkpt>
<trkpt lat="53.185335" lon="-2.075810"><ele>245</ele><time>2023-03-17T10:55:45Z</time><name>PT1317</name></trkpt>
<trkpt lat="53.185364" lon="-2.075818"><ele>245</ele><time>2023-03-17T10:55:48Z</time><name>PT1318</name></trkpt>
<trkpt lat="53.185396" lon="-2.075829"><ele>246</ele><time>2023-03-17T10:55:51Z</time><name>PT1319</name></trkpt>
<trkpt lat="53.185426" lon="-2.075842"><ele>246</ele><time>2023-03-17T10:55:54Z</time><name>PT1320</name></trkpt>
<trkpt lat="53.185459" lon="-2.075848"><ele>246</ele><time>2023-03-17T10:55:57Z</time><name>PT1321</name></trkpt>
<trkpt lat="53.185503" lon="-2.075844"><ele>246</ele><time>2023-03-17T10:56:00Z</time><name>PT1322</name></trkpt>
<trkpt lat="53.185539" lon="-2.075851"><ele>247</ele><time>2023-03-17T10:56:05Z</time><name>PT1323</name></trkpt>
<trkpt lat="53.185550" lon="-2.075861"><ele>247</ele><time>2023-03-17T10:56:09Z</time><name>PT1324</name></trkpt>
<trkpt lat="53.185579" lon="-2.075858"><ele>247</ele><time>2023-03-17T10:56:12Z</time><name>PT1325</name></trkpt>
<trkpt lat="53.185621" lon="-2.075876"><ele>247</ele><time>2023-03-17T10:56:15Z</time><name>PT1326</name></trkpt>
<trkpt lat="53.185660" lon="-2.075875"><ele>246</ele><time>2023-03-17T10:56:20Z</time><name>PT1327</name></trkpt>
<trkpt lat="53.185688" lon="-2.075875"><ele>246</ele><time>2023-03-17T10:56:23Z</time><name>PT1328</name></trkpt>
<trkpt lat="53.185712" lon="-2.075879"><ele>246</ele><time>2023-03-17T10:56:26Z</time><name>PT1329</name></trkpt>
<trkpt lat="53.185751" lon="-2.075884"><ele>245</ele><time>2023-03-17T10:56:30Z</time><name>PT1330</name></trkpt>
<trkpt lat="53.185788" lon="-2.075901"><ele>244</ele><time>2023-03-17T10:56:33Z</time><name>PT1331</name></trkpt>
<trkpt lat="53.185816" lon="-2.075927"><ele>243</ele><time>2023-03-17T10:56:36Z</time><name>PT1332</name></trkpt>
<trkpt lat="53.185850" lon="-2.075960"><ele>243</ele><time>2023-03-17T10:56:41Z</time><name>PT1333</name></trkpt>
<trkpt lat="53.185876" lon="-2.075979"><ele>244</ele><time>2023-03-17T10:56:44Z</time><name>PT1334</name></trkpt>
<trkpt lat="53.185883" lon="-2.075983"><ele>245</ele><time>2023-03-17T10:56:48Z</time><name>PT1335</name></trkpt>
<trkpt lat="53.185880" lon="-2.076003"><ele>245</ele><time>2023-03-17T10:57:39Z</time><name>PT1336</name></trkpt>
<trkpt lat="53.185884" lon="-2.076016"><ele>246</ele><time>2023-03-17T10:57:42Z</time><name>PT1337</name></trkpt>
<trkpt lat="53.185903" lon="-2.076065"><ele>246</ele><time>2023-03-17T10:57:50Z</time><name>PT1338</name></trkpt>
<trkpt lat="53.185913" lon="-2.076113"><ele>246</ele><time>2023-03-17T10:57:53Z</time><name>PT1339</name></trkpt>
<trkpt lat="53.185905" lon="-2.076153"><ele>245</ele><time>2023-03-17T10:57:56Z</time><name>PT1340</name></trkpt>
<trkpt lat="53.185886" lon="-2.076189"><ele>244</ele><time>2023-03-17T10:57:59Z</time><name>PT1341</name></trkpt>
<trkpt lat="53.185865" lon="-2.076228"><ele>242</ele><time>2023-03-17T10:58:03Z</time><name>PT1342</name></trkpt>
<trkpt lat="53.185853" lon="-2.076259"><ele>240</ele><time>2023-03-17T10:58:06Z</time><name>PT1343</name></trkpt>
<trkpt lat="53.185833" lon="-2.076295"><ele>240</ele><time>2023-03-17T10:58:11Z</time><name>PT1344</name></trkpt>
<trkpt lat="53.185819" lon="-2.076334"><ele>239</ele><time>2023-03-17T10:58:14Z</time><name>PT1345</name></trkpt>
<trkpt lat="53.185815" lon="-2.076388"><ele>237</ele><time>2023-03-17T10:58:18Z</time><name>PT1346</name></trkpt>
<trkpt lat="53.185808" lon="-2.076432"><ele>234</ele><time>2023-03-17T10:58:21Z</time><name>PT1347</name></trkpt>
<trkpt lat="53.185803" lon="-2.076476"><ele>234</ele><time>2023-03-17T10:58:24Z</time><name>PT1348</name></trkpt>
<trkpt lat="53.185802" lon="-2.076541"><ele>233</ele><time>2023-03-17T10:58:27Z</time><name>PT1349</name></trkpt>
<trkpt lat="53.185799" lon="-2.076597"><ele>232</ele><time>2023-03-17T10:58:30Z</time><name>PT1350</name></trkpt>
<trkpt lat="53.185796" lon="-2.076666"><ele>233</ele><time>2023-03-17T10:58:35Z</time><name>PT1351</name></trkpt>
<trkpt lat="53.185799" lon="-2.076714"><ele>234</ele><time>2023-03-17T10:58:38Z</time><name>PT1352</name></trkpt>
<trkpt lat="53.185795" lon="-2.076773"><ele>233</ele><time>2023-03-17T10:58:42Z</time><name>PT1353</name></trkpt>
<trkpt lat="53.185792" lon="-2.076832"><ele>231</ele><time>2023-03-17T10:58:45Z</time><name>PT1354</name></trkpt>
<trkpt lat="53.185769" lon="-2.076889"><ele>230</ele><time>2023-03-17T10:58:50Z</time><name>PT1355</name></trkpt>
<trkpt lat="53.185743" lon="-2.076936"><ele>230</ele><time>2023-03-17T10:58:54Z</time><name>PT1356</name></trkpt>
<trkpt lat="53.185727" lon="-2.076978"><ele>228</ele><time>2023-03-17T10:58:57Z</time><name>PT1357</name></trkpt>
<trkpt lat="53.185709" lon="-2.077021"><ele>229</ele><time>2023-03-17T10:59:02Z</time><name>PT1358</name></trkpt>
<trkpt lat="53.185691" lon="-2.077067"><ele>228</ele><time>2023-03-17T10:59:06Z</time><name>PT1359</name></trkpt>
<trkpt lat="53.185682" lon="-2.077100"><ele>229</ele><time>2023-03-17T10:59:09Z</time><name>PT1360</name></trkpt>
<trkpt lat="53.185681" lon="-2.077111"><ele>229</ele><time>2023-03-17T10:59:12Z</time><name>PT1361</name></trkpt>
<trkpt lat="53.185681" lon="-2.077114"><ele>229</ele><time>2023-03-17T10:59:17Z</time><name>PT1362</name></trkpt>
<trkpt lat="53.185678" lon="-2.077137"><ele>230</ele><time>2023-03-17T10:59:23Z</time><name>PT1363</name></trkpt>
<trkpt lat="53.185678" lon="-2.077198"><ele>228</ele><time>2023-03-17T10:59:27Z</time><name>PT1364</name></trkpt>
<trkpt lat="53.185679" lon="-2.077250"><ele>227</ele><time>2023-03-17T10:59:30Z</time><name>PT1365</name></trkpt>
<trkpt lat="53.185684" lon="-2.077301"><ele>227</ele><time>2023-03-17T10:59:35Z</time><name>PT1366</name></trkpt>
<trkpt lat="53.185687" lon="-2.077323"><ele>226</ele><time>2023-03-17T10:59:38Z</time><name>PT1367</name></trkpt>
<trkpt lat="53.185690" lon="-2.077359"><ele>226</ele><time>2023-03-17T10:59:41Z</time><name>PT1368</name></trkpt>
<trkpt lat="53.185691" lon="-2.077397"><ele>227</ele><time>2023-03-17T10:59:44Z</time><name>PT1369</name></trkpt>
<trkpt lat="53.185689" lon="-2.077426"><ele>226</ele><time>2023-03-17T10:59:47Z</time><name>PT1370</name></trkpt>
<trkpt lat="53.185681" lon="-2.077449"><ele>226</ele><time>2023-03-17T10:59:51Z</time><name>PT1371</name></trkpt>
<trkpt lat="53.185683" lon="-2.077464"><ele>226</ele><time>2023-03-17T10:59:54Z</time><name>PT1372</name></trkpt>
<trkpt lat="53.185684" lon="-2.077477"><ele>225</ele><time>2023-03-17T10:59:57Z</time><name>PT1373</name></trkpt>
<trkpt lat="53.185686" lon="-2.077478"><ele>225</ele><time>2023-03-17T11:00:05Z</time><name>PT1374</name></trkpt>
<trkpt lat="53.185700" lon="-2.077475"><ele>225</ele><time>2023-03-17T11:00:09Z</time><name>PT1375</name></trkpt>
<trkpt lat="53.185707" lon="-2.077469"><ele>224</ele><time>2023-03-17T11:00:12Z</time><name>PT1376</name></trkpt>
<trkpt lat="53.185736" lon="-2.077519"><ele>224</ele><time>2023-03-17T11:00:15Z</time><name>PT1377</name></trkpt>
<trkpt lat="53.185762" lon="-2.077554"><ele>223</ele><time>2023-03-17T11:00:18Z</time><name>PT1378</name></trkpt>
<trkpt lat="53.185788" lon="-2.077604"><ele>225</ele><time>2023-03-17T11:00:23Z</time><name>PT1379</name></trkpt>
<trkpt lat="53.185816" lon="-2.077648"><ele>226</ele><time>2023-03-17T11:00:27Z</time><name>PT1380</name></trkpt>
<trkpt lat="53.185835" lon="-2.077692"><ele>226</ele><time>2023-03-17T11:00:30Z</time><name>PT1381</name></trkpt>
<trkpt lat="53.185862" lon="-2.077742"><ele>228</ele><time>2023-03-17T11:00:33Z</time><name>PT1382</name></trkpt>
<trkpt lat="53.185887" lon="-2.077783"><ele>228</ele><time>2023-03-17T11:00:38Z</time><name>PT1383</name></trkpt>
<trkpt lat="53.185914" lon="-2.077824"><ele>229</ele><time>2023-03-17T11:00:42Z</time><name>PT1384</name></trkpt>
<trkpt lat="53.185935" lon="-2.077859"><ele>229</ele><time>2023-03-17T11:00:45Z</time><name>PT1385</name></trkpt>
<trkpt lat="53.185950" lon="-2.077904"><ele>230</ele><time>2023-03-17T11:00:48Z</time><name>PT1386</name></trkpt>
<trkpt lat="53.185961" lon="-2.077964"><ele>229</ele><time>2023-03-17T11:00:53Z</time><name>PT1387</name></trkpt>
<trkpt lat="53.185974" lon="-2.078025"><ele>229</ele><time>2023-03-17T11:00:56Z</time><name>PT1388</name></trkpt>
<trkpt lat="53.185994" lon="-2.078083"><ele>227</ele><time>2023-03-17T11:01:00Z</time><name>PT1389</name></trkpt>
<trkpt lat="53.186001" lon="-2.078146"><ele>227</ele><time>2023-03-17T11:01:03Z</time><name>PT1390</name></trkpt>
<trkpt lat="53.186009" lon="-2.078200"><ele>227</ele><time>2023-03-17T11:01:06Z</time><name>PT1391</name></trkpt>
<trkpt lat="53.186015" lon="-2.078282"><ele>227</ele><time>2023-03-17T11:01:11Z</time><name>PT1392</name></trkpt>
<trkpt lat="53.186020" lon="-2.078349"><ele>226</ele><time>2023-03-17T11:01:15Z</time><name>PT1393</name></trkpt>
<trkpt lat="53.186015" lon="-2.078402"><ele>225</ele><time>2023-03-17T11:01:18Z</time><name>PT1394</name></trkpt>
<trkpt lat="53.186005" lon="-2.078457"><ele>224</ele><time>2023-03-17T11:01:21Z</time><name>PT1395</name></trkpt>
<trkpt lat="53.185990" lon="-2.078531"><ele>224</ele><time>2023-03-17T11:01:24Z</time><name>PT1396</name></trkpt>
<trkpt lat="53.185972" lon="-2.078600"><ele>223</ele><time>2023-03-17T11:01:29Z</time><name>PT1397</name></trkpt>
<trkpt lat="53.185963" lon="-2.078657"><ele>222</ele><time>2023-03-17T11:01:32Z</time><name>PT1398</name></trkpt>
<trkpt lat="53.185954" lon="-2.078721"><ele>221</ele><time>2023-03-17T11:01:35Z</time><name>PT1399</name></trkpt>
<trkpt lat="53.185937" lon="-2.078801"><ele>221</ele><time>2023-03-17T11:01:39Z</time><name>PT1400</name></trkpt>
<trkpt lat="53.185926" lon="-2.078856"><ele>221</ele><time>2023-03-17T11:01:42Z</time><name>PT1401</name></trkpt>
<trkpt lat="53.185904" lon="-2.078920"><ele>221</ele><time>2023-03-17T11:01:45Z</time><name>PT1402</name></trkpt>
<trkpt lat="53.185889" lon="-2.078991"><ele>220</ele><time>2023-03-17T11:01:50Z</time><name>PT1403</name></trkpt>
<trkpt lat="53.185866" lon="-2.079057"><ele>219</ele><time>2023-03-17T11:01:54Z</time><name>PT1404</name></trkpt>
<trkpt lat="53.185847" lon="-2.079113"><ele>218</ele><time>2023-03-17T11:01:57Z</time><name>PT1405</name></trkpt>
<trkpt lat="53.185848" lon="-2.079149"><ele>218</ele><time>2023-03-17T11:02:00Z</time><name>PT1406</name></trkpt>
<trkpt lat="53.185874" lon="-2.079147"><ele>216</ele><time>2023-03-17T11:02:06Z</time><name>PT1407</name></trkpt>
<trkpt lat="53.185907" lon="-2.079149"><ele>215</ele><time>2023-03-17T11:02:09Z</time><name>PT1408</name></trkpt>
<trkpt lat="53.185937" lon="-2.079154"><ele>213</ele><time>2023-03-17T11:02:14Z</time><name>PT1409</name></trkpt>
<trkpt lat="53.185954" lon="-2.079145"><ele>212</ele><time>2023-03-17T11:02:17Z</time><name>PT1410</name></trkpt>
<trkpt lat="53.185980" lon="-2.079130"><ele>210</ele><time>2023-03-17T11:02:21Z</time><name>PT1411</name></trkpt>
<trkpt lat="53.185996" lon="-2.079123"><ele>209</ele><time>2023-03-17T11:02:24Z</time><name>PT1412</name></trkpt>
<trkpt lat="53.186017" lon="-2.079121"><ele>207</ele><time>2023-03-17T11:02:27Z</time><name>PT1413</name></trkpt>
<trkpt lat="53.186047" lon="-2.079127"><ele>206</ele><time>2023-03-17T11:02:32Z</time><name>PT1414</name></trkpt>
<trkpt lat="53.186073" lon="-2.079137"><ele>205</ele><time>2023-03-17T11:02:36Z</time><name>PT1415</name></trkpt>
<trkpt lat="53.186098" lon="-2.079150"><ele>206</ele><time>2023-03-17T11:02:39Z</time><name>PT1416</name></trkpt>
<trkpt lat="53.186134" lon="-2.079149"><ele>207</ele><time>2023-03-17T11:02:42Z</time><name>PT1417</name></trkpt>
<trkpt lat="53.186144" lon="-2.079144"><ele>205</ele><time>2023-03-17T11:02:46Z</time><name>PT1418</name></trkpt>
<trkpt lat="53.186213" lon="-2.079125"><ele>210</ele><time>2023-03-17T11:02:50Z</time><name>PT1419</name></trkpt>
<trkpt lat="53.186251" lon="-2.079122"><ele>210</ele><time>2023-03-17T11:02:54Z</time><name>PT1420</name></trkpt>
<trkpt lat="53.186287" lon="-2.079111"><ele>211</ele><time>2023-03-17T11:02:57Z</time><name>PT1421</name></trkpt>
<trkpt lat="53.186308" lon="-2.079107"><ele>212</ele><time>2023-03-17T11:03:00Z</time><name>PT1422</name></trkpt>
<trkpt lat="53.186348" lon="-2.079100"><ele>213</ele><time>2023-03-17T11:03:05Z</time><name>PT1423</name></trkpt>
<trkpt lat="53.186371" lon="-2.079090"><ele>214</ele><time>2023-03-17T11:03:08Z</time><name>PT1424</name></trkpt>
<trkpt lat="53.186391" lon="-2.079078"><ele>214</ele><time>2023-03-17T11:03:12Z</time><name>PT1425</name></trkpt>
<trkpt lat="53.186419" lon="-2.079059"><ele>214</ele><time>2023-03-17T11:03:15Z</time><name>PT1426</name></trkpt>
<trkpt lat="53.186448" lon="-2.079048"><ele>214</ele><time>2023-03-17T11:03:20Z</time><name>PT1427</name></trkpt>
<trkpt lat="53.186450" lon="-2.079048"><ele>214</ele><time>2023-03-17T11:03:23Z</time><name>PT1428</name></trkpt>
<trkpt lat="53.186450" lon="-2.079053"><ele>215</ele><time>2023-03-17T11:03:27Z</time><name>PT1429</name></trkpt>
<trkpt lat="53.186447" lon="-2.079055"><ele>215</ele><time>2023-03-17T11:03:30Z</time><name>PT1430</name></trkpt>
<trkpt lat="53.186450" lon="-2.079052"><ele>215</ele><time>2023-03-17T11:04:09Z</time><name>PT1431</name></trkpt>
<trkpt lat="53.186458" lon="-2.079073"><ele>215</ele><time>2023-03-17T11:05:18Z</time><name>PT1432</name></trkpt>
<trkpt lat="53.186462" lon="-2.079073"><ele>215</ele><time>2023-03-17T11:05:23Z</time><name>PT1433</name></trkpt>
<trkpt lat="53.186458" lon="-2.079080"><ele>215</ele><time>2023-03-17T11:05:27Z</time><name>PT1434</name></trkpt>
<trkpt lat="53.186458" lon="-2.079074"><ele>215</ele><time>2023-03-17T11:06:47Z</time><name>PT1435</name></trkpt>
<trkpt lat="53.186459" lon="-2.079070"><ele>215</ele><time>2023-03-17T11:06:51Z</time><name>PT1436</name></trkpt>
<trkpt lat="53.186454" lon="-2.079080"><ele>215</ele><time>2023-03-17T11:06:54Z</time><name>PT1437</name></trkpt>
<trkpt lat="53.186460" lon="-2.079057"><ele>216</ele><time>2023-03-17T11:07:23Z</time><name>PT1438</name></trkpt>
<trkpt lat="53.186463" lon="-2.079055"><ele>216</ele><time>2023-03-17T11:07:26Z</time><name>PT1439</name></trkpt>
<trkpt lat="53.186460" lon="-2.079084"><ele>213</ele><time>2023-03-17T11:07:51Z</time><name>PT1440</name></trkpt>
<trkpt lat="53.186428" lon="-2.079139"><ele>213</ele><time>2023-03-17T11:07:54Z</time><name>PT1441</name></trkpt>
<trkpt lat="53.186426" lon="-2.079147"><ele>212</ele><time>2023-03-17T11:07:59Z</time><name>PT1442</name></trkpt>
<trkpt lat="53.186404" lon="-2.079157"><ele>211</ele><time>2023-03-17T11:08:02Z</time><name>PT1443</name></trkpt>
<trkpt lat="53.186387" lon="-2.079129"><ele>211</ele><time>2023-03-17T11:08:06Z</time><name>PT1444</name></trkpt>
<trkpt lat="53.186384" lon="-2.079105"><ele>212</ele><time>2023-03-17T11:08:12Z</time><name>PT1445</name></trkpt>
<trkpt lat="53.186352" lon="-2.079144"><ele>213</ele><time>2023-03-17T11:08:15Z</time><name>PT1446</name></trkpt>
<trkpt lat="53.186343" lon="-2.079160"><ele>213</ele><time>2023-03-17T11:08:18Z</time><name>PT1447</name></trkpt>
<trkpt lat="53.186296" lon="-2.079203"><ele>211</ele><time>2023-03-17T11:08:23Z</time><name>PT1448</name></trkpt>
<trkpt lat="53.186259" lon="-2.079224"><ele>212</ele><time>2023-03-17T11:08:27Z</time><name>PT1449</name></trkpt>
<trkpt lat="53.186239" lon="-2.079221"><ele>213</ele><time>2023-03-17T11:08:30Z</time><name>PT1450</name></trkpt>
<trkpt lat="53.186220" lon="-2.079214"><ele>211</ele><time>2023-03-17T11:08:33Z</time><name>PT1451</name></trkpt>
<trkpt lat="53.186177" lon="-2.079191"><ele>208</ele><time>2023-03-17T11:08:38Z</time><name>PT1452</name></trkpt>
<trkpt lat="53.186146" lon="-2.079183"><ele>207</ele><time>2023-03-17T11:08:41Z</time><name>PT1453</name></trkpt>
<trkpt lat="53.186122" lon="-2.079169"><ele>208</ele><time>2023-03-17T11:08:44Z</time><name>PT1454</name></trkpt>
<trkpt lat="53.186088" lon="-2.079140"><ele>209</ele><time>2023-03-17T11:08:48Z</time><name>PT1455</name></trkpt>
<trkpt lat="53.186064" lon="-2.079144"><ele>211</ele><time>2023-03-17T11:08:51Z</time><name>PT1456</name></trkpt>
<trkpt lat="53.186034" lon="-2.079141"><ele>211</ele><time>2023-03-17T11:08:54Z</time><name>PT1457</name></trkpt>
<trkpt lat="53.186001" lon="-2.079151"><ele>212</ele><time>2023-03-17T11:08:57Z</time><name>PT1458</name></trkpt>
<trkpt lat="53.185972" lon="-2.079161"><ele>212</ele><time>2023-03-17T11:09:02Z</time><name>PT1459</name></trkpt>
<trkpt lat="53.185944" lon="-2.079156"><ele>213</ele><time>2023-03-17T11:09:06Z</time><name>PT1460</name></trkpt>
<trkpt lat="53.185913" lon="-2.079156"><ele>214</ele><time>2023-03-17T11:09:09Z</time><name>PT1461</name></trkpt>
<trkpt lat="53.185890" lon="-2.079176"><ele>214</ele><time>2023-03-17T11:09:12Z</time><name>PT1462</name></trkpt>
<trkpt lat="53.185861" lon="-2.079192"><ele>215</ele><time>2023-03-17T11:09:17Z</time><name>PT1463</name></trkpt>
<trkpt lat="53.185846" lon="-2.079203"><ele>216</ele><time>2023-03-17T11:09:20Z</time><name>PT1464</name></trkpt>
<trkpt lat="53.185845" lon="-2.079205"><ele>217</ele><time>2023-03-17T11:09:24Z</time><name>PT1465</name></trkpt>
<trkpt lat="53.185850" lon="-2.079197"><ele>217</ele><time>2023-03-17T11:09:36Z</time><name>PT1466</name></trkpt>
<trkpt lat="53.185857" lon="-2.079195"><ele>217</ele><time>2023-03-17T11:09:39Z</time><name>PT1467</name></trkpt>
<trkpt lat="53.185849" lon="-2.079172"><ele>218</ele><time>2023-03-17T11:09:42Z</time><name>PT1468</name></trkpt>
<trkpt lat="53.185857" lon="-2.079132"><ele>218</ele><time>2023-03-17T11:09:45Z</time><name>PT1469</name></trkpt>
<trkpt lat="53.185868" lon="-2.079094"><ele>219</ele><time>2023-03-17T11:09:48Z</time><name>PT1470</name></trkpt>
<trkpt lat="53.185888" lon="-2.079034"><ele>221</ele><time>2023-03-17T11:09:53Z</time><name>PT1471</name></trkpt>
<trkpt lat="53.185906" lon="-2.078973"><ele>221</ele><time>2023-03-17T11:09:57Z</time><name>PT1472</name></trkpt>
<trkpt lat="53.185929" lon="-2.078909"><ele>222</ele><time>2023-03-17T11:10:00Z</time><name>PT1473</name></trkpt>
<trkpt lat="53.185947" lon="-2.078859"><ele>222</ele><time>2023-03-17T11:10:03Z</time><name>PT1474</name></trkpt>
<trkpt lat="53.185965" lon="-2.078813"><ele>223</ele><time>2023-03-17T11:10:06Z</time><name>PT1475</name></trkpt>
<trkpt lat="53.185986" lon="-2.078748"><ele>223</ele><time>2023-03-17T11:10:11Z</time><name>PT1476</name></trkpt>
<trkpt lat="53.186004" lon="-2.078699"><ele>224</ele><time>2023-03-17T11:10:15Z</time><name>PT1477</name></trkpt>
<trkpt lat="53.186020" lon="-2.078656"><ele>224</ele><time>2023-03-17T11:10:18Z</time><name>PT1478</name></trkpt>
<trkpt lat="53.186031" lon="-2.078609"><ele>224</ele><time>2023-03-17T11:10:21Z</time><name>PT1479</name></trkpt>
<trkpt lat="53.186040" lon="-2.078563"><ele>224</ele><time>2023-03-17T11:10:24Z</time><name>PT1480</name></trkpt>
<trkpt lat="53.186040" lon="-2.078512"><ele>225</ele><time>2023-03-17T11:10:27Z</time><name>PT1481</name></trkpt>
<trkpt lat="53.186038" lon="-2.078504"><ele>225</ele><time>2023-03-17T11:10:32Z</time><name>PT1482</name></trkpt>
<trkpt lat="53.186033" lon="-2.078504"><ele>225</ele><time>2023-03-17T11:10:35Z</time><name>PT1483</name></trkpt>
<trkpt lat="53.186040" lon="-2.078501"><ele>225</ele><time>2023-03-17T11:10:39Z</time><name>PT1484</name></trkpt>
<trkpt lat="53.186040" lon="-2.078454"><ele>225</ele><time>2023-03-17T11:10:57Z</time><name>PT1485</name></trkpt>
<trkpt lat="53.186037" lon="-2.078456"><ele>225</ele><time>2023-03-17T11:11:00Z</time><name>PT1486</name></trkpt>
<trkpt lat="53.186036" lon="-2.078455"><ele>225</ele><time>2023-03-17T11:11:03Z</time><name>PT1487</name></trkpt>
<trkpt lat="53.186038" lon="-2.078470"><ele>225</ele><time>2023-03-17T11:11:11Z</time><name>PT1488</name></trkpt>
<trkpt lat="53.186042" lon="-2.078471"><ele>225</ele><time>2023-03-17T11:12:44Z</time><name>PT1489</name></trkpt>
<trkpt lat="53.186047" lon="-2.078477"><ele>225</ele><time>2023-03-17T11:12:48Z</time><name>PT1490</name></trkpt>
<trkpt lat="53.186049" lon="-2.078479"><ele>225</ele><time>2023-03-17T11:12:51Z</time><name>PT1491</name></trkpt>
<trkpt lat="53.186044" lon="-2.078563"><ele>225</ele><time>2023-03-17T11:12:57Z</time><name>PT1492</name></trkpt>
<trkpt lat="53.186035" lon="-2.078608"><ele>224</ele><time>2023-03-17T11:13:00Z</time><name>PT1493</name></trkpt>
<trkpt lat="53.186030" lon="-2.078664"><ele>223</ele><time>2023-03-17T11:13:03Z</time><name>PT1494</name></trkpt>
<trkpt lat="53.186025" lon="-2.078720"><ele>223</ele><time>2023-03-17T11:13:06Z</time><name>PT1495</name></trkpt>
<trkpt lat="53.186018" lon="-2.078769"><ele>223</ele><time>2023-03-17T11:13:09Z</time><name>PT1496</name></trkpt>
<trkpt lat="53.186010" lon="-2.078811"><ele>223</ele><time>2023-03-17T11:13:12Z</time><name>PT1497</name></trkpt>
<trkpt lat="53.186003" lon="-2.078859"><ele>223</ele><time>2023-03-17T11:13:17Z</time><name>PT1498</name></trkpt>
<trkpt lat="53.186003" lon="-2.078907"><ele>223</ele><time>2023-03-17T11:13:21Z</time><name>PT1499</name></trkpt>
<trkpt lat="53.186021" lon="-2.078927"><ele>221</ele><time>2023-03-17T11:13:24Z</time><name>PT1500</name></trkpt>
<trkpt lat="53.186036" lon="-2.078935"><ele>219</ele><time>2023-03-17T11:13:27Z</time><name>PT1501</name></trkpt>
<trkpt lat="53.186049" lon="-2.078940"><ele>218</ele><time>2023-03-17T11:13:32Z</time><name>PT1502</name></trkpt>
<trkpt lat="53.186055" lon="-2.078940"><ele>218</ele><time>2023-03-17T11:13:36Z</time><name>PT1503</name></trkpt>
<trkpt lat="53.186050" lon="-2.078961"><ele>217</ele><time>2023-03-17T11:13:39Z</time><name>PT1504</name></trkpt>
<trkpt lat="53.186037" lon="-2.079000"><ele>217</ele><time>2023-03-17T11:13:44Z</time><name>PT1505</name></trkpt>
<trkpt lat="53.186049" lon="-2.079024"><ele>216</ele><time>2023-03-17T11:13:48Z</time><name>PT1506</name></trkpt>
<trkpt lat="53.186051" lon="-2.079055"><ele>215</ele><time>2023-03-17T11:13:51Z</time><name>PT1507</name></trkpt>
<trkpt lat="53.186054" lon="-2.079071"><ele>215</ele><time>2023-03-17T11:14:02Z</time><name>PT1508</name></trkpt>
<trkpt lat="53.186105" lon="-2.079085"><ele>212</ele><time>2023-03-17T11:14:06Z</time><name>PT1509</name></trkpt>
<trkpt lat="53.186137" lon="-2.079086"><ele>212</ele><time>2023-03-17T11:14:09Z</time><name>PT1510</name></trkpt>
<trkpt lat="53.186184" lon="-2.079103"><ele>212</ele><time>2023-03-17T11:14:12Z</time><name>PT1511</name></trkpt>
<trkpt lat="53.186217" lon="-2.079114"><ele>211</ele><time>2023-03-17T11:14:15Z</time><name>PT1512</name></trkpt>
<trkpt lat="53.186241" lon="-2.079116"><ele>209</ele><time>2023-03-17T11:14:20Z</time><name>PT1513</name></trkpt>
<trkpt lat="53.186266" lon="-2.079108"><ele>207</ele><time>2023-03-17T11:14:24Z</time><name>PT1514</name></trkpt>
<trkpt lat="53.186306" lon="-2.079105"><ele>206</ele><time>2023-03-17T11:14:27Z</time><name>PT1515</name></trkpt>
<trkpt lat="53.186344" lon="-2.079086"><ele>204</ele><time>2023-03-17T11:14:30Z</time><name>PT1516</name></trkpt>
<trkpt lat="53.186376" lon="-2.079089"><ele>202</ele><time>2023-03-17T11:14:35Z</time><name>PT1517</name></trkpt>
<trkpt lat="53.186398" lon="-2.079053"><ele>201</ele><time>2023-03-17T11:14:39Z</time><name>PT1518</name></trkpt>
<trkpt lat="53.186421" lon="-2.079028"><ele>201</ele><time>2023-03-17T11:14:42Z</time><name>PT1519</name></trkpt>
<trkpt lat="53.186443" lon="-2.079008"><ele>201</ele><time>2023-03-17T11:14:45Z</time><name>PT1520</name></trkpt>
<trkpt lat="53.186458" lon="-2.078991"><ele>201</ele><time>2023-03-17T11:14:48Z</time><name>PT1521</name></trkpt>
<trkpt lat="53.186472" lon="-2.078973"><ele>203</ele><time>2023-03-17T11:14:53Z</time><name>PT1522</name></trkpt>
<trkpt lat="53.186495" lon="-2.078980"><ele>204</ele><time>2023-03-17T11:14:57Z</time><name>PT1523</name></trkpt>
<trkpt lat="53.186498" lon="-2.078995"><ele>206</ele><time>2023-03-17T11:15:00Z</time><name>PT1524</name></trkpt>
<trkpt lat="53.186510" lon="-2.078975"><ele>205</ele><time>2023-03-17T11:15:11Z</time><name>PT1525</name></trkpt>
<trkpt lat="53.186527" lon="-2.078932"><ele>205</ele><time>2023-03-17T11:15:15Z</time><name>PT1526</name></trkpt>
<trkpt lat="53.186534" lon="-2.078907"><ele>204</ele><time>2023-03-17T11:15:18Z</time><name>PT1527</name></trkpt>
<trkpt lat="53.186552" lon="-2.078892"><ele>204</ele><time>2023-03-17T11:15:21Z</time><name>PT1528</name></trkpt>
<trkpt lat="53.186564" lon="-2.078869"><ele>205</ele><time>2023-03-17T11:15:24Z</time><name>PT1529</name></trkpt>
<trkpt lat="53.186571" lon="-2.078852"><ele>205</ele><time>2023-03-17T11:15:27Z</time><name>PT1530</name></trkpt>
<trkpt lat="53.186584" lon="-2.078850"><ele>203</ele><time>2023-03-17T11:15:30Z</time><name>PT1531</name></trkpt>
<trkpt lat="53.186596" lon="-2.078827"><ele>202</ele><time>2023-03-17T11:15:35Z</time><name>PT1532</name></trkpt>
<trkpt lat="53.186620" lon="-2.078806"><ele>203</ele><time>2023-03-17T11:15:38Z</time><name>PT1533</name></trkpt>
<trkpt lat="53.186635" lon="-2.078781"><ele>202</ele><time>2023-03-17T11:15:42Z</time><name>PT1534</name></trkpt>
<trkpt lat="53.186650" lon="-2.078762"><ele>202</ele><time>2023-03-17T11:15:45Z</time><name>PT1535</name></trkpt>
<trkpt lat="53.186677" lon="-2.078758"><ele>204</ele><time>2023-03-17T11:15:48Z</time><name>PT1536</name></trkpt>
<trkpt lat="53.186697" lon="-2.078756"><ele>203</ele><time>2023-03-17T11:15:51Z</time><name>PT1537</name></trkpt>
<trkpt lat="53.186707" lon="-2.078732"><ele>200</ele><time>2023-03-17T11:15:55Z</time><name>PT1538</name></trkpt>
<trkpt lat="53.186715" lon="-2.078705"><ele>198</ele><time>2023-03-17T11:16:00Z</time><name>PT1539</name></trkpt>
<trkpt lat="53.186737" lon="-2.078679"><ele>196</ele><time>2023-03-17T11:16:03Z</time><name>PT1540</name></trkpt>
<trkpt lat="53.186734" lon="-2.078626"><ele>198</ele><time>2023-03-17T11:16:06Z</time><name>PT1541</name></trkpt>
<trkpt lat="53.186774" lon="-2.078580"><ele>202</ele><time>2023-03-17T11:16:11Z</time><name>PT1542</name></trkpt>
<trkpt lat="53.186808" lon="-2.078548"><ele>202</ele><time>2023-03-17T11:16:15Z</time><name>PT1543</name></trkpt>
<trkpt lat="53.186849" lon="-2.078503"><ele>206</ele><time>2023-03-17T11:16:18Z</time><name>PT1544</name></trkpt>
<trkpt lat="53.186882" lon="-2.078480"><ele>210</ele><time>2023-03-17T11:16:21Z</time><name>PT1545</name></trkpt>
<trkpt lat="53.186899" lon="-2.078474"><ele>207</ele><time>2023-03-17T11:16:26Z</time><name>PT1546</name></trkpt>
<trkpt lat="53.186904" lon="-2.078470"><ele>207</ele><time>2023-03-17T11:16:29Z</time><name>PT1547</name></trkpt>
<trkpt lat="53.186929" lon="-2.078473"><ele>205</ele><time>2023-03-17T11:16:33Z</time><name>PT1548</name></trkpt>
<trkpt lat="53.186935" lon="-2.078470"><ele>206</ele><time>2023-03-17T11:16:41Z</time><name>PT1549</name></trkpt>
<trkpt lat="53.186938" lon="-2.078447"><ele>209</ele><time>2023-03-17T11:16:45Z</time><name>PT1550</name></trkpt>
<trkpt lat="53.186940" lon="-2.078479"><ele>213</ele><time>2023-03-17T11:17:52Z</time><name>PT1551</name></trkpt>
<trkpt lat="53.186934" lon="-2.078473"><ele>213</ele><time>2023-03-17T11:18:00Z</time><name>PT1552</name></trkpt>
<trkpt lat="53.186929" lon="-2.078474"><ele>213</ele><time>2023-03-17T11:18:03Z</time><name>PT1553</name></trkpt>
<trkpt lat="53.186915" lon="-2.078477"><ele>214</ele><time>2023-03-17T11:18:06Z</time><name>PT1554</name></trkpt>
<trkpt lat="53.186915" lon="-2.078488"><ele>215</ele><time>2023-03-17T11:18:09Z</time><name>PT1555</name></trkpt>
<trkpt lat="53.186891" lon="-2.078496"><ele>215</ele><time>2023-03-17T11:18:14Z</time><name>PT1556</name></trkpt>
<trkpt lat="53.186880" lon="-2.078498"><ele>217</ele><time>2023-03-17T11:18:18Z</time><name>PT1557</name></trkpt>
<trkpt lat="53.186877" lon="-2.078504"><ele>216</ele><time>2023-03-17T11:18:21Z</time><name>PT1558</name></trkpt>
<trkpt lat="53.186851" lon="-2.078537"><ele>215</ele><time>2023-03-17T11:18:24Z</time><name>PT1559</name></trkpt>
<trkpt lat="53.186838" lon="-2.078556"><ele>214</ele><time>2023-03-17T11:18:27Z</time><name>PT1560</name></trkpt>
<trkpt lat="53.186818" lon="-2.078559"><ele>213</ele><time>2023-03-17T11:18:32Z</time><name>PT1561</name></trkpt>
<trkpt lat="53.186798" lon="-2.078571"><ele>215</ele><time>2023-03-17T11:18:35Z</time><name>PT1562</name></trkpt>
<trkpt lat="53.186782" lon="-2.078594"><ele>214</ele><time>2023-03-17T11:18:38Z</time><name>PT1563</name></trkpt>
<trkpt lat="53.186766" lon="-2.078597"><ele>212</ele><time>2023-03-17T11:18:41Z</time><name>PT1564</name></trkpt>
<trkpt lat="53.186739" lon="-2.078608"><ele>212</ele><time>2023-03-17T11:18:44Z</time><name>PT1565</name></trkpt>
<trkpt lat="53.186722" lon="-2.078622"><ele>212</ele><time>2023-03-17T11:18:47Z</time><name>PT1566</name></trkpt>
<trkpt lat="53.186712" lon="-2.078631"><ele>212</ele><time>2023-03-17T11:18:51Z</time><name>PT1567</name></trkpt>
<trkpt lat="53.186702" lon="-2.078648"><ele>211</ele><time>2023-03-17T11:18:54Z</time><name>PT1568</name></trkpt>
<trkpt lat="53.186700" lon="-2.078655"><ele>211</ele><time>2023-03-17T11:18:59Z</time><name>PT1569</name></trkpt>
<trkpt lat="53.186695" lon="-2.078688"><ele>211</ele><time>2023-03-17T11:19:03Z</time><name>PT1570</name></trkpt>
<trkpt lat="53.186694" lon="-2.078715"><ele>211</ele><time>2023-03-17T11:19:06Z</time><name>PT1571</name></trkpt>
<trkpt lat="53.186691" lon="-2.078723"><ele>211</ele><time>2023-03-17T11:19:09Z</time><name>PT1572</name></trkpt>
<trkpt lat="53.186677" lon="-2.078787"><ele>210</ele><time>2023-03-17T11:19:12Z</time><name>PT1573</name></trkpt>
<trkpt lat="53.186651" lon="-2.078832"><ele>208</ele><time>2023-03-17T11:19:15Z</time><name>PT1574</name></trkpt>
<trkpt lat="53.186638" lon="-2.078885"><ele>208</ele><time>2023-03-17T11:19:20Z</time><name>PT1575</name></trkpt>
<trkpt lat="53.186639" lon="-2.078916"><ele>208</ele><time>2023-03-17T11:19:23Z</time><name>PT1576</name></trkpt>
<trkpt lat="53.186648" lon="-2.078963"><ele>208</ele><time>2023-03-17T11:19:30Z</time><name>PT1577</name></trkpt>
<trkpt lat="53.186658" lon="-2.079038"><ele>208</ele><time>2023-03-17T11:19:33Z</time><name>PT1578</name></trkpt>
<trkpt lat="53.186666" lon="-2.079083"><ele>208</ele><time>2023-03-17T11:19:37Z</time><name>PT1579</name></trkpt>
<trkpt lat="53.186675" lon="-2.079119"><ele>209</ele><time>2023-03-17T11:19:41Z</time><name>PT1580</name></trkpt>
<trkpt lat="53.186691" lon="-2.079155"><ele>208</ele><time>2023-03-17T11:19:44Z</time><name>PT1581</name></trkpt>
<trkpt lat="53.186704" lon="-2.079202"><ele>207</ele><time>2023-03-17T11:19:48Z</time><name>PT1582</name></trkpt>
<trkpt lat="53.186714" lon="-2.079246"><ele>207</ele><time>2023-03-17T11:19:51Z</time><name>PT1583</name></trkpt>
<trkpt lat="53.186723" lon="-2.079282"><ele>207</ele><time>2023-03-17T11:19:54Z</time><name>PT1584</name></trkpt>
<trkpt lat="53.186745" lon="-2.079289"><ele>207</ele><time>2023-03-17T11:19:57Z</time><name>PT1585</name></trkpt>
<trkpt lat="53.186765" lon="-2.079296"><ele>209</ele><time>2023-03-17T11:20:02Z</time><name>PT1586</name></trkpt>
<trkpt lat="53.186798" lon="-2.079335"><ele>210</ele><time>2023-03-17T11:20:06Z</time><name>PT1587</name></trkpt>
<trkpt lat="53.186819" lon="-2.079379"><ele>212</ele><time>2023-03-17T11:20:09Z</time><name>PT1588</name></trkpt>
<trkpt lat="53.186839" lon="-2.079412"><ele>212</ele><time>2023-03-17T11:20:13Z</time><name>PT1589</name></trkpt>
<trkpt lat="53.186866" lon="-2.079437"><ele>214</ele><time>2023-03-17T11:20:18Z</time><name>PT1590</name></trkpt>
<trkpt lat="53.186890" lon="-2.079445"><ele>215</ele><time>2023-03-17T11:20:21Z</time><name>PT1591</name></trkpt>
<trkpt lat="53.186921" lon="-2.079444"><ele>216</ele><time>2023-03-17T11:20:24Z</time><name>PT1592</name></trkpt>
<trkpt lat="53.186946" lon="-2.079448"><ele>216</ele><time>2023-03-17T11:20:27Z</time><name>PT1593</name></trkpt>
<trkpt lat="53.186978" lon="-2.079449"><ele>219</ele><time>2023-03-17T11:20:32Z</time><name>PT1594</name></trkpt>
<trkpt lat="53.186998" lon="-2.079453"><ele>220</ele><time>2023-03-17T11:20:36Z</time><name>PT1595</name></trkpt>
<trkpt lat="53.187014" lon="-2.079495"><ele>220</ele><time>2023-03-17T11:20:39Z</time><name>PT1596</name></trkpt>
<trkpt lat="53.187047" lon="-2.079529"><ele>221</ele><time>2023-03-17T11:20:42Z</time><name>PT1597</name></trkpt>
<trkpt lat="53.187073" lon="-2.079548"><ele>221</ele><time>2023-03-17T11:20:46Z</time><name>PT1598</name></trkpt>
<trkpt lat="53.187097" lon="-2.079543"><ele>220</ele><time>2023-03-17T11:20:50Z</time><name>PT1599</name></trkpt>
<trkpt lat="53.187128" lon="-2.079546"><ele>220</ele><time>2023-03-17T11:20:53Z</time><name>PT1600</name></trkpt>
<trkpt lat="53.187172" lon="-2.079584"><ele>222</ele><time>2023-03-17T11:20:57Z</time><name>PT1601</name></trkpt>
<trkpt lat="53.187211" lon="-2.079622"><ele>224</ele><time>2023-03-17T11:21:00Z</time><name>PT1602</name></trkpt>
<trkpt lat="53.187236" lon="-2.079664"><ele>225</ele><time>2023-03-17T11:21:03Z</time><name>PT1603</name></trkpt>
<trkpt lat="53.187254" lon="-2.079704"><ele>225</ele><time>2023-03-17T11:21:07Z</time><name>PT1604</name></trkpt>
<trkpt lat="53.187272" lon="-2.079737"><ele>225</ele><time>2023-03-17T11:21:11Z</time><name>PT1605</name></trkpt>
<trkpt lat="53.187291" lon="-2.079749"><ele>226</ele><time>2023-03-17T11:21:14Z</time><name>PT1606</name></trkpt>
<trkpt lat="53.187300" lon="-2.079747"><ele>228</ele><time>2023-03-17T11:21:17Z</time><name>PT1607</name></trkpt>
<trkpt lat="53.187304" lon="-2.079746"><ele>227</ele><time>2023-03-17T11:21:20Z</time><name>PT1608</name></trkpt>
<trkpt lat="53.187311" lon="-2.079740"><ele>227</ele><time>2023-03-17T11:21:27Z</time><name>PT1609</name></trkpt>
<trkpt lat="53.187332" lon="-2.079744"><ele>226</ele><time>2023-03-17T11:21:30Z</time><name>PT1610</name></trkpt>
<trkpt lat="53.187359" lon="-2.079780"><ele>225</ele><time>2023-03-17T11:21:35Z</time><name>PT1611</name></trkpt>
<trkpt lat="53.187398" lon="-2.079812"><ele>225</ele><time>2023-03-17T11:21:39Z</time><name>PT1612</name></trkpt>
<trkpt lat="53.187419" lon="-2.079840"><ele>225</ele><time>2023-03-17T11:21:42Z</time><name>PT1613</name></trkpt>
<trkpt lat="53.187438" lon="-2.079882"><ele>226</ele><time>2023-03-17T11:21:45Z</time><name>PT1614</name></trkpt>
<trkpt lat="53.187449" lon="-2.079917"><ele>226</ele><time>2023-03-17T11:21:48Z</time><name>PT1615</name></trkpt>
<trkpt lat="53.187461" lon="-2.079937"><ele>226</ele><time>2023-03-17T11:21:51Z</time><name>PT1616</name></trkpt>
<trkpt lat="53.187488" lon="-2.079945"><ele>224</ele><time>2023-03-17T11:21:56Z</time><name>PT1617</name></trkpt>
<trkpt lat="53.187530" lon="-2.079979"><ele>224</ele><time>2023-03-17T11:22:00Z</time><name>PT1618</name></trkpt>
<trkpt lat="53.187567" lon="-2.080022"><ele>224</ele><time>2023-03-17T11:22:03Z</time><name>PT1619</name></trkpt>
<trkpt lat="53.187566" lon="-2.080049"><ele>222</ele><time>2023-03-17T11:22:08Z</time><name>PT1620</name></trkpt>
<trkpt lat="53.187608" lon="-2.080110"><ele>221</ele><time>2023-03-17T11:22:12Z</time><name>PT1621</name></trkpt>
<trkpt lat="53.187640" lon="-2.080148"><ele>220</ele><time>2023-03-17T11:22:15Z</time><name>PT1622</name></trkpt>
<trkpt lat="53.187670" lon="-2.080180"><ele>221</ele><time>2023-03-17T11:22:19Z</time><name>PT1623</name></trkpt>
<trkpt lat="53.187685" lon="-2.080199"><ele>221</ele><time>2023-03-17T11:22:23Z</time><name>PT1624</name></trkpt>
<trkpt lat="53.187711" lon="-2.080223"><ele>222</ele><time>2023-03-17T11:22:27Z</time><name>PT1625</name></trkpt>
<trkpt lat="53.187727" lon="-2.080245"><ele>222</ele><time>2023-03-17T11:22:30Z</time><name>PT1626</name></trkpt>
<trkpt lat="53.187745" lon="-2.080282"><ele>220</ele><time>2023-03-17T11:22:33Z</time><name>PT1627</name></trkpt>
<trkpt lat="53.187797" lon="-2.080313"><ele>224</ele><time>2023-03-17T11:22:36Z</time><name>PT1628</name></trkpt>
<trkpt lat="53.187845" lon="-2.080352"><ele>228</ele><time>2023-03-17T11:22:39Z</time><name>PT1629</name></trkpt>
<trkpt lat="53.187893" lon="-2.080397"><ele>229</ele><time>2023-03-17T11:22:42Z</time><name>PT1630</name></trkpt>
<trkpt lat="53.187953" lon="-2.080469"><ele>232</ele><time>2023-03-17T11:22:46Z</time><name>PT1631</name></trkpt>
<trkpt lat="53.187986" lon="-2.080510"><ele>234</ele><time>2023-03-17T11:22:49Z</time><name>PT1632</name></trkpt>
<trkpt lat="53.188021" lon="-2.080555"><ele>236</ele><time>2023-03-17T11:22:54Z</time><name>PT1633</name></trkpt>
<trkpt lat="53.188041" lon="-2.080599"><ele>236</ele><time>2023-03-17T11:22:57Z</time><name>PT1634</name></trkpt>
<trkpt lat="53.188058" lon="-2.080640"><ele>238</ele><time>2023-03-17T11:23:00Z</time><name>PT1635</name></trkpt>
<trkpt lat="53.188073" lon="-2.080693"><ele>238</ele><time>2023-03-17T11:23:03Z</time><name>PT1636</name></trkpt>
<trkpt lat="53.188102" lon="-2.080735"><ele>239</ele><time>2023-03-17T11:23:08Z</time><name>PT1637</name></trkpt>
<trkpt lat="53.188123" lon="-2.080768"><ele>240</ele><time>2023-03-17T11:23:11Z</time><name>PT1638</name></trkpt>
<trkpt lat="53.188146" lon="-2.080803"><ele>239</ele><time>2023-03-17T11:23:15Z</time><name>PT1639</name></trkpt>
<trkpt lat="53.188150" lon="-2.080806"><ele>239</ele><time>2023-03-17T11:23:18Z</time><name>PT1640</name></trkpt>
<trkpt lat="53.188158" lon="-2.080802"><ele>240</ele><time>2023-03-17T11:23:21Z</time><name>PT1641</name></trkpt>
<trkpt lat="53.188183" lon="-2.080787"><ele>240</ele><time>2023-03-17T11:23:24Z</time><name>PT1642</name></trkpt>
<trkpt lat="53.188208" lon="-2.080769"><ele>240</ele><time>2023-03-17T11:23:28Z</time><name>PT1643</name></trkpt>
<trkpt lat="53.188225" lon="-2.080756"><ele>241</ele><time>2023-03-17T11:23:32Z</time><name>PT1644</name></trkpt>
<trkpt lat="53.188225" lon="-2.080755"><ele>241</ele><time>2023-03-17T11:23:36Z</time><name>PT1645</name></trkpt>
<trkpt lat="53.188238" lon="-2.080738"><ele>241</ele><time>2023-03-17T11:23:39Z</time><name>PT1646</name></trkpt>
<trkpt lat="53.188246" lon="-2.080714"><ele>241</ele><time>2023-03-17T11:23:42Z</time><name>PT1647</name></trkpt>
<trkpt lat="53.188258" lon="-2.080714"><ele>242</ele><time>2023-03-17T11:23:45Z</time><name>PT1648</name></trkpt>
<trkpt lat="53.188261" lon="-2.080714"><ele>242</ele><time>2023-03-17T11:23:48Z</time><name>PT1649</name></trkpt>
<trkpt lat="53.188258" lon="-2.080711"><ele>241</ele><time>2023-03-17T11:23:51Z</time><name>PT1650</name></trkpt>
<trkpt lat="53.188269" lon="-2.080681"><ele>240</ele><time>2023-03-17T11:23:55Z</time><name>PT1651</name></trkpt>
<trkpt lat="53.188280" lon="-2.080654"><ele>239</ele><time>2023-03-17T11:23:59Z</time><name>PT1652</name></trkpt>
<trkpt lat="53.188291" lon="-2.080632"><ele>238</ele><time>2023-03-17T11:24:02Z</time><name>PT1653</name></trkpt>
<trkpt lat="53.188293" lon="-2.080607"><ele>237</ele><time>2023-03-17T11:24:05Z</time><name>PT1654</name></trkpt>
<trkpt lat="53.188290" lon="-2.080570"><ele>236</ele><time>2023-03-17T11:24:08Z</time><name>PT1655</name></trkpt>
<trkpt lat="53.188298" lon="-2.080533"><ele>235</ele><time>2023-03-17T11:24:12Z</time><name>PT1656</name></trkpt>
<trkpt lat="53.188299" lon="-2.080519"><ele>236</ele><time>2023-03-17T11:24:15Z</time><name>PT1657</name></trkpt>
<trkpt lat="53.188305" lon="-2.080494"><ele>237</ele><time>2023-03-17T11:24:18Z</time><name>PT1658</name></trkpt>
<trkpt lat="53.188320" lon="-2.080473"><ele>236</ele><time>2023-03-17T11:24:22Z</time><name>PT1659</name></trkpt>
<trkpt lat="53.188336" lon="-2.080471"><ele>235</ele><time>2023-03-17T11:24:25Z</time><name>PT1660</name></trkpt>
<trkpt lat="53.188348" lon="-2.080461"><ele>234</ele><time>2023-03-17T11:24:28Z</time><name>PT1661</name></trkpt>
<trkpt lat="53.188366" lon="-2.080449"><ele>234</ele><time>2023-03-17T11:24:33Z</time><name>PT1662</name></trkpt>
<trkpt lat="53.188391" lon="-2.080414"><ele>233</ele><time>2023-03-17T11:24:36Z</time><name>PT1663</name></trkpt>
<trkpt lat="53.188419" lon="-2.080377"><ele>231</ele><time>2023-03-17T11:24:39Z</time><name>PT1664</name></trkpt>
<trkpt lat="53.188450" lon="-2.080317"><ele>231</ele><time>2023-03-17T11:24:42Z</time><name>PT1665</name></trkpt>
<trkpt lat="53.188464" lon="-2.080292"><ele>231</ele><time>2023-03-17T11:24:46Z</time><name>PT1666</name></trkpt>
<trkpt lat="53.188491" lon="-2.080263"><ele>232</ele><time>2023-03-17T11:24:49Z</time><name>PT1667</name></trkpt>
<trkpt lat="53.188509" lon="-2.080239"><ele>231</ele><time>2023-03-17T11:24:52Z</time><name>PT1668</name></trkpt>
<trkpt lat="53.188545" lon="-2.080211"><ele>230</ele><time>2023-03-17T11:24:57Z</time><name>PT1669</name></trkpt>
<trkpt lat="53.188569" lon="-2.080193"><ele>231</ele><time>2023-03-17T11:25:00Z</time><name>PT1670</name></trkpt>
<trkpt lat="53.188574" lon="-2.080186"><ele>231</ele><time>2023-03-17T11:25:03Z</time><name>PT1671</name></trkpt>
<trkpt lat="53.188602" lon="-2.080164"><ele>229</ele><time>2023-03-17T11:25:09Z</time><name>PT1672</name></trkpt>
<trkpt lat="53.188629" lon="-2.080134"><ele>228</ele><time>2023-03-17T11:25:13Z</time><name>PT1673</name></trkpt>
<trkpt lat="53.188655" lon="-2.080122"><ele>227</ele><time>2023-03-17T11:25:17Z</time><name>PT1674</name></trkpt>
<trkpt lat="53.188698" lon="-2.080109"><ele>226</ele><time>2023-03-17T11:25:21Z</time><name>PT1675</name></trkpt>
<trkpt lat="53.188728" lon="-2.080108"><ele>225</ele><time>2023-03-17T11:25:24Z</time><name>PT1676</name></trkpt>
<trkpt lat="53.188763" lon="-2.080110"><ele>224</ele><time>2023-03-17T11:25:27Z</time><name>PT1677</name></trkpt>
<trkpt lat="53.188787" lon="-2.080111"><ele>224</ele><time>2023-03-17T11:25:30Z</time><name>PT1678</name></trkpt>
<trkpt lat="53.188828" lon="-2.080115"><ele>226</ele><time>2023-03-17T11:25:34Z</time><name>PT1679</name></trkpt>
<trkpt lat="53.188843" lon="-2.080132"><ele>226</ele><time>2023-03-17T11:25:37Z</time><name>PT1680</name></trkpt>
<trkpt lat="53.188849" lon="-2.080138"><ele>226</ele><time>2023-03-17T11:25:40Z</time><name>PT1681</name></trkpt>
<trkpt lat="53.188863" lon="-2.080164"><ele>227</ele><time>2023-03-17T11:25:45Z</time><name>PT1682</name></trkpt>
<trkpt lat="53.188908" lon="-2.080205"><ele>227</ele><time>2023-03-17T11:25:49Z</time><name>PT1683</name></trkpt>
<trkpt lat="53.188958" lon="-2.080232"><ele>231</ele><time>2023-03-17T11:25:52Z</time><name>PT1684</name></trkpt>
<trkpt lat="53.188969" lon="-2.080249"><ele>231</ele><time>2023-03-17T11:25:57Z</time><name>PT1685</name></trkpt>
<trkpt lat="53.188972" lon="-2.080248"><ele>231</ele><time>2023-03-17T11:26:00Z</time><name>PT1686</name></trkpt>
<trkpt lat="53.188990" lon="-2.080267"><ele>230</ele><time>2023-03-17T11:26:03Z</time><name>PT1687</name></trkpt>
<trkpt lat="53.188991" lon="-2.080290"><ele>230</ele><time>2023-03-17T11:26:12Z</time><name>PT1688</name></trkpt>
<trkpt lat="53.188997" lon="-2.080322"><ele>231</ele><time>2023-03-17T11:26:15Z</time><name>PT1689</name></trkpt>
<trkpt lat="53.189028" lon="-2.080362"><ele>230</ele><time>2023-03-17T11:26:18Z</time><name>PT1690</name></trkpt>
<trkpt lat="53.189044" lon="-2.080391"><ele>229</ele><time>2023-03-17T11:26:21Z</time><name>PT1691</name></trkpt>
<trkpt lat="53.189060" lon="-2.080424"><ele>229</ele><time>2023-03-17T11:26:24Z</time><name>PT1692</name></trkpt>
<trkpt lat="53.189078" lon="-2.080446"><ele>228</ele><time>2023-03-17T11:26:27Z</time><name>PT1693</name></trkpt>
<trkpt lat="53.189086" lon="-2.080472"><ele>229</ele><time>2023-03-17T11:26:31Z</time><name>PT1694</name></trkpt>
<trkpt lat="53.189115" lon="-2.080506"><ele>230</ele><time>2023-03-17T11:26:36Z</time><name>PT1695</name></trkpt>
<trkpt lat="53.189140" lon="-2.080531"><ele>230</ele><time>2023-03-17T11:26:39Z</time><name>PT1696</name></trkpt>
<trkpt lat="53.189162" lon="-2.080562"><ele>231</ele><time>2023-03-17T11:26:42Z</time><name>PT1697</name></trkpt>
<trkpt lat="53.189177" lon="-2.080593"><ele>232</ele><time>2023-03-17T11:26:45Z</time><name>PT1698</name></trkpt>
<trkpt lat="53.189189" lon="-2.080613"><ele>232</ele><time>2023-03-17T11:26:48Z</time><name>PT1699</name></trkpt>
<trkpt lat="53.189200" lon="-2.080624"><ele>230</ele><time>2023-03-17T11:26:51Z</time><name>PT1700</name></trkpt>
<trkpt lat="53.189203" lon="-2.080637"><ele>229</ele><time>2023-03-17T11:26:54Z</time><name>PT1701</name></trkpt>
<trkpt lat="53.189211" lon="-2.080662"><ele>228</ele><time>2023-03-17T11:26:57Z</time><name>PT1702</name></trkpt>
<trkpt lat="53.189255" lon="-2.080745"><ele>229</ele><time>2023-03-17T11:27:01Z</time><name>PT1703</name></trkpt>
<trkpt lat="53.189276" lon="-2.080772"><ele>229</ele><time>2023-03-17T11:27:06Z</time><name>PT1704</name></trkpt>
<trkpt lat="53.189312" lon="-2.080815"><ele>229</ele><time>2023-03-17T11:27:09Z</time><name>PT1705</name></trkpt>
<trkpt lat="53.189358" lon="-2.080835"><ele>230</ele><time>2023-03-17T11:27:13Z</time><name>PT1706</name></trkpt>
<trkpt lat="53.189398" lon="-2.080868"><ele>232</ele><time>2023-03-17T11:27:18Z</time><name>PT1707</name></trkpt>
<trkpt lat="53.189426" lon="-2.080895"><ele>233</ele><time>2023-03-17T11:27:21Z</time><name>PT1708</name></trkpt>
<trkpt lat="53.189447" lon="-2.080905"><ele>234</ele><time>2023-03-17T11:27:24Z</time><name>PT1709</name></trkpt>
<trkpt lat="53.189482" lon="-2.080930"><ele>235</ele><time>2023-03-17T11:27:27Z</time><name>PT1710</name></trkpt>
<trkpt lat="53.189505" lon="-2.080937"><ele>236</ele><time>2023-03-17T11:27:30Z</time><name>PT1711</name></trkpt>
<trkpt lat="53.189522" lon="-2.080940"><ele>236</ele><time>2023-03-17T11:27:34Z</time><name>PT1712</name></trkpt>
<trkpt lat="53.189533" lon="-2.080977"><ele>235</ele><time>2023-03-17T11:27:37Z</time><name>PT1713</name></trkpt>
<trkpt lat="53.189544" lon="-2.081023"><ele>234</ele><time>2023-03-17T11:27:40Z</time><name>PT1714</name></trkpt>
<trkpt lat="53.189566" lon="-2.081064"><ele>230</ele><time>2023-03-17T11:27:45Z</time><name>PT1715</name></trkpt>
<trkpt lat="53.189570" lon="-2.081117"><ele>227</ele><time>2023-03-17T11:27:48Z</time><name>PT1716</name></trkpt>
<trkpt lat="53.189587" lon="-2.081167"><ele>227</ele><time>2023-03-17T11:27:51Z</time><name>PT1717</name></trkpt>
<trkpt lat="53.189619" lon="-2.081181"><ele>228</ele><time>2023-03-17T11:27:54Z</time><name>PT1718</name></trkpt>
<trkpt lat="53.189652" lon="-2.081197"><ele>229</ele><time>2023-03-17T11:27:57Z</time><name>PT1719</name></trkpt>
<trkpt lat="53.189668" lon="-2.081208"><ele>230</ele><time>2023-03-17T11:28:00Z</time><name>PT1720</name></trkpt>
<trkpt lat="53.189672" lon="-2.081215"><ele>230</ele><time>2023-03-17T11:28:04Z</time><name>PT1721</name></trkpt>
<trkpt lat="53.189704" lon="-2.081250"><ele>229</ele><time>2023-03-17T11:28:07Z</time><name>PT1722</name></trkpt>
<trkpt lat="53.189740" lon="-2.081252"><ele>229</ele><time>2023-03-17T11:28:10Z</time><name>PT1723</name></trkpt>
<trkpt lat="53.189764" lon="-2.081274"><ele>228</ele><time>2023-03-17T11:28:14Z</time><name>PT1724</name></trkpt>
<trkpt lat="53.189797" lon="-2.081276"><ele>228</ele><time>2023-03-17T11:28:18Z</time><name>PT1725</name></trkpt>
<trkpt lat="53.189829" lon="-2.081295"><ele>229</ele><time>2023-03-17T11:28:21Z</time><name>PT1726</name></trkpt>
<trkpt lat="53.189867" lon="-2.081286"><ele>227</ele><time>2023-03-17T11:28:25Z</time><name>PT1727</name></trkpt>
<trkpt lat="53.189898" lon="-2.081286"><ele>228</ele><time>2023-03-17T11:28:28Z</time><name>PT1728</name></trkpt>
<trkpt lat="53.189940" lon="-2.081296"><ele>228</ele><time>2023-03-17T11:28:33Z</time><name>PT1729</name></trkpt>
<trkpt lat="53.189972" lon="-2.081302"><ele>231</ele><time>2023-03-17T11:28:36Z</time><name>PT1730</name></trkpt>
<trkpt lat="53.189996" lon="-2.081308"><ele>232</ele><time>2023-03-17T11:28:39Z</time><name>PT1731</name></trkpt>
<trkpt lat="53.190030" lon="-2.081307"><ele>232</ele><time>2023-03-17T11:28:42Z</time><name>PT1732</name></trkpt>
<trkpt lat="53.190058" lon="-2.081307"><ele>231</ele><time>2023-03-17T11:28:46Z</time><name>PT1733</name></trkpt>
<trkpt lat="53.190081" lon="-2.081306"><ele>231</ele><time>2023-03-17T11:28:49Z</time><name>PT1734</name></trkpt>
<trkpt lat="53.190118" lon="-2.081289"><ele>229</ele><time>2023-03-17T11:28:54Z</time><name>PT1735</name></trkpt>
<trkpt lat="53.190144" lon="-2.081280"><ele>229</ele><time>2023-03-17T11:28:57Z</time><name>PT1736</name></trkpt>
<trkpt lat="53.190158" lon="-2.081274"><ele>229</ele><time>2023-03-17T11:29:00Z</time><name>PT1737</name></trkpt>
<trkpt lat="53.190164" lon="-2.081293"><ele>229</ele><time>2023-03-17T11:29:10Z</time><name>PT1738</name></trkpt>
<trkpt lat="53.190177" lon="-2.081276"><ele>228</ele><time>2023-03-17T11:29:21Z</time><name>PT1739</name></trkpt>
<trkpt lat="53.190207" lon="-2.081234"><ele>227</ele><time>2023-03-17T11:29:24Z</time><name>PT1740</name></trkpt>
<trkpt lat="53.190249" lon="-2.081209"><ele>226</ele><time>2023-03-17T11:29:27Z</time><name>PT1741</name></trkpt>
<trkpt lat="53.190285" lon="-2.081196"><ele>226</ele><time>2023-03-17T11:29:30Z</time><name>PT1742</name></trkpt>
<trkpt lat="53.190329" lon="-2.081193"><ele>227</ele><time>2023-03-17T11:29:34Z</time><name>PT1743</name></trkpt>
<trkpt lat="53.190384" lon="-2.081179"><ele>225</ele><time>2023-03-17T11:29:39Z</time><name>PT1744</name></trkpt>
<trkpt lat="53.190414" lon="-2.081187"><ele>226</ele><time>2023-03-17T11:29:42Z</time><name>PT1745</name></trkpt>
<trkpt lat="53.190427" lon="-2.081184"><ele>227</ele><time>2023-03-17T11:29:45Z</time><name>PT1746</name></trkpt>
<trkpt lat="53.190456" lon="-2.081192"><ele>227</ele><time>2023-03-17T11:29:49Z</time><name>PT1747</name></trkpt>
<trkpt lat="53.190482" lon="-2.081209"><ele>229</ele><time>2023-03-17T11:29:52Z</time><name>PT1748</name></trkpt>
<trkpt lat="53.190493" lon="-2.081210"><ele>230</ele><time>2023-03-17T11:29:55Z</time><name>PT1749</name></trkpt>
<trkpt lat="53.190502" lon="-2.081194"><ele>229</ele><time>2023-03-17T11:30:01Z</time><name>PT1750</name></trkpt>
<trkpt lat="53.190540" lon="-2.081191"><ele>229</ele><time>2023-03-17T11:30:06Z</time><name>PT1751</name></trkpt>
<trkpt lat="53.190573" lon="-2.081191"><ele>228</ele><time>2023-03-17T11:30:09Z</time><name>PT1752</name></trkpt>
<trkpt lat="53.190611" lon="-2.081179"><ele>227</ele><time>2023-03-17T11:30:12Z</time><name>PT1753</name></trkpt>
<trkpt lat="53.190642" lon="-2.081175"><ele>225</ele><time>2023-03-17T11:30:15Z</time><name>PT1754</name></trkpt>
<trkpt lat="53.190691" lon="-2.081158"><ele>224</ele><time>2023-03-17T11:30:18Z</time><name>PT1755</name></trkpt>
<trkpt lat="53.190720" lon="-2.081145"><ele>224</ele><time>2023-03-17T11:30:21Z</time><name>PT1756</name></trkpt>
<trkpt lat="53.190753" lon="-2.081129"><ele>222</ele><time>2023-03-17T11:30:25Z</time><name>PT1757</name></trkpt>
<trkpt lat="53.190796" lon="-2.081148"><ele>222</ele><time>2023-03-17T11:30:30Z</time><name>PT1758</name></trkpt>
<trkpt lat="53.190825" lon="-2.081161"><ele>222</ele><time>2023-03-17T11:30:33Z</time><name>PT1759</name></trkpt>
<trkpt lat="53.190858" lon="-2.081192"><ele>222</ele><time>2023-03-17T11:30:36Z</time><name>PT1760</name></trkpt>
<trkpt lat="53.190889" lon="-2.081203"><ele>222</ele><time>2023-03-17T11:30:39Z</time><name>PT1761</name></trkpt>
<trkpt lat="53.190918" lon="-2.081208"><ele>223</ele><time>2023-03-17T11:30:43Z</time><name>PT1762</name></trkpt>
<trkpt lat="53.190955" lon="-2.081225"><ele>224</ele><time>2023-03-17T11:30:46Z</time><name>PT1763</name></trkpt>
<trkpt lat="53.190982" lon="-2.081229"><ele>224</ele><time>2023-03-17T11:30:49Z</time><name>PT1764</name></trkpt>
<trkpt lat="53.191007" lon="-2.081240"><ele>223</ele><time>2023-03-17T11:30:54Z</time><name>PT1765</name></trkpt>
<trkpt lat="53.191032" lon="-2.081258"><ele>221</ele><time>2023-03-17T11:30:57Z</time><name>PT1766</name></trkpt>
<trkpt lat="53.191075" lon="-2.081292"><ele>223</ele><time>2023-03-17T11:31:00Z</time><name>PT1767</name></trkpt>
<trkpt lat="53.191110" lon="-2.081299"><ele>224</ele><time>2023-03-17T11:31:04Z</time><name>PT1768</name></trkpt>
<trkpt lat="53.191150" lon="-2.081313"><ele>224</ele><time>2023-03-17T11:31:09Z</time><name>PT1769</name></trkpt>
<trkpt lat="53.191177" lon="-2.081340"><ele>224</ele><time>2023-03-17T11:31:12Z</time><name>PT1770</name></trkpt>
<trkpt lat="53.191215" lon="-2.081344"><ele>224</ele><time>2023-03-17T11:31:15Z</time><name>PT1771</name></trkpt>
<trkpt lat="53.191256" lon="-2.081332"><ele>222</ele><time>2023-03-17T11:31:19Z</time><name>PT1772</name></trkpt>
<trkpt lat="53.191302" lon="-2.081352"><ele>221</ele><time>2023-03-17T11:31:23Z</time><name>PT1773</name></trkpt>
<trkpt lat="53.191326" lon="-2.081311"><ele>223</ele><time>2023-03-17T11:31:27Z</time><name>PT1774</name></trkpt>
<trkpt lat="53.191343" lon="-2.081274"><ele>224</ele><time>2023-03-17T11:31:30Z</time><name>PT1775</name></trkpt>
<trkpt lat="53.191350" lon="-2.081207"><ele>226</ele><time>2023-03-17T11:32:00Z</time><name>PT1776</name></trkpt>
<trkpt lat="53.191392" lon="-2.081163"><ele>225</ele><time>2023-03-17T11:32:04Z</time><name>PT1777</name></trkpt>
<trkpt lat="53.191399" lon="-2.081149"><ele>225</ele><time>2023-03-17T11:32:07Z</time><name>PT1778</name></trkpt>
<trkpt lat="53.191401" lon="-2.081117"><ele>224</ele><time>2023-03-17T11:32:12Z</time><name>PT1779</name></trkpt>
<trkpt lat="53.191397" lon="-2.081093"><ele>223</ele><time>2023-03-17T11:32:15Z</time><name>PT1780</name></trkpt>
<trkpt lat="53.191395" lon="-2.081085"><ele>222</ele><time>2023-03-17T11:32:18Z</time><name>PT1781</name></trkpt>
<trkpt lat="53.191417" lon="-2.081052"><ele>221</ele><time>2023-03-17T11:32:22Z</time><name>PT1782</name></trkpt>
<trkpt lat="53.191438" lon="-2.081044"><ele>221</ele><time>2023-03-17T11:32:25Z</time><name>PT1783</name></trkpt>
<trkpt lat="53.191472" lon="-2.081030"><ele>222</ele><time>2023-03-17T11:32:30Z</time><name>PT1784</name></trkpt>
<trkpt lat="53.191491" lon="-2.081021"><ele>223</ele><time>2023-03-17T11:32:33Z</time><name>PT1785</name></trkpt>
<trkpt lat="53.191517" lon="-2.081012"><ele>224</ele><time>2023-03-17T11:32:38Z</time><name>PT1786</name></trkpt>
<trkpt lat="53.191538" lon="-2.081006"><ele>223</ele><time>2023-03-17T11:32:42Z</time><name>PT1787</name></trkpt>
<trkpt lat="53.191566" lon="-2.081014"><ele>222</ele><time>2023-03-17T11:32:45Z</time><name>PT1788</name></trkpt>
<trkpt lat="53.191602" lon="-2.081002"><ele>222</ele><time>2023-03-17T11:32:48Z</time><name>PT1789</name></trkpt>
<trkpt lat="53.191623" lon="-2.080970"><ele>224</ele><time>2023-03-17T11:32:52Z</time><name>PT1790</name></trkpt>
<trkpt lat="53.191648" lon="-2.080955"><ele>226</ele><time>2023-03-17T11:32:56Z</time><name>PT1791</name></trkpt>
<trkpt lat="53.191679" lon="-2.080934"><ele>224</ele><time>2023-03-17T11:33:00Z</time><name>PT1792</name></trkpt>
<trkpt lat="53.191697" lon="-2.080909"><ele>224</ele><time>2023-03-17T11:33:03Z</time><name>PT1793</name></trkpt>
<trkpt lat="53.191724" lon="-2.080870"><ele>226</ele><time>2023-03-17T11:33:06Z</time><name>PT1794</name></trkpt>
<trkpt lat="53.191738" lon="-2.080839"><ele>226</ele><time>2023-03-17T11:33:09Z</time><name>PT1795</name></trkpt>
<trkpt lat="53.191753" lon="-2.080797"><ele>226</ele><time>2023-03-17T11:33:13Z</time><name>PT1796</name></trkpt>
<trkpt lat="53.191780" lon="-2.080757"><ele>227</ele><time>2023-03-17T11:33:18Z</time><name>PT1797</name></trkpt>
<trkpt lat="53.191793" lon="-2.080728"><ele>227</ele><time>2023-03-17T11:33:21Z</time><name>PT1798</name></trkpt>
<trkpt lat="53.191797" lon="-2.080716"><ele>227</ele><time>2023-03-17T11:33:24Z</time><name>PT1799</name></trkpt>
<trkpt lat="53.191801" lon="-2.080691"><ele>228</ele><time>2023-03-17T11:33:27Z</time><name>PT1800</name></trkpt>
<trkpt lat="53.191812" lon="-2.080676"><ele>228</ele><time>2023-03-17T11:33:30Z</time><name>PT1801</name></trkpt>
<trkpt lat="53.191839" lon="-2.080646"><ele>223</ele><time>2023-03-17T11:33:33Z</time><name>PT1802</name></trkpt>
<trkpt lat="53.191856" lon="-2.080633"><ele>223</ele><time>2023-03-17T11:33:36Z</time><name>PT1803</name></trkpt>
<trkpt lat="53.191887" lon="-2.080605"><ele>227</ele><time>2023-03-17T11:33:41Z</time><name>PT1804</name></trkpt>
<trkpt lat="53.191909" lon="-2.080596"><ele>231</ele><time>2023-03-17T11:33:45Z</time><name>PT1805</name></trkpt>
<trkpt lat="53.191916" lon="-2.080575"><ele>231</ele><time>2023-03-17T11:33:48Z</time><name>PT1806</name></trkpt>
<trkpt lat="53.191927" lon="-2.080553"><ele>230</ele><time>2023-03-17T11:33:51Z</time><name>PT1807</name></trkpt>
<trkpt lat="53.191956" lon="-2.080513"><ele>229</ele><time>2023-03-17T11:33:54Z</time><name>PT1808</name></trkpt>
<trkpt lat="53.191993" lon="-2.080459"><ele>230</ele><time>2023-03-17T11:33:57Z</time><name>PT1809</name></trkpt>
<trkpt lat="53.192007" lon="-2.080419"><ele>229</ele><time>2023-03-17T11:34:00Z</time><name>PT1810</name></trkpt>
<trkpt lat="53.192030" lon="-2.080385"><ele>230</ele><time>2023-03-17T11:34:03Z</time><name>PT1811</name></trkpt>
<trkpt lat="53.192059" lon="-2.080350"><ele>232</ele><time>2023-03-17T11:34:07Z</time><name>PT1812</name></trkpt>
<trkpt lat="53.192082" lon="-2.080321"><ele>233</ele><time>2023-03-17T11:34:10Z</time><name>PT1813</name></trkpt>
<trkpt lat="53.192104" lon="-2.080280"><ele>234</ele><time>2023-03-17T11:34:15Z</time><name>PT1814</name></trkpt>
<trkpt lat="53.192118" lon="-2.080231"><ele>234</ele><time>2023-03-17T11:34:18Z</time><name>PT1815</name></trkpt>
<trkpt lat="53.192125" lon="-2.080184"><ele>235</ele><time>2023-03-17T11:34:22Z</time><name>PT1816</name></trkpt>
<trkpt lat="53.192144" lon="-2.080166"><ele>235</ele><time>2023-03-17T11:34:25Z</time><name>PT1817</name></trkpt>
<trkpt lat="53.192174" lon="-2.080129"><ele>235</ele><time>2023-03-17T11:34:30Z</time><name>PT1818</name></trkpt>
<trkpt lat="53.192202" lon="-2.080086"><ele>236</ele><time>2023-03-17T11:34:33Z</time><name>PT1819</name></trkpt>
<trkpt lat="53.192224" lon="-2.080042"><ele>236</ele><time>2023-03-17T11:34:36Z</time><name>PT1820</name></trkpt>
<trkpt lat="53.192258" lon="-2.080003"><ele>237</ele><time>2023-03-17T11:34:40Z</time><name>PT1821</name></trkpt>
<trkpt lat="53.192268" lon="-2.079979"><ele>237</ele><time>2023-03-17T11:34:44Z</time><name>PT1822</name></trkpt>
<trkpt lat="53.192303" lon="-2.079941"><ele>237</ele><time>2023-03-17T11:34:48Z</time><name>PT1823</name></trkpt>
<trkpt lat="53.192331" lon="-2.079905"><ele>235</ele><time>2023-03-17T11:34:51Z</time><name>PT1824</name></trkpt>
<trkpt lat="53.192368" lon="-2.079874"><ele>237</ele><time>2023-03-17T11:34:55Z</time><name>PT1825</name></trkpt>
<trkpt lat="53.192399" lon="-2.079848"><ele>238</ele><time>2023-03-17T11:34:58Z</time><name>PT1826</name></trkpt>
<trkpt lat="53.192443" lon="-2.079812"><ele>241</ele><time>2023-03-17T11:35:03Z</time><name>PT1827</name></trkpt>
<trkpt lat="53.192481" lon="-2.079785"><ele>243</ele><time>2023-03-17T11:35:06Z</time><name>PT1828</name></trkpt>
<trkpt lat="53.192515" lon="-2.079758"><ele>243</ele><time>2023-03-17T11:35:09Z</time><name>PT1829</name></trkpt>
<trkpt lat="53.192567" lon="-2.079725"><ele>244</ele><time>2023-03-17T11:35:12Z</time><name>PT1830</name></trkpt>
<trkpt lat="53.192610" lon="-2.079701"><ele>245</ele><time>2023-03-17T11:35:16Z</time><name>PT1831</name></trkpt>
<trkpt lat="53.192638" lon="-2.079681"><ele>244</ele><time>2023-03-17T11:35:19Z</time><name>PT1832</name></trkpt>
<trkpt lat="53.192667" lon="-2.079639"><ele>245</ele><time>2023-03-17T11:35:24Z</time><name>PT1833</name></trkpt>
<trkpt lat="53.192698" lon="-2.079618"><ele>245</ele><time>2023-03-17T11:35:27Z</time><name>PT1834</name></trkpt>
<trkpt lat="53.192731" lon="-2.079587"><ele>246</ele><time>2023-03-17T11:35:30Z</time><name>PT1835</name></trkpt>
<trkpt lat="53.192761" lon="-2.079568"><ele>247</ele><time>2023-03-17T11:35:34Z</time><name>PT1836</name></trkpt>
<trkpt lat="53.192783" lon="-2.079546"><ele>246</ele><time>2023-03-17T11:35:39Z</time><name>PT1837</name></trkpt>
<trkpt lat="53.192808" lon="-2.079520"><ele>246</ele><time>2023-03-17T11:35:42Z</time><name>PT1838</name></trkpt>
<trkpt lat="53.192826" lon="-2.079504"><ele>246</ele><time>2023-03-17T11:35:45Z</time><name>PT1839</name></trkpt>
<trkpt lat="53.192855" lon="-2.079481"><ele>247</ele><time>2023-03-17T11:35:49Z</time><name>PT1840</name></trkpt>
<trkpt lat="53.192888" lon="-2.079449"><ele>248</ele><time>2023-03-17T11:35:54Z</time><name>PT1841</name></trkpt>
<trkpt lat="53.192913" lon="-2.079422"><ele>249</ele><time>2023-03-17T11:35:57Z</time><name>PT1842</name></trkpt>
<trkpt lat="53.192934" lon="-2.079399"><ele>249</ele><time>2023-03-17T11:36:00Z</time><name>PT1843</name></trkpt>
<trkpt lat="53.192956" lon="-2.079361"><ele>250</ele><time>2023-03-17T11:36:03Z</time><name>PT1844</name></trkpt>
<trkpt lat="53.192979" lon="-2.079319"><ele>250</ele><time>2023-03-17T11:36:07Z</time><name>PT1845</name></trkpt>
<trkpt lat="53.192992" lon="-2.079285"><ele>250</ele><time>2023-03-17T11:36:10Z</time><name>PT1846</name></trkpt>
<trkpt lat="53.193005" lon="-2.079246"><ele>250</ele><time>2023-03-17T11:36:13Z</time><name>PT1847</name></trkpt>
<trkpt lat="53.193025" lon="-2.079200"><ele>250</ele><time>2023-03-17T11:36:18Z</time><name>PT1848</name></trkpt>
<trkpt lat="53.193039" lon="-2.079160"><ele>249</ele><time>2023-03-17T11:36:21Z</time><name>PT1849</name></trkpt>
<trkpt lat="53.193055" lon="-2.079119"><ele>250</ele><time>2023-03-17T11:36:25Z</time><name>PT1850</name></trkpt>
<trkpt lat="53.193069" lon="-2.079082"><ele>250</ele><time>2023-03-17T11:36:28Z</time><name>PT1851</name></trkpt>
<trkpt lat="53.193105" lon="-2.079030"><ele>252</ele><time>2023-03-17T11:36:33Z</time><name>PT1852</name></trkpt>
<trkpt lat="53.193126" lon="-2.078973"><ele>252</ele><time>2023-03-17T11:36:36Z</time><name>PT1853</name></trkpt>
<trkpt lat="53.193139" lon="-2.078919"><ele>252</ele><time>2023-03-17T11:36:39Z</time><name>PT1854</name></trkpt>
<trkpt lat="53.193160" lon="-2.078853"><ele>254</ele><time>2023-03-17T11:36:43Z</time><name>PT1855</name></trkpt>
<trkpt lat="53.193175" lon="-2.078794"><ele>252</ele><time>2023-03-17T11:36:48Z</time><name>PT1856</name></trkpt>
<trkpt lat="53.193188" lon="-2.078752"><ele>251</ele><time>2023-03-17T11:36:51Z</time><name>PT1857</name></trkpt>
<trkpt lat="53.193210" lon="-2.078690"><ele>252</ele><time>2023-03-17T11:36:54Z</time><name>PT1858</name></trkpt>
<trkpt lat="53.193222" lon="-2.078656"><ele>252</ele><time>2023-03-17T11:36:57Z</time><name>PT1859</name></trkpt>
<trkpt lat="53.193230" lon="-2.078634"><ele>252</ele><time>2023-03-17T11:37:00Z</time><name>PT1860</name></trkpt>
<trkpt lat="53.193237" lon="-2.078588"><ele>253</ele><time>2023-03-17T11:37:04Z</time><name>PT1861</name></trkpt>
<trkpt lat="53.193238" lon="-2.078567"><ele>252</ele><time>2023-03-17T11:37:09Z</time><name>PT1862</name></trkpt>
<trkpt lat="53.193236" lon="-2.078553"><ele>252</ele><time>2023-03-17T11:37:12Z</time><name>PT1863</name></trkpt>
<trkpt lat="53.193245" lon="-2.078517"><ele>253</ele><time>2023-03-17T11:37:15Z</time><name>PT1864</name></trkpt>
<trkpt lat="53.193263" lon="-2.078442"><ele>252</ele><time>2023-03-17T11:37:18Z</time><name>PT1865</name></trkpt>
<trkpt lat="53.193279" lon="-2.078387"><ele>253</ele><time>2023-03-17T11:37:22Z</time><name>PT1866</name></trkpt>
<trkpt lat="53.193289" lon="-2.078322"><ele>253</ele><time>2023-03-17T11:37:27Z</time><name>PT1867</name></trkpt>
<trkpt lat="53.193299" lon="-2.078276"><ele>253</ele><time>2023-03-17T11:37:30Z</time><name>PT1868</name></trkpt>
<trkpt lat="53.193313" lon="-2.078209"><ele>254</ele><time>2023-03-17T11:37:33Z</time><name>PT1869</name></trkpt>
<trkpt lat="53.193324" lon="-2.078130"><ele>254</ele><time>2023-03-17T11:37:37Z</time><name>PT1870</name></trkpt>
<trkpt lat="53.193333" lon="-2.078085"><ele>255</ele><time>2023-03-17T11:37:40Z</time><name>PT1871</name></trkpt>
<trkpt lat="53.193347" lon="-2.078013"><ele>256</ele><time>2023-03-17T11:37:45Z</time><name>PT1872</name></trkpt>
<trkpt lat="53.193344" lon="-2.077957"><ele>257</ele><time>2023-03-17T11:37:48Z</time><name>PT1873</name></trkpt>
<trkpt lat="53.193353" lon="-2.077901"><ele>257</ele><time>2023-03-17T11:37:52Z</time><name>PT1874</name></trkpt>
<trkpt lat="53.193361" lon="-2.077855"><ele>257</ele><time>2023-03-17T11:37:57Z</time><name>PT1875</name></trkpt>
<trkpt lat="53.193368" lon="-2.077812"><ele>256</ele><time>2023-03-17T11:38:00Z</time><name>PT1876</name></trkpt>
<trkpt lat="53.193377" lon="-2.077758"><ele>256</ele><time>2023-03-17T11:38:03Z</time><name>PT1877</name></trkpt>
<trkpt lat="53.193382" lon="-2.077721"><ele>256</ele><time>2023-03-17T11:38:06Z</time><name>PT1878</name></trkpt>
<trkpt lat="53.193394" lon="-2.077667"><ele>255</ele><time>2023-03-17T11:38:10Z</time><name>PT1879</name></trkpt>
<trkpt lat="53.193405" lon="-2.077625"><ele>256</ele><time>2023-03-17T11:38:15Z</time><name>PT1880</name></trkpt>
<trkpt lat="53.193410" lon="-2.077579"><ele>257</ele><time>2023-03-17T11:38:18Z</time><name>PT1881</name></trkpt>
<trkpt lat="53.193426" lon="-2.077525"><ele>260</ele><time>2023-03-17T11:38:21Z</time><name>PT1882</name></trkpt>
<trkpt lat="53.193435" lon="-2.077479"><ele>259</ele><time>2023-03-17T11:38:25Z</time><name>PT1883</name></trkpt>
<trkpt lat="53.193434" lon="-2.077407"><ele>260</ele><time>2023-03-17T11:38:30Z</time><name>PT1884</name></trkpt>
<trkpt lat="53.193437" lon="-2.077331"><ele>260</ele><time>2023-03-17T11:38:33Z</time><name>PT1885</name></trkpt>
<trkpt lat="53.193437" lon="-2.077260"><ele>260</ele><time>2023-03-17T11:38:37Z</time><name>PT1886</name></trkpt>
<trkpt lat="53.193452" lon="-2.077194"><ele>261</ele><time>2023-03-17T11:38:42Z</time><name>PT1887</name></trkpt>
<trkpt lat="53.193459" lon="-2.077144"><ele>261</ele><time>2023-03-17T11:38:45Z</time><name>PT1888</name></trkpt>
<trkpt lat="53.193460" lon="-2.077104"><ele>262</ele><time>2023-03-17T11:38:48Z</time><name>PT1889</name></trkpt>
<trkpt lat="53.193479" lon="-2.077065"><ele>263</ele><time>2023-03-17T11:38:51Z</time><name>PT1890</name></trkpt>
<trkpt lat="53.193480" lon="-2.077057"><ele>263</ele><time>2023-03-17T11:38:54Z</time><name>PT1891</name></trkpt>
<trkpt lat="53.193492" lon="-2.077073"><ele>262</ele><time>2023-03-17T11:38:58Z</time><name>PT1892</name></trkpt>
<trkpt lat="53.193508" lon="-2.077088"><ele>262</ele><time>2023-03-17T11:39:01Z</time><name>PT1893</name></trkpt>
<trkpt lat="53.193551" lon="-2.077096"><ele>261</ele><time>2023-03-17T11:39:06Z</time><name>PT1894</name></trkpt>
<trkpt lat="53.193585" lon="-2.077085"><ele>262</ele><time>2023-03-17T11:39:09Z</time><name>PT1895</name></trkpt>
<trkpt lat="53.193625" lon="-2.077073"><ele>262</ele><time>2023-03-17T11:39:12Z</time><name>PT1896</name></trkpt>
<trkpt lat="53.193649" lon="-2.077084"><ele>262</ele><time>2023-03-17T11:39:15Z</time><name>PT1897</name></trkpt>
<trkpt lat="53.193658" lon="-2.077071"><ele>262</ele><time>2023-03-17T11:39:18Z</time><name>PT1898</name></trkpt>
<trkpt lat="53.193664" lon="-2.077068"><ele>263</ele><time>2023-03-17T11:39:21Z</time><name>PT1899</name></trkpt>
<trkpt lat="53.193692" lon="-2.077051"><ele>263</ele><time>2023-03-17T11:39:25Z</time><name>PT1900</name></trkpt>
<trkpt lat="53.193729" lon="-2.077061"><ele>263</ele><time>2023-03-17T11:39:30Z</time><name>PT1901</name></trkpt>
<trkpt lat="53.193757" lon="-2.077068"><ele>264</ele><time>2023-03-17T11:39:33Z</time><name>PT1902</name></trkpt>
<trkpt lat="53.193779" lon="-2.077077"><ele>264</ele><time>2023-03-17T11:39:36Z</time><name>PT1903</name></trkpt>
<trkpt lat="53.193818" lon="-2.077105"><ele>264</ele><time>2023-03-17T11:39:39Z</time><name>PT1904</name></trkpt>
<trkpt lat="53.193857" lon="-2.077131"><ele>266</ele><time>2023-03-17T11:39:43Z</time><name>PT1905</name></trkpt>
<trkpt lat="53.193882" lon="-2.077135"><ele>266</ele><time>2023-03-17T11:39:46Z</time><name>PT1906</name></trkpt>
<trkpt lat="53.193921" lon="-2.077151"><ele>267</ele><time>2023-03-17T11:39:51Z</time><name>PT1907</name></trkpt>
<trkpt lat="53.193947" lon="-2.077170"><ele>267</ele><time>2023-03-17T11:39:54Z</time><name>PT1908</name></trkpt>
<trkpt lat="53.193981" lon="-2.077181"><ele>268</ele><time>2023-03-17T11:39:57Z</time><name>PT1909</name></trkpt>
<trkpt lat="53.194007" lon="-2.077186"><ele>268</ele><time>2023-03-17T11:40:00Z</time><name>PT1910</name></trkpt>
<trkpt lat="53.194044" lon="-2.077196"><ele>269</ele><time>2023-03-17T11:40:04Z</time><name>PT1911</name></trkpt>
<trkpt lat="53.194077" lon="-2.077215"><ele>269</ele><time>2023-03-17T11:40:09Z</time><name>PT1912</name></trkpt>
<trkpt lat="53.194102" lon="-2.077236"><ele>270</ele><time>2023-03-17T11:40:12Z</time><name>PT1913</name></trkpt>
<trkpt lat="53.194130" lon="-2.077269"><ele>270</ele><time>2023-03-17T11:40:15Z</time><name>PT1914</name></trkpt>
<trkpt lat="53.194159" lon="-2.077308"><ele>269</ele><time>2023-03-17T11:40:19Z</time><name>PT1915</name></trkpt>
<trkpt lat="53.194185" lon="-2.077354"><ele>269</ele><time>2023-03-17T11:40:24Z</time><name>PT1916</name></trkpt>
<trkpt lat="53.194206" lon="-2.077417"><ele>269</ele><time>2023-03-17T11:40:27Z</time><name>PT1917</name></trkpt>
<trkpt lat="53.194222" lon="-2.077484"><ele>269</ele><time>2023-03-17T11:40:31Z</time><name>PT1918</name></trkpt>
<trkpt lat="53.194242" lon="-2.077546"><ele>269</ele><time>2023-03-17T11:40:36Z</time><name>PT1919</name></trkpt>
<trkpt lat="53.194256" lon="-2.077607"><ele>268</ele><time>2023-03-17T11:40:39Z</time><name>PT1920</name></trkpt>
<trkpt lat="53.194269" lon="-2.077643"><ele>269</ele><time>2023-03-17T11:40:42Z</time><name>PT1921</name></trkpt>
<trkpt lat="53.194286" lon="-2.077677"><ele>270</ele><time>2023-03-17T11:40:45Z</time><name>PT1922</name></trkpt>
<trkpt lat="53.194300" lon="-2.077737"><ele>270</ele><time>2023-03-17T11:40:49Z</time><name>PT1923</name></trkpt>
<trkpt lat="53.194309" lon="-2.077775"><ele>268</ele><time>2023-03-17T11:40:54Z</time><name>PT1924</name></trkpt>
<trkpt lat="53.194318" lon="-2.077799"><ele>268</ele><time>2023-03-17T11:40:57Z</time><name>PT1925</name></trkpt>
<trkpt lat="53.194333" lon="-2.077849"><ele>268</ele><time>2023-03-17T11:41:03Z</time><name>PT1926</name></trkpt>
<trkpt lat="53.194352" lon="-2.077903"><ele>267</ele><time>2023-03-17T11:41:06Z</time><name>PT1927</name></trkpt>
<trkpt lat="53.194380" lon="-2.077949"><ele>264</ele><time>2023-03-17T11:41:10Z</time><name>PT1928</name></trkpt>
<trkpt lat="53.194406" lon="-2.077996"><ele>263</ele><time>2023-03-17T11:41:15Z</time><name>PT1929</name></trkpt>
<trkpt lat="53.194424" lon="-2.078006"><ele>263</ele><time>2023-03-17T11:41:18Z</time><name>PT1930</name></trkpt>
<trkpt lat="53.194427" lon="-2.078008"><ele>263</ele><time>2023-03-17T11:41:21Z</time><name>PT1931</name></trkpt>
<trkpt lat="53.194443" lon="-2.078035"><ele>262</ele><time>2023-03-17T11:41:25Z</time><name>PT1932</name></trkpt>
<trkpt lat="53.194484" lon="-2.078074"><ele>260</ele><time>2023-03-17T11:41:30Z</time><name>PT1933</name></trkpt>
<trkpt lat="53.194508" lon="-2.078098"><ele>259</ele><time>2023-03-17T11:41:33Z</time><name>PT1934</name></trkpt>
<trkpt lat="53.194542" lon="-2.078122"><ele>260</ele><time>2023-03-17T11:41:36Z</time><name>PT1935</name></trkpt>
<trkpt lat="53.194584" lon="-2.078162"><ele>259</ele><time>2023-03-17T11:41:40Z</time><name>PT1936</name></trkpt>
<trkpt lat="53.194615" lon="-2.078193"><ele>258</ele><time>2023-03-17T11:41:45Z</time><name>PT1937</name></trkpt>
<trkpt lat="53.194654" lon="-2.078200"><ele>259</ele><time>2023-03-17T11:41:48Z</time><name>PT1938</name></trkpt>
<trkpt lat="53.194686" lon="-2.078210"><ele>258</ele><time>2023-03-17T11:41:51Z</time><name>PT1939</name></trkpt>
<trkpt lat="53.194720" lon="-2.078214"><ele>258</ele><time>2023-03-17T11:41:54Z</time><name>PT1940</name></trkpt>
<trkpt lat="53.194763" lon="-2.078213"><ele>259</ele><time>2023-03-17T11:41:57Z</time><name>PT1941</name></trkpt>
<trkpt lat="53.194797" lon="-2.078214"><ele>259</ele><time>2023-03-17T11:42:00Z</time><name>PT1942</name></trkpt>
<trkpt lat="53.194827" lon="-2.078204"><ele>258</ele><time>2023-03-17T11:42:04Z</time><name>PT1943</name></trkpt>
<trkpt lat="53.194839" lon="-2.078201"><ele>258</ele><time>2023-03-17T11:42:08Z</time><name>PT1944</name></trkpt>
<trkpt lat="53.194840" lon="-2.078202"><ele>259</ele><time>2023-03-17T11:42:12Z</time><name>PT1945</name></trkpt>
<trkpt lat="53.194858" lon="-2.078221"><ele>258</ele><time>2023-03-17T11:42:15Z</time><name>PT1946</name></trkpt>
<trkpt lat="53.194895" lon="-2.078233"><ele>256</ele><time>2023-03-17T11:42:18Z</time><name>PT1947</name></trkpt>
<trkpt lat="53.194945" lon="-2.078259"><ele>254</ele><time>2023-03-17T11:42:21Z</time><name>PT1948</name></trkpt>
<trkpt lat="53.194973" lon="-2.078273"><ele>254</ele><time>2023-03-17T11:42:24Z</time><name>PT1949</name></trkpt>
<trkpt lat="53.194990" lon="-2.078293"><ele>254</ele><time>2023-03-17T11:42:28Z</time><name>PT1950</name></trkpt>
<trkpt lat="53.195004" lon="-2.078313"><ele>253</ele><time>2023-03-17T11:42:33Z</time><name>PT1951</name></trkpt>
<trkpt lat="53.195006" lon="-2.078319"><ele>252</ele><time>2023-03-17T11:42:36Z</time><name>PT1952</name></trkpt>
<trkpt lat="53.195008" lon="-2.078331"><ele>252</ele><time>2023-03-17T11:42:42Z</time><name>PT1953</name></trkpt>
<trkpt lat="53.195009" lon="-2.078366"><ele>250</ele><time>2023-03-17T11:42:45Z</time><name>PT1954</name></trkpt>
<trkpt lat="53.195039" lon="-2.078392"><ele>249</ele><time>2023-03-17T11:42:49Z</time><name>PT1955</name></trkpt>
<trkpt lat="53.195083" lon="-2.078402"><ele>247</ele><time>2023-03-17T11:42:54Z</time><name>PT1956</name></trkpt>
<trkpt lat="53.195114" lon="-2.078391"><ele>246</ele><time>2023-03-17T11:42:57Z</time><name>PT1957</name></trkpt>
<trkpt lat="53.195159" lon="-2.078377"><ele>247</ele><time>2023-03-17T11:43:00Z</time><name>PT1958</name></trkpt>
<trkpt lat="53.195194" lon="-2.078342"><ele>248</ele><time>2023-03-17T11:43:04Z</time><name>PT1959</name></trkpt>
<trkpt lat="53.195226" lon="-2.078329"><ele>250</ele><time>2023-03-17T11:43:07Z</time><name>PT1960</name></trkpt>
<trkpt lat="53.195256" lon="-2.078324"><ele>252</ele><time>2023-03-17T11:43:12Z</time><name>PT1961</name></trkpt>
<trkpt lat="53.195279" lon="-2.078335"><ele>253</ele><time>2023-03-17T11:43:15Z</time><name>PT1962</name></trkpt>
<trkpt lat="53.195301" lon="-2.078346"><ele>254</ele><time>2023-03-17T11:43:18Z</time><name>PT1963</name></trkpt>
<trkpt lat="53.195333" lon="-2.078364"><ele>255</ele><time>2023-03-17T11:43:22Z</time><name>PT1964</name></trkpt>
<trkpt lat="53.195357" lon="-2.078369"><ele>256</ele><time>2023-03-17T11:43:27Z</time><name>PT1965</name></trkpt>
<trkpt lat="53.195383" lon="-2.078378"><ele>257</ele><time>2023-03-17T11:43:30Z</time><name>PT1966</name></trkpt>
<trkpt lat="53.195387" lon="-2.078378"><ele>257</ele><time>2023-03-17T11:43:33Z</time><name>PT1967</name></trkpt>
<trkpt lat="53.195405" lon="-2.078398"><ele>254</ele><time>2023-03-17T11:43:36Z</time><name>PT1968</name></trkpt>
<trkpt lat="53.195444" lon="-2.078433"><ele>253</ele><time>2023-03-17T11:43:40Z</time><name>PT1969</name></trkpt>
<trkpt lat="53.195483" lon="-2.078442"><ele>252</ele><time>2023-03-17T11:43:45Z</time><name>PT1970</name></trkpt>
<trkpt lat="53.195513" lon="-2.078441"><ele>252</ele><time>2023-03-17T11:43:48Z</time><name>PT1971</name></trkpt>
<trkpt lat="53.195544" lon="-2.078451"><ele>254</ele><time>2023-03-17T11:43:51Z</time><name>PT1972</name></trkpt>
<trkpt lat="53.195564" lon="-2.078462"><ele>254</ele><time>2023-03-17T11:43:54Z</time><name>PT1973</name></trkpt>
<trkpt lat="53.195585" lon="-2.078441"><ele>251</ele><time>2023-03-17T11:43:57Z</time><name>PT1974</name></trkpt>
<trkpt lat="53.195598" lon="-2.078422"><ele>251</ele><time>2023-03-17T11:44:00Z</time><name>PT1975</name></trkpt>
<trkpt lat="53.195615" lon="-2.078425"><ele>251</ele><time>2023-03-17T11:44:04Z</time><name>PT1976</name></trkpt>
<trkpt lat="53.195624" lon="-2.078437"><ele>250</ele><time>2023-03-17T11:44:07Z</time><name>PT1977</name></trkpt>
<trkpt lat="53.195642" lon="-2.078444"><ele>251</ele><time>2023-03-17T11:44:10Z</time><name>PT1978</name></trkpt>
<trkpt lat="53.195659" lon="-2.078462"><ele>254</ele><time>2023-03-17T11:44:15Z</time><name>PT1979</name></trkpt>
<trkpt lat="53.195674" lon="-2.078460"><ele>253</ele><time>2023-03-17T11:44:18Z</time><name>PT1980</name></trkpt>
<trkpt lat="53.195691" lon="-2.078465"><ele>256</ele><time>2023-03-17T11:44:21Z</time><name>PT1981</name></trkpt>
<trkpt lat="53.195704" lon="-2.078479"><ele>257</ele><time>2023-03-17T11:44:24Z</time><name>PT1982</name></trkpt>
<trkpt lat="53.195719" lon="-2.078512"><ele>256</ele><time>2023-03-17T11:44:27Z</time><name>PT1983</name></trkpt>
<trkpt lat="53.195737" lon="-2.078551"><ele>255</ele><time>2023-03-17T11:44:31Z</time><name>PT1984</name></trkpt>
<trkpt lat="53.195768" lon="-2.078587"><ele>255</ele><time>2023-03-17T11:44:36Z</time><name>PT1985</name></trkpt>
<trkpt lat="53.195792" lon="-2.078609"><ele>256</ele><time>2023-03-17T11:44:39Z</time><name>PT1986</name></trkpt>
<trkpt lat="53.195810" lon="-2.078627"><ele>258</ele><time>2023-03-17T11:44:42Z</time><name>PT1987</name></trkpt>
<trkpt lat="53.195827" lon="-2.078637"><ele>262</ele><time>2023-03-17T11:44:46Z</time><name>PT1988</name></trkpt>
<trkpt lat="53.195823" lon="-2.078644"><ele>263</ele><time>2023-03-17T11:44:49Z</time><name>PT1989</name></trkpt>
<trkpt lat="53.195804" lon="-2.078659"><ele>262</ele><time>2023-03-17T11:44:54Z</time><name>PT1990</name></trkpt>
<trkpt lat="53.195794" lon="-2.078667"><ele>261</ele><time>2023-03-17T11:44:57Z</time><name>PT1991</name></trkpt>
<trkpt lat="53.195776" lon="-2.078669"><ele>261</ele><time>2023-03-17T11:45:00Z</time><name>PT1992</name></trkpt>
<trkpt lat="53.195753" lon="-2.078668"><ele>261</ele><time>2023-03-17T11:45:03Z</time><name>PT1993</name></trkpt>
<trkpt lat="53.195711" lon="-2.078672"><ele>260</ele><time>2023-03-17T11:45:06Z</time><name>PT1994</name></trkpt>
<trkpt lat="53.195688" lon="-2.078684"><ele>259</ele><time>2023-03-17T11:45:10Z</time><name>PT1995</name></trkpt>
<trkpt lat="53.195687" lon="-2.078698"><ele>259</ele><time>2023-03-17T11:45:13Z</time><name>PT1996</name></trkpt>
<trkpt lat="53.195686" lon="-2.078738"><ele>261</ele><time>2023-03-17T11:45:18Z</time><name>PT1997</name></trkpt>
<trkpt lat="53.195691" lon="-2.078783"><ele>262</ele><time>2023-03-17T11:45:21Z</time><name>PT1998</name></trkpt>
<trkpt lat="53.195708" lon="-2.078835"><ele>263</ele><time>2023-03-17T11:45:24Z</time><name>PT1999</name></trkpt>
<trkpt lat="53.195724" lon="-2.078878"><ele>262</ele><time>2023-03-17T11:45:28Z</time><name>PT2000</name></trkpt>
<trkpt lat="53.195747" lon="-2.078913"><ele>263</ele><time>2023-03-17T11:45:33Z</time><name>PT2001</name></trkpt>
<trkpt lat="53.195753" lon="-2.078956"><ele>262</ele><time>2023-03-17T11:45:36Z</time><name>PT2002</name></trkpt>
<trkpt lat="53.195756" lon="-2.078988"><ele>262</ele><time>2023-03-17T11:45:39Z</time><name>PT2003</name></trkpt>
<trkpt lat="53.195760" lon="-2.079005"><ele>262</ele><time>2023-03-17T11:45:43Z</time><name>PT2004</name></trkpt>
<trkpt lat="53.195766" lon="-2.079063"><ele>262</ele><time>2023-03-17T11:45:46Z</time><name>PT2005</name></trkpt>
<trkpt lat="53.195779" lon="-2.079117"><ele>261</ele><time>2023-03-17T11:45:49Z</time><name>PT2006</name></trkpt>
<trkpt lat="53.195790" lon="-2.079178"><ele>260</ele><time>2023-03-17T11:45:54Z</time><name>PT2007</name></trkpt>
<trkpt lat="53.195802" lon="-2.079214"><ele>261</ele><time>2023-03-17T11:45:57Z</time><name>PT2008</name></trkpt>
<trkpt lat="53.195812" lon="-2.079242"><ele>261</ele><time>2023-03-17T11:46:00Z</time><name>PT2009</name></trkpt>
<trkpt lat="53.195809" lon="-2.079267"><ele>260</ele><time>2023-03-17T11:46:03Z</time><name>PT2010</name></trkpt>
<trkpt lat="53.195817" lon="-2.079300"><ele>261</ele><time>2023-03-17T11:46:06Z</time><name>PT2011</name></trkpt>
<trkpt lat="53.195832" lon="-2.079331"><ele>261</ele><time>2023-03-17T11:46:09Z</time><name>PT2012</name></trkpt>
<trkpt lat="53.195840" lon="-2.079372"><ele>260</ele><time>2023-03-17T11:46:14Z</time><name>PT2013</name></trkpt>
<trkpt lat="53.195860" lon="-2.079416"><ele>260</ele><time>2023-03-17T11:46:18Z</time><name>PT2014</name></trkpt>
<trkpt lat="53.195860" lon="-2.079453"><ele>260</ele><time>2023-03-17T11:46:21Z</time><name>PT2015</name></trkpt>
<trkpt lat="53.195885" lon="-2.079495"><ele>264</ele><time>2023-03-17T11:46:25Z</time><name>PT2016</name></trkpt>
<trkpt lat="53.195896" lon="-2.079523"><ele>264</ele><time>2023-03-17T11:46:28Z</time><name>PT2017</name></trkpt>
<trkpt lat="53.195906" lon="-2.079554"><ele>266</ele><time>2023-03-17T11:46:31Z</time><name>PT2018</name></trkpt>
<trkpt lat="53.195914" lon="-2.079569"><ele>267</ele><time>2023-03-17T11:46:36Z</time><name>PT2019</name></trkpt>
<trkpt lat="53.195920" lon="-2.079601"><ele>268</ele><time>2023-03-17T11:46:39Z</time><name>PT2020</name></trkpt>
<trkpt lat="53.195940" lon="-2.079658"><ele>267</ele><time>2023-03-17T11:46:42Z</time><name>PT2021</name></trkpt>
<trkpt lat="53.195973" lon="-2.079692"><ele>267</ele><time>2023-03-17T11:46:45Z</time><name>PT2022</name></trkpt>
<trkpt lat="53.195991" lon="-2.079708"><ele>267</ele><time>2023-03-17T11:46:48Z</time><name>PT2023</name></trkpt>
<trkpt lat="53.196011" lon="-2.079729"><ele>268</ele><time>2023-03-17T11:46:52Z</time><name>PT2024</name></trkpt>
<trkpt lat="53.196023" lon="-2.079742"><ele>268</ele><time>2023-03-17T11:46:55Z</time><name>PT2025</name></trkpt>
<trkpt lat="53.196044" lon="-2.079750"><ele>267</ele><time>2023-03-17T11:46:58Z</time><name>PT2026</name></trkpt>
<trkpt lat="53.196068" lon="-2.079759"><ele>268</ele><time>2023-03-17T11:47:03Z</time><name>PT2027</name></trkpt>
<trkpt lat="53.196092" lon="-2.079767"><ele>270</ele><time>2023-03-17T11:47:06Z</time><name>PT2028</name></trkpt>
<trkpt lat="53.196109" lon="-2.079773"><ele>271</ele><time>2023-03-17T11:47:09Z</time><name>PT2029</name></trkpt>
<trkpt lat="53.196135" lon="-2.079754"><ele>271</ele><time>2023-03-17T11:47:12Z</time><name>PT2030</name></trkpt>
<trkpt lat="53.196155" lon="-2.079751"><ele>270</ele><time>2023-03-17T11:47:15Z</time><name>PT2031</name></trkpt>
<trkpt lat="53.196197" lon="-2.079751"><ele>268</ele><time>2023-03-17T11:47:19Z</time><name>PT2032</name></trkpt>
<trkpt lat="53.196231" lon="-2.079748"><ele>268</ele><time>2023-03-17T11:47:24Z</time><name>PT2033</name></trkpt>
<trkpt lat="53.196261" lon="-2.079757"><ele>269</ele><time>2023-03-17T11:47:27Z</time><name>PT2034</name></trkpt>
<trkpt lat="53.196277" lon="-2.079769"><ele>269</ele><time>2023-03-17T11:47:30Z</time><name>PT2035</name></trkpt>
<trkpt lat="53.196296" lon="-2.079784"><ele>271</ele><time>2023-03-17T11:47:33Z</time><name>PT2036</name></trkpt>
<trkpt lat="53.196323" lon="-2.079808"><ele>273</ele><time>2023-03-17T11:47:36Z</time><name>PT2037</name></trkpt>
<trkpt lat="53.196337" lon="-2.079821"><ele>275</ele><time>2023-03-17T11:47:40Z</time><name>PT2038</name></trkpt>
<trkpt lat="53.196367" lon="-2.079842"><ele>277</ele><time>2023-03-17T11:47:45Z</time><name>PT2039</name></trkpt>
<trkpt lat="53.196402" lon="-2.079870"><ele>279</ele><time>2023-03-17T11:47:48Z</time><name>PT2040</name></trkpt>
<trkpt lat="53.196425" lon="-2.079899"><ele>280</ele><time>2023-03-17T11:47:51Z</time><name>PT2041</name></trkpt>
<trkpt lat="53.196441" lon="-2.079924"><ele>278</ele><time>2023-03-17T11:47:54Z</time><name>PT2042</name></trkpt>
<trkpt lat="53.196477" lon="-2.079954"><ele>279</ele><time>2023-03-17T11:47:58Z</time><name>PT2043</name></trkpt>
<trkpt lat="53.196509" lon="-2.079985"><ele>281</ele><time>2023-03-17T11:48:01Z</time><name>PT2044</name></trkpt>
<trkpt lat="53.196543" lon="-2.080015"><ele>282</ele><time>2023-03-17T11:48:06Z</time><name>PT2045</name></trkpt>
<trkpt lat="53.196572" lon="-2.080034"><ele>283</ele><time>2023-03-17T11:48:09Z</time><name>PT2046</name></trkpt>
<trkpt lat="53.196590" lon="-2.080056"><ele>284</ele><time>2023-03-17T11:48:12Z</time><name>PT2047</name></trkpt>
<trkpt lat="53.196615" lon="-2.080095"><ele>284</ele><time>2023-03-17T11:48:15Z</time><name>PT2048</name></trkpt>
<trkpt lat="53.196650" lon="-2.080128"><ele>285</ele><time>2023-03-17T11:48:19Z</time><name>PT2049</name></trkpt>
<trkpt lat="53.196673" lon="-2.080141"><ele>286</ele><time>2023-03-17T11:48:22Z</time><name>PT2050</name></trkpt>
<trkpt lat="53.196714" lon="-2.080167"><ele>288</ele><time>2023-03-17T11:48:27Z</time><name>PT2051</name></trkpt>
<trkpt lat="53.196752" lon="-2.080195"><ele>290</ele><time>2023-03-17T11:48:30Z</time><name>PT2052</name></trkpt>
<trkpt lat="53.196775" lon="-2.080222"><ele>291</ele><time>2023-03-17T11:48:34Z</time><name>PT2053</name></trkpt>
<trkpt lat="53.196806" lon="-2.080238"><ele>291</ele><time>2023-03-17T11:48:39Z</time><name>PT2054</name></trkpt>
<trkpt lat="53.196821" lon="-2.080255"><ele>291</ele><time>2023-03-17T11:48:42Z</time><name>PT2055</name></trkpt>
<trkpt lat="53.196848" lon="-2.080278"><ele>292</ele><time>2023-03-17T11:48:45Z</time><name>PT2056</name></trkpt>
<trkpt lat="53.196861" lon="-2.080295"><ele>291</ele><time>2023-03-17T11:48:49Z</time><name>PT2057</name></trkpt>
<trkpt lat="53.196881" lon="-2.080334"><ele>291</ele><time>2023-03-17T11:48:52Z</time><name>PT2058</name></trkpt>
<trkpt lat="53.196908" lon="-2.080365"><ele>290</ele><time>2023-03-17T11:48:57Z</time><name>PT2059</name></trkpt>
<trkpt lat="53.196927" lon="-2.080389"><ele>291</ele><time>2023-03-17T11:49:00Z</time><name>PT2060</name></trkpt>
<trkpt lat="53.196942" lon="-2.080402"><ele>290</ele><time>2023-03-17T11:49:03Z</time><name>PT2061</name></trkpt>
<trkpt lat="53.196978" lon="-2.080423"><ele>291</ele><time>2023-03-17T11:49:06Z</time><name>PT2062</name></trkpt>
<trkpt lat="53.197001" lon="-2.080441"><ele>291</ele><time>2023-03-17T11:49:09Z</time><name>PT2063</name></trkpt>
<trkpt lat="53.197027" lon="-2.080469"><ele>293</ele><time>2023-03-17T11:49:13Z</time><name>PT2064</name></trkpt>
<trkpt lat="53.197054" lon="-2.080481"><ele>292</ele><time>2023-03-17T11:49:18Z</time><name>PT2065</name></trkpt>
<trkpt lat="53.197089" lon="-2.080496"><ele>293</ele><time>2023-03-17T11:49:21Z</time><name>PT2066</name></trkpt>
<trkpt lat="53.197112" lon="-2.080510"><ele>294</ele><time>2023-03-17T11:49:25Z</time><name>PT2067</name></trkpt>
<trkpt lat="53.197137" lon="-2.080524"><ele>294</ele><time>2023-03-17T11:49:30Z</time><name>PT2068</name></trkpt>
<trkpt lat="53.197151" lon="-2.080538"><ele>294</ele><time>2023-03-17T11:49:33Z</time><name>PT2069</name></trkpt>
<trkpt lat="53.197180" lon="-2.080556"><ele>294</ele><time>2023-03-17T11:49:36Z</time><name>PT2070</name></trkpt>
<trkpt lat="53.197204" lon="-2.080573"><ele>295</ele><time>2023-03-17T11:49:39Z</time><name>PT2071</name></trkpt>
<trkpt lat="53.197238" lon="-2.080598"><ele>296</ele><time>2023-03-17T11:49:43Z</time><name>PT2072</name></trkpt>
<trkpt lat="53.197258" lon="-2.080616"><ele>296</ele><time>2023-03-17T11:49:46Z</time><name>PT2073</name></trkpt>
<trkpt lat="53.197291" lon="-2.080637"><ele>297</ele><time>2023-03-17T11:49:51Z</time><name>PT2074</name></trkpt>
<trkpt lat="53.197306" lon="-2.080644"><ele>299</ele><time>2023-03-17T11:49:54Z</time><name>PT2075</name></trkpt>
<trkpt lat="53.197310" lon="-2.080645"><ele>299</ele><time>2023-03-17T11:49:58Z</time><name>PT2076</name></trkpt>
<trkpt lat="53.197329" lon="-2.080614"><ele>300</ele><time>2023-03-17T11:52:12Z</time><name>PT2077</name></trkpt>
<trkpt lat="53.197329" lon="-2.080656"><ele>302</ele><time>2023-03-17T11:55:54Z</time><name>PT2078</name></trkpt>
<trkpt lat="53.197337" lon="-2.080667"><ele>303</ele><time>2023-03-17T11:56:45Z</time><name>PT2079</name></trkpt>
<trkpt lat="53.197342" lon="-2.080671"><ele>303</ele><time>2023-03-17T11:57:15Z</time><name>PT2080</name></trkpt>
<trkpt lat="53.197376" lon="-2.080702"><ele>303</ele><time>2023-03-17T11:57:18Z</time><name>PT2081</name></trkpt>
<trkpt lat="53.197406" lon="-2.080726"><ele>303</ele><time>2023-03-17T11:57:22Z</time><name>PT2082</name></trkpt>
<trkpt lat="53.197442" lon="-2.080732"><ele>303</ele><time>2023-03-17T11:57:27Z</time><name>PT2083</name></trkpt>
<trkpt lat="53.197464" lon="-2.080743"><ele>303</ele><time>2023-03-17T11:57:30Z</time><name>PT2084</name></trkpt>
<trkpt lat="53.197493" lon="-2.080754"><ele>304</ele><time>2023-03-17T11:57:33Z</time><name>PT2085</name></trkpt>
<trkpt lat="53.197523" lon="-2.080752"><ele>305</ele><time>2023-03-17T11:57:36Z</time><name>PT2086</name></trkpt>
<trkpt lat="53.197561" lon="-2.080756"><ele>305</ele><time>2023-03-17T11:57:40Z</time><name>PT2087</name></trkpt>
<trkpt lat="53.197592" lon="-2.080756"><ele>306</ele><time>2023-03-17T11:57:43Z</time><name>PT2088</name></trkpt>
<trkpt lat="53.197628" lon="-2.080761"><ele>307</ele><time>2023-03-17T11:57:48Z</time><name>PT2089</name></trkpt>
<trkpt lat="53.197653" lon="-2.080771"><ele>309</ele><time>2023-03-17T11:57:51Z</time><name>PT2090</name></trkpt>
<trkpt lat="53.197688" lon="-2.080770"><ele>310</ele><time>2023-03-17T11:57:54Z</time><name>PT2091</name></trkpt>
<trkpt lat="53.197695" lon="-2.080772"><ele>310</ele><time>2023-03-17T11:57:57Z</time><name>PT2092</name></trkpt>
<trkpt lat="53.197710" lon="-2.080779"><ele>310</ele><time>2023-03-17T11:58:00Z</time><name>PT2093</name></trkpt>
<trkpt lat="53.197742" lon="-2.080777"><ele>310</ele><time>2023-03-17T11:58:04Z</time><name>PT2094</name></trkpt>
<trkpt lat="53.197764" lon="-2.080780"><ele>311</ele><time>2023-03-17T11:58:07Z</time><name>PT2095</name></trkpt>
<trkpt lat="53.197794" lon="-2.080773"><ele>311</ele><time>2023-03-17T11:58:12Z</time><name>PT2096</name></trkpt>
<trkpt lat="53.197817" lon="-2.080772"><ele>312</ele><time>2023-03-17T11:58:15Z</time><name>PT2097</name></trkpt>
<trkpt lat="53.197842" lon="-2.080775"><ele>313</ele><time>2023-03-17T11:58:18Z</time><name>PT2098</name></trkpt>
<trkpt lat="53.197868" lon="-2.080778"><ele>313</ele><time>2023-03-17T11:58:21Z</time><name>PT2099</name></trkpt>
<trkpt lat="53.197891" lon="-2.080779"><ele>314</ele><time>2023-03-17T11:58:24Z</time><name>PT2100</name></trkpt>
<trkpt lat="53.197914" lon="-2.080784"><ele>314</ele><time>2023-03-17T11:58:27Z</time><name>PT2101</name></trkpt>
<trkpt lat="53.197936" lon="-2.080790"><ele>314</ele><time>2023-03-17T11:58:31Z</time><name>PT2102</name></trkpt>
<trkpt lat="53.197963" lon="-2.080798"><ele>315</ele><time>2023-03-17T11:58:34Z</time><name>PT2103</name></trkpt>
<trkpt lat="53.197984" lon="-2.080809"><ele>315</ele><time>2023-03-17T11:58:37Z</time><name>PT2104</name></trkpt>
<trkpt lat="53.198007" lon="-2.080821"><ele>316</ele><time>2023-03-17T11:58:40Z</time><name>PT2105</name></trkpt>
<trkpt lat="53.198033" lon="-2.080828"><ele>316</ele><time>2023-03-17T11:58:45Z</time><name>PT2106</name></trkpt>
<trkpt lat="53.198055" lon="-2.080829"><ele>317</ele><time>2023-03-17T11:58:48Z</time><name>PT2107</name></trkpt>
<trkpt lat="53.198081" lon="-2.080839"><ele>318</ele><time>2023-03-17T11:58:51Z</time><name>PT2108</name></trkpt>
<trkpt lat="53.198101" lon="-2.080849"><ele>317</ele><time>2023-03-17T11:58:55Z</time><name>PT2109</name></trkpt>
<trkpt lat="53.198123" lon="-2.080852"><ele>318</ele><time>2023-03-17T11:58:58Z</time><name>PT2110</name></trkpt>
<trkpt lat="53.198146" lon="-2.080861"><ele>319</ele><time>2023-03-17T11:59:01Z</time><name>PT2111</name></trkpt>
<trkpt lat="53.198172" lon="-2.080857"><ele>319</ele><time>2023-03-17T11:59:06Z</time><name>PT2112</name></trkpt>
<trkpt lat="53.198198" lon="-2.080869"><ele>319</ele><time>2023-03-17T11:59:09Z</time><name>PT2113</name></trkpt>
<trkpt lat="53.198233" lon="-2.080879"><ele>320</ele><time>2023-03-17T11:59:13Z</time><name>PT2114</name></trkpt>
<trkpt lat="53.198256" lon="-2.080882"><ele>318</ele><time>2023-03-17T11:59:16Z</time><name>PT2115</name></trkpt>
<trkpt lat="53.198282" lon="-2.080898"><ele>319</ele><time>2023-03-17T11:59:19Z</time><name>PT2116</name></trkpt>
<trkpt lat="53.198317" lon="-2.080923"><ele>320</ele><time>2023-03-17T11:59:24Z</time><name>PT2117</name></trkpt>
<trkpt lat="53.198355" lon="-2.080927"><ele>322</ele><time>2023-03-17T11:59:27Z</time><name>PT2118</name></trkpt>
<trkpt lat="53.198376" lon="-2.080924"><ele>324</ele><time>2023-03-17T11:59:30Z</time><name>PT2119</name></trkpt>
<trkpt lat="53.198392" lon="-2.080923"><ele>324</ele><time>2023-03-17T11:59:34Z</time><name>PT2120</name></trkpt>
<trkpt lat="53.198409" lon="-2.080917"><ele>323</ele><time>2023-03-17T11:59:37Z</time><name>PT2121</name></trkpt>
<trkpt lat="53.198421" lon="-2.080920"><ele>321</ele><time>2023-03-17T11:59:42Z</time><name>PT2122</name></trkpt>
<trkpt lat="53.198436" lon="-2.080929"><ele>322</ele><time>2023-03-17T11:59:45Z</time><name>PT2123</name></trkpt>
<trkpt lat="53.198449" lon="-2.080952"><ele>320</ele><time>2023-03-17T11:59:48Z</time><name>PT2124</name></trkpt>
<trkpt lat="53.198472" lon="-2.080967"><ele>319</ele><time>2023-03-17T11:59:52Z</time><name>PT2125</name></trkpt>
<trkpt lat="53.198481" lon="-2.080988"><ele>319</ele><time>2023-03-17T11:59:55Z</time><name>PT2126</name></trkpt>
<trkpt lat="53.198504" lon="-2.081019"><ele>318</ele><time>2023-03-17T12:00:00Z</time><name>PT2127</name></trkpt>
<trkpt lat="53.198518" lon="-2.081043"><ele>318</ele><time>2023-03-17T12:00:03Z</time><name>PT2128</name></trkpt>
<trkpt lat="53.198538" lon="-2.081060"><ele>318</ele><time>2023-03-17T12:00:07Z</time><name>PT2129</name></trkpt>
<trkpt lat="53.198548" lon="-2.081088"><ele>316</ele><time>2023-03-17T12:00:12Z</time><name>PT2130</name></trkpt>
<trkpt lat="53.198552" lon="-2.081095"><ele>316</ele><time>2023-03-17T12:00:15Z</time><name>PT2131</name></trkpt>
<trkpt lat="53.198565" lon="-2.081142"><ele>314</ele><time>2023-03-17T12:00:18Z</time><name>PT2132</name></trkpt>
<trkpt lat="53.198575" lon="-2.081183"><ele>312</ele><time>2023-03-17T12:00:21Z</time><name>PT2133</name></trkpt>
<trkpt lat="53.198599" lon="-2.081220"><ele>312</ele><time>2023-03-17T12:00:24Z</time><name>PT2134</name></trkpt>
<trkpt lat="53.198621" lon="-2.081258"><ele>314</ele><time>2023-03-17T12:00:27Z</time><name>PT2135</name></trkpt>
<trkpt lat="53.198630" lon="-2.081290"><ele>315</ele><time>2023-03-17T12:00:31Z</time><name>PT2136</name></trkpt>
<trkpt lat="53.198641" lon="-2.081308"><ele>316</ele><time>2023-03-17T12:00:34Z</time><name>PT2137</name></trkpt>
<trkpt lat="53.198657" lon="-2.081327"><ele>317</ele><time>2023-03-17T12:00:39Z</time><name>PT2138</name></trkpt>
<trkpt lat="53.198669" lon="-2.081344"><ele>319</ele><time>2023-03-17T12:00:42Z</time><name>PT2139</name></trkpt>
<trkpt lat="53.198668" lon="-2.081365"><ele>319</ele><time>2023-03-17T12:00:45Z</time><name>PT2140</name></trkpt>
<trkpt lat="53.198672" lon="-2.081385"><ele>320</ele><time>2023-03-17T12:00:48Z</time><name>PT2141</name></trkpt>
<trkpt lat="53.198684" lon="-2.081407"><ele>321</ele><time>2023-03-17T12:00:51Z</time><name>PT2142</name></trkpt>
<trkpt lat="53.198687" lon="-2.081456"><ele>323</ele><time>2023-03-17T12:00:55Z</time><name>PT2143</name></trkpt>
<trkpt lat="53.198684" lon="-2.081493"><ele>324</ele><time>2023-03-17T12:00:58Z</time><name>PT2144</name></trkpt>
<trkpt lat="53.198674" lon="-2.081536"><ele>324</ele><time>2023-03-17T12:01:03Z</time><name>PT2145</name></trkpt>
<trkpt lat="53.198663" lon="-2.081566"><ele>323</ele><time>2023-03-17T12:01:06Z</time><name>PT2146</name></trkpt>
<trkpt lat="53.198659" lon="-2.081617"><ele>325</ele><time>2023-03-17T12:01:10Z</time><name>PT2147</name></trkpt>
<trkpt lat="53.198662" lon="-2.081626"><ele>325</ele><time>2023-03-17T12:01:13Z</time><name>PT2148</name></trkpt>
<trkpt lat="53.198662" lon="-2.081637"><ele>325</ele><time>2023-03-17T12:01:16Z</time><name>PT2149</name></trkpt>
<trkpt lat="53.198684" lon="-2.081698"><ele>324</ele><time>2023-03-17T12:01:27Z</time><name>PT2150</name></trkpt>
<trkpt lat="53.198710" lon="-2.081739"><ele>324</ele><time>2023-03-17T12:01:30Z</time><name>PT2151</name></trkpt>
<trkpt lat="53.198729" lon="-2.081770"><ele>323</ele><time>2023-03-17T12:01:33Z</time><name>PT2152</name></trkpt>
<trkpt lat="53.198750" lon="-2.081803"><ele>322</ele><time>2023-03-17T12:01:36Z</time><name>PT2153</name></trkpt>
<trkpt lat="53.198774" lon="-2.081827"><ele>323</ele><time>2023-03-17T12:01:39Z</time><name>PT2154</name></trkpt>
<trkpt lat="53.198809" lon="-2.081866"><ele>323</ele><time>2023-03-17T12:01:43Z</time><name>PT2155</name></trkpt>
<trkpt lat="53.198839" lon="-2.081921"><ele>324</ele><time>2023-03-17T12:01:48Z</time><name>PT2156</name></trkpt>
<trkpt lat="53.198868" lon="-2.081963"><ele>325</ele><time>2023-03-17T12:01:51Z</time><name>PT2157</name></trkpt>
<trkpt lat="53.198903" lon="-2.082021"><ele>326</ele><time>2023-03-17T12:01:54Z</time><name>PT2158</name></trkpt>
<trkpt lat="53.198939" lon="-2.082076"><ele>328</ele><time>2023-03-17T12:01:58Z</time><name>PT2159</name></trkpt>
<trkpt lat="53.198961" lon="-2.082123"><ele>328</ele><time>2023-03-17T12:02:01Z</time><name>PT2160</name></trkpt>
<trkpt lat="53.198987" lon="-2.082178"><ele>328</ele><time>2023-03-17T12:02:06Z</time><name>PT2161</name></trkpt>
<trkpt lat="53.199013" lon="-2.082241"><ele>327</ele><time>2023-03-17T12:02:09Z</time><name>PT2162</name></trkpt>
<trkpt lat="53.199044" lon="-2.082305"><ele>330</ele><time>2023-03-17T12:02:13Z</time><name>PT2163</name></trkpt>
<trkpt lat="53.199073" lon="-2.082360"><ele>331</ele><time>2023-03-17T12:02:18Z</time><name>PT2164</name></trkpt>
<trkpt lat="53.199096" lon="-2.082371"><ele>331</ele><time>2023-03-17T12:02:21Z</time><name>PT2165</name></trkpt>
<trkpt lat="53.199104" lon="-2.082377"><ele>332</ele><time>2023-03-17T12:02:24Z</time><name>PT2166</name></trkpt>
<trkpt lat="53.199106" lon="-2.082418"><ele>332</ele><time>2023-03-17T12:02:39Z</time><name>PT2167</name></trkpt>
<trkpt lat="53.199113" lon="-2.082468"><ele>332</ele><time>2023-03-17T12:02:42Z</time><name>PT2168</name></trkpt>
<trkpt lat="53.199131" lon="-2.082542"><ele>333</ele><time>2023-03-17T12:02:45Z</time><name>PT2169</name></trkpt>
<trkpt lat="53.199142" lon="-2.082603"><ele>333</ele><time>2023-03-17T12:02:48Z</time><name>PT2170</name></trkpt>
<trkpt lat="53.199160" lon="-2.082670"><ele>333</ele><time>2023-03-17T12:02:52Z</time><name>PT2171</name></trkpt>
<trkpt lat="53.199182" lon="-2.082736"><ele>333</ele><time>2023-03-17T12:02:57Z</time><name>PT2172</name></trkpt>
<trkpt lat="53.199202" lon="-2.082779"><ele>334</ele><time>2023-03-17T12:03:00Z</time><name>PT2173</name></trkpt>
<trkpt lat="53.199220" lon="-2.082825"><ele>335</ele><time>2023-03-17T12:03:03Z</time><name>PT2174</name></trkpt>
<trkpt lat="53.199237" lon="-2.082862"><ele>335</ele><time>2023-03-17T12:03:06Z</time><name>PT2175</name></trkpt>
<trkpt lat="53.199261" lon="-2.082915"><ele>335</ele><time>2023-03-17T12:03:09Z</time><name>PT2176</name></trkpt>
<trkpt lat="53.199281" lon="-2.082959"><ele>337</ele><time>2023-03-17T12:03:12Z</time><name>PT2177</name></trkpt>
<trkpt lat="53.199297" lon="-2.083009"><ele>337</ele><time>2023-03-17T12:03:16Z</time><name>PT2178</name></trkpt>
<trkpt lat="53.199314" lon="-2.083033"><ele>336</ele><time>2023-03-17T12:03:19Z</time><name>PT2179</name></trkpt>
<trkpt lat="53.199337" lon="-2.083079"><ele>335</ele><time>2023-03-17T12:03:24Z</time><name>PT2180</name></trkpt>
<trkpt lat="53.199355" lon="-2.083110"><ele>335</ele><time>2023-03-17T12:03:27Z</time><name>PT2181</name></trkpt>
<trkpt lat="53.199366" lon="-2.083146"><ele>334</ele><time>2023-03-17T12:03:30Z</time><name>PT2182</name></trkpt>
<trkpt lat="53.199394" lon="-2.083189"><ele>335</ele><time>2023-03-17T12:03:33Z</time><name>PT2183</name></trkpt>
<trkpt lat="53.199406" lon="-2.083238"><ele>336</ele><time>2023-03-17T12:03:36Z</time><name>PT2184</name></trkpt>
<trkpt lat="53.199429" lon="-2.083299"><ele>337</ele><time>2023-03-17T12:03:40Z</time><name>PT2185</name></trkpt>
<trkpt lat="53.199452" lon="-2.083356"><ele>338</ele><time>2023-03-17T12:03:45Z</time><name>PT2186</name></trkpt>
<trkpt lat="53.199468" lon="-2.083416"><ele>338</ele><time>2023-03-17T12:03:48Z</time><name>PT2187</name></trkpt>
<trkpt lat="53.199484" lon="-2.083472"><ele>338</ele><time>2023-03-17T12:03:52Z</time><name>PT2188</name></trkpt>
<trkpt lat="53.199493" lon="-2.083508"><ele>339</ele><time>2023-03-17T12:03:55Z</time><name>PT2189</name></trkpt>
<trkpt lat="53.199515" lon="-2.083544"><ele>339</ele><time>2023-03-17T12:04:00Z</time><name>PT2190</name></trkpt>
<trkpt lat="53.199527" lon="-2.083576"><ele>338</ele><time>2023-03-17T12:04:03Z</time><name>PT2191</name></trkpt>
<trkpt lat="53.199539" lon="-2.083609"><ele>339</ele><time>2023-03-17T12:04:06Z</time><name>PT2192</name></trkpt>
<trkpt lat="53.199555" lon="-2.083637"><ele>340</ele><time>2023-03-17T12:04:09Z</time><name>PT2193</name></trkpt>
<trkpt lat="53.199575" lon="-2.083647"><ele>340</ele><time>2023-03-17T12:04:13Z</time><name>PT2194</name></trkpt>
<trkpt lat="53.199574" lon="-2.083649"><ele>340</ele><time>2023-03-17T12:04:18Z</time><name>PT2195</name></trkpt>
<trkpt lat="53.199581" lon="-2.083647"><ele>340</ele><time>2023-03-17T12:04:21Z</time><name>PT2196</name></trkpt>
<trkpt lat="53.199598" lon="-2.083672"><ele>340</ele><time>2023-03-17T12:04:24Z</time><name>PT2197</name></trkpt>
<trkpt lat="53.199596" lon="-2.083676"><ele>340</ele><time>2023-03-17T12:04:28Z</time><name>PT2198</name></trkpt>
<trkpt lat="53.199593" lon="-2.083668"><ele>340</ele><time>2023-03-17T12:04:36Z</time><name>PT2199</name></trkpt>
<trkpt lat="53.199594" lon="-2.083664"><ele>340</ele><time>2023-03-17T12:04:40Z</time><name>PT2200</name></trkpt>
<trkpt lat="53.199594" lon="-2.083659"><ele>340</ele><time>2023-03-17T12:04:48Z</time><name>PT2201</name></trkpt>
<trkpt lat="53.199591" lon="-2.083647"><ele>340</ele><time>2023-03-17T12:04:51Z</time><name>PT2202</name></trkpt>
<trkpt lat="53.199593" lon="-2.083677"><ele>339</ele><time>2023-03-17T12:05:03Z</time><name>PT2203</name></trkpt>
<trkpt lat="53.199574" lon="-2.083716"><ele>338</ele><time>2023-03-17T12:05:06Z</time><name>PT2204</name></trkpt>
<trkpt lat="53.199529" lon="-2.083754"><ele>338</ele><time>2023-03-17T12:05:09Z</time><name>PT2205</name></trkpt>
<trkpt lat="53.199493" lon="-2.083779"><ele>338</ele><time>2023-03-17T12:05:13Z</time><name>PT2206</name></trkpt>
<trkpt lat="53.199460" lon="-2.083795"><ele>337</ele><time>2023-03-17T12:05:18Z</time><name>PT2207</name></trkpt>
<trkpt lat="53.199440" lon="-2.083805"><ele>337</ele><time>2023-03-17T12:05:21Z</time><name>PT2208</name></trkpt>
<trkpt lat="53.199411" lon="-2.083811"><ele>335</ele><time>2023-03-17T12:05:24Z</time><name>PT2209</name></trkpt>
<trkpt lat="53.199399" lon="-2.083824"><ele>336</ele><time>2023-03-17T12:05:27Z</time><name>PT2210</name></trkpt>
<trkpt lat="53.199395" lon="-2.083833"><ele>336</ele><time>2023-03-17T12:05:37Z</time><name>PT2211</name></trkpt>
<trkpt lat="53.199377" lon="-2.083861"><ele>335</ele><time>2023-03-17T12:05:42Z</time><name>PT2212</name></trkpt>
<trkpt lat="53.199353" lon="-2.083897"><ele>336</ele><time>2023-03-17T12:05:45Z</time><name>PT2213</name></trkpt>
<trkpt lat="53.199334" lon="-2.083939"><ele>336</ele><time>2023-03-17T12:05:48Z</time><name>PT2214</name></trkpt>
<trkpt lat="53.199326" lon="-2.083984"><ele>336</ele><time>2023-03-17T12:05:51Z</time><name>PT2215</name></trkpt>
<trkpt lat="53.199318" lon="-2.084042"><ele>337</ele><time>2023-03-17T12:05:54Z</time><name>PT2216</name></trkpt>
<trkpt lat="53.199310" lon="-2.084084"><ele>337</ele><time>2023-03-17T12:05:58Z</time><name>PT2217</name></trkpt>
<trkpt lat="53.199309" lon="-2.084078"><ele>338</ele><time>2023-03-17T12:06:01Z</time><name>PT2218</name></trkpt>
<trkpt lat="53.199297" lon="-2.084104"><ele>339</ele><time>2023-03-17T12:06:06Z</time><name>PT2219</name></trkpt>
<trkpt lat="53.199294" lon="-2.084112"><ele>339</ele><time>2023-03-17T12:06:09Z</time><name>PT2220</name></trkpt>
<trkpt lat="53.199293" lon="-2.084118"><ele>338</ele><time>2023-03-17T12:06:12Z</time><name>PT2221</name></trkpt>
<trkpt lat="53.199292" lon="-2.084123"><ele>338</ele><time>2023-03-17T12:06:15Z</time><name>PT2222</name></trkpt>
<trkpt lat="53.199291" lon="-2.084122"><ele>338</ele><time>2023-03-17T12:06:34Z</time><name>PT2223</name></trkpt>
<trkpt lat="53.199286" lon="-2.084122"><ele>338</ele><time>2023-03-17T12:06:37Z</time><name>PT2224</name></trkpt>
<trkpt lat="53.199285" lon="-2.084123"><ele>338</ele><time>2023-03-17T12:06:42Z</time><name>PT2225</name></trkpt>
<trkpt lat="53.199280" lon="-2.084115"><ele>339</ele><time>2023-03-17T12:07:22Z</time><name>PT2226</name></trkpt>
<trkpt lat="53.199280" lon="-2.084128"><ele>339</ele><time>2023-03-17T12:18:15Z</time><name>PT2227</name></trkpt>
<trkpt lat="53.199279" lon="-2.084134"><ele>340</ele><time>2023-03-17T12:18:19Z</time><name>PT2228</name></trkpt>
<trkpt lat="53.199281" lon="-2.084151"><ele>340</ele><time>2023-03-17T12:18:23Z</time><name>PT2229</name></trkpt>
<trkpt lat="53.199287" lon="-2.084158"><ele>339</ele><time>2023-03-17T12:21:46Z</time><name>PT2230</name></trkpt>
<trkpt lat="53.199290" lon="-2.084156"><ele>339</ele><time>2023-03-17T12:21:49Z</time><name>PT2231</name></trkpt>
<trkpt lat="53.199293" lon="-2.084154"><ele>339</ele><time>2023-03-17T12:24:06Z</time><name>PT2232</name></trkpt>
<trkpt lat="53.199295" lon="-2.084144"><ele>338</ele><time>2023-03-17T12:26:03Z</time><name>PT2233</name></trkpt>
<trkpt lat="53.199298" lon="-2.084136"><ele>339</ele><time>2023-03-17T12:26:06Z</time><name>PT2234</name></trkpt>
<trkpt lat="53.199307" lon="-2.084136"><ele>340</ele><time>2023-03-17T12:26:09Z</time><name>PT2235</name></trkpt>
<trkpt lat="53.199306" lon="-2.084136"><ele>339</ele><time>2023-03-17T12:26:16Z</time><name>PT2236</name></trkpt>
<trkpt lat="53.199306" lon="-2.084142"><ele>339</ele><time>2023-03-17T12:27:04Z</time><name>PT2237</name></trkpt>
<trkpt lat="53.199310" lon="-2.084149"><ele>338</ele><time>2023-03-17T12:27:09Z</time><name>PT2238</name></trkpt>
<trkpt lat="53.199304" lon="-2.084139"><ele>339</ele><time>2023-03-17T12:28:06Z</time><name>PT2239</name></trkpt>
<trkpt lat="53.199298" lon="-2.084128"><ele>339</ele><time>2023-03-17T12:28:09Z</time><name>PT2240</name></trkpt>
<trkpt lat="53.199300" lon="-2.084119"><ele>339</ele><time>2023-03-17T12:28:13Z</time><name>PT2241</name></trkpt>
<trkpt lat="53.199294" lon="-2.084126"><ele>340</ele><time>2023-03-17T12:28:57Z</time><name>PT2242</name></trkpt>
<trkpt lat="53.199255" lon="-2.084145"><ele>343</ele><time>2023-03-17T12:29:07Z</time><name>PT2243</name></trkpt>
<trkpt lat="53.199226" lon="-2.084166"><ele>342</ele><time>2023-03-17T12:29:12Z</time><name>PT2244</name></trkpt>
<trkpt lat="53.199182" lon="-2.084234"><ele>339</ele><time>2023-03-17T12:29:15Z</time><name>PT2245</name></trkpt>
<trkpt lat="53.199155" lon="-2.084255"><ele>338</ele><time>2023-03-17T12:29:18Z</time><name>PT2246</name></trkpt>
<trkpt lat="53.199130" lon="-2.084276"><ele>337</ele><time>2023-03-17T12:29:21Z</time><name>PT2247</name></trkpt>
<trkpt lat="53.199101" lon="-2.084302"><ele>337</ele><time>2023-03-17T12:29:25Z</time><name>PT2248</name></trkpt>
<trkpt lat="53.199087" lon="-2.084307"><ele>337</ele><time>2023-03-17T12:29:30Z</time><name>PT2249</name></trkpt>
<trkpt lat="53.199083" lon="-2.084307"><ele>337</ele><time>2023-03-17T12:29:33Z</time><name>PT2250</name></trkpt>
<trkpt lat="53.199045" lon="-2.084331"><ele>336</ele><time>2023-03-17T12:29:43Z</time><name>PT2251</name></trkpt>
<trkpt lat="53.199015" lon="-2.084344"><ele>334</ele><time>2023-03-17T12:29:46Z</time><name>PT2252</name></trkpt>
<trkpt lat="53.198978" lon="-2.084355"><ele>332</ele><time>2023-03-17T12:29:49Z</time><name>PT2253</name></trkpt>
<trkpt lat="53.198936" lon="-2.084370"><ele>331</ele><time>2023-03-17T12:29:54Z</time><name>PT2254</name></trkpt>
<trkpt lat="53.198900" lon="-2.084378"><ele>330</ele><time>2023-03-17T12:29:57Z</time><name>PT2255</name></trkpt>
<trkpt lat="53.198864" lon="-2.084403"><ele>329</ele><time>2023-03-17T12:30:00Z</time><name>PT2256</name></trkpt>
<trkpt lat="53.198822" lon="-2.084412"><ele>328</ele><time>2023-03-17T12:30:04Z</time><name>PT2257</name></trkpt>
<trkpt lat="53.198778" lon="-2.084422"><ele>328</ele><time>2023-03-17T12:30:09Z</time><name>PT2258</name></trkpt>
<trkpt lat="53.198746" lon="-2.084435"><ele>328</ele><time>2023-03-17T12:30:12Z</time><name>PT2259</name></trkpt>
<trkpt lat="53.198704" lon="-2.084447"><ele>327</ele><time>2023-03-17T12:30:15Z</time><name>PT2260</name></trkpt>
<trkpt lat="53.198678" lon="-2.084471"><ele>327</ele><time>2023-03-17T12:30:18Z</time><name>PT2261</name></trkpt>
<trkpt lat="53.198631" lon="-2.084490"><ele>326</ele><time>2023-03-17T12:30:22Z</time><name>PT2262</name></trkpt>
<trkpt lat="53.198584" lon="-2.084511"><ele>327</ele><time>2023-03-17T12:30:27Z</time><name>PT2263</name></trkpt>
<trkpt lat="53.198536" lon="-2.084528"><ele>328</ele><time>2023-03-17T12:30:30Z</time><name>PT2264</name></trkpt>
<trkpt lat="53.198485" lon="-2.084538"><ele>328</ele><time>2023-03-17T12:30:34Z</time><name>PT2265</name></trkpt>
<trkpt lat="53.198445" lon="-2.084551"><ele>327</ele><time>2023-03-17T12:30:39Z</time><name>PT2266</name></trkpt>
<trkpt lat="53.198399" lon="-2.084573"><ele>328</ele><time>2023-03-17T12:30:42Z</time><name>PT2267</name></trkpt>
<trkpt lat="53.198360" lon="-2.084608"><ele>329</ele><time>2023-03-17T12:30:45Z</time><name>PT2268</name></trkpt>
<trkpt lat="53.198326" lon="-2.084642"><ele>328</ele><time>2023-03-17T12:30:48Z</time><name>PT2269</name></trkpt>
<trkpt lat="53.198277" lon="-2.084665"><ele>328</ele><time>2023-03-17T12:30:52Z</time><name>PT2270</name></trkpt>
<trkpt lat="53.198231" lon="-2.084675"><ele>329</ele><time>2023-03-17T12:30:55Z</time><name>PT2271</name></trkpt>
<trkpt lat="53.198179" lon="-2.084693"><ele>329</ele><time>2023-03-17T12:31:00Z</time><name>PT2272</name></trkpt>
<trkpt lat="53.198127" lon="-2.084714"><ele>329</ele><time>2023-03-17T12:31:03Z</time><name>PT2273</name></trkpt>
<trkpt lat="53.198081" lon="-2.084735"><ele>331</ele><time>2023-03-17T12:31:06Z</time><name>PT2274</name></trkpt>
<trkpt lat="53.198036" lon="-2.084755"><ele>332</ele><time>2023-03-17T12:31:09Z</time><name>PT2275</name></trkpt>
<trkpt lat="53.197986" lon="-2.084771"><ele>332</ele><time>2023-03-17T12:31:13Z</time><name>PT2276</name></trkpt>
<trkpt lat="53.197939" lon="-2.084801"><ele>332</ele><time>2023-03-17T12:31:18Z</time><name>PT2277</name></trkpt>
<trkpt lat="53.197910" lon="-2.084818"><ele>331</ele><time>2023-03-17T12:31:21Z</time><name>PT2278</name></trkpt>
<trkpt lat="53.197862" lon="-2.084844"><ele>331</ele><time>2023-03-17T12:31:24Z</time><name>PT2279</name></trkpt>
<trkpt lat="53.197818" lon="-2.084858"><ele>331</ele><time>2023-03-17T12:31:27Z</time><name>PT2280</name></trkpt>
<trkpt lat="53.197770" lon="-2.084887"><ele>331</ele><time>2023-03-17T12:31:31Z</time><name>PT2281</name></trkpt>
<trkpt lat="53.197735" lon="-2.084907"><ele>331</ele><time>2023-03-17T12:31:34Z</time><name>PT2282</name></trkpt>
<trkpt lat="53.197689" lon="-2.084936"><ele>332</ele><time>2023-03-17T12:31:39Z</time><name>PT2283</name></trkpt>
<trkpt lat="53.197636" lon="-2.084953"><ele>331</ele><time>2023-03-17T12:31:42Z</time><name>PT2284</name></trkpt>
<trkpt lat="53.197591" lon="-2.084977"><ele>332</ele><time>2023-03-17T12:31:46Z</time><name>PT2285</name></trkpt>
<trkpt lat="53.197554" lon="-2.084996"><ele>332</ele><time>2023-03-17T12:31:49Z</time><name>PT2286</name></trkpt>
<trkpt lat="53.197504" lon="-2.085022"><ele>332</ele><time>2023-03-17T12:31:54Z</time><name>PT2287</name></trkpt>
<trkpt lat="53.197453" lon="-2.085072"><ele>334</ele><time>2023-03-17T12:31:57Z</time><name>PT2288</name></trkpt>
<trkpt lat="53.197424" lon="-2.085103"><ele>333</ele><time>2023-03-17T12:32:00Z</time><name>PT2289</name></trkpt>
<trkpt lat="53.197387" lon="-2.085133"><ele>333</ele><time>2023-03-17T12:32:03Z</time><name>PT2290</name></trkpt>
<trkpt lat="53.197336" lon="-2.085174"><ele>333</ele><time>2023-03-17T12:32:07Z</time><name>PT2291</name></trkpt>
<trkpt lat="53.197281" lon="-2.085214"><ele>332</ele><time>2023-03-17T12:32:12Z</time><name>PT2292</name></trkpt>
<trkpt lat="53.197246" lon="-2.085243"><ele>332</ele><time>2023-03-17T12:32:15Z</time><name>PT2293</name></trkpt>
<trkpt lat="53.197209" lon="-2.085275"><ele>333</ele><time>2023-03-17T12:32:18Z</time><name>PT2294</name></trkpt>
<trkpt lat="53.197166" lon="-2.085322"><ele>333</ele><time>2023-03-17T12:32:21Z</time><name>PT2295</name></trkpt>
<trkpt lat="53.197119" lon="-2.085357"><ele>333</ele><time>2023-03-17T12:32:25Z</time><name>PT2296</name></trkpt>
<trkpt lat="53.197090" lon="-2.085379"><ele>333</ele><time>2023-03-17T12:32:28Z</time><name>PT2297</name></trkpt>
<trkpt lat="53.197048" lon="-2.085415"><ele>333</ele><time>2023-03-17T12:32:33Z</time><name>PT2298</name></trkpt>
<trkpt lat="53.197007" lon="-2.085448"><ele>333</ele><time>2023-03-17T12:32:36Z</time><name>PT2299</name></trkpt>
<trkpt lat="53.196964" lon="-2.085484"><ele>334</ele><time>2023-03-17T12:32:40Z</time><name>PT2300</name></trkpt>
<trkpt lat="53.196921" lon="-2.085511"><ele>334</ele><time>2023-03-17T12:32:45Z</time><name>PT2301</name></trkpt>
<trkpt lat="53.196877" lon="-2.085538"><ele>334</ele><time>2023-03-17T12:32:48Z</time><name>PT2302</name></trkpt>
<trkpt lat="53.196833" lon="-2.085574"><ele>334</ele><time>2023-03-17T12:32:52Z</time><name>PT2303</name></trkpt>
<trkpt lat="53.196792" lon="-2.085605"><ele>334</ele><time>2023-03-17T12:32:57Z</time><name>PT2304</name></trkpt>
<trkpt lat="53.196762" lon="-2.085634"><ele>335</ele><time>2023-03-17T12:33:00Z</time><name>PT2305</name></trkpt>
<trkpt lat="53.196733" lon="-2.085662"><ele>335</ele><time>2023-03-17T12:33:03Z</time><name>PT2306</name></trkpt>
<trkpt lat="53.196692" lon="-2.085703"><ele>334</ele><time>2023-03-17T12:33:06Z</time><name>PT2307</name></trkpt>
<trkpt lat="53.196661" lon="-2.085734"><ele>334</ele><time>2023-03-17T12:33:09Z</time><name>PT2308</name></trkpt>
<trkpt lat="53.196629" lon="-2.085762"><ele>334</ele><time>2023-03-17T12:33:12Z</time><name>PT2309</name></trkpt>
<trkpt lat="53.196586" lon="-2.085791"><ele>334</ele><time>2023-03-17T12:33:17Z</time><name>PT2310</name></trkpt>
<trkpt lat="53.196544" lon="-2.085822"><ele>333</ele><time>2023-03-17T12:33:21Z</time><name>PT2311</name></trkpt>
<trkpt lat="53.196503" lon="-2.085861"><ele>333</ele><time>2023-03-17T12:33:24Z</time><name>PT2312</name></trkpt>
<trkpt lat="53.196461" lon="-2.085891"><ele>333</ele><time>2023-03-17T12:33:28Z</time><name>PT2313</name></trkpt>
<trkpt lat="53.196436" lon="-2.085920"><ele>333</ele><time>2023-03-17T12:33:31Z</time><name>PT2314</name></trkpt>
<trkpt lat="53.196399" lon="-2.085955"><ele>332</ele><time>2023-03-17T12:33:36Z</time><name>PT2315</name></trkpt>
<trkpt lat="53.196370" lon="-2.085978"><ele>331</ele><time>2023-03-17T12:33:39Z</time><name>PT2316</name></trkpt>
<trkpt lat="53.196339" lon="-2.085999"><ele>331</ele><time>2023-03-17T12:33:42Z</time><name>PT2317</name></trkpt>
<trkpt lat="53.196314" lon="-2.086021"><ele>331</ele><time>2023-03-17T12:33:45Z</time><name>PT2318</name></trkpt>
<trkpt lat="53.196295" lon="-2.086040"><ele>332</ele><time>2023-03-17T12:33:48Z</time><name>PT2319</name></trkpt>
<trkpt lat="53.196290" lon="-2.086039"><ele>332</ele><time>2023-03-17T12:33:52Z</time><name>PT2320</name></trkpt>
<trkpt lat="53.196277" lon="-2.086062"><ele>332</ele><time>2023-03-17T12:34:21Z</time><name>PT2321</name></trkpt>
<trkpt lat="53.196229" lon="-2.086092"><ele>332</ele><time>2023-03-17T12:34:24Z</time><name>PT2322</name></trkpt>
<trkpt lat="53.196177" lon="-2.086124"><ele>332</ele><time>2023-03-17T12:34:28Z</time><name>PT2323</name></trkpt>
<trkpt lat="53.196142" lon="-2.086145"><ele>332</ele><time>2023-03-17T12:34:31Z</time><name>PT2324</name></trkpt>
<trkpt lat="53.196105" lon="-2.086167"><ele>332</ele><time>2023-03-17T12:34:34Z</time><name>PT2325</name></trkpt>
<trkpt lat="53.196053" lon="-2.086197"><ele>332</ele><time>2023-03-17T12:34:39Z</time><name>PT2326</name></trkpt>
<trkpt lat="53.196008" lon="-2.086219"><ele>331</ele><time>2023-03-17T12:34:42Z</time><name>PT2327</name></trkpt>
<trkpt lat="53.195964" lon="-2.086259"><ele>331</ele><time>2023-03-17T12:34:46Z</time><name>PT2328</name></trkpt>
<trkpt lat="53.195936" lon="-2.086285"><ele>331</ele><time>2023-03-17T12:34:49Z</time><name>PT2329</name></trkpt>
<trkpt lat="53.195890" lon="-2.086312"><ele>331</ele><time>2023-03-17T12:34:54Z</time><name>PT2330</name></trkpt>
<trkpt lat="53.195842" lon="-2.086320"><ele>332</ele><time>2023-03-17T12:34:57Z</time><name>PT2331</name></trkpt>
<trkpt lat="53.195803" lon="-2.086330"><ele>332</ele><time>2023-03-17T12:35:00Z</time><name>PT2332</name></trkpt>
<trkpt lat="53.195762" lon="-2.086352"><ele>333</ele><time>2023-03-17T12:35:04Z</time><name>PT2333</name></trkpt>
<trkpt lat="53.195719" lon="-2.086396"><ele>333</ele><time>2023-03-17T12:35:09Z</time><name>PT2334</name></trkpt>
<trkpt lat="53.195686" lon="-2.086426"><ele>333</ele><time>2023-03-17T12:35:12Z</time><name>PT2335</name></trkpt>
<trkpt lat="53.195656" lon="-2.086453"><ele>333</ele><time>2023-03-17T12:35:15Z</time><name>PT2336</name></trkpt>
<trkpt lat="53.195617" lon="-2.086490"><ele>334</ele><time>2023-03-17T12:35:18Z</time><name>PT2337</name></trkpt>
<trkpt lat="53.195588" lon="-2.086522"><ele>335</ele><time>2023-03-17T12:35:21Z</time><name>PT2338</name></trkpt>
<trkpt lat="53.195553" lon="-2.086568"><ele>334</ele><time>2023-03-17T12:35:25Z</time><name>PT2339</name></trkpt>
<trkpt lat="53.195517" lon="-2.086612"><ele>335</ele><time>2023-03-17T12:35:30Z</time><name>PT2340</name></trkpt>
<trkpt lat="53.195493" lon="-2.086652"><ele>335</ele><time>2023-03-17T12:35:33Z</time><name>PT2341</name></trkpt>
<trkpt lat="53.195470" lon="-2.086685"><ele>336</ele><time>2023-03-17T12:35:36Z</time><name>PT2342</name></trkpt>
<trkpt lat="53.195445" lon="-2.086730"><ele>336</ele><time>2023-03-17T12:35:39Z</time><name>PT2343</name></trkpt>
<trkpt lat="53.195419" lon="-2.086778"><ele>336</ele><time>2023-03-17T12:35:42Z</time><name>PT2344</name></trkpt>
<trkpt lat="53.195400" lon="-2.086808"><ele>337</ele><time>2023-03-17T12:35:45Z</time><name>PT2345</name></trkpt>
<trkpt lat="53.195378" lon="-2.086842"><ele>337</ele><time>2023-03-17T12:35:49Z</time><name>PT2346</name></trkpt>
<trkpt lat="53.195364" lon="-2.086865"><ele>338</ele><time>2023-03-17T12:35:52Z</time><name>PT2347</name></trkpt>
<trkpt lat="53.195351" lon="-2.086883"><ele>338</ele><time>2023-03-17T12:35:57Z</time><name>PT2348</name></trkpt>
<trkpt lat="53.195345" lon="-2.086887"><ele>339</ele><time>2023-03-17T12:36:00Z</time><name>PT2349</name></trkpt>
<trkpt lat="53.195341" lon="-2.086889"><ele>339</ele><time>2023-03-17T12:36:06Z</time><name>PT2350</name></trkpt>
<trkpt lat="53.195333" lon="-2.086887"><ele>338</ele><time>2023-03-17T12:36:09Z</time><name>PT2351</name></trkpt>
<trkpt lat="53.195333" lon="-2.086895"><ele>337</ele><time>2023-03-17T12:36:19Z</time><name>PT2352</name></trkpt>
<trkpt lat="53.195332" lon="-2.086893"><ele>338</ele><time>2023-03-17T12:36:24Z</time><name>PT2353</name></trkpt>
<trkpt lat="53.195334" lon="-2.086910"><ele>339</ele><time>2023-03-17T12:36:36Z</time><name>PT2354</name></trkpt>
<trkpt lat="53.195328" lon="-2.086919"><ele>339</ele><time>2023-03-17T12:36:39Z</time><name>PT2355</name></trkpt>
<trkpt lat="53.195329" lon="-2.086966"><ele>340</ele><time>2023-03-17T12:36:43Z</time><name>PT2356</name></trkpt>
<trkpt lat="53.195330" lon="-2.086992"><ele>340</ele><time>2023-03-17T12:36:46Z</time><name>PT2357</name></trkpt>
<trkpt lat="53.195311" lon="-2.087019"><ele>341</ele><time>2023-03-17T12:36:52Z</time><name>PT2358</name></trkpt>
<trkpt lat="53.195300" lon="-2.087083"><ele>342</ele><time>2023-03-17T12:36:57Z</time><name>PT2359</name></trkpt>
<trkpt lat="53.195273" lon="-2.087120"><ele>343</ele><time>2023-03-17T12:37:00Z</time><name>PT2360</name></trkpt>
<trkpt lat="53.195247" lon="-2.087152"><ele>343</ele><time>2023-03-17T12:37:03Z</time><name>PT2361</name></trkpt>
<trkpt lat="53.195219" lon="-2.087181"><ele>342</ele><time>2023-03-17T12:37:06Z</time><name>PT2362</name></trkpt>
<trkpt lat="53.195192" lon="-2.087218"><ele>344</ele><time>2023-03-17T12:37:09Z</time><name>PT2363</name></trkpt>
<trkpt lat="53.195157" lon="-2.087254"><ele>344</ele><time>2023-03-17T12:37:13Z</time><name>PT2364</name></trkpt>
<trkpt lat="53.195130" lon="-2.087272"><ele>344</ele><time>2023-03-17T12:37:16Z</time><name>PT2365</name></trkpt>
<trkpt lat="53.195103" lon="-2.087287"><ele>345</ele><time>2023-03-17T12:37:19Z</time><name>PT2366</name></trkpt>
<trkpt lat="53.195075" lon="-2.087301"><ele>345</ele><time>2023-03-17T12:37:24Z</time><name>PT2367</name></trkpt>
<trkpt lat="53.195071" lon="-2.087299"><ele>344</ele><time>2023-03-17T12:37:27Z</time><name>PT2368</name></trkpt>
<trkpt lat="53.195062" lon="-2.087315"><ele>345</ele><time>2023-03-17T12:37:30Z</time><name>PT2369</name></trkpt>
<trkpt lat="53.195053" lon="-2.087340"><ele>345</ele><time>2023-03-17T12:37:33Z</time><name>PT2370</name></trkpt>
<trkpt lat="53.195036" lon="-2.087368"><ele>345</ele><time>2023-03-17T12:37:36Z</time><name>PT2371</name></trkpt>
<trkpt lat="53.195012" lon="-2.087404"><ele>346</ele><time>2023-03-17T12:37:40Z</time><name>PT2372</name></trkpt>
<trkpt lat="53.194999" lon="-2.087436"><ele>348</ele><time>2023-03-17T12:37:43Z</time><name>PT2373</name></trkpt>
<trkpt lat="53.194979" lon="-2.087464"><ele>347</ele><time>2023-03-17T12:37:48Z</time><name>PT2374</name></trkpt>
<trkpt lat="53.194967" lon="-2.087486"><ele>348</ele><time>2023-03-17T12:37:51Z</time><name>PT2375</name></trkpt>
<trkpt lat="53.194946" lon="-2.087522"><ele>349</ele><time>2023-03-17T12:37:54Z</time><name>PT2376</name></trkpt>
<trkpt lat="53.194930" lon="-2.087571"><ele>349</ele><time>2023-03-17T12:37:58Z</time><name>PT2377</name></trkpt>
<trkpt lat="53.194914" lon="-2.087614"><ele>349</ele><time>2023-03-17T12:38:03Z</time><name>PT2378</name></trkpt>
<trkpt lat="53.194901" lon="-2.087654"><ele>350</ele><time>2023-03-17T12:38:06Z</time><name>PT2379</name></trkpt>
<trkpt lat="53.194884" lon="-2.087694"><ele>350</ele><time>2023-03-17T12:38:09Z</time><name>PT2380</name></trkpt>
<trkpt lat="53.194863" lon="-2.087737"><ele>351</ele><time>2023-03-17T12:38:12Z</time><name>PT2381</name></trkpt>
<trkpt lat="53.194839" lon="-2.087782"><ele>352</ele><time>2023-03-17T12:38:16Z</time><name>PT2382</name></trkpt>
<trkpt lat="53.194815" lon="-2.087818"><ele>353</ele><time>2023-03-17T12:38:21Z</time><name>PT2383</name></trkpt>
<trkpt lat="53.194791" lon="-2.087855"><ele>353</ele><time>2023-03-17T12:38:24Z</time><name>PT2384</name></trkpt>
<trkpt lat="53.194763" lon="-2.087884"><ele>355</ele><time>2023-03-17T12:38:28Z</time><name>PT2385</name></trkpt>
<trkpt lat="53.194746" lon="-2.087904"><ele>355</ele><time>2023-03-17T12:38:31Z</time><name>PT2386</name></trkpt>
<trkpt lat="53.194731" lon="-2.087933"><ele>355</ele><time>2023-03-17T12:38:34Z</time><name>PT2387</name></trkpt>
<trkpt lat="53.194715" lon="-2.087961"><ele>355</ele><time>2023-03-17T12:38:39Z</time><name>PT2388</name></trkpt>
<trkpt lat="53.194693" lon="-2.088000"><ele>356</ele><time>2023-03-17T12:38:42Z</time><name>PT2389</name></trkpt>
<trkpt lat="53.194678" lon="-2.088038"><ele>357</ele><time>2023-03-17T12:38:46Z</time><name>PT2390</name></trkpt>
<trkpt lat="53.194654" lon="-2.088091"><ele>358</ele><time>2023-03-17T12:38:51Z</time><name>PT2391</name></trkpt>
<trkpt lat="53.194631" lon="-2.088127"><ele>359</ele><time>2023-03-17T12:38:54Z</time><name>PT2392</name></trkpt>
<trkpt lat="53.194619" lon="-2.088164"><ele>359</ele><time>2023-03-17T12:38:57Z</time><name>PT2393</name></trkpt>
<trkpt lat="53.194610" lon="-2.088199"><ele>360</ele><time>2023-03-17T12:39:00Z</time><name>PT2394</name></trkpt>
<trkpt lat="53.194590" lon="-2.088249"><ele>361</ele><time>2023-03-17T12:39:03Z</time><name>PT2395</name></trkpt>
<trkpt lat="53.194581" lon="-2.088277"><ele>362</ele><time>2023-03-17T12:39:06Z</time><name>PT2396</name></trkpt>
<trkpt lat="53.194561" lon="-2.088317"><ele>362</ele><time>2023-03-17T12:39:10Z</time><name>PT2397</name></trkpt>
<trkpt lat="53.194542" lon="-2.088353"><ele>363</ele><time>2023-03-17T12:39:13Z</time><name>PT2398</name></trkpt>
<trkpt lat="53.194524" lon="-2.088390"><ele>363</ele><time>2023-03-17T12:39:16Z</time><name>PT2399</name></trkpt>
<trkpt lat="53.194499" lon="-2.088439"><ele>364</ele><time>2023-03-17T12:39:21Z</time><name>PT2400</name></trkpt>
<trkpt lat="53.194475" lon="-2.088479"><ele>365</ele><time>2023-03-17T12:39:24Z</time><name>PT2401</name></trkpt>
<trkpt lat="53.194453" lon="-2.088510"><ele>364</ele><time>2023-03-17T12:39:27Z</time><name>PT2402</name></trkpt>
<trkpt lat="53.194430" lon="-2.088537"><ele>365</ele><time>2023-03-17T12:39:30Z</time><name>PT2403</name></trkpt>
<trkpt lat="53.194414" lon="-2.088579"><ele>366</ele><time>2023-03-17T12:39:34Z</time><name>PT2404</name></trkpt>
<trkpt lat="53.194396" lon="-2.088605"><ele>366</ele><time>2023-03-17T12:39:37Z</time><name>PT2405</name></trkpt>
<trkpt lat="53.194369" lon="-2.088658"><ele>368</ele><time>2023-03-17T12:39:42Z</time><name>PT2406</name></trkpt>
<trkpt lat="53.194337" lon="-2.088693"><ele>369</ele><time>2023-03-17T12:39:45Z</time><name>PT2407</name></trkpt>
<trkpt lat="53.194314" lon="-2.088732"><ele>369</ele><time>2023-03-17T12:39:49Z</time><name>PT2408</name></trkpt>
<trkpt lat="53.194297" lon="-2.088777"><ele>370</ele><time>2023-03-17T12:39:54Z</time><name>PT2409</name></trkpt>
<trkpt lat="53.194285" lon="-2.088818"><ele>370</ele><time>2023-03-17T12:39:57Z</time><name>PT2410</name></trkpt>
<trkpt lat="53.194276" lon="-2.088873"><ele>372</ele><time>2023-03-17T12:40:00Z</time><name>PT2411</name></trkpt>
<trkpt lat="53.194269" lon="-2.088922"><ele>373</ele><time>2023-03-17T12:40:04Z</time><name>PT2412</name></trkpt>
<trkpt lat="53.194257" lon="-2.088972"><ele>374</ele><time>2023-03-17T12:40:09Z</time><name>PT2413</name></trkpt>
<trkpt lat="53.194230" lon="-2.089007"><ele>375</ele><time>2023-03-17T12:40:12Z</time><name>PT2414</name></trkpt>
<trkpt lat="53.194208" lon="-2.089042"><ele>375</ele><time>2023-03-17T12:40:15Z</time><name>PT2415</name></trkpt>
<trkpt lat="53.194177" lon="-2.089086"><ele>375</ele><time>2023-03-17T12:40:18Z</time><name>PT2416</name></trkpt>
<trkpt lat="53.194150" lon="-2.089137"><ele>375</ele><time>2023-03-17T12:40:22Z</time><name>PT2417</name></trkpt>
<trkpt lat="53.194119" lon="-2.089188"><ele>376</ele><time>2023-03-17T12:40:27Z</time><name>PT2418</name></trkpt>
<trkpt lat="53.194090" lon="-2.089221"><ele>376</ele><time>2023-03-17T12:40:30Z</time><name>PT2419</name></trkpt>
<trkpt lat="53.194065" lon="-2.089242"><ele>377</ele><time>2023-03-17T12:40:33Z</time><name>PT2420</name></trkpt>
<trkpt lat="53.194041" lon="-2.089266"><ele>377</ele><time>2023-03-17T12:40:36Z</time><name>PT2421</name></trkpt>
<trkpt lat="53.194018" lon="-2.089299"><ele>376</ele><time>2023-03-17T12:40:40Z</time><name>PT2422</name></trkpt>
<trkpt lat="53.193982" lon="-2.089339"><ele>376</ele><time>2023-03-17T12:40:45Z</time><name>PT2423</name></trkpt>
<trkpt lat="53.193955" lon="-2.089374"><ele>376</ele><time>2023-03-17T12:40:48Z</time><name>PT2424</name></trkpt>
<trkpt lat="53.193926" lon="-2.089405"><ele>376</ele><time>2023-03-17T12:40:51Z</time><name>PT2425</name></trkpt>
<trkpt lat="53.193897" lon="-2.089436"><ele>376</ele><time>2023-03-17T12:40:54Z</time><name>PT2426</name></trkpt>
<trkpt lat="53.193861" lon="-2.089481"><ele>375</ele><time>2023-03-17T12:40:57Z</time><name>PT2427</name></trkpt>
<trkpt lat="53.193816" lon="-2.089537"><ele>375</ele><time>2023-03-17T12:41:01Z</time><name>PT2428</name></trkpt>
<trkpt lat="53.193788" lon="-2.089568"><ele>376</ele><time>2023-03-17T12:41:04Z</time><name>PT2429</name></trkpt>
<trkpt lat="53.193764" lon="-2.089597"><ele>376</ele><time>2023-03-17T12:41:07Z</time><name>PT2430</name></trkpt>
<trkpt lat="53.193732" lon="-2.089646"><ele>378</ele><time>2023-03-17T12:41:12Z</time><name>PT2431</name></trkpt>
<trkpt lat="53.193703" lon="-2.089687"><ele>379</ele><time>2023-03-17T12:41:15Z</time><name>PT2432</name></trkpt>
<trkpt lat="53.193673" lon="-2.089728"><ele>379</ele><time>2023-03-17T12:41:18Z</time><name>PT2433</name></trkpt>
<trkpt lat="53.193637" lon="-2.089777"><ele>379</ele><time>2023-03-17T12:41:21Z</time><name>PT2434</name></trkpt>
<trkpt lat="53.193602" lon="-2.089835"><ele>378</ele><time>2023-03-17T12:41:25Z</time><name>PT2435</name></trkpt>
<trkpt lat="53.193566" lon="-2.089899"><ele>377</ele><time>2023-03-17T12:41:30Z</time><name>PT2436</name></trkpt>
<trkpt lat="53.193529" lon="-2.089956"><ele>377</ele><time>2023-03-17T12:41:33Z</time><name>PT2437</name></trkpt>
<trkpt lat="53.193502" lon="-2.090005"><ele>377</ele><time>2023-03-17T12:41:36Z</time><name>PT2438</name></trkpt>
<trkpt lat="53.193464" lon="-2.090078"><ele>376</ele><time>2023-03-17T12:41:40Z</time><name>PT2439</name></trkpt>
<trkpt lat="53.193440" lon="-2.090127"><ele>376</ele><time>2023-03-17T12:41:43Z</time><name>PT2440</name></trkpt>
<trkpt lat="53.193399" lon="-2.090181"><ele>375</ele><time>2023-03-17T12:41:48Z</time><name>PT2441</name></trkpt>
<trkpt lat="53.193369" lon="-2.090220"><ele>375</ele><time>2023-03-17T12:41:51Z</time><name>PT2442</name></trkpt>
<trkpt lat="53.193331" lon="-2.090275"><ele>374</ele><time>2023-03-17T12:41:54Z</time><name>PT2443</name></trkpt>
<trkpt lat="53.193291" lon="-2.090329"><ele>374</ele><time>2023-03-17T12:41:58Z</time><name>PT2444</name></trkpt>
<trkpt lat="53.193253" lon="-2.090389"><ele>373</ele><time>2023-03-17T12:42:03Z</time><name>PT2445</name></trkpt>
<trkpt lat="53.193211" lon="-2.090443"><ele>373</ele><time>2023-03-17T12:42:06Z</time><name>PT2446</name></trkpt>
<trkpt lat="53.193185" lon="-2.090464"><ele>373</ele><time>2023-03-17T12:42:09Z</time><name>PT2447</name></trkpt>
<trkpt lat="53.193152" lon="-2.090474"><ele>371</ele><time>2023-03-17T12:42:13Z</time><name>PT2448</name></trkpt>
<trkpt lat="53.193138" lon="-2.090499"><ele>370</ele><time>2023-03-17T12:42:16Z</time><name>PT2449</name></trkpt>
<trkpt lat="53.193138" lon="-2.090533"><ele>371</ele><time>2023-03-17T12:42:21Z</time><name>PT2450</name></trkpt>
<trkpt lat="53.193135" lon="-2.090549"><ele>371</ele><time>2023-03-17T12:42:24Z</time><name>PT2451</name></trkpt>
<trkpt lat="53.193134" lon="-2.090552"><ele>370</ele><time>2023-03-17T12:42:28Z</time><name>PT2452</name></trkpt>
<trkpt lat="53.193134" lon="-2.090554"><ele>370</ele><time>2023-03-17T12:42:54Z</time><name>PT2453</name></trkpt>
<trkpt lat="53.193140" lon="-2.090584"><ele>370</ele><time>2023-03-17T12:42:57Z</time><name>PT2454</name></trkpt>
<trkpt lat="53.193140" lon="-2.090585"><ele>370</ele><time>2023-03-17T12:43:00Z</time><name>PT2455</name></trkpt>
<trkpt lat="53.193142" lon="-2.090629"><ele>370</ele><time>2023-03-17T12:43:03Z</time><name>PT2456</name></trkpt>
<trkpt lat="53.193134" lon="-2.090662"><ele>370</ele><time>2023-03-17T12:43:06Z</time><name>PT2457</name></trkpt>
<trkpt lat="53.193125" lon="-2.090682"><ele>371</ele><time>2023-03-17T12:43:10Z</time><name>PT2458</name></trkpt>
<trkpt lat="53.193118" lon="-2.090708"><ele>371</ele><time>2023-03-17T12:43:13Z</time><name>PT2459</name></trkpt>
<trkpt lat="53.193119" lon="-2.090712"><ele>371</ele><time>2023-03-17T12:43:18Z</time><name>PT2460</name></trkpt>
<trkpt lat="53.193098" lon="-2.090721"><ele>370</ele><time>2023-03-17T12:43:21Z</time><name>PT2461</name></trkpt>
<trkpt lat="53.193066" lon="-2.090738"><ele>370</ele><time>2023-03-17T12:43:24Z</time><name>PT2462</name></trkpt>
<trkpt lat="53.193020" lon="-2.090751"><ele>369</ele><time>2023-03-17T12:43:27Z</time><name>PT2463</name></trkpt>
<trkpt lat="53.192977" lon="-2.090757"><ele>369</ele><time>2023-03-17T12:43:31Z</time><name>PT2464</name></trkpt>
<trkpt lat="53.192931" lon="-2.090776"><ele>370</ele><time>2023-03-17T12:43:36Z</time><name>PT2465</name></trkpt>
<trkpt lat="53.192896" lon="-2.090791"><ele>369</ele><time>2023-03-17T12:43:39Z</time><name>PT2466</name></trkpt>
<trkpt lat="53.192858" lon="-2.090814"><ele>369</ele><time>2023-03-17T12:43:42Z</time><name>PT2467</name></trkpt>
<trkpt lat="53.192814" lon="-2.090833"><ele>368</ele><time>2023-03-17T12:43:45Z</time><name>PT2468</name></trkpt>
<trkpt lat="53.192765" lon="-2.090847"><ele>368</ele><time>2023-03-17T12:43:49Z</time><name>PT2469</name></trkpt>
<trkpt lat="53.192721" lon="-2.090858"><ele>369</ele><time>2023-03-17T12:43:54Z</time><name>PT2470</name></trkpt>
<trkpt lat="53.192685" lon="-2.090867"><ele>369</ele><time>2023-03-17T12:43:57Z</time><name>PT2471</name></trkpt>
<trkpt lat="53.192647" lon="-2.090885"><ele>370</ele><time>2023-03-17T12:44:00Z</time><name>PT2472</name></trkpt>
<trkpt lat="53.192610" lon="-2.090901"><ele>371</ele><time>2023-03-17T12:44:03Z</time><name>PT2473</name></trkpt>
<trkpt lat="53.192559" lon="-2.090917"><ele>370</ele><time>2023-03-17T12:44:06Z</time><name>PT2474</name></trkpt>
<trkpt lat="53.192521" lon="-2.090933"><ele>370</ele><time>2023-03-17T12:44:09Z</time><name>PT2475</name></trkpt>
<trkpt lat="53.192469" lon="-2.090947"><ele>370</ele><time>2023-03-17T12:44:13Z</time><name>PT2476</name></trkpt>
<trkpt lat="53.192435" lon="-2.090959"><ele>370</ele><time>2023-03-17T12:44:16Z</time><name>PT2477</name></trkpt>
<trkpt lat="53.192384" lon="-2.090967"><ele>371</ele><time>2023-03-17T12:44:21Z</time><name>PT2478</name></trkpt>
<trkpt lat="53.192334" lon="-2.090969"><ele>369</ele><time>2023-03-17T12:44:24Z</time><name>PT2479</name></trkpt>
<trkpt lat="53.192288" lon="-2.090975"><ele>371</ele><time>2023-03-17T12:44:27Z</time><name>PT2480</name></trkpt>
<trkpt lat="53.192238" lon="-2.090988"><ele>369</ele><time>2023-03-17T12:44:31Z</time><name>PT2481</name></trkpt>
<trkpt lat="53.192197" lon="-2.090995"><ele>369</ele><time>2023-03-17T12:44:34Z</time><name>PT2482</name></trkpt>
<trkpt lat="53.192148" lon="-2.090996"><ele>368</ele><time>2023-03-17T12:44:39Z</time><name>PT2483</name></trkpt>
<trkpt lat="53.192111" lon="-2.091000"><ele>368</ele><time>2023-03-17T12:44:42Z</time><name>PT2484</name></trkpt>
<trkpt lat="53.192058" lon="-2.091004"><ele>367</ele><time>2023-03-17T12:44:45Z</time><name>PT2485</name></trkpt>
<trkpt lat="53.192012" lon="-2.091017"><ele>367</ele><time>2023-03-17T12:44:49Z</time><name>PT2486</name></trkpt>
<trkpt lat="53.191971" lon="-2.091022"><ele>366</ele><time>2023-03-17T12:44:52Z</time><name>PT2487</name></trkpt>
<trkpt lat="53.191934" lon="-2.091028"><ele>366</ele><time>2023-03-17T12:44:56Z</time><name>PT2488</name></trkpt>
<trkpt lat="53.191885" lon="-2.091043"><ele>366</ele><time>2023-03-17T12:45:00Z</time><name>PT2489</name></trkpt>
<trkpt lat="53.191848" lon="-2.091053"><ele>365</ele><time>2023-03-17T12:45:03Z</time><name>PT2490</name></trkpt>
<trkpt lat="53.191805" lon="-2.091068"><ele>365</ele><time>2023-03-17T12:45:06Z</time><name>PT2491</name></trkpt>
<trkpt lat="53.191749" lon="-2.091073"><ele>364</ele><time>2023-03-17T12:45:10Z</time><name>PT2492</name></trkpt>
<trkpt lat="53.191697" lon="-2.091077"><ele>364</ele><time>2023-03-17T12:45:15Z</time><name>PT2493</name></trkpt>
<trkpt lat="53.191661" lon="-2.091084"><ele>363</ele><time>2023-03-17T12:45:18Z</time><name>PT2494</name></trkpt>
<trkpt lat="53.191615" lon="-2.091096"><ele>362</ele><time>2023-03-17T12:45:21Z</time><name>PT2495</name></trkpt>
<trkpt lat="53.191562" lon="-2.091112"><ele>362</ele><time>2023-03-17T12:45:25Z</time><name>PT2496</name></trkpt>
<trkpt lat="53.191523" lon="-2.091123"><ele>362</ele><time>2023-03-17T12:45:28Z</time><name>PT2497</name></trkpt>
<trkpt lat="53.191470" lon="-2.091130"><ele>361</ele><time>2023-03-17T12:45:33Z</time><name>PT2498</name></trkpt>
<trkpt lat="53.191418" lon="-2.091138"><ele>361</ele><time>2023-03-17T12:45:36Z</time><name>PT2499</name></trkpt>
<trkpt lat="53.191377" lon="-2.091142"><ele>361</ele><time>2023-03-17T12:45:39Z</time><name>PT2500</name></trkpt>
<trkpt lat="53.191326" lon="-2.091156"><ele>361</ele><time>2023-03-17T12:45:43Z</time><name>PT2501</name></trkpt>
<trkpt lat="53.191286" lon="-2.091164"><ele>361</ele><time>2023-03-17T12:45:46Z</time><name>PT2502</name></trkpt>
<trkpt lat="53.191249" lon="-2.091174"><ele>361</ele><time>2023-03-17T12:45:49Z</time><name>PT2503</name></trkpt>
<trkpt lat="53.191208" lon="-2.091184"><ele>361</ele><time>2023-03-17T12:45:52Z</time><name>PT2504</name></trkpt>
<trkpt lat="53.191157" lon="-2.091203"><ele>360</ele><time>2023-03-17T12:45:57Z</time><name>PT2505</name></trkpt>
<trkpt lat="53.191098" lon="-2.091224"><ele>360</ele><time>2023-03-17T12:46:00Z</time><name>PT2506</name></trkpt>
<trkpt lat="53.191056" lon="-2.091229"><ele>360</ele><time>2023-03-17T12:46:03Z</time><name>PT2507</name></trkpt>
<trkpt lat="53.191002" lon="-2.091239"><ele>360</ele><time>2023-03-17T12:46:07Z</time><name>PT2508</name></trkpt>
<trkpt lat="53.190950" lon="-2.091252"><ele>360</ele><time>2023-03-17T12:46:12Z</time><name>PT2509</name></trkpt>
<trkpt lat="53.190912" lon="-2.091258"><ele>359</ele><time>2023-03-17T12:46:15Z</time><name>PT2510</name></trkpt>
<trkpt lat="53.190870" lon="-2.091271"><ele>359</ele><time>2023-03-17T12:46:18Z</time><name>PT2511</name></trkpt>
<trkpt lat="53.190829" lon="-2.091280"><ele>360</ele><time>2023-03-17T12:46:21Z</time><name>PT2512</name></trkpt>
<trkpt lat="53.190778" lon="-2.091284"><ele>361</ele><time>2023-03-17T12:46:24Z</time><name>PT2513</name></trkpt>
<trkpt lat="53.190725" lon="-2.091290"><ele>361</ele><time>2023-03-17T12:46:28Z</time><name>PT2514</name></trkpt>
<trkpt lat="53.190685" lon="-2.091288"><ele>361</ele><time>2023-03-17T12:46:31Z</time><name>PT2515</name></trkpt>
<trkpt lat="53.190648" lon="-2.091293"><ele>361</ele><time>2023-03-17T12:46:34Z</time><name>PT2516</name></trkpt>
<trkpt lat="53.190597" lon="-2.091307"><ele>362</ele><time>2023-03-17T12:46:39Z</time><name>PT2517</name></trkpt>
<trkpt lat="53.190558" lon="-2.091314"><ele>362</ele><time>2023-03-17T12:46:42Z</time><name>PT2518</name></trkpt>
<trkpt lat="53.190506" lon="-2.091331"><ele>363</ele><time>2023-03-17T12:46:45Z</time><name>PT2519</name></trkpt>
<trkpt lat="53.190449" lon="-2.091361"><ele>363</ele><time>2023-03-17T12:46:49Z</time><name>PT2520</name></trkpt>
<trkpt lat="53.190396" lon="-2.091395"><ele>362</ele><time>2023-03-17T12:46:54Z</time><name>PT2521</name></trkpt>
<trkpt lat="53.190359" lon="-2.091419"><ele>362</ele><time>2023-03-17T12:46:57Z</time><name>PT2522</name></trkpt>
<trkpt lat="53.190324" lon="-2.091446"><ele>362</ele><time>2023-03-17T12:47:00Z</time><name>PT2523</name></trkpt>
<trkpt lat="53.190274" lon="-2.091481"><ele>361</ele><time>2023-03-17T12:47:03Z</time><name>PT2524</name></trkpt>
<trkpt lat="53.190240" lon="-2.091505"><ele>361</ele><time>2023-03-17T12:47:06Z</time><name>PT2525</name></trkpt>
<trkpt lat="53.190209" lon="-2.091535"><ele>360</ele><time>2023-03-17T12:47:09Z</time><name>PT2526</name></trkpt>
<trkpt lat="53.190173" lon="-2.091569"><ele>360</ele><time>2023-03-17T12:47:12Z</time><name>PT2527</name></trkpt>
<trkpt lat="53.190131" lon="-2.091609"><ele>359</ele><time>2023-03-17T12:47:16Z</time><name>PT2528</name></trkpt>
<trkpt lat="53.190100" lon="-2.091641"><ele>359</ele><time>2023-03-17T12:47:21Z</time><name>PT2529</name></trkpt>
<trkpt lat="53.190084" lon="-2.091652"><ele>359</ele><time>2023-03-17T12:47:24Z</time><name>PT2530</name></trkpt>
<trkpt lat="53.190047" lon="-2.091696"><ele>358</ele><time>2023-03-17T12:47:27Z</time><name>PT2531</name></trkpt>
<trkpt lat="53.190031" lon="-2.091717"><ele>358</ele><time>2023-03-17T12:47:31Z</time><name>PT2532</name></trkpt>
<trkpt lat="53.190029" lon="-2.091728"><ele>358</ele><time>2023-03-17T12:47:34Z</time><name>PT2533</name></trkpt>
<trkpt lat="53.190022" lon="-2.091740"><ele>358</ele><time>2023-03-17T12:47:37Z</time><name>PT2534</name></trkpt>
<trkpt lat="53.189984" lon="-2.091802"><ele>357</ele><time>2023-03-17T12:47:42Z</time><name>PT2535</name></trkpt>
<trkpt lat="53.189952" lon="-2.091854"><ele>357</ele><time>2023-03-17T12:47:45Z</time><name>PT2536</name></trkpt>
<trkpt lat="53.189927" lon="-2.091892"><ele>355</ele><time>2023-03-17T12:47:48Z</time><name>PT2537</name></trkpt>
<trkpt lat="53.189909" lon="-2.091956"><ele>356</ele><time>2023-03-17T12:47:52Z</time><name>PT2538</name></trkpt>
<trkpt lat="53.189890" lon="-2.091989"><ele>355</ele><time>2023-03-17T12:47:55Z</time><name>PT2539</name></trkpt>
<trkpt lat="53.189863" lon="-2.092047"><ele>354</ele><time>2023-03-17T12:48:00Z</time><name>PT2540</name></trkpt>
<trkpt lat="53.189843" lon="-2.092100"><ele>355</ele><time>2023-03-17T12:48:03Z</time><name>PT2541</name></trkpt>
<trkpt lat="53.189809" lon="-2.092172"><ele>354</ele><time>2023-03-17T12:48:06Z</time><name>PT2542</name></trkpt>
<trkpt lat="53.189785" lon="-2.092215"><ele>354</ele><time>2023-03-17T12:48:09Z</time><name>PT2543</name></trkpt>
<trkpt lat="53.189744" lon="-2.092282"><ele>353</ele><time>2023-03-17T12:48:13Z</time><name>PT2544</name></trkpt>
<trkpt lat="53.189709" lon="-2.092340"><ele>352</ele><time>2023-03-17T12:48:18Z</time><name>PT2545</name></trkpt>
<trkpt lat="53.189681" lon="-2.092379"><ele>352</ele><time>2023-03-17T12:48:21Z</time><name>PT2546</name></trkpt>
<trkpt lat="53.189653" lon="-2.092426"><ele>351</ele><time>2023-03-17T12:48:24Z</time><name>PT2547</name></trkpt>
<trkpt lat="53.189622" lon="-2.092472"><ele>351</ele><time>2023-03-17T12:48:27Z</time><name>PT2548</name></trkpt>
<trkpt lat="53.189586" lon="-2.092518"><ele>350</ele><time>2023-03-17T12:48:30Z</time><name>PT2549</name></trkpt>
<trkpt lat="53.189547" lon="-2.092557"><ele>349</ele><time>2023-03-17T12:48:34Z</time><name>PT2550</name></trkpt>
<trkpt lat="53.189521" lon="-2.092604"><ele>349</ele><time>2023-03-17T12:48:38Z</time><name>PT2551</name></trkpt>
<trkpt lat="53.189482" lon="-2.092629"><ele>347</ele><time>2023-03-17T12:48:42Z</time><name>PT2552</name></trkpt>
<trkpt lat="53.189459" lon="-2.092643"><ele>346</ele><time>2023-03-17T12:48:45Z</time><name>PT2553</name></trkpt>
<trkpt lat="53.189459" lon="-2.092648"><ele>346</ele><time>2023-03-17T12:48:48Z</time><name>PT2554</name></trkpt>
<trkpt lat="53.189440" lon="-2.092679"><ele>346</ele><time>2023-03-17T12:48:52Z</time><name>PT2555</name></trkpt>
<trkpt lat="53.189418" lon="-2.092712"><ele>344</ele><time>2023-03-17T12:48:55Z</time><name>PT2556</name></trkpt>
<trkpt lat="53.189378" lon="-2.092770"><ele>344</ele><time>2023-03-17T12:49:00Z</time><name>PT2557</name></trkpt>
<trkpt lat="53.189359" lon="-2.092794"><ele>344</ele><time>2023-03-17T12:49:03Z</time><name>PT2558</name></trkpt>
<trkpt lat="53.189330" lon="-2.092836"><ele>343</ele><time>2023-03-17T12:49:06Z</time><name>PT2559</name></trkpt>
<trkpt lat="53.189296" lon="-2.092874"><ele>342</ele><time>2023-03-17T12:49:09Z</time><name>PT2560</name></trkpt>
<trkpt lat="53.189261" lon="-2.092919"><ele>341</ele><time>2023-03-17T12:49:13Z</time><name>PT2561</name></trkpt>
<trkpt lat="53.189236" lon="-2.092968"><ele>341</ele><time>2023-03-17T12:49:16Z</time><name>PT2562</name></trkpt>
<trkpt lat="53.189202" lon="-2.093028"><ele>340</ele><time>2023-03-17T12:49:21Z</time><name>PT2563</name></trkpt>
<trkpt lat="53.189171" lon="-2.093084"><ele>341</ele><time>2023-03-17T12:49:24Z</time><name>PT2564</name></trkpt>
<trkpt lat="53.189143" lon="-2.093132"><ele>340</ele><time>2023-03-17T12:49:27Z</time><name>PT2565</name></trkpt>
<trkpt lat="53.189118" lon="-2.093171"><ele>340</ele><time>2023-03-17T12:49:30Z</time><name>PT2566</name></trkpt>
<trkpt lat="53.189084" lon="-2.093233"><ele>340</ele><time>2023-03-17T12:49:34Z</time><name>PT2567</name></trkpt>
<trkpt lat="53.189056" lon="-2.093277"><ele>340</ele><time>2023-03-17T12:49:37Z</time><name>PT2568</name></trkpt>
<trkpt lat="53.189017" lon="-2.093335"><ele>340</ele><time>2023-03-17T12:49:42Z</time><name>PT2569</name></trkpt>
<trkpt lat="53.188975" lon="-2.093383"><ele>339</ele><time>2023-03-17T12:49:45Z</time><name>PT2570</name></trkpt>
<trkpt lat="53.188934" lon="-2.093440"><ele>338</ele><time>2023-03-17T12:49:49Z</time><name>PT2571</name></trkpt>
<trkpt lat="53.188890" lon="-2.093488"><ele>337</ele><time>2023-03-17T12:49:54Z</time><name>PT2572</name></trkpt>
<trkpt lat="53.188863" lon="-2.093524"><ele>338</ele><time>2023-03-17T12:49:57Z</time><name>PT2573</name></trkpt>
<trkpt lat="53.188831" lon="-2.093563"><ele>337</ele><time>2023-03-17T12:50:00Z</time><name>PT2574</name></trkpt>
<trkpt lat="53.188790" lon="-2.093594"><ele>337</ele><time>2023-03-17T12:50:03Z</time><name>PT2575</name></trkpt>
<trkpt lat="53.188757" lon="-2.093627"><ele>338</ele><time>2023-03-17T12:50:06Z</time><name>PT2576</name></trkpt>
<trkpt lat="53.188715" lon="-2.093672"><ele>338</ele><time>2023-03-17T12:50:10Z</time><name>PT2577</name></trkpt>
<trkpt lat="53.188675" lon="-2.093708"><ele>338</ele><time>2023-03-17T12:50:15Z</time><name>PT2578</name></trkpt>
<trkpt lat="53.188642" lon="-2.093745"><ele>337</ele><time>2023-03-17T12:50:18Z</time><name>PT2579</name></trkpt>
<trkpt lat="53.188610" lon="-2.093772"><ele>336</ele><time>2023-03-17T12:50:21Z</time><name>PT2580</name></trkpt>
<trkpt lat="53.188564" lon="-2.093837"><ele>337</ele><time>2023-03-17T12:50:24Z</time><name>PT2581</name></trkpt>
<trkpt lat="53.188532" lon="-2.093869"><ele>336</ele><time>2023-03-17T12:50:27Z</time><name>PT2582</name></trkpt>
<trkpt lat="53.188499" lon="-2.093903"><ele>336</ele><time>2023-03-17T12:50:30Z</time><name>PT2583</name></trkpt>
<trkpt lat="53.188454" lon="-2.093945"><ele>335</ele><time>2023-03-17T12:50:34Z</time><name>PT2584</name></trkpt>
<trkpt lat="53.188424" lon="-2.093980"><ele>335</ele><time>2023-03-17T12:50:37Z</time><name>PT2585</name></trkpt>
<trkpt lat="53.188397" lon="-2.094005"><ele>334</ele><time>2023-03-17T12:50:40Z</time><name>PT2586</name></trkpt>
<trkpt lat="53.188361" lon="-2.094049"><ele>334</ele><time>2023-03-17T12:50:45Z</time><name>PT2587</name></trkpt>
<trkpt lat="53.188317" lon="-2.094084"><ele>335</ele><time>2023-03-17T12:50:48Z</time><name>PT2588</name></trkpt>
<trkpt lat="53.188287" lon="-2.094120"><ele>335</ele><time>2023-03-17T12:50:51Z</time><name>PT2589</name></trkpt>
<trkpt lat="53.188242" lon="-2.094167"><ele>336</ele><time>2023-03-17T12:50:55Z</time><name>PT2590</name></trkpt>
<trkpt lat="53.188214" lon="-2.094197"><ele>336</ele><time>2023-03-17T12:50:58Z</time><name>PT2591</name></trkpt>
<trkpt lat="53.188178" lon="-2.094235"><ele>337</ele><time>2023-03-17T12:51:01Z</time><name>PT2592</name></trkpt>
<trkpt lat="53.188136" lon="-2.094284"><ele>338</ele><time>2023-03-17T12:51:06Z</time><name>PT2593</name></trkpt>
<trkpt lat="53.188100" lon="-2.094313"><ele>339</ele><time>2023-03-17T12:51:09Z</time><name>PT2594</name></trkpt>
<trkpt lat="53.188068" lon="-2.094333"><ele>339</ele><time>2023-03-17T12:51:12Z</time><name>PT2595</name></trkpt>
<trkpt lat="53.188016" lon="-2.094369"><ele>338</ele><time>2023-03-17T12:51:15Z</time><name>PT2596</name></trkpt>
<trkpt lat="53.187980" lon="-2.094411"><ele>338</ele><time>2023-03-17T12:51:18Z</time><name>PT2597</name></trkpt>
<trkpt lat="53.187929" lon="-2.094458"><ele>339</ele><time>2023-03-17T12:51:22Z</time><name>PT2598</name></trkpt>
<trkpt lat="53.187882" lon="-2.094496"><ele>339</ele><time>2023-03-17T12:51:27Z</time><name>PT2599</name></trkpt>
<trkpt lat="53.187841" lon="-2.094523"><ele>340</ele><time>2023-03-17T12:51:30Z</time><name>PT2600</name></trkpt>
<trkpt lat="53.187809" lon="-2.094554"><ele>340</ele><time>2023-03-17T12:51:33Z</time><name>PT2601</name></trkpt>
<trkpt lat="53.187772" lon="-2.094585"><ele>339</ele><time>2023-03-17T12:51:36Z</time><name>PT2602</name></trkpt>
<trkpt lat="53.187734" lon="-2.094616"><ele>339</ele><time>2023-03-17T12:51:39Z</time><name>PT2603</name></trkpt>
<trkpt lat="53.187703" lon="-2.094640"><ele>339</ele><time>2023-03-17T12:51:42Z</time><name>PT2604</name></trkpt>
<trkpt lat="53.187657" lon="-2.094664"><ele>338</ele><time>2023-03-17T12:51:45Z</time><name>PT2605</name></trkpt>
<trkpt lat="53.187609" lon="-2.094700"><ele>338</ele><time>2023-03-17T12:51:49Z</time><name>PT2606</name></trkpt>
<trkpt lat="53.187572" lon="-2.094729"><ele>338</ele><time>2023-03-17T12:51:52Z</time><name>PT2607</name></trkpt>
<trkpt lat="53.187528" lon="-2.094764"><ele>337</ele><time>2023-03-17T12:51:57Z</time><name>PT2608</name></trkpt>
<trkpt lat="53.187490" lon="-2.094798"><ele>337</ele><time>2023-03-17T12:52:00Z</time><name>PT2609</name></trkpt>
<trkpt lat="53.187458" lon="-2.094844"><ele>335</ele><time>2023-03-17T12:52:04Z</time><name>PT2610</name></trkpt>
<trkpt lat="53.187438" lon="-2.094881"><ele>335</ele><time>2023-03-17T12:52:09Z</time><name>PT2611</name></trkpt>
<trkpt lat="53.187413" lon="-2.094902"><ele>334</ele><time>2023-03-17T12:52:12Z</time><name>PT2612</name></trkpt>
<trkpt lat="53.187384" lon="-2.094922"><ele>334</ele><time>2023-03-17T12:52:15Z</time><name>PT2613</name></trkpt>
<trkpt lat="53.187341" lon="-2.094939"><ele>333</ele><time>2023-03-17T12:52:18Z</time><name>PT2614</name></trkpt>
<trkpt lat="53.187309" lon="-2.094954"><ele>333</ele><time>2023-03-17T12:52:21Z</time><name>PT2615</name></trkpt>
<trkpt lat="53.187276" lon="-2.094980"><ele>332</ele><time>2023-03-17T12:52:24Z</time><name>PT2616</name></trkpt>
<trkpt lat="53.187238" lon="-2.095026"><ele>331</ele><time>2023-03-17T12:52:28Z</time><name>PT2617</name></trkpt>
<trkpt lat="53.187205" lon="-2.095046"><ele>331</ele><time>2023-03-17T12:52:31Z</time><name>PT2618</name></trkpt>
<trkpt lat="53.187173" lon="-2.095069"><ele>330</ele><time>2023-03-17T12:52:34Z</time><name>PT2619</name></trkpt>
<trkpt lat="53.187130" lon="-2.095107"><ele>330</ele><time>2023-03-17T12:52:39Z</time><name>PT2620</name></trkpt>
<trkpt lat="53.187093" lon="-2.095138"><ele>329</ele><time>2023-03-17T12:52:42Z</time><name>PT2621</name></trkpt>
<trkpt lat="53.187062" lon="-2.095168"><ele>328</ele><time>2023-03-17T12:52:45Z</time><name>PT2622</name></trkpt>
<trkpt lat="53.187032" lon="-2.095195"><ele>327</ele><time>2023-03-17T12:52:48Z</time><name>PT2623</name></trkpt>
<trkpt lat="53.186989" lon="-2.095235"><ele>327</ele><time>2023-03-17T12:52:52Z</time><name>PT2624</name></trkpt>
<trkpt lat="53.186952" lon="-2.095270"><ele>327</ele><time>2023-03-17T12:52:57Z</time><name>PT2625</name></trkpt>
<trkpt lat="53.186923" lon="-2.095301"><ele>326</ele><time>2023-03-17T12:53:00Z</time><name>PT2626</name></trkpt>
<trkpt lat="53.186882" lon="-2.095341"><ele>327</ele><time>2023-03-17T12:53:03Z</time><name>PT2627</name></trkpt>
<trkpt lat="53.186845" lon="-2.095383"><ele>326</ele><time>2023-03-17T12:53:07Z</time><name>PT2628</name></trkpt>
<trkpt lat="53.186810" lon="-2.095425"><ele>325</ele><time>2023-03-17T12:53:12Z</time><name>PT2629</name></trkpt>
<trkpt lat="53.186774" lon="-2.095464"><ele>325</ele><time>2023-03-17T12:53:15Z</time><name>PT2630</name></trkpt>
<trkpt lat="53.186746" lon="-2.095492"><ele>325</ele><time>2023-03-17T12:53:18Z</time><name>PT2631</name></trkpt>
<trkpt lat="53.186706" lon="-2.095522"><ele>323</ele><time>2023-03-17T12:53:21Z</time><name>PT2632</name></trkpt>
<trkpt lat="53.186657" lon="-2.095559"><ele>323</ele><time>2023-03-17T12:53:25Z</time><name>PT2633</name></trkpt>
<trkpt lat="53.186626" lon="-2.095576"><ele>321</ele><time>2023-03-17T12:53:28Z</time><name>PT2634</name></trkpt>
<trkpt lat="53.186583" lon="-2.095598"><ele>320</ele><time>2023-03-17T12:53:33Z</time><name>PT2635</name></trkpt>
<trkpt lat="53.186543" lon="-2.095617"><ele>319</ele><time>2023-03-17T12:53:36Z</time><name>PT2636</name></trkpt>
<trkpt lat="53.186514" lon="-2.095628"><ele>318</ele><time>2023-03-17T12:53:39Z</time><name>PT2637</name></trkpt>
<trkpt lat="53.186481" lon="-2.095638"><ele>316</ele><time>2023-03-17T12:53:42Z</time><name>PT2638</name></trkpt>
<trkpt lat="53.186445" lon="-2.095643"><ele>316</ele><time>2023-03-17T12:53:45Z</time><name>PT2639</name></trkpt>
<trkpt lat="53.186396" lon="-2.095648"><ele>315</ele><time>2023-03-17T12:53:48Z</time><name>PT2640</name></trkpt>
<trkpt lat="53.186360" lon="-2.095647"><ele>314</ele><time>2023-03-17T12:53:51Z</time><name>PT2641</name></trkpt>
<trkpt lat="53.186308" lon="-2.095634"><ele>313</ele><time>2023-03-17T12:53:55Z</time><name>PT2642</name></trkpt>
<trkpt lat="53.186267" lon="-2.095619"><ele>313</ele><time>2023-03-17T12:53:58Z</time><name>PT2643</name></trkpt>
<trkpt lat="53.186221" lon="-2.095605"><ele>313</ele><time>2023-03-17T12:54:03Z</time><name>PT2644</name></trkpt>
<trkpt lat="53.186199" lon="-2.095590"><ele>314</ele><time>2023-03-17T12:54:06Z</time><name>PT2645</name></trkpt>
<trkpt lat="53.186187" lon="-2.095585"><ele>315</ele><time>2023-03-17T12:54:09Z</time><name>PT2646</name></trkpt>
<trkpt lat="53.186172" lon="-2.095575"><ele>315</ele><time>2023-03-17T12:54:12Z</time><name>PT2647</name></trkpt>
<trkpt lat="53.186149" lon="-2.095555"><ele>314</ele><time>2023-03-17T12:54:16Z</time><name>PT2648</name></trkpt>
<trkpt lat="53.186121" lon="-2.095524"><ele>314</ele><time>2023-03-17T12:54:19Z</time><name>PT2649</name></trkpt>
<trkpt lat="53.186091" lon="-2.095496"><ele>313</ele><time>2023-03-17T12:54:22Z</time><name>PT2650</name></trkpt>
<trkpt lat="53.186057" lon="-2.095458"><ele>312</ele><time>2023-03-17T12:54:27Z</time><name>PT2651</name></trkpt>
<trkpt lat="53.186031" lon="-2.095425"><ele>312</ele><time>2023-03-17T12:54:30Z</time><name>PT2652</name></trkpt>
<trkpt lat="53.186005" lon="-2.095393"><ele>312</ele><time>2023-03-17T12:54:33Z</time><name>PT2653</name></trkpt>
<trkpt lat="53.185971" lon="-2.095350"><ele>311</ele><time>2023-03-17T12:54:36Z</time><name>PT2654</name></trkpt>
<trkpt lat="53.185936" lon="-2.095288"><ele>311</ele><time>2023-03-17T12:54:40Z</time><name>PT2655</name></trkpt>
<trkpt lat="53.185908" lon="-2.095241"><ele>311</ele><time>2023-03-17T12:54:43Z</time><name>PT2656</name></trkpt>
<trkpt lat="53.185884" lon="-2.095200"><ele>310</ele><time>2023-03-17T12:54:46Z</time><name>PT2657</name></trkpt>
<trkpt lat="53.185851" lon="-2.095148"><ele>310</ele><time>2023-03-17T12:54:51Z</time><name>PT2658</name></trkpt>
<trkpt lat="53.185823" lon="-2.095120"><ele>308</ele><time>2023-03-17T12:54:54Z</time><name>PT2659</name></trkpt>
<trkpt lat="53.185796" lon="-2.095100"><ele>307</ele><time>2023-03-17T12:54:57Z</time><name>PT2660</name></trkpt>
<trkpt lat="53.185755" lon="-2.095062"><ele>306</ele><time>2023-03-17T12:55:01Z</time><name>PT2661</name></trkpt>
<trkpt lat="53.185726" lon="-2.095054"><ele>305</ele><time>2023-03-17T12:55:04Z</time><name>PT2662</name></trkpt>
<trkpt lat="53.185680" lon="-2.095025"><ele>305</ele><time>2023-03-17T12:55:09Z</time><name>PT2663</name></trkpt>
<trkpt lat="53.185650" lon="-2.094997"><ele>305</ele><time>2023-03-17T12:55:12Z</time><name>PT2664</name></trkpt>
<trkpt lat="53.185615" lon="-2.094965"><ele>305</ele><time>2023-03-17T12:55:15Z</time><name>PT2665</name></trkpt>
<trkpt lat="53.185580" lon="-2.094935"><ele>304</ele><time>2023-03-17T12:55:18Z</time><name>PT2666</name></trkpt>
<trkpt lat="53.185549" lon="-2.094906"><ele>303</ele><time>2023-03-17T12:55:21Z</time><name>PT2667</name></trkpt>
<trkpt lat="53.185518" lon="-2.094886"><ele>302</ele><time>2023-03-17T12:55:24Z</time><name>PT2668</name></trkpt>
<trkpt lat="53.185482" lon="-2.094847"><ele>301</ele><time>2023-03-17T12:55:27Z</time><name>PT2669</name></trkpt>
<trkpt lat="53.185456" lon="-2.094817"><ele>301</ele><time>2023-03-17T12:55:30Z</time><name>PT2670</name></trkpt>
<trkpt lat="53.185429" lon="-2.094789"><ele>300</ele><time>2023-03-17T12:55:33Z</time><name>PT2671</name></trkpt>
<trkpt lat="53.185386" lon="-2.094741"><ele>300</ele><time>2023-03-17T12:55:37Z</time><name>PT2672</name></trkpt>
<trkpt lat="53.185357" lon="-2.094701"><ele>299</ele><time>2023-03-17T12:55:40Z</time><name>PT2673</name></trkpt>
<trkpt lat="53.185318" lon="-2.094656"><ele>299</ele><time>2023-03-17T12:55:45Z</time><name>PT2674</name></trkpt>
<trkpt lat="53.185287" lon="-2.094621"><ele>298</ele><time>2023-03-17T12:55:48Z</time><name>PT2675</name></trkpt>
<trkpt lat="53.185253" lon="-2.094576"><ele>298</ele><time>2023-03-17T12:55:51Z</time><name>PT2676</name></trkpt>
<trkpt lat="53.185212" lon="-2.094520"><ele>298</ele><time>2023-03-17T12:55:54Z</time><name>PT2677</name></trkpt>
<trkpt lat="53.185157" lon="-2.094436"><ele>299</ele><time>2023-03-17T12:55:58Z</time><name>PT2678</name></trkpt>
<trkpt lat="53.185131" lon="-2.094353"><ele>300</ele><time>2023-03-17T12:56:03Z</time><name>PT2679</name></trkpt>
<trkpt lat="53.185121" lon="-2.094288"><ele>299</ele><time>2023-03-17T12:56:06Z</time><name>PT2680</name></trkpt>
<trkpt lat="53.185135" lon="-2.094235"><ele>298</ele><time>2023-03-17T12:56:09Z</time><name>PT2681</name></trkpt>
<trkpt lat="53.185152" lon="-2.094192"><ele>299</ele><time>2023-03-17T12:56:12Z</time><name>PT2682</name></trkpt>
<trkpt lat="53.185175" lon="-2.094153"><ele>299</ele><time>2023-03-17T12:56:15Z</time><name>PT2683</name></trkpt>
<trkpt lat="53.185190" lon="-2.094118"><ele>298</ele><time>2023-03-17T12:56:18Z</time><name>PT2684</name></trkpt>
<trkpt lat="53.185215" lon="-2.094069"><ele>298</ele><time>2023-03-17T12:56:22Z</time><name>PT2685</name></trkpt>
<trkpt lat="53.185228" lon="-2.094028"><ele>296</ele><time>2023-03-17T12:56:25Z</time><name>PT2686</name></trkpt>
<trkpt lat="53.185232" lon="-2.093970"><ele>294</ele><time>2023-03-17T12:56:30Z</time><name>PT2687</name></trkpt>
<trkpt lat="53.185241" lon="-2.093922"><ele>294</ele><time>2023-03-17T12:56:33Z</time><name>PT2688</name></trkpt>
<trkpt lat="53.185248" lon="-2.093820"><ele>296</ele><time>2023-03-17T12:56:36Z</time><name>PT2689</name></trkpt>
<trkpt lat="53.185240" lon="-2.093766"><ele>295</ele><time>2023-03-17T12:56:39Z</time><name>PT2690</name></trkpt>
<trkpt lat="53.185227" lon="-2.093689"><ele>293</ele><time>2023-03-17T12:56:43Z</time><name>PT2691</name></trkpt>
<trkpt lat="53.185218" lon="-2.093642"><ele>293</ele><time>2023-03-17T12:56:46Z</time><name>PT2692</name></trkpt>
<trkpt lat="53.185211" lon="-2.093570"><ele>293</ele><time>2023-03-17T12:56:49Z</time><name>PT2693</name></trkpt>
<trkpt lat="53.185195" lon="-2.093520"><ele>292</ele><time>2023-03-17T12:56:54Z</time><name>PT2694</name></trkpt>
<trkpt lat="53.185174" lon="-2.093421"><ele>292</ele><time>2023-03-17T12:56:57Z</time><name>PT2695</name></trkpt>
<trkpt lat="53.185160" lon="-2.093364"><ele>292</ele><time>2023-03-17T12:57:00Z</time><name>PT2696</name></trkpt>
<trkpt lat="53.185131" lon="-2.093297"><ele>292</ele><time>2023-03-17T12:57:04Z</time><name>PT2697</name></trkpt>
<trkpt lat="53.185097" lon="-2.093247"><ele>292</ele><time>2023-03-17T12:57:09Z</time><name>PT2698</name></trkpt>
<trkpt lat="53.185072" lon="-2.093223"><ele>291</ele><time>2023-03-17T12:57:12Z</time><name>PT2699</name></trkpt>
<trkpt lat="53.185044" lon="-2.093186"><ele>291</ele><time>2023-03-17T12:57:15Z</time><name>PT2700</name></trkpt>
<trkpt lat="53.185010" lon="-2.093157"><ele>290</ele><time>2023-03-17T12:57:18Z</time><name>PT2701</name></trkpt>
<trkpt lat="53.185007" lon="-2.093141"><ele>291</ele><time>2023-03-17T12:57:21Z</time><name>PT2702</name></trkpt>
<trkpt lat="53.185004" lon="-2.093130"><ele>291</ele><time>2023-03-17T12:57:24Z</time><name>PT2703</name></trkpt>
<trkpt lat="53.184971" lon="-2.093116"><ele>291</ele><time>2023-03-17T12:57:27Z</time><name>PT2704</name></trkpt>
<trkpt lat="53.184925" lon="-2.093090"><ele>289</ele><time>2023-03-17T12:57:30Z</time><name>PT2705</name></trkpt>
<trkpt lat="53.184907" lon="-2.093084"><ele>287</ele><time>2023-03-17T12:57:33Z</time><name>PT2706</name></trkpt>
<trkpt lat="53.184864" lon="-2.093062"><ele>285</ele><time>2023-03-17T12:57:37Z</time><name>PT2707</name></trkpt>
<trkpt lat="53.184839" lon="-2.093048"><ele>284</ele><time>2023-03-17T12:57:40Z</time><name>PT2708</name></trkpt>
<trkpt lat="53.184806" lon="-2.093035"><ele>283</ele><time>2023-03-17T12:57:45Z</time><name>PT2709</name></trkpt>
<trkpt lat="53.184774" lon="-2.093022"><ele>282</ele><time>2023-03-17T12:57:48Z</time><name>PT2710</name></trkpt>
<trkpt lat="53.184727" lon="-2.092996"><ele>282</ele><time>2023-03-17T12:57:51Z</time><name>PT2711</name></trkpt>
<trkpt lat="53.184670" lon="-2.092986"><ele>282</ele><time>2023-03-17T12:57:55Z</time><name>PT2712</name></trkpt>
<trkpt lat="53.184618" lon="-2.092962"><ele>281</ele><time>2023-03-17T12:58:00Z</time><name>PT2713</name></trkpt>
<trkpt lat="53.184584" lon="-2.092959"><ele>281</ele><time>2023-03-17T12:58:03Z</time><name>PT2714</name></trkpt>
<trkpt lat="53.184550" lon="-2.092942"><ele>280</ele><time>2023-03-17T12:58:06Z</time><name>PT2715</name></trkpt>
<trkpt lat="53.184505" lon="-2.092926"><ele>279</ele><time>2023-03-17T12:58:09Z</time><name>PT2716</name></trkpt>
<trkpt lat="53.184463" lon="-2.092920"><ele>280</ele><time>2023-03-17T12:58:12Z</time><name>PT2717</name></trkpt>
<trkpt lat="53.184425" lon="-2.092905"><ele>280</ele><time>2023-03-17T12:58:15Z</time><name>PT2718</name></trkpt>
<trkpt lat="53.184388" lon="-2.092903"><ele>280</ele><time>2023-03-17T12:58:18Z</time><name>PT2719</name></trkpt>
<trkpt lat="53.184334" lon="-2.092904"><ele>279</ele><time>2023-03-17T12:58:22Z</time><name>PT2720</name></trkpt>
<trkpt lat="53.184285" lon="-2.092893"><ele>279</ele><time>2023-03-17T12:58:25Z</time><name>PT2721</name></trkpt>
<trkpt lat="53.184239" lon="-2.092865"><ele>280</ele><time>2023-03-17T12:58:30Z</time><name>PT2722</name></trkpt>
<trkpt lat="53.184207" lon="-2.092822"><ele>279</ele><time>2023-03-17T12:58:33Z</time><name>PT2723</name></trkpt>
<trkpt lat="53.184175" lon="-2.092771"><ele>278</ele><time>2023-03-17T12:58:36Z</time><name>PT2724</name></trkpt>
<trkpt lat="53.184154" lon="-2.092740"><ele>278</ele><time>2023-03-17T12:58:39Z</time><name>PT2725</name></trkpt>
<trkpt lat="53.184134" lon="-2.092712"><ele>278</ele><time>2023-03-17T12:58:42Z</time><name>PT2726</name></trkpt>
<trkpt lat="53.184112" lon="-2.092674"><ele>279</ele><time>2023-03-17T12:58:45Z</time><name>PT2727</name></trkpt>
<trkpt lat="53.184081" lon="-2.092626"><ele>279</ele><time>2023-03-17T12:58:49Z</time><name>PT2728</name></trkpt>
<trkpt lat="53.184060" lon="-2.092582"><ele>278</ele><time>2023-03-17T12:58:52Z</time><name>PT2729</name></trkpt>
<trkpt lat="53.184032" lon="-2.092518"><ele>277</ele><time>2023-03-17T12:58:57Z</time><name>PT2730</name></trkpt>
<trkpt lat="53.184014" lon="-2.092462"><ele>276</ele><time>2023-03-17T12:59:00Z</time><name>PT2731</name></trkpt>
<trkpt lat="53.183995" lon="-2.092404"><ele>276</ele><time>2023-03-17T12:59:03Z</time><name>PT2732</name></trkpt>
<trkpt lat="53.183978" lon="-2.092359"><ele>275</ele><time>2023-03-17T12:59:06Z</time><name>PT2733</name></trkpt>
<trkpt lat="53.183954" lon="-2.092290"><ele>275</ele><time>2023-03-17T12:59:10Z</time><name>PT2734</name></trkpt>
<trkpt lat="53.183929" lon="-2.092229"><ele>275</ele><time>2023-03-17T12:59:13Z</time><name>PT2735</name></trkpt>
<trkpt lat="53.183900" lon="-2.092157"><ele>275</ele><time>2023-03-17T12:59:18Z</time><name>PT2736</name></trkpt>
<trkpt lat="53.183881" lon="-2.092108"><ele>275</ele><time>2023-03-17T12:59:21Z</time><name>PT2737</name></trkpt>
<trkpt lat="53.183865" lon="-2.092065"><ele>274</ele><time>2023-03-17T12:59:24Z</time><name>PT2738</name></trkpt>
<trkpt lat="53.183839" lon="-2.091989"><ele>274</ele><time>2023-03-17T12:59:27Z</time><name>PT2739</name></trkpt>
<trkpt lat="53.183825" lon="-2.091944"><ele>274</ele><time>2023-03-17T12:59:30Z</time><name>PT2740</name></trkpt>
<trkpt lat="53.183810" lon="-2.091888"><ele>273</ele><time>2023-03-17T12:59:33Z</time><name>PT2741</name></trkpt>
<trkpt lat="53.183786" lon="-2.091818"><ele>273</ele><time>2023-03-17T12:59:37Z</time><name>PT2742</name></trkpt>
<trkpt lat="53.183765" lon="-2.091769"><ele>274</ele><time>2023-03-17T12:59:40Z</time><name>PT2743</name></trkpt>
<trkpt lat="53.183736" lon="-2.091697"><ele>273</ele><time>2023-03-17T12:59:45Z</time><name>PT2744</name></trkpt>
<trkpt lat="53.183722" lon="-2.091640"><ele>272</ele><time>2023-03-17T12:59:48Z</time><name>PT2745</name></trkpt>
<trkpt lat="53.183704" lon="-2.091557"><ele>272</ele><time>2023-03-17T12:59:51Z</time><name>PT2746</name></trkpt>
<trkpt lat="53.183677" lon="-2.091422"><ele>273</ele><time>2023-03-17T12:59:55Z</time><name>PT2747</name></trkpt>
<trkpt lat="53.183671" lon="-2.091346"><ele>272</ele><time>2023-03-17T12:59:58Z</time><name>PT2748</name></trkpt>
<trkpt lat="53.183652" lon="-2.091277"><ele>272</ele><time>2023-03-17T13:00:03Z</time><name>PT2749</name></trkpt>
<trkpt lat="53.183650" lon="-2.091273"><ele>272</ele><time>2023-03-17T13:00:06Z</time><name>PT2750</name></trkpt>
<trkpt lat="53.183614" lon="-2.091250"><ele>270</ele><time>2023-03-17T13:00:09Z</time><name>PT2751</name></trkpt>
<trkpt lat="53.183577" lon="-2.091189"><ele>270</ele><time>2023-03-17T13:00:13Z</time><name>PT2752</name></trkpt>
<trkpt lat="53.183554" lon="-2.091150"><ele>270</ele><time>2023-03-17T13:00:16Z</time><name>PT2753</name></trkpt>
<trkpt lat="53.183548" lon="-2.091139"><ele>270</ele><time>2023-03-17T13:00:19Z</time><name>PT2754</name></trkpt>
<trkpt lat="53.183520" lon="-2.091109"><ele>269</ele><time>2023-03-17T13:00:24Z</time><name>PT2755</name></trkpt>
<trkpt lat="53.183481" lon="-2.091059"><ele>269</ele><time>2023-03-17T13:00:27Z</time><name>PT2756</name></trkpt>
<trkpt lat="53.183449" lon="-2.091029"><ele>269</ele><time>2023-03-17T13:00:30Z</time><name>PT2757</name></trkpt>
<trkpt lat="53.183409" lon="-2.090976"><ele>268</ele><time>2023-03-17T13:00:34Z</time><name>PT2758</name></trkpt>
<trkpt lat="53.183375" lon="-2.090938"><ele>268</ele><time>2023-03-17T13:00:37Z</time><name>PT2759</name></trkpt>
<trkpt lat="53.183331" lon="-2.090879"><ele>267</ele><time>2023-03-17T13:00:42Z</time><name>PT2760</name></trkpt>
<trkpt lat="53.183285" lon="-2.090830"><ele>267</ele><time>2023-03-17T13:00:45Z</time><name>PT2761</name></trkpt>
<trkpt lat="53.183262" lon="-2.090793"><ele>266</ele><time>2023-03-17T13:00:48Z</time><name>PT2762</name></trkpt>
<trkpt lat="53.183225" lon="-2.090743"><ele>266</ele><time>2023-03-17T13:00:52Z</time><name>PT2763</name></trkpt>
<trkpt lat="53.183196" lon="-2.090712"><ele>266</ele><time>2023-03-17T13:00:55Z</time><name>PT2764</name></trkpt>
<trkpt lat="53.183168" lon="-2.090671"><ele>265</ele><time>2023-03-17T13:00:58Z</time><name>PT2765</name></trkpt>
<trkpt lat="53.183127" lon="-2.090619"><ele>266</ele><time>2023-03-17T13:01:03Z</time><name>PT2766</name></trkpt>
<trkpt lat="53.183088" lon="-2.090568"><ele>265</ele><time>2023-03-17T13:01:06Z</time><name>PT2767</name></trkpt>
<trkpt lat="53.183054" lon="-2.090499"><ele>265</ele><time>2023-03-17T13:01:10Z</time><name>PT2768</name></trkpt>
<trkpt lat="53.183025" lon="-2.090455"><ele>265</ele><time>2023-03-17T13:01:13Z</time><name>PT2769</name></trkpt>
<trkpt lat="53.182991" lon="-2.090393"><ele>264</ele><time>2023-03-17T13:01:18Z</time><name>PT2770</name></trkpt>
<trkpt lat="53.182954" lon="-2.090332"><ele>264</ele><time>2023-03-17T13:01:21Z</time><name>PT2771</name></trkpt>
<trkpt lat="53.182918" lon="-2.090283"><ele>262</ele><time>2023-03-17T13:01:25Z</time><name>PT2772</name></trkpt>
<trkpt lat="53.182887" lon="-2.090230"><ele>261</ele><time>2023-03-17T13:01:30Z</time><name>PT2773</name></trkpt>
<trkpt lat="53.182862" lon="-2.090193"><ele>261</ele><time>2023-03-17T13:01:33Z</time><name>PT2774</name></trkpt>
<trkpt lat="53.182826" lon="-2.090134"><ele>259</ele><time>2023-03-17T13:01:36Z</time><name>PT2775</name></trkpt>
<trkpt lat="53.182796" lon="-2.090084"><ele>259</ele><time>2023-03-17T13:01:39Z</time><name>PT2776</name></trkpt>
<trkpt lat="53.182761" lon="-2.090035"><ele>258</ele><time>2023-03-17T13:01:43Z</time><name>PT2777</name></trkpt>
<trkpt lat="53.182729" lon="-2.089988"><ele>257</ele><time>2023-03-17T13:01:48Z</time><name>PT2778</name></trkpt>
<trkpt lat="53.182701" lon="-2.089947"><ele>256</ele><time>2023-03-17T13:01:51Z</time><name>PT2779</name></trkpt>
<trkpt lat="53.182671" lon="-2.089908"><ele>255</ele><time>2023-03-17T13:01:54Z</time><name>PT2780</name></trkpt>
<trkpt lat="53.182631" lon="-2.089853"><ele>255</ele><time>2023-03-17T13:01:57Z</time><name>PT2781</name></trkpt>
<trkpt lat="53.182585" lon="-2.089809"><ele>255</ele><time>2023-03-17T13:02:01Z</time><name>PT2782</name></trkpt>
<trkpt lat="53.182550" lon="-2.089774"><ele>255</ele><time>2023-03-17T13:02:04Z</time><name>PT2783</name></trkpt>
<trkpt lat="53.182513" lon="-2.089732"><ele>255</ele><time>2023-03-17T13:02:07Z</time><name>PT2784</name></trkpt>
<trkpt lat="53.182463" lon="-2.089687"><ele>254</ele><time>2023-03-17T13:02:12Z</time><name>PT2785</name></trkpt>
<trkpt lat="53.182426" lon="-2.089637"><ele>254</ele><time>2023-03-17T13:02:15Z</time><name>PT2786</name></trkpt>
<trkpt lat="53.182375" lon="-2.089590"><ele>255</ele><time>2023-03-17T13:02:19Z</time><name>PT2787</name></trkpt>
<trkpt lat="53.182330" lon="-2.089539"><ele>255</ele><time>2023-03-17T13:02:24Z</time><name>PT2788</name></trkpt>
<trkpt lat="53.182285" lon="-2.089497"><ele>254</ele><time>2023-03-17T13:02:27Z</time><name>PT2789</name></trkpt>
<trkpt lat="53.182242" lon="-2.089450"><ele>254</ele><time>2023-03-17T13:02:31Z</time><name>PT2790</name></trkpt>
<trkpt lat="53.182208" lon="-2.089405"><ele>254</ele><time>2023-03-17T13:02:34Z</time><name>PT2791</name></trkpt>
<trkpt lat="53.182164" lon="-2.089361"><ele>254</ele><time>2023-03-17T13:02:39Z</time><name>PT2792</name></trkpt>
<trkpt lat="53.182136" lon="-2.089326"><ele>253</ele><time>2023-03-17T13:02:42Z</time><name>PT2793</name></trkpt>
<trkpt lat="53.182090" lon="-2.089278"><ele>254</ele><time>2023-03-17T13:02:45Z</time><name>PT2794</name></trkpt>
<trkpt lat="53.182061" lon="-2.089236"><ele>253</ele><time>2023-03-17T13:02:48Z</time><name>PT2795</name></trkpt>
<trkpt lat="53.182012" lon="-2.089177"><ele>254</ele><time>2023-03-17T13:02:52Z</time><name>PT2796</name></trkpt>
<trkpt lat="53.181983" lon="-2.089146"><ele>253</ele><time>2023-03-17T13:02:55Z</time><name>PT2797</name></trkpt>
<trkpt lat="53.181946" lon="-2.089083"><ele>253</ele><time>2023-03-17T13:03:00Z</time><name>PT2798</name></trkpt>
<trkpt lat="53.181904" lon="-2.089036"><ele>253</ele><time>2023-03-17T13:03:03Z</time><name>PT2799</name></trkpt>
<trkpt lat="53.181865" lon="-2.088979"><ele>253</ele><time>2023-03-17T13:03:07Z</time><name>PT2800</name></trkpt>
<trkpt lat="53.181832" lon="-2.088950"><ele>252</ele><time>2023-03-17T13:03:10Z</time><name>PT2801</name></trkpt>
<trkpt lat="53.181794" lon="-2.088896"><ele>251</ele><time>2023-03-17T13:03:15Z</time><name>PT2802</name></trkpt>
<trkpt lat="53.181768" lon="-2.088866"><ele>251</ele><time>2023-03-17T13:03:18Z</time><name>PT2803</name></trkpt>
<trkpt lat="53.181751" lon="-2.088849"><ele>251</ele><time>2023-03-17T13:03:21Z</time><name>PT2804</name></trkpt>
<trkpt lat="53.181745" lon="-2.088837"><ele>251</ele><time>2023-03-17T13:03:24Z</time><name>PT2805</name></trkpt>
<trkpt lat="53.181717" lon="-2.088809"><ele>250</ele><time>2023-03-17T13:03:27Z</time><name>PT2806</name></trkpt>
<trkpt lat="53.181678" lon="-2.088773"><ele>250</ele><time>2023-03-17T13:03:31Z</time><name>PT2807</name></trkpt>
<trkpt lat="53.181658" lon="-2.088761"><ele>250</ele><time>2023-03-17T13:03:36Z</time><name>PT2808</name></trkpt>
<trkpt lat="53.181639" lon="-2.088742"><ele>247</ele><time>2023-03-17T13:03:39Z</time><name>PT2809</name></trkpt>
<trkpt lat="53.181598" lon="-2.088711"><ele>245</ele><time>2023-03-17T13:03:42Z</time><name>PT2810</name></trkpt>
<trkpt lat="53.181578" lon="-2.088665"><ele>246</ele><time>2023-03-17T13:03:45Z</time><name>PT2811</name></trkpt>
<trkpt lat="53.181541" lon="-2.088599"><ele>246</ele><time>2023-03-17T13:03:49Z</time><name>PT2812</name></trkpt>
<trkpt lat="53.181512" lon="-2.088556"><ele>247</ele><time>2023-03-17T13:03:52Z</time><name>PT2813</name></trkpt>
<trkpt lat="53.181478" lon="-2.088498"><ele>248</ele><time>2023-03-17T13:03:57Z</time><name>PT2814</name></trkpt>
<trkpt lat="53.181459" lon="-2.088475"><ele>249</ele><time>2023-03-17T13:04:00Z</time><name>PT2815</name></trkpt>
<trkpt lat="53.181428" lon="-2.088429"><ele>250</ele><time>2023-03-17T13:04:03Z</time><name>PT2816</name></trkpt>
<trkpt lat="53.181401" lon="-2.088387"><ele>250</ele><time>2023-03-17T13:04:06Z</time><name>PT2817</name></trkpt>
<trkpt lat="53.181384" lon="-2.088340"><ele>250</ele><time>2023-03-17T13:04:10Z</time><name>PT2818</name></trkpt>
<trkpt lat="53.181374" lon="-2.088268"><ele>251</ele><time>2023-03-17T13:04:15Z</time><name>PT2819</name></trkpt>
<trkpt lat="53.181368" lon="-2.088218"><ele>251</ele><time>2023-03-17T13:04:18Z</time><name>PT2820</name></trkpt>
<trkpt lat="53.181360" lon="-2.088168"><ele>250</ele><time>2023-03-17T13:04:21Z</time><name>PT2821</name></trkpt>
<trkpt lat="53.181354" lon="-2.088120"><ele>250</ele><time>2023-03-17T13:04:24Z</time><name>PT2822</name></trkpt>
<trkpt lat="53.181348" lon="-2.088048"><ele>250</ele><time>2023-03-17T13:04:27Z</time><name>PT2823</name></trkpt>
<trkpt lat="53.181347" lon="-2.087988"><ele>251</ele><time>2023-03-17T13:04:30Z</time><name>PT2824</name></trkpt>
<trkpt lat="53.181340" lon="-2.087911"><ele>250</ele><time>2023-03-17T13:04:34Z</time><name>PT2825</name></trkpt>
<trkpt lat="53.181339" lon="-2.087852"><ele>250</ele><time>2023-03-17T13:04:37Z</time><name>PT2826</name></trkpt>
<trkpt lat="53.181336" lon="-2.087760"><ele>251</ele><time>2023-03-17T13:04:42Z</time><name>PT2827</name></trkpt>
<trkpt lat="53.181334" lon="-2.087694"><ele>252</ele><time>2023-03-17T13:04:45Z</time><name>PT2828</name></trkpt>
<trkpt lat="53.181328" lon="-2.087624"><ele>251</ele><time>2023-03-17T13:04:48Z</time><name>PT2829</name></trkpt>
<trkpt lat="53.181327" lon="-2.087558"><ele>252</ele><time>2023-03-17T13:04:51Z</time><name>PT2830</name></trkpt>
<trkpt lat="53.181324" lon="-2.087488"><ele>254</ele><time>2023-03-17T13:04:54Z</time><name>PT2831</name></trkpt>
<trkpt lat="53.181323" lon="-2.087403"><ele>254</ele><time>2023-03-17T13:04:58Z</time><name>PT2832</name></trkpt>
<trkpt lat="53.181317" lon="-2.087338"><ele>253</ele><time>2023-03-17T13:05:01Z</time><name>PT2833</name></trkpt>
<trkpt lat="53.181307" lon="-2.087250"><ele>253</ele><time>2023-03-17T13:05:06Z</time><name>PT2834</name></trkpt>
<trkpt lat="53.181295" lon="-2.087176"><ele>252</ele><time>2023-03-17T13:05:09Z</time><name>PT2835</name></trkpt>
<trkpt lat="53.181285" lon="-2.087099"><ele>252</ele><time>2023-03-17T13:05:13Z</time><name>PT2836</name></trkpt>
<trkpt lat="53.181276" lon="-2.087034"><ele>252</ele><time>2023-03-17T13:05:16Z</time><name>PT2837</name></trkpt>
<trkpt lat="53.181271" lon="-2.086949"><ele>251</ele><time>2023-03-17T13:05:21Z</time><name>PT2838</name></trkpt>
<trkpt lat="53.181262" lon="-2.086862"><ele>250</ele><time>2023-03-17T13:05:24Z</time><name>PT2839</name></trkpt>
<trkpt lat="53.181252" lon="-2.086786"><ele>250</ele><time>2023-03-17T13:05:28Z</time><name>PT2840</name></trkpt>
<trkpt lat="53.181242" lon="-2.086708"><ele>249</ele><time>2023-03-17T13:05:31Z</time><name>PT2841</name></trkpt>
<trkpt lat="53.181224" lon="-2.086601"><ele>250</ele><time>2023-03-17T13:05:36Z</time><name>PT2842</name></trkpt>
<trkpt lat="53.181216" lon="-2.086542"><ele>249</ele><time>2023-03-17T13:05:39Z</time><name>PT2843</name></trkpt>
<trkpt lat="53.181210" lon="-2.086476"><ele>249</ele><time>2023-03-17T13:05:42Z</time><name>PT2844</name></trkpt>
<trkpt lat="53.181196" lon="-2.086384"><ele>248</ele><time>2023-03-17T13:05:46Z</time><name>PT2845</name></trkpt>
<trkpt lat="53.181190" lon="-2.086320"><ele>247</ele><time>2023-03-17T13:05:49Z</time><name>PT2846</name></trkpt>
<trkpt lat="53.181178" lon="-2.086269"><ele>246</ele><time>2023-03-17T13:05:52Z</time><name>PT2847</name></trkpt>
<trkpt lat="53.181170" lon="-2.086198"><ele>246</ele><time>2023-03-17T13:05:57Z</time><name>PT2848</name></trkpt>
<trkpt lat="53.181165" lon="-2.086147"><ele>246</ele><time>2023-03-17T13:06:00Z</time><name>PT2849</name></trkpt>
<trkpt lat="53.181145" lon="-2.086080"><ele>244</ele><time>2023-03-17T13:06:03Z</time><name>PT2850</name></trkpt>
<trkpt lat="53.181131" lon="-2.086000"><ele>243</ele><time>2023-03-17T13:06:07Z</time><name>PT2851</name></trkpt>
<trkpt lat="53.181121" lon="-2.085940"><ele>243</ele><time>2023-03-17T13:06:10Z</time><name>PT2852</name></trkpt>
<trkpt lat="53.181109" lon="-2.085842"><ele>243</ele><time>2023-03-17T13:06:13Z</time><name>PT2853</name></trkpt>
<trkpt lat="53.181096" lon="-2.085751"><ele>244</ele><time>2023-03-17T13:06:16Z</time><name>PT2854</name></trkpt>
<trkpt lat="53.181083" lon="-2.085686"><ele>244</ele><time>2023-03-17T13:06:20Z</time><name>PT2855</name></trkpt>
<trkpt lat="53.181066" lon="-2.085589"><ele>244</ele><time>2023-03-17T13:06:24Z</time><name>PT2856</name></trkpt>
<trkpt lat="53.181055" lon="-2.085501"><ele>243</ele><time>2023-03-17T13:06:27Z</time><name>PT2857</name></trkpt>
<trkpt lat="53.181045" lon="-2.085444"><ele>243</ele><time>2023-03-17T13:06:30Z</time><name>PT2858</name></trkpt>
<trkpt lat="53.181029" lon="-2.085361"><ele>242</ele><time>2023-03-17T13:06:34Z</time><name>PT2859</name></trkpt>
<trkpt lat="53.181018" lon="-2.085280"><ele>242</ele><time>2023-03-17T13:06:39Z</time><name>PT2860</name></trkpt>
<trkpt lat="53.181013" lon="-2.085246"><ele>239</ele><time>2023-03-17T13:06:42Z</time><name>PT2861</name></trkpt>
<trkpt lat="53.181001" lon="-2.085205"><ele>238</ele><time>2023-03-17T13:06:45Z</time><name>PT2862</name></trkpt>
<trkpt lat="53.180992" lon="-2.085161"><ele>237</ele><time>2023-03-17T13:06:48Z</time><name>PT2863</name></trkpt>
<trkpt lat="53.180985" lon="-2.085090"><ele>236</ele><time>2023-03-17T13:06:52Z</time><name>PT2864</name></trkpt>
<trkpt lat="53.180976" lon="-2.085026"><ele>237</ele><time>2023-03-17T13:06:55Z</time><name>PT2865</name></trkpt>
<trkpt lat="53.180960" lon="-2.084951"><ele>236</ele><time>2023-03-17T13:07:00Z</time><name>PT2866</name></trkpt>
<trkpt lat="53.180953" lon="-2.084897"><ele>235</ele><time>2023-03-17T13:07:03Z</time><name>PT2867</name></trkpt>
<trkpt lat="53.180936" lon="-2.084801"><ele>235</ele><time>2023-03-17T13:07:06Z</time><name>PT2868</name></trkpt>
<trkpt lat="53.180926" lon="-2.084727"><ele>235</ele><time>2023-03-17T13:07:09Z</time><name>PT2869</name></trkpt>
<trkpt lat="53.180911" lon="-2.084632"><ele>235</ele><time>2023-03-17T13:07:13Z</time><name>PT2870</name></trkpt>
<trkpt lat="53.180888" lon="-2.084557"><ele>234</ele><time>2023-03-17T13:07:18Z</time><name>PT2871</name></trkpt>
<trkpt lat="53.180874" lon="-2.084511"><ele>234</ele><time>2023-03-17T13:07:21Z</time><name>PT2872</name></trkpt>
<trkpt lat="53.180859" lon="-2.084445"><ele>233</ele><time>2023-03-17T13:07:24Z</time><name>PT2873</name></trkpt>
<trkpt lat="53.180846" lon="-2.084376"><ele>233</ele><time>2023-03-17T13:07:28Z</time><name>PT2874</name></trkpt>
<trkpt lat="53.180837" lon="-2.084331"><ele>233</ele><time>2023-03-17T13:07:33Z</time><name>PT2875</name></trkpt>
<trkpt lat="53.180826" lon="-2.084303"><ele>233</ele><time>2023-03-17T13:07:36Z</time><name>PT2876</name></trkpt>
<trkpt lat="53.180822" lon="-2.084304"><ele>232</ele><time>2023-03-17T13:07:39Z</time><name>PT2877</name></trkpt>
<trkpt lat="53.180811" lon="-2.084304"><ele>229</ele><time>2023-03-17T13:07:42Z</time><name>PT2878</name></trkpt>
<trkpt lat="53.180796" lon="-2.084284"><ele>228</ele><time>2023-03-17T13:07:45Z</time><name>PT2879</name></trkpt>
<trkpt lat="53.180769" lon="-2.084250"><ele>228</ele><time>2023-03-17T13:07:48Z</time><name>PT2880</name></trkpt>
<trkpt lat="53.180749" lon="-2.084217"><ele>227</ele><time>2023-03-17T13:07:52Z</time><name>PT2881</name></trkpt>
<trkpt lat="53.180742" lon="-2.084203"><ele>227</ele><time>2023-03-17T13:07:55Z</time><name>PT2882</name></trkpt>
<trkpt lat="53.180739" lon="-2.084197"><ele>227</ele><time>2023-03-17T13:07:58Z</time><name>PT2883</name></trkpt>
<trkpt lat="53.180737" lon="-2.084176"><ele>227</ele><time>2023-03-17T13:08:06Z</time><name>PT2884</name></trkpt>
<trkpt lat="53.180733" lon="-2.084148"><ele>227</ele><time>2023-03-17T13:08:31Z</time><name>PT2885</name></trkpt>
<trkpt lat="53.180702" lon="-2.084101"><ele>226</ele><time>2023-03-17T13:08:36Z</time><name>PT2886</name></trkpt>
<trkpt lat="53.180673" lon="-2.084060"><ele>225</ele><time>2023-03-17T13:08:39Z</time><name>PT2887</name></trkpt>
<trkpt lat="53.180636" lon="-2.084022"><ele>224</ele><time>2023-03-17T13:08:43Z</time><name>PT2888</name></trkpt>
<trkpt lat="53.180611" lon="-2.084000"><ele>223</ele><time>2023-03-17T13:08:46Z</time><name>PT2889</name></trkpt>
<trkpt lat="53.180595" lon="-2.083993"><ele>221</ele><time>2023-03-17T13:08:49Z</time><name>PT2890</name></trkpt>
<trkpt lat="53.180573" lon="-2.083968"><ele>221</ele><time>2023-03-17T13:08:54Z</time><name>PT2891</name></trkpt>
<trkpt lat="53.180548" lon="-2.083927"><ele>219</ele><time>2023-03-17T13:08:57Z</time><name>PT2892</name></trkpt>
<trkpt lat="53.180518" lon="-2.083870"><ele>218</ele><time>2023-03-17T13:09:00Z</time><name>PT2893</name></trkpt>
<trkpt lat="53.180496" lon="-2.083843"><ele>217</ele><time>2023-03-17T13:09:04Z</time><name>PT2894</name></trkpt>
<trkpt lat="53.180475" lon="-2.083783"><ele>216</ele><time>2023-03-17T13:09:09Z</time><name>PT2895</name></trkpt>
<trkpt lat="53.180453" lon="-2.083737"><ele>216</ele><time>2023-03-17T13:09:12Z</time><name>PT2896</name></trkpt>
<trkpt lat="53.180439" lon="-2.083696"><ele>214</ele><time>2023-03-17T13:09:15Z</time><name>PT2897</name></trkpt>
<trkpt lat="53.180414" lon="-2.083642"><ele>213</ele><time>2023-03-17T13:09:18Z</time><name>PT2898</name></trkpt>
<trkpt lat="53.180394" lon="-2.083598"><ele>212</ele><time>2023-03-17T13:09:21Z</time><name>PT2899</name></trkpt>
<trkpt lat="53.180369" lon="-2.083541"><ele>212</ele><time>2023-03-17T13:09:24Z</time><name>PT2900</name></trkpt>
<trkpt lat="53.180349" lon="-2.083474"><ele>213</ele><time>2023-03-17T13:09:27Z</time><name>PT2901</name></trkpt>
<trkpt lat="53.180335" lon="-2.083427"><ele>212</ele><time>2023-03-17T13:09:31Z</time><name>PT2902</name></trkpt>
<trkpt lat="53.180300" lon="-2.083375"><ele>215</ele><time>2023-03-17T13:09:36Z</time><name>PT2903</name></trkpt>
<trkpt lat="53.180286" lon="-2.083348"><ele>217</ele><time>2023-03-17T13:09:39Z</time><name>PT2904</name></trkpt>
<trkpt lat="53.180274" lon="-2.083284"><ele>219</ele><time>2023-03-17T13:09:42Z</time><name>PT2905</name></trkpt>
<trkpt lat="53.180246" lon="-2.083213"><ele>221</ele><time>2023-03-17T13:09:46Z</time><name>PT2906</name></trkpt>
<trkpt lat="53.180222" lon="-2.083194"><ele>221</ele><time>2023-03-17T13:09:49Z</time><name>PT2907</name></trkpt>
<trkpt lat="53.180205" lon="-2.083155"><ele>220</ele><time>2023-03-17T13:09:54Z</time><name>PT2908</name></trkpt>
<trkpt lat="53.180192" lon="-2.083139"><ele>221</ele><time>2023-03-17T13:09:57Z</time><name>PT2909</name></trkpt>
<trkpt lat="53.180189" lon="-2.083132"><ele>222</ele><time>2023-03-17T13:10:00Z</time><name>PT2910</name></trkpt>
<trkpt lat="53.180186" lon="-2.083132"><ele>222</ele><time>2023-03-17T13:10:30Z</time><name>PT2911</name></trkpt>
<trkpt lat="53.180177" lon="-2.083142"><ele>222</ele><time>2023-03-17T13:10:33Z</time><name>PT2912</name></trkpt>
<trkpt lat="53.180173" lon="-2.083141"><ele>222</ele><time>2023-03-17T13:10:48Z</time><name>PT2913</name></trkpt>
<trkpt lat="53.180163" lon="-2.083152"><ele>221</ele><time>2023-03-17T13:10:51Z</time><name>PT2914</name></trkpt>
<trkpt lat="53.180145" lon="-2.083169"><ele>220</ele><time>2023-03-17T13:10:54Z</time><name>PT2915</name></trkpt>
<trkpt lat="53.180147" lon="-2.083173"><ele>220</ele><time>2023-03-17T13:10:58Z</time><name>PT2916</name></trkpt>
<trkpt lat="53.180142" lon="-2.083173"><ele>221</ele><time>2023-03-17T13:11:12Z</time><name>PT2917</name></trkpt>
<trkpt lat="53.180110" lon="-2.083171"><ele>220</ele><time>2023-03-17T13:11:15Z</time><name>PT2918</name></trkpt>
<trkpt lat="53.180075" lon="-2.083172"><ele>220</ele><time>2023-03-17T13:11:19Z</time><name>PT2919</name></trkpt>
<trkpt lat="53.180062" lon="-2.083190"><ele>221</ele><time>2023-03-17T13:11:24Z</time><name>PT2920</name></trkpt>
<trkpt lat="53.180058" lon="-2.083192"><ele>220</ele><time>2023-03-17T13:11:27Z</time><name>PT2921</name></trkpt>
<trkpt lat="53.180060" lon="-2.083177"><ele>221</ele><time>2023-03-17T13:12:19Z</time><name>PT2922</name></trkpt>
<trkpt lat="53.180082" lon="-2.083169"><ele>221</ele><time>2023-03-17T13:12:22Z</time><name>PT2923</name></trkpt>
<trkpt lat="53.180120" lon="-2.083161"><ele>221</ele><time>2023-03-17T13:12:27Z</time><name>PT2924</name></trkpt>
<trkpt lat="53.180163" lon="-2.083154"><ele>221</ele><time>2023-03-17T13:12:30Z</time><name>PT2925</name></trkpt>
<trkpt lat="53.180195" lon="-2.083114"><ele>221</ele><time>2023-03-17T13:12:34Z</time><name>PT2926</name></trkpt>
<trkpt lat="53.180215" lon="-2.083080"><ele>221</ele><time>2023-03-17T13:12:37Z</time><name>PT2927</name></trkpt>
<trkpt lat="53.180244" lon="-2.083063"><ele>217</ele><time>2023-03-17T13:12:42Z</time><name>PT2928</name></trkpt>
<trkpt lat="53.180267" lon="-2.083053"><ele>215</ele><time>2023-03-17T13:12:45Z</time><name>PT2929</name></trkpt>
<trkpt lat="53.180289" lon="-2.083057"><ele>211</ele><time>2023-03-17T13:12:48Z</time><name>PT2930</name></trkpt>
<trkpt lat="53.180324" lon="-2.083047"><ele>210</ele><time>2023-03-17T13:12:51Z</time><name>PT2931</name></trkpt>
<trkpt lat="53.180363" lon="-2.083039"><ele>209</ele><time>2023-03-17T13:12:55Z</time><name>PT2932</name></trkpt>
<trkpt lat="53.180391" lon="-2.083017"><ele>209</ele><time>2023-03-17T13:13:00Z</time><name>PT2933</name></trkpt>
<trkpt lat="53.180412" lon="-2.082998"><ele>207</ele><time>2023-03-17T13:13:03Z</time><name>PT2934</name></trkpt>
<trkpt lat="53.180441" lon="-2.082995"><ele>207</ele><time>2023-03-17T13:13:06Z</time><name>PT2935</name></trkpt>
<trkpt lat="53.180476" lon="-2.082996"><ele>205</ele><time>2023-03-17T13:13:10Z</time><name>PT2936</name></trkpt>
<trkpt lat="53.180506" lon="-2.082981"><ele>205</ele><time>2023-03-17T13:13:13Z</time><name>PT2937</name></trkpt>
<trkpt lat="53.180531" lon="-2.082970"><ele>202</ele><time>2023-03-17T13:13:18Z</time><name>PT2938</name></trkpt>
<trkpt lat="53.180567" lon="-2.082944"><ele>202</ele><time>2023-03-17T13:13:21Z</time><name>PT2939</name></trkpt>
<trkpt lat="53.180611" lon="-2.082907"><ele>202</ele><time>2023-03-17T13:13:25Z</time><name>PT2940</name></trkpt>
<trkpt lat="53.180658" lon="-2.082839"><ele>205</ele><time>2023-03-17T13:13:30Z</time><name>PT2941</name></trkpt>
<trkpt lat="53.180688" lon="-2.082812"><ele>205</ele><time>2023-03-17T13:13:33Z</time><name>PT2942</name></trkpt>
<trkpt lat="53.180717" lon="-2.082782"><ele>204</ele><time>2023-03-17T13:13:36Z</time><name>PT2943</name></trkpt>
<trkpt lat="53.180756" lon="-2.082729"><ele>206</ele><time>2023-03-17T13:13:39Z</time><name>PT2944</name></trkpt>
<trkpt lat="53.180789" lon="-2.082653"><ele>207</ele><time>2023-03-17T13:13:42Z</time><name>PT2945</name></trkpt>
<trkpt lat="53.180805" lon="-2.082609"><ele>206</ele><time>2023-03-17T13:13:45Z</time><name>PT2946</name></trkpt>
<trkpt lat="53.180812" lon="-2.082536"><ele>206</ele><time>2023-03-17T13:13:49Z</time><name>PT2947</name></trkpt>
<trkpt lat="53.180821" lon="-2.082483"><ele>206</ele><time>2023-03-17T13:13:53Z</time><name>PT2948</name></trkpt>
<trkpt lat="53.180828" lon="-2.082416"><ele>205</ele><time>2023-03-17T13:13:57Z</time><name>PT2949</name></trkpt>
<trkpt lat="53.180829" lon="-2.082377"><ele>204</ele><time>2023-03-17T13:14:00Z</time><name>PT2950</name></trkpt>
<trkpt lat="53.180830" lon="-2.082359"><ele>204</ele><time>2023-03-17T13:14:03Z</time><name>PT2951</name></trkpt>
<trkpt lat="53.180831" lon="-2.082337"><ele>203</ele><time>2023-03-17T13:14:15Z</time><name>PT2952</name></trkpt>
<trkpt lat="53.180814" lon="-2.082286"><ele>202</ele><time>2023-03-17T13:14:18Z</time><name>PT2953</name></trkpt>
<trkpt lat="53.180782" lon="-2.082248"><ele>200</ele><time>2023-03-17T13:14:21Z</time><name>PT2954</name></trkpt>
<trkpt lat="53.180760" lon="-2.082215"><ele>200</ele><time>2023-03-17T13:14:24Z</time><name>PT2955</name></trkpt>
<trkpt lat="53.180736" lon="-2.082173"><ele>199</ele><time>2023-03-17T13:14:27Z</time><name>PT2956</name></trkpt>
<trkpt lat="53.180714" lon="-2.082114"><ele>198</ele><time>2023-03-17T13:14:31Z</time><name>PT2957</name></trkpt>
<trkpt lat="53.180709" lon="-2.082075"><ele>196</ele><time>2023-03-17T13:14:36Z</time><name>PT2958</name></trkpt>
<trkpt lat="53.180698" lon="-2.082043"><ele>196</ele><time>2023-03-17T13:14:39Z</time><name>PT2959</name></trkpt>
<trkpt lat="53.180689" lon="-2.082013"><ele>197</ele><time>2023-03-17T13:14:42Z</time><name>PT2960</name></trkpt>
<trkpt lat="53.180688" lon="-2.082008"><ele>197</ele><time>2023-03-17T13:14:45Z</time><name>PT2961</name></trkpt>
<trkpt lat="53.180681" lon="-2.082006"><ele>197</ele><time>2023-03-17T13:14:48Z</time><name>PT2962</name></trkpt>
<trkpt lat="53.180683" lon="-2.081996"><ele>197</ele><time>2023-03-17T13:14:52Z</time><name>PT2963</name></trkpt>
<trkpt lat="53.180684" lon="-2.081984"><ele>197</ele><time>2023-03-17T13:14:57Z</time><name>PT2964</name></trkpt>
<trkpt lat="53.180685" lon="-2.081974"><ele>197</ele><time>2023-03-17T13:15:00Z</time><name>PT2965</name></trkpt>
<trkpt lat="53.180684" lon="-2.081973"><ele>196</ele><time>2023-03-17T13:15:03Z</time><name>PT2966</name></trkpt>
<trkpt lat="53.180686" lon="-2.081968"><ele>196</ele><time>2023-03-17T13:15:06Z</time><name>PT2967</name></trkpt>
<trkpt lat="53.180696" lon="-2.081970"><ele>195</ele><time>2023-03-17T13:15:10Z</time><name>PT2968</name></trkpt>
<trkpt lat="53.180692" lon="-2.081964"><ele>195</ele><time>2023-03-17T13:15:15Z</time><name>PT2969</name></trkpt>
<trkpt lat="53.180712" lon="-2.081918"><ele>195</ele><time>2023-03-17T13:15:18Z</time><name>PT2970</name></trkpt>
<trkpt lat="53.180738" lon="-2.081891"><ele>193</ele><time>2023-03-17T13:15:21Z</time><name>PT2971</name></trkpt>
<trkpt lat="53.180761" lon="-2.081857"><ele>191</ele><time>2023-03-17T13:15:24Z</time><name>PT2972</name></trkpt>
<trkpt lat="53.180774" lon="-2.081837"><ele>191</ele><time>2023-03-17T13:15:27Z</time><name>PT2973</name></trkpt>
<trkpt lat="53.180792" lon="-2.081813"><ele>190</ele><time>2023-03-17T13:15:30Z</time><name>PT2974</name></trkpt>
<trkpt lat="53.180826" lon="-2.081790"><ele>189</ele><time>2023-03-17T13:15:34Z</time><name>PT2975</name></trkpt>
<trkpt lat="53.180851" lon="-2.081747"><ele>188</ele><time>2023-03-17T13:15:39Z</time><name>PT2976</name></trkpt>
<trkpt lat="53.180882" lon="-2.081730"><ele>186</ele><time>2023-03-17T13:15:42Z</time><name>PT2977</name></trkpt>
<trkpt lat="53.180905" lon="-2.081712"><ele>183</ele><time>2023-03-17T13:15:45Z</time><name>PT2978</name></trkpt>
<trkpt lat="53.180941" lon="-2.081678"><ele>181</ele><time>2023-03-17T13:15:48Z</time><name>PT2979</name></trkpt>
<trkpt lat="53.180954" lon="-2.081629"><ele>181</ele><time>2023-03-17T13:15:51Z</time><name>PT2980</name></trkpt>
<trkpt lat="53.180968" lon="-2.081584"><ele>181</ele><time>2023-03-17T13:15:54Z</time><name>PT2981</name></trkpt>
<trkpt lat="53.180985" lon="-2.081523"><ele>181</ele><time>2023-03-17T13:15:57Z</time><name>PT2982</name></trkpt>
<trkpt lat="53.180991" lon="-2.081489"><ele>182</ele><time>2023-03-17T13:16:01Z</time><name>PT2983</name></trkpt>
<trkpt lat="53.181029" lon="-2.081448"><ele>180</ele><time>2023-03-17T13:16:06Z</time><name>PT2984</name></trkpt>
<trkpt lat="53.181057" lon="-2.081407"><ele>180</ele><time>2023-03-17T13:16:09Z</time><name>PT2985</name></trkpt>
<trkpt lat="53.181079" lon="-2.081374"><ele>178</ele><time>2023-03-17T13:16:12Z</time><name>PT2986</name></trkpt>
<trkpt lat="53.181111" lon="-2.081351"><ele>178</ele><time>2023-03-17T13:16:15Z</time><name>PT2987</name></trkpt>
<trkpt lat="53.181136" lon="-2.081350"><ele>175</ele><time>2023-03-17T13:16:18Z</time><name>PT2988</name></trkpt>
<trkpt lat="53.181178" lon="-2.081321"><ele>176</ele><time>2023-03-17T13:16:21Z</time><name>PT2989</name></trkpt>
<trkpt lat="53.181220" lon="-2.081308"><ele>177</ele><time>2023-03-17T13:16:24Z</time><name>PT2990</name></trkpt>
<trkpt lat="53.181271" lon="-2.081289"><ele>177</ele><time>2023-03-17T13:16:28Z</time><name>PT2991</name></trkpt>
<trkpt lat="53.181336" lon="-2.081252"><ele>178</ele><time>2023-03-17T13:16:33Z</time><name>PT2992</name></trkpt>
<trkpt lat="53.181374" lon="-2.081226"><ele>179</ele><time>2023-03-17T13:16:36Z</time><name>PT2993</name></trkpt>
<trkpt lat="53.181414" lon="-2.081202"><ele>178</ele><time>2023-03-17T13:16:39Z</time><name>PT2994</name></trkpt>
<trkpt lat="53.181440" lon="-2.081139"><ele>183</ele><time>2023-03-17T13:16:43Z</time><name>PT2995</name></trkpt>
<trkpt lat="53.181468" lon="-2.081105"><ele>184</ele><time>2023-03-17T13:16:46Z</time><name>PT2996</name></trkpt>
<trkpt lat="53.181512" lon="-2.081067"><ele>186</ele><time>2023-03-17T13:16:51Z</time><name>PT2997</name></trkpt>
<trkpt lat="53.181559" lon="-2.081038"><ele>185</ele><time>2023-03-17T13:16:54Z</time><name>PT2998</name></trkpt>
<trkpt lat="53.181602" lon="-2.081043"><ele>185</ele><time>2023-03-17T13:16:57Z</time><name>PT2999</name></trkpt>
<trkpt lat="53.181640" lon="-2.080975"><ele>187</ele><time>2023-03-17T13:17:01Z</time><name>PT3000</name></trkpt>
<trkpt lat="53.181628" lon="-2.080908"><ele>185</ele><time>2023-03-17T13:17:04Z</time><name>PT3001</name></trkpt>
<trkpt lat="53.181598" lon="-2.080890"><ele>182</ele><time>2023-03-17T13:17:09Z</time><name>PT3002</name></trkpt>
<trkpt lat="53.181580" lon="-2.080868"><ele>180</ele><time>2023-03-17T13:17:12Z</time><name>PT3003</name></trkpt>
<trkpt lat="53.181544" lon="-2.080862"><ele>179</ele><time>2023-03-17T13:17:15Z</time><name>PT3004</name></trkpt>
<trkpt lat="53.181516" lon="-2.080847"><ele>178</ele><time>2023-03-17T13:17:18Z</time><name>PT3005</name></trkpt>
<trkpt lat="53.181482" lon="-2.080858"><ele>177</ele><time>2023-03-17T13:17:22Z</time><name>PT3006</name></trkpt>
<trkpt lat="53.181463" lon="-2.080880"><ele>175</ele><time>2023-03-17T13:17:25Z</time><name>PT3007</name></trkpt>
<trkpt lat="53.181413" lon="-2.080887"><ele>175</ele><time>2023-03-17T13:17:30Z</time><name>PT3008</name></trkpt>
<trkpt lat="53.181380" lon="-2.080894"><ele>174</ele><time>2023-03-17T13:17:33Z</time><name>PT3009</name></trkpt>
<trkpt lat="53.181346" lon="-2.080884"><ele>176</ele><time>2023-03-17T13:17:36Z</time><name>PT3010</name></trkpt>
<trkpt lat="53.181291" lon="-2.080880"><ele>180</ele><time>2023-03-17T13:17:39Z</time><name>PT3011</name></trkpt>
<trkpt lat="53.181261" lon="-2.080880"><ele>182</ele><time>2023-03-17T13:17:42Z</time><name>PT3012</name></trkpt>
<trkpt lat="53.181218" lon="-2.080895"><ele>182</ele><time>2023-03-17T13:17:46Z</time><name>PT3013</name></trkpt>
<trkpt lat="53.181182" lon="-2.080894"><ele>184</ele><time>2023-03-17T13:17:49Z</time><name>PT3014</name></trkpt>
<trkpt lat="53.181131" lon="-2.080886"><ele>187</ele><time>2023-03-17T13:17:54Z</time><name>PT3015</name></trkpt>
<trkpt lat="53.181096" lon="-2.080890"><ele>188</ele><time>2023-03-17T13:17:57Z</time><name>PT3016</name></trkpt>
<trkpt lat="53.181066" lon="-2.080888"><ele>188</ele><time>2023-03-17T13:18:00Z</time><name>PT3017</name></trkpt>
<trkpt lat="53.181033" lon="-2.080884"><ele>187</ele><time>2023-03-17T13:18:03Z</time><name>PT3018</name></trkpt>
<trkpt lat="53.180991" lon="-2.080883"><ele>188</ele><time>2023-03-17T13:18:06Z</time><name>PT3019</name></trkpt>
<trkpt lat="53.180955" lon="-2.080874"><ele>186</ele><time>2023-03-17T13:18:09Z</time><name>PT3020</name></trkpt>
<trkpt lat="53.180921" lon="-2.080870"><ele>184</ele><time>2023-03-17T13:18:13Z</time><name>PT3021</name></trkpt>
<trkpt lat="53.180895" lon="-2.080858"><ele>184</ele><time>2023-03-17T13:18:16Z</time><name>PT3022</name></trkpt>
<trkpt lat="53.180863" lon="-2.080848"><ele>183</ele><time>2023-03-17T13:18:21Z</time><name>PT3023</name></trkpt>
<trkpt lat="53.180826" lon="-2.080825"><ele>184</ele><time>2023-03-17T13:18:24Z</time><name>PT3024</name></trkpt>
<trkpt lat="53.180788" lon="-2.080803"><ele>184</ele><time>2023-03-17T13:18:27Z</time><name>PT3025</name></trkpt>
<trkpt lat="53.180763" lon="-2.080778"><ele>185</ele><time>2023-03-17T13:18:30Z</time><name>PT3026</name></trkpt>
<trkpt lat="53.180721" lon="-2.080762"><ele>189</ele><time>2023-03-17T13:18:34Z</time><name>PT3027</name></trkpt>
<trkpt lat="53.180694" lon="-2.080738"><ele>190</ele><time>2023-03-17T13:18:37Z</time><name>PT3028</name></trkpt>
<trkpt lat="53.180670" lon="-2.080705"><ele>192</ele><time>2023-03-17T13:18:40Z</time><name>PT3029</name></trkpt>
<trkpt lat="53.180657" lon="-2.080656"><ele>192</ele><time>2023-03-17T13:18:45Z</time><name>PT3030</name></trkpt>
<trkpt lat="53.180639" lon="-2.080610"><ele>195</ele><time>2023-03-17T13:18:48Z</time><name>PT3031</name></trkpt>
<trkpt lat="53.180633" lon="-2.080569"><ele>197</ele><time>2023-03-17T13:18:52Z</time><name>PT3032</name></trkpt>
<trkpt lat="53.180629" lon="-2.080537"><ele>198</ele><time>2023-03-17T13:18:55Z</time><name>PT3033</name></trkpt>
<trkpt lat="53.180623" lon="-2.080522"><ele>199</ele><time>2023-03-17T13:19:00Z</time><name>PT3034</name></trkpt>
<trkpt lat="53.180610" lon="-2.080400"><ele>198</ele><time>2023-03-17T13:19:03Z</time><name>PT3035</name></trkpt>
<trkpt lat="53.180612" lon="-2.080333"><ele>197</ele><time>2023-03-17T13:19:07Z</time><name>PT3036</name></trkpt>
<trkpt lat="53.180599" lon="-2.080263"><ele>196</ele><time>2023-03-17T13:19:12Z</time><name>PT3037</name></trkpt>
<trkpt lat="53.180600" lon="-2.080217"><ele>197</ele><time>2023-03-17T13:19:15Z</time><name>PT3038</name></trkpt>
<trkpt lat="53.180596" lon="-2.080152"><ele>197</ele><time>2023-03-17T13:19:18Z</time><name>PT3039</name></trkpt>
<trkpt lat="53.180593" lon="-2.080109"><ele>198</ele><time>2023-03-17T13:19:21Z</time><name>PT3040</name></trkpt>
<trkpt lat="53.180590" lon="-2.080098"><ele>198</ele><time>2023-03-17T13:19:25Z</time><name>PT3041</name></trkpt>
<trkpt lat="53.180584" lon="-2.080026"><ele>198</ele><time>2023-03-17T13:19:28Z</time><name>PT3042</name></trkpt>
<trkpt lat="53.180580" lon="-2.079966"><ele>199</ele><time>2023-03-17T13:19:31Z</time><name>PT3043</name></trkpt>
<trkpt lat="53.180564" lon="-2.079900"><ele>198</ele><time>2023-03-17T13:19:36Z</time><name>PT3044</name></trkpt>
<trkpt lat="53.180562" lon="-2.079849"><ele>199</ele><time>2023-03-17T13:19:39Z</time><name>PT3045</name></trkpt>
<trkpt lat="53.180555" lon="-2.079791"><ele>196</ele><time>2023-03-17T13:19:43Z</time><name>PT3046</name></trkpt>
<trkpt lat="53.180546" lon="-2.079734"><ele>197</ele><time>2023-03-17T13:19:48Z</time><name>PT3047</name></trkpt>
<trkpt lat="53.180543" lon="-2.079703"><ele>197</ele><time>2023-03-17T13:19:51Z</time><name>PT3048</name></trkpt>
<trkpt lat="53.180537" lon="-2.079661"><ele>198</ele><time>2023-03-17T13:19:54Z</time><name>PT3049</name></trkpt>
<trkpt lat="53.180529" lon="-2.079618"><ele>200</ele><time>2023-03-17T13:19:58Z</time><name>PT3050</name></trkpt>
<trkpt lat="53.180525" lon="-2.079580"><ele>200</ele><time>2023-03-17T13:20:01Z</time><name>PT3051</name></trkpt>
<trkpt lat="53.180518" lon="-2.079537"><ele>201</ele><time>2023-03-17T13:20:04Z</time><name>PT3052</name></trkpt>
<trkpt lat="53.180509" lon="-2.079503"><ele>202</ele><time>2023-03-17T13:20:09Z</time><name>PT3053</name></trkpt>
<trkpt lat="53.180506" lon="-2.079467"><ele>202</ele><time>2023-03-17T13:20:12Z</time><name>PT3054</name></trkpt>
<trkpt lat="53.180494" lon="-2.079432"><ele>201</ele><time>2023-03-17T13:20:15Z</time><name>PT3055</name></trkpt>
<trkpt lat="53.180482" lon="-2.079395"><ele>201</ele><time>2023-03-17T13:20:19Z</time><name>PT3056</name></trkpt>
<trkpt lat="53.180480" lon="-2.079354"><ele>202</ele><time>2023-03-17T13:20:22Z</time><name>PT3057</name></trkpt>
<trkpt lat="53.180472" lon="-2.079329"><ele>203</ele><time>2023-03-17T13:20:27Z</time><name>PT3058</name></trkpt>
<trkpt lat="53.180464" lon="-2.079301"><ele>204</ele><time>2023-03-17T13:20:30Z</time><name>PT3059</name></trkpt>
<trkpt lat="53.180460" lon="-2.079271"><ele>206</ele><time>2023-03-17T13:20:33Z</time><name>PT3060</name></trkpt>
<trkpt lat="53.180460" lon="-2.079228"><ele>206</ele><time>2023-03-17T13:20:37Z</time><name>PT3061</name></trkpt>
<trkpt lat="53.180458" lon="-2.079183"><ele>206</ele><time>2023-03-17T13:20:42Z</time><name>PT3062</name></trkpt>
<trkpt lat="53.180448" lon="-2.079149"><ele>208</ele><time>2023-03-17T13:20:45Z</time><name>PT3063</name></trkpt>
<trkpt lat="53.180443" lon="-2.079111"><ele>208</ele><time>2023-03-17T13:20:48Z</time><name>PT3064</name></trkpt>
<trkpt lat="53.180428" lon="-2.079057"><ele>211</ele><time>2023-03-17T13:20:51Z</time><name>PT3065</name></trkpt>
<trkpt lat="53.180420" lon="-2.079008"><ele>213</ele><time>2023-03-17T13:20:54Z</time><name>PT3066</name></trkpt>
<trkpt lat="53.180415" lon="-2.078950"><ele>215</ele><time>2023-03-17T13:20:58Z</time><name>PT3067</name></trkpt>
<trkpt lat="53.180408" lon="-2.078922"><ele>216</ele><time>2023-03-17T13:21:01Z</time><name>PT3068</name></trkpt>
<trkpt lat="53.180398" lon="-2.078846"><ele>218</ele><time>2023-03-17T13:21:06Z</time><name>PT3069</name></trkpt>
<trkpt lat="53.180390" lon="-2.078786"><ele>219</ele><time>2023-03-17T13:21:09Z</time><name>PT3070</name></trkpt>
<trkpt lat="53.180378" lon="-2.078733"><ele>220</ele><time>2023-03-17T13:21:12Z</time><name>PT3071</name></trkpt>
<trkpt lat="53.180367" lon="-2.078652"><ele>219</ele><time>2023-03-17T13:21:16Z</time><name>PT3072</name></trkpt>
<trkpt lat="53.180351" lon="-2.078593"><ele>219</ele><time>2023-03-17T13:21:19Z</time><name>PT3073</name></trkpt>
<trkpt lat="53.180339" lon="-2.078518"><ele>219</ele><time>2023-03-17T13:21:24Z</time><name>PT3074</name></trkpt>
<trkpt lat="53.180327" lon="-2.078442"><ele>217</ele><time>2023-03-17T13:21:27Z</time><name>PT3075</name></trkpt>
<trkpt lat="53.180316" lon="-2.078379"><ele>217</ele><time>2023-03-17T13:21:30Z</time><name>PT3076</name></trkpt>
<trkpt lat="53.180302" lon="-2.078319"><ele>217</ele><time>2023-03-17T13:21:33Z</time><name>PT3077</name></trkpt>
<trkpt lat="53.180293" lon="-2.078242"><ele>217</ele><time>2023-03-17T13:21:37Z</time><name>PT3078</name></trkpt>
<trkpt lat="53.180278" lon="-2.078176"><ele>218</ele><time>2023-03-17T13:21:42Z</time><name>PT3079</name></trkpt>
<trkpt lat="53.180263" lon="-2.078110"><ele>218</ele><time>2023-03-17T13:21:45Z</time><name>PT3080</name></trkpt>
<trkpt lat="53.180234" lon="-2.078042"><ele>218</ele><time>2023-03-17T13:21:49Z</time><name>PT3081</name></trkpt>
<trkpt lat="53.180223" lon="-2.078014"><ele>218</ele><time>2023-03-17T13:21:54Z</time><name>PT3082</name></trkpt>
<trkpt lat="53.180206" lon="-2.077974"><ele>218</ele><time>2023-03-17T13:21:57Z</time><name>PT3083</name></trkpt>
<trkpt lat="53.180190" lon="-2.077920"><ele>217</ele><time>2023-03-17T13:22:00Z</time><name>PT3084</name></trkpt>
<trkpt lat="53.180171" lon="-2.077865"><ele>218</ele><time>2023-03-17T13:22:03Z</time><name>PT3085</name></trkpt>
<trkpt lat="53.180153" lon="-2.077810"><ele>219</ele><time>2023-03-17T13:22:06Z</time><name>PT3086</name></trkpt>
<trkpt lat="53.180147" lon="-2.077784"><ele>219</ele><time>2023-03-17T13:22:09Z</time><name>PT3087</name></trkpt>
<trkpt lat="53.180142" lon="-2.077774"><ele>220</ele><time>2023-03-17T13:22:12Z</time><name>PT3088</name></trkpt>
<trkpt lat="53.180139" lon="-2.077767"><ele>219</ele><time>2023-03-17T13:22:19Z</time><name>PT3089</name></trkpt>
<trkpt lat="53.180142" lon="-2.077770"><ele>218</ele><time>2023-03-17T13:22:24Z</time><name>PT3090</name></trkpt>
<trkpt lat="53.180138" lon="-2.077752"><ele>219</ele><time>2023-03-17T13:22:27Z</time><name>PT3091</name></trkpt>
<trkpt lat="53.180142" lon="-2.077751"><ele>220</ele><time>2023-03-17T13:22:39Z</time><name>PT3092</name></trkpt>
<trkpt lat="53.180141" lon="-2.077744"><ele>220</ele><time>2023-03-17T13:22:42Z</time><name>PT3093</name></trkpt>
<trkpt lat="53.180139" lon="-2.077742"><ele>221</ele><time>2023-03-17T13:22:45Z</time><name>PT3094</name></trkpt>
<trkpt lat="53.180138" lon="-2.077755"><ele>220</ele><time>2023-03-17T13:22:52Z</time><name>PT3095</name></trkpt>
<trkpt lat="53.180135" lon="-2.077785"><ele>219</ele><time>2023-03-17T13:22:57Z</time><name>PT3096</name></trkpt>
<trkpt lat="53.180097" lon="-2.077817"><ele>218</ele><time>2023-03-17T13:23:00Z</time><name>PT3097</name></trkpt>
<trkpt lat="53.180052" lon="-2.077842"><ele>217</ele><time>2023-03-17T13:23:04Z</time><name>PT3098</name></trkpt>
<trkpt lat="53.180014" lon="-2.077871"><ele>217</ele><time>2023-03-17T13:23:09Z</time><name>PT3099</name></trkpt>
<trkpt lat="53.179967" lon="-2.077910"><ele>217</ele><time>2023-03-17T13:23:12Z</time><name>PT3100</name></trkpt>
<trkpt lat="53.179931" lon="-2.077937"><ele>217</ele><time>2023-03-17T13:23:16Z</time><name>PT3101</name></trkpt>
<trkpt lat="53.179889" lon="-2.077954"><ele>216</ele><time>2023-03-17T13:23:19Z</time><name>PT3102</name></trkpt>
<trkpt lat="53.179849" lon="-2.077978"><ele>215</ele><time>2023-03-17T13:23:24Z</time><name>PT3103</name></trkpt>
<trkpt lat="53.179812" lon="-2.077991"><ele>215</ele><time>2023-03-17T13:23:27Z</time><name>PT3104</name></trkpt>
<trkpt lat="53.179777" lon="-2.078019"><ele>215</ele><time>2023-03-17T13:23:30Z</time><name>PT3105</name></trkpt>
<trkpt lat="53.179735" lon="-2.078048"><ele>216</ele><time>2023-03-17T13:23:33Z</time><name>PT3106</name></trkpt>
<trkpt lat="53.179711" lon="-2.078067"><ele>216</ele><time>2023-03-17T13:23:37Z</time><name>PT3107</name></trkpt>
<trkpt lat="53.179703" lon="-2.078078"><ele>216</ele><time>2023-03-17T13:23:40Z</time><name>PT3108</name></trkpt>
<trkpt lat="53.179698" lon="-2.078052"><ele>215</ele><time>2023-03-17T13:23:54Z</time><name>PT3109</name></trkpt>
<trkpt lat="53.179698" lon="-2.078052"><ele>216</ele><time>2023-03-17T13:23:58Z</time><name>PT3110</name></trkpt>
<trkpt lat="53.179694" lon="-2.078052"><ele>216</ele><time>2023-03-17T13:24:01Z</time><name>PT3111</name></trkpt>
<trkpt lat="53.179693" lon="-2.078052"><ele>216</ele><time>2023-03-17T13:24:06Z</time><name>PT3112</name></trkpt>
<trkpt lat="53.179695" lon="-2.078048"><ele>216</ele><time>2023-03-17T13:24:24Z</time><name>PT3113</name></trkpt>
<trkpt lat="53.179705" lon="-2.078047"><ele>217</ele><time>2023-03-17T13:24:27Z</time><name>PT3114</name></trkpt>
<trkpt lat="53.179711" lon="-2.078049"><ele>217</ele><time>2023-03-17T13:24:30Z</time><name>PT3115</name></trkpt>
<trkpt lat="53.179713" lon="-2.078072"><ele>216</ele><time>2023-03-17T13:24:39Z</time><name>PT3116</name></trkpt>
<trkpt lat="53.179708" lon="-2.078068"><ele>216</ele><time>2023-03-17T13:24:42Z</time><name>PT3117</name></trkpt>
<trkpt lat="53.179662" lon="-2.078081"><ele>216</ele><time>2023-03-17T13:24:49Z</time><name>PT3118</name></trkpt>
<trkpt lat="53.179622" lon="-2.078085"><ele>217</ele><time>2023-03-17T13:24:54Z</time><name>PT3119</name></trkpt>
<trkpt lat="53.179569" lon="-2.078103"><ele>216</ele><time>2023-03-17T13:24:57Z</time><name>PT3120</name></trkpt>
<trkpt lat="53.179533" lon="-2.078112"><ele>214</ele><time>2023-03-17T13:25:00Z</time><name>PT3121</name></trkpt>
<trkpt lat="53.179497" lon="-2.078146"><ele>214</ele><time>2023-03-17T13:25:04Z</time><name>PT3122</name></trkpt>
<trkpt lat="53.179458" lon="-2.078157"><ele>213</ele><time>2023-03-17T13:25:09Z</time><name>PT3123</name></trkpt>
<trkpt lat="53.179434" lon="-2.078161"><ele>212</ele><time>2023-03-17T13:25:12Z</time><name>PT3124</name></trkpt>
<trkpt lat="53.179392" lon="-2.078192"><ele>211</ele><time>2023-03-17T13:25:15Z</time><name>PT3125</name></trkpt>
<trkpt lat="53.179343" lon="-2.078206"><ele>212</ele><time>2023-03-17T13:25:19Z</time><name>PT3126</name></trkpt>
<trkpt lat="53.179310" lon="-2.078228"><ele>212</ele><time>2023-03-17T13:25:24Z</time><name>PT3127</name></trkpt>
<trkpt lat="53.179265" lon="-2.078229"><ele>211</ele><time>2023-03-17T13:25:27Z</time><name>PT3128</name></trkpt>
<trkpt lat="53.179216" lon="-2.078236"><ele>212</ele><time>2023-03-17T13:25:31Z</time><name>PT3129</name></trkpt>
<trkpt lat="53.179175" lon="-2.078249"><ele>212</ele><time>2023-03-17T13:25:34Z</time><name>PT3130</name></trkpt>
<trkpt lat="53.179130" lon="-2.078269"><ele>212</ele><time>2023-03-17T13:25:39Z</time><name>PT3131</name></trkpt>
<trkpt lat="53.179092" lon="-2.078281"><ele>214</ele><time>2023-03-17T13:25:42Z</time><name>PT3132</name></trkpt>
<trkpt lat="53.179047" lon="-2.078299"><ele>214</ele><time>2023-03-17T13:25:45Z</time><name>PT3133</name></trkpt>
<trkpt lat="53.179014" lon="-2.078316"><ele>214</ele><time>2023-03-17T13:25:48Z</time><name>PT3134</name></trkpt>
<trkpt lat="53.178965" lon="-2.078330"><ele>215</ele><time>2023-03-17T13:25:52Z</time><name>PT3135</name></trkpt>
<trkpt lat="53.178928" lon="-2.078339"><ele>213</ele><time>2023-03-17T13:25:55Z</time><name>PT3136</name></trkpt>
<trkpt lat="53.178890" lon="-2.078356"><ele>214</ele><time>2023-03-17T13:25:59Z</time><name>PT3137</name></trkpt>
<trkpt lat="53.178844" lon="-2.078361"><ele>214</ele><time>2023-03-17T13:26:01Z</time><name>PT3138</name></trkpt>
<trkpt lat="53.178801" lon="-2.078380"><ele>214</ele><time>2023-03-17T13:26:06Z</time><name>PT3139</name></trkpt>
<trkpt lat="53.178768" lon="-2.078398"><ele>214</ele><time>2023-03-17T13:26:09Z</time><name>PT3140</name></trkpt>
<trkpt lat="53.178697" lon="-2.078426"><ele>213</ele><time>2023-03-17T13:26:12Z</time><name>PT3141</name></trkpt>
<trkpt lat="53.178654" lon="-2.078448"><ele>214</ele><time>2023-03-17T13:26:15Z</time><name>PT3142</name></trkpt>
<trkpt lat="53.178603" lon="-2.078481"><ele>214</ele><time>2023-03-17T13:26:19Z</time><name>PT3143</name></trkpt>
<trkpt lat="53.178569" lon="-2.078500"><ele>214</ele><time>2023-03-17T13:26:24Z</time><name>PT3144</name></trkpt>
<trkpt lat="53.178537" lon="-2.078519"><ele>215</ele><time>2023-03-17T13:26:27Z</time><name>PT3145</name></trkpt>
<trkpt lat="53.178512" lon="-2.078566"><ele>216</ele><time>2023-03-17T13:26:30Z</time><name>PT3146</name></trkpt>
<trkpt lat="53.178489" lon="-2.078624"><ele>216</ele><time>2023-03-17T13:26:34Z</time><name>PT3147</name></trkpt>
<trkpt lat="53.178466" lon="-2.078660"><ele>216</ele><time>2023-03-17T13:26:37Z</time><name>PT3148</name></trkpt>
<trkpt lat="53.178445" lon="-2.078702"><ele>217</ele><time>2023-03-17T13:26:40Z</time><name>PT3149</name></trkpt>
<trkpt lat="53.178414" lon="-2.078753"><ele>216</ele><time>2023-03-17T13:26:45Z</time><name>PT3150</name></trkpt>
<trkpt lat="53.178395" lon="-2.078797"><ele>217</ele><time>2023-03-17T13:26:48Z</time><name>PT3151</name></trkpt>
<trkpt lat="53.178368" lon="-2.078824"><ele>216</ele><time>2023-03-17T13:26:51Z</time><name>PT3152</name></trkpt>
<trkpt lat="53.178337" lon="-2.078861"><ele>214</ele><time>2023-03-17T13:26:54Z</time><name>PT3153</name></trkpt>
<trkpt lat="53.178302" lon="-2.078922"><ele>216</ele><time>2023-03-17T13:26:57Z</time><name>PT3154</name></trkpt>
<trkpt lat="53.178264" lon="-2.078968"><ele>216</ele><time>2023-03-17T13:27:01Z</time><name>PT3155</name></trkpt>
<trkpt lat="53.178231" lon="-2.078998"><ele>216</ele><time>2023-03-17T13:27:04Z</time><name>PT3156</name></trkpt>
<trkpt lat="53.178193" lon="-2.079045"><ele>217</ele><time>2023-03-17T13:27:09Z</time><name>PT3157</name></trkpt>
<trkpt lat="53.178162" lon="-2.079073"><ele>217</ele><time>2023-03-17T13:27:12Z</time><name>PT3158</name></trkpt>
<trkpt lat="53.178133" lon="-2.079113"><ele>217</ele><time>2023-03-17T13:27:15Z</time><name>PT3159</name></trkpt>
<trkpt lat="53.178099" lon="-2.079146"><ele>216</ele><time>2023-03-17T13:27:18Z</time><name>PT3160</name></trkpt>
<trkpt lat="53.178055" lon="-2.079174"><ele>216</ele><time>2023-03-17T13:27:21Z</time><name>PT3161</name></trkpt>
<trkpt lat="53.178012" lon="-2.079193"><ele>216</ele><time>2023-03-17T13:27:25Z</time><name>PT3162</name></trkpt>
<trkpt lat="53.177972" lon="-2.079208"><ele>214</ele><time>2023-03-17T13:27:30Z</time><name>PT3163</name></trkpt>
<trkpt lat="53.177939" lon="-2.079236"><ele>215</ele><time>2023-03-17T13:27:33Z</time><name>PT3164</name></trkpt>
<trkpt lat="53.177910" lon="-2.079239"><ele>215</ele><time>2023-03-17T13:27:36Z</time><name>PT3165</name></trkpt>
<trkpt lat="53.177873" lon="-2.079259"><ele>216</ele><time>2023-03-17T13:27:40Z</time><name>PT3166</name></trkpt>
<trkpt lat="53.177826" lon="-2.079263"><ele>213</ele><time>2023-03-17T13:27:45Z</time><name>PT3167</name></trkpt>
<trkpt lat="53.177786" lon="-2.079293"><ele>214</ele><time>2023-03-17T13:27:48Z</time><name>PT3168</name></trkpt>
<trkpt lat="53.177739" lon="-2.079312"><ele>213</ele><time>2023-03-17T13:27:52Z</time><name>PT3169</name></trkpt>
<trkpt lat="53.177702" lon="-2.079338"><ele>212</ele><time>2023-03-17T13:27:55Z</time><name>PT3170</name></trkpt>
<trkpt lat="53.177645" lon="-2.079377"><ele>213</ele><time>2023-03-17T13:28:00Z</time><name>PT3171</name></trkpt>
<trkpt lat="53.177599" lon="-2.079415"><ele>214</ele><time>2023-03-17T13:28:03Z</time><name>PT3172</name></trkpt>
<trkpt lat="53.177553" lon="-2.079446"><ele>214</ele><time>2023-03-17T13:28:07Z</time><name>PT3173</name></trkpt>
<trkpt lat="53.177504" lon="-2.079491"><ele>214</ele><time>2023-03-17T13:28:12Z</time><name>PT3174</name></trkpt>
<trkpt lat="53.177460" lon="-2.079532"><ele>214</ele><time>2023-03-17T13:28:15Z</time><name>PT3175</name></trkpt>
<trkpt lat="53.177409" lon="-2.079572"><ele>213</ele><time>2023-03-17T13:28:19Z</time><name>PT3176</name></trkpt>
<trkpt lat="53.177368" lon="-2.079605"><ele>213</ele><time>2023-03-17T13:28:22Z</time><name>PT3177</name></trkpt>
<trkpt lat="53.177321" lon="-2.079629"><ele>212</ele><time>2023-03-17T13:28:27Z</time><name>PT3178</name></trkpt>
<trkpt lat="53.177282" lon="-2.079670"><ele>212</ele><time>2023-03-17T13:28:30Z</time><name>PT3179</name></trkpt>
<trkpt lat="53.177233" lon="-2.079693"><ele>211</ele><time>2023-03-17T13:28:34Z</time><name>PT3180</name></trkpt>
<trkpt lat="53.177202" lon="-2.079708"><ele>210</ele><time>2023-03-17T13:28:37Z</time><name>PT3181</name></trkpt>
<trkpt lat="53.177163" lon="-2.079718"><ele>210</ele><time>2023-03-17T13:28:42Z</time><name>PT3182</name></trkpt>
<trkpt lat="53.177132" lon="-2.079727"><ele>210</ele><time>2023-03-17T13:28:45Z</time><name>PT3183</name></trkpt>
<trkpt lat="53.177089" lon="-2.079752"><ele>209</ele><time>2023-03-17T13:28:48Z</time><name>PT3184</name></trkpt>
<trkpt lat="53.177043" lon="-2.079789"><ele>210</ele><time>2023-03-17T13:28:52Z</time><name>PT3185</name></trkpt>
<trkpt lat="53.177009" lon="-2.079816"><ele>209</ele><time>2023-03-17T13:28:55Z</time><name>PT3186</name></trkpt>
<trkpt lat="53.176975" lon="-2.079844"><ele>209</ele><time>2023-03-17T13:28:58Z</time><name>PT3187</name></trkpt>
<trkpt lat="53.176944" lon="-2.079861"><ele>208</ele><time>2023-03-17T13:29:03Z</time><name>PT3188</name></trkpt>
<trkpt lat="53.176923" lon="-2.079876"><ele>209</ele><time>2023-03-17T13:29:06Z</time><name>PT3189</name></trkpt>
<trkpt lat="53.176913" lon="-2.079871"><ele>208</ele><time>2023-03-17T13:29:09Z</time><name>PT3190</name></trkpt>
<trkpt lat="53.176895" lon="-2.079876"><ele>206</ele><time>2023-03-17T13:29:13Z</time><name>PT3191</name></trkpt>
<trkpt lat="53.176871" lon="-2.079891"><ele>206</ele><time>2023-03-17T13:29:16Z</time><name>PT3192</name></trkpt>
<trkpt lat="53.176850" lon="-2.079904"><ele>206</ele><time>2023-03-17T13:29:19Z</time><name>PT3193</name></trkpt>
<trkpt lat="53.176813" lon="-2.079916"><ele>204</ele><time>2023-03-17T13:29:24Z</time><name>PT3194</name></trkpt>
<trkpt lat="53.176776" lon="-2.079924"><ele>204</ele><time>2023-03-17T13:29:27Z</time><name>PT3195</name></trkpt>
<trkpt lat="53.176767" lon="-2.079935"><ele>204</ele><time>2023-03-17T13:29:31Z</time><name>PT3196</name></trkpt>
<trkpt lat="53.176763" lon="-2.079944"><ele>203</ele><time>2023-03-17T13:29:36Z</time><name>PT3197</name></trkpt>
<trkpt lat="53.176714" lon="-2.079968"><ele>201</ele><time>2023-03-17T13:29:39Z</time><name>PT3198</name></trkpt>
<trkpt lat="53.176668" lon="-2.080007"><ele>201</ele><time>2023-03-17T13:29:42Z</time><name>PT3199</name></trkpt>
<trkpt lat="53.176613" lon="-2.080019"><ele>201</ele><time>2023-03-17T13:29:46Z</time><name>PT3200</name></trkpt>
<trkpt lat="53.176568" lon="-2.080034"><ele>202</ele><time>2023-03-17T13:29:49Z</time><name>PT3201</name></trkpt>
<trkpt lat="53.176524" lon="-2.080044"><ele>201</ele><time>2023-03-17T13:29:52Z</time><name>PT3202</name></trkpt>
<trkpt lat="53.176472" lon="-2.080053"><ele>201</ele><time>2023-03-17T13:29:57Z</time><name>PT3203</name></trkpt>
<trkpt lat="53.176444" lon="-2.080058"><ele>201</ele><time>2023-03-17T13:30:00Z</time><name>PT3204</name></trkpt>
<trkpt lat="53.176412" lon="-2.080059"><ele>200</ele><time>2023-03-17T13:30:03Z</time><name>PT3205</name></trkpt>
<trkpt lat="53.176376" lon="-2.080087"><ele>199</ele><time>2023-03-17T13:30:06Z</time><name>PT3206</name></trkpt>
<trkpt lat="53.176355" lon="-2.080117"><ele>198</ele><time>2023-03-17T13:30:10Z</time><name>PT3207</name></trkpt>
<trkpt lat="53.176326" lon="-2.080141"><ele>197</ele><time>2023-03-17T13:30:13Z</time><name>PT3208</name></trkpt>
<trkpt lat="53.176286" lon="-2.080176"><ele>197</ele><time>2023-03-17T13:30:18Z</time><name>PT3209</name></trkpt>
<trkpt lat="53.176257" lon="-2.080214"><ele>197</ele><time>2023-03-17T13:30:21Z</time><name>PT3210</name></trkpt>
<trkpt lat="53.176228" lon="-2.080241"><ele>196</ele><time>2023-03-17T13:30:24Z</time><name>PT3211</name></trkpt>
<trkpt lat="53.176203" lon="-2.080292"><ele>197</ele><time>2023-03-17T13:30:27Z</time><name>PT3212</name></trkpt>
<trkpt lat="53.176177" lon="-2.080344"><ele>197</ele><time>2023-03-17T13:30:30Z</time><name>PT3213</name></trkpt>
<trkpt lat="53.176150" lon="-2.080418"><ele>196</ele><time>2023-03-17T13:30:34Z</time><name>PT3214</name></trkpt>
<trkpt lat="53.176122" lon="-2.080461"><ele>194</ele><time>2023-03-17T13:30:37Z</time><name>PT3215</name></trkpt>
<trkpt lat="53.176096" lon="-2.080537"><ele>195</ele><time>2023-03-17T13:30:42Z</time><name>PT3216</name></trkpt>
<trkpt lat="53.176066" lon="-2.080587"><ele>195</ele><time>2023-03-17T13:30:45Z</time><name>PT3217</name></trkpt>
<trkpt lat="53.176033" lon="-2.080664"><ele>196</ele><time>2023-03-17T13:30:48Z</time><name>PT3218</name></trkpt>
<trkpt lat="53.176005" lon="-2.080715"><ele>196</ele><time>2023-03-17T13:30:51Z</time><name>PT3219</name></trkpt>
<trkpt lat="53.175970" lon="-2.080754"><ele>195</ele><time>2023-03-17T13:30:54Z</time><name>PT3220</name></trkpt>
<trkpt lat="53.175933" lon="-2.080810"><ele>196</ele><time>2023-03-17T13:30:58Z</time><name>PT3221</name></trkpt>
<trkpt lat="53.175905" lon="-2.080845"><ele>197</ele><time>2023-03-17T13:31:01Z</time><name>PT3222</name></trkpt>
<trkpt lat="53.175870" lon="-2.080887"><ele>198</ele><time>2023-03-17T13:31:04Z</time><name>PT3223</name></trkpt>
<trkpt lat="53.175838" lon="-2.080932"><ele>199</ele><time>2023-03-17T13:31:09Z</time><name>PT3224</name></trkpt>
<trkpt lat="53.175818" lon="-2.080942"><ele>200</ele><time>2023-03-17T13:31:12Z</time><name>PT3225</name></trkpt>
<trkpt lat="53.175774" lon="-2.080998"><ele>200</ele><time>2023-03-17T13:31:15Z</time><name>PT3226</name></trkpt>
<trkpt lat="53.175742" lon="-2.081038"><ele>201</ele><time>2023-03-17T13:31:18Z</time><name>PT3227</name></trkpt>
<trkpt lat="53.175709" lon="-2.081075"><ele>202</ele><time>2023-03-17T13:31:22Z</time><name>PT3228</name></trkpt>
<trkpt lat="53.175683" lon="-2.081126"><ele>201</ele><time>2023-03-17T13:31:27Z</time><name>PT3229</name></trkpt>
<trkpt lat="53.175671" lon="-2.081168"><ele>201</ele><time>2023-03-17T13:31:30Z</time><name>PT3230</name></trkpt>
<trkpt lat="53.175655" lon="-2.081223"><ele>201</ele><time>2023-03-17T13:31:33Z</time><name>PT3231</name></trkpt>
<trkpt lat="53.175653" lon="-2.081270"><ele>200</ele><time>2023-03-17T13:31:37Z</time><name>PT3232</name></trkpt>
<trkpt lat="53.175646" lon="-2.081300"><ele>199</ele><time>2023-03-17T13:31:40Z</time><name>PT3233</name></trkpt>
<trkpt lat="53.175624" lon="-2.081351"><ele>197</ele><time>2023-03-17T13:31:45Z</time><name>PT3234</name></trkpt>
<trkpt lat="53.175602" lon="-2.081403"><ele>195</ele><time>2023-03-17T13:31:48Z</time><name>PT3235</name></trkpt>
<trkpt lat="53.175584" lon="-2.081473"><ele>193</ele><time>2023-03-17T13:31:52Z</time><name>PT3236</name></trkpt>
<trkpt lat="53.175568" lon="-2.081519"><ele>193</ele><time>2023-03-17T13:31:55Z</time><name>PT3237</name></trkpt>
<trkpt lat="53.175544" lon="-2.081581"><ele>191</ele><time>2023-03-17T13:32:00Z</time><name>PT3238</name></trkpt>
<trkpt lat="53.175530" lon="-2.081645"><ele>190</ele><time>2023-03-17T13:32:03Z</time><name>PT3239</name></trkpt>
<trkpt lat="53.175499" lon="-2.081733"><ele>191</ele><time>2023-03-17T13:32:06Z</time><name>PT3240</name></trkpt>
<trkpt lat="53.175485" lon="-2.081787"><ele>190</ele><time>2023-03-17T13:32:09Z</time><name>PT3241</name></trkpt>
<trkpt lat="53.175467" lon="-2.081843"><ele>188</ele><time>2023-03-17T13:32:13Z</time><name>PT3242</name></trkpt>
<trkpt lat="53.175439" lon="-2.081908"><ele>188</ele><time>2023-03-17T13:32:18Z</time><name>PT3243</name></trkpt>
<trkpt lat="53.175420" lon="-2.081960"><ele>187</ele><time>2023-03-17T13:32:21Z</time><name>PT3244</name></trkpt>
<trkpt lat="53.175402" lon="-2.082028"><ele>186</ele><time>2023-03-17T13:32:24Z</time><name>PT3245</name></trkpt>
<trkpt lat="53.175383" lon="-2.082094"><ele>184</ele><time>2023-03-17T13:32:28Z</time><name>PT3246</name></trkpt>
<trkpt lat="53.175370" lon="-2.082143"><ele>184</ele><time>2023-03-17T13:32:31Z</time><name>PT3247</name></trkpt>
<trkpt lat="53.175353" lon="-2.082178"><ele>184</ele><time>2023-03-17T13:32:34Z</time><name>PT3248</name></trkpt>
<trkpt lat="53.175341" lon="-2.082221"><ele>184</ele><time>2023-03-17T13:32:38Z</time><name>PT3249</name></trkpt>
<trkpt lat="53.175310" lon="-2.082311"><ele>184</ele><time>2023-03-17T13:32:42Z</time><name>PT3250</name></trkpt>
<trkpt lat="53.175281" lon="-2.082360"><ele>184</ele><time>2023-03-17T13:32:45Z</time><name>PT3251</name></trkpt>
<trkpt lat="53.175254" lon="-2.082421"><ele>184</ele><time>2023-03-17T13:32:48Z</time><name>PT3252</name></trkpt>
<trkpt lat="53.175224" lon="-2.082471"><ele>185</ele><time>2023-03-17T13:32:52Z</time><name>PT3253</name></trkpt>
<trkpt lat="53.175196" lon="-2.082510"><ele>185</ele><time>2023-03-17T13:32:55Z</time><name>PT3254</name></trkpt>
<trkpt lat="53.175166" lon="-2.082558"><ele>185</ele><time>2023-03-17T13:33:00Z</time><name>PT3255</name></trkpt>
<trkpt lat="53.175141" lon="-2.082562"><ele>185</ele><time>2023-03-17T13:33:03Z</time><name>PT3256</name></trkpt>
<trkpt lat="53.175110" lon="-2.082602"><ele>186</ele><time>2023-03-17T13:33:06Z</time><name>PT3257</name></trkpt>
<trkpt lat="53.175095" lon="-2.082627"><ele>184</ele><time>2023-03-17T13:33:09Z</time><name>PT3258</name></trkpt>
<trkpt lat="53.175077" lon="-2.082680"><ele>183</ele><time>2023-03-17T13:33:13Z</time><name>PT3259</name></trkpt>
<trkpt lat="53.175058" lon="-2.082721"><ele>184</ele><time>2023-03-17T13:33:16Z</time><name>PT3260</name></trkpt>
<trkpt lat="53.175041" lon="-2.082756"><ele>183</ele><time>2023-03-17T13:33:19Z</time><name>PT3261</name></trkpt>
<trkpt lat="53.175015" lon="-2.082796"><ele>183</ele><time>2023-03-17T13:33:22Z</time><name>PT3262</name></trkpt>
<trkpt lat="53.174992" lon="-2.082848"><ele>185</ele><time>2023-03-17T13:33:27Z</time><name>PT3263</name></trkpt>
<trkpt lat="53.174960" lon="-2.082879"><ele>181</ele><time>2023-03-17T13:33:30Z</time><name>PT3264</name></trkpt>
<trkpt lat="53.174930" lon="-2.082913"><ele>181</ele><time>2023-03-17T13:33:33Z</time><name>PT3265</name></trkpt>
<trkpt lat="53.174894" lon="-2.082958"><ele>181</ele><time>2023-03-17T13:33:37Z</time><name>PT3266</name></trkpt>
<trkpt lat="53.174849" lon="-2.082989"><ele>181</ele><time>2023-03-17T13:33:42Z</time><name>PT3267</name></trkpt>
<trkpt lat="53.174821" lon="-2.083015"><ele>181</ele><time>2023-03-17T13:33:45Z</time><name>PT3268</name></trkpt>
<trkpt lat="53.174786" lon="-2.083014"><ele>178</ele><time>2023-03-17T13:33:48Z</time><name>PT3269</name></trkpt>
<trkpt lat="53.174740" lon="-2.083020"><ele>179</ele><time>2023-03-17T13:33:51Z</time><name>PT3270</name></trkpt>
<trkpt lat="53.174702" lon="-2.083023"><ele>180</ele><time>2023-03-17T13:33:55Z</time><name>PT3271</name></trkpt>
<trkpt lat="53.174668" lon="-2.083029"><ele>180</ele><time>2023-03-17T13:33:58Z</time><name>PT3272</name></trkpt>
<trkpt lat="53.174630" lon="-2.083039"><ele>180</ele><time>2023-03-17T13:34:03Z</time><name>PT3273</name></trkpt>
<trkpt lat="53.174608" lon="-2.083060"><ele>180</ele><time>2023-03-17T13:34:06Z</time><name>PT3274</name></trkpt>
<trkpt lat="53.174571" lon="-2.083078"><ele>180</ele><time>2023-03-17T13:34:09Z</time><name>PT3275</name></trkpt>
<trkpt lat="53.174550" lon="-2.083082"><ele>179</ele><time>2023-03-17T13:34:12Z</time><name>PT3276</name></trkpt>
<trkpt lat="53.174531" lon="-2.083124"><ele>179</ele><time>2023-03-17T13:34:16Z</time><name>PT3277</name></trkpt>
<trkpt lat="53.174522" lon="-2.083187"><ele>179</ele><time>2023-03-17T13:34:21Z</time><name>PT3278</name></trkpt>
<trkpt lat="53.174495" lon="-2.083242"><ele>179</ele><time>2023-03-17T13:34:24Z</time><name>PT3279</name></trkpt>
<trkpt lat="53.174467" lon="-2.083286"><ele>180</ele><time>2023-03-17T13:34:27Z</time><name>PT3280</name></trkpt>
<trkpt lat="53.174433" lon="-2.083332"><ele>180</ele><time>2023-03-17T13:34:31Z</time><name>PT3281</name></trkpt>
<trkpt lat="53.174397" lon="-2.083373"><ele>181</ele><time>2023-03-17T13:34:36Z</time><name>PT3282</name></trkpt>
<trkpt lat="53.174373" lon="-2.083402"><ele>181</ele><time>2023-03-17T13:34:39Z</time><name>PT3283</name></trkpt>
<trkpt lat="53.174340" lon="-2.083445"><ele>181</ele><time>2023-03-17T13:34:42Z</time><name>PT3284</name></trkpt>
<trkpt lat="53.174303" lon="-2.083488"><ele>182</ele><time>2023-03-17T13:34:46Z</time><name>PT3285</name></trkpt>
<trkpt lat="53.174283" lon="-2.083523"><ele>183</ele><time>2023-03-17T13:34:49Z</time><name>PT3286</name></trkpt>
<trkpt lat="53.174250" lon="-2.083560"><ele>183</ele><time>2023-03-17T13:34:52Z</time><name>PT3287</name></trkpt>
<trkpt lat="53.174228" lon="-2.083584"><ele>182</ele><time>2023-03-17T13:34:56Z</time><name>PT3288</name></trkpt>
<trkpt lat="53.174197" lon="-2.083615"><ele>182</ele><time>2023-03-17T13:35:00Z</time><name>PT3289</name></trkpt>
<trkpt lat="53.174175" lon="-2.083652"><ele>182</ele><time>2023-03-17T13:35:03Z</time><name>PT3290</name></trkpt>
<trkpt lat="53.174147" lon="-2.083711"><ele>183</ele><time>2023-03-17T13:35:06Z</time><name>PT3291</name></trkpt>
<trkpt lat="53.174121" lon="-2.083746"><ele>184</ele><time>2023-03-17T13:35:09Z</time><name>PT3292</name></trkpt>
<trkpt lat="53.174087" lon="-2.083776"><ele>184</ele><time>2023-03-17T13:35:13Z</time><name>PT3293</name></trkpt>
<trkpt lat="53.174057" lon="-2.083793"><ele>185</ele><time>2023-03-17T13:35:16Z</time><name>PT3294</name></trkpt>
<trkpt lat="53.174027" lon="-2.083829"><ele>186</ele><time>2023-03-17T13:35:21Z</time><name>PT3295</name></trkpt>
<trkpt lat="53.173997" lon="-2.083858"><ele>186</ele><time>2023-03-17T13:35:24Z</time><name>PT3296</name></trkpt>
<trkpt lat="53.173968" lon="-2.083886"><ele>186</ele><time>2023-03-17T13:35:27Z</time><name>PT3297</name></trkpt>
<trkpt lat="53.173938" lon="-2.083915"><ele>187</ele><time>2023-03-17T13:35:30Z</time><name>PT3298</name></trkpt>
<trkpt lat="53.173900" lon="-2.083970"><ele>187</ele><time>2023-03-17T13:35:33Z</time><name>PT3299</name></trkpt>
<trkpt lat="53.173866" lon="-2.084019"><ele>188</ele><time>2023-03-17T13:35:37Z</time><name>PT3300</name></trkpt>
<trkpt lat="53.173841" lon="-2.084044"><ele>189</ele><time>2023-03-17T13:35:40Z</time><name>PT3301</name></trkpt>
<trkpt lat="53.173803" lon="-2.084079"><ele>189</ele><time>2023-03-17T13:35:45Z</time><name>PT3302</name></trkpt>
<trkpt lat="53.173767" lon="-2.084117"><ele>190</ele><time>2023-03-17T13:35:48Z</time><name>PT3303</name></trkpt>
<trkpt lat="53.173742" lon="-2.084145"><ele>190</ele><time>2023-03-17T13:35:51Z</time><name>PT3304</name></trkpt>
<trkpt lat="53.173707" lon="-2.084177"><ele>189</ele><time>2023-03-17T13:35:55Z</time><name>PT3305</name></trkpt>
<trkpt lat="53.173682" lon="-2.084211"><ele>189</ele><time>2023-03-17T13:35:58Z</time><name>PT3306</name></trkpt>
<trkpt lat="53.173661" lon="-2.084255"><ele>190</ele><time>2023-03-17T13:36:01Z</time><name>PT3307</name></trkpt>
<trkpt lat="53.173626" lon="-2.084306"><ele>190</ele><time>2023-03-17T13:36:06Z</time><name>PT3308</name></trkpt>
<trkpt lat="53.173598" lon="-2.084360"><ele>190</ele><time>2023-03-17T13:36:09Z</time><name>PT3309</name></trkpt>
<trkpt lat="53.173565" lon="-2.084413"><ele>191</ele><time>2023-03-17T13:36:13Z</time><name>PT3310</name></trkpt>
<trkpt lat="53.173525" lon="-2.084452"><ele>190</ele><time>2023-03-17T13:36:18Z</time><name>PT3311</name></trkpt>
<trkpt lat="53.173496" lon="-2.084481"><ele>190</ele><time>2023-03-17T13:36:21Z</time><name>PT3312</name></trkpt>
<trkpt lat="53.173455" lon="-2.084529"><ele>190</ele><time>2023-03-17T13:36:24Z</time><name>PT3313</name></trkpt>
<trkpt lat="53.173414" lon="-2.084577"><ele>190</ele><time>2023-03-17T13:36:28Z</time><name>PT3314</name></trkpt>
<trkpt lat="53.173390" lon="-2.084604"><ele>189</ele><time>2023-03-17T13:36:31Z</time><name>PT3315</name></trkpt>
<trkpt lat="53.173344" lon="-2.084630"><ele>187</ele><time>2023-03-17T13:36:36Z</time><name>PT3316</name></trkpt>
<trkpt lat="53.173301" lon="-2.084674"><ele>188</ele><time>2023-03-17T13:36:39Z</time><name>PT3317</name></trkpt>
<trkpt lat="53.173266" lon="-2.084711"><ele>188</ele><time>2023-03-17T13:36:43Z</time><name>PT3318</name></trkpt>
<trkpt lat="53.173231" lon="-2.084728"><ele>188</ele><time>2023-03-17T13:36:46Z</time><name>PT3319</name></trkpt>
<trkpt lat="53.173198" lon="-2.084742"><ele>188</ele><time>2023-03-17T13:36:49Z</time><name>PT3320</name></trkpt>
<trkpt lat="53.173152" lon="-2.084774"><ele>189</ele><time>2023-03-17T13:36:54Z</time><name>PT3321</name></trkpt>
<trkpt lat="53.173115" lon="-2.084791"><ele>190</ele><time>2023-03-17T13:36:57Z</time><name>PT3322</name></trkpt>
<trkpt lat="53.173063" lon="-2.084802"><ele>190</ele><time>2023-03-17T13:37:00Z</time><name>PT3323</name></trkpt>
<trkpt lat="53.173024" lon="-2.084811"><ele>190</ele><time>2023-03-17T13:37:03Z</time><name>PT3324</name></trkpt>
<trkpt lat="53.172984" lon="-2.084844"><ele>189</ele><time>2023-03-17T13:37:07Z</time><name>PT3325</name></trkpt>
<trkpt lat="53.172950" lon="-2.084872"><ele>189</ele><time>2023-03-17T13:37:10Z</time><name>PT3326</name></trkpt>
<trkpt lat="53.172899" lon="-2.084898"><ele>189</ele><time>2023-03-17T13:37:15Z</time><name>PT3327</name></trkpt>
<trkpt lat="53.172856" lon="-2.084924"><ele>188</ele><time>2023-03-17T13:37:18Z</time><name>PT3328</name></trkpt>
<trkpt lat="53.172806" lon="-2.084939"><ele>188</ele><time>2023-03-17T13:37:22Z</time><name>PT3329</name></trkpt>
<trkpt lat="53.172768" lon="-2.084959"><ele>188</ele><time>2023-03-17T13:37:27Z</time><name>PT3330</name></trkpt>
<trkpt lat="53.172719" lon="-2.085000"><ele>188</ele><time>2023-03-17T13:37:30Z</time><name>PT3331</name></trkpt>
<trkpt lat="53.172686" lon="-2.085031"><ele>188</ele><time>2023-03-17T13:37:34Z</time><name>PT3332</name></trkpt>
<trkpt lat="53.172659" lon="-2.085078"><ele>187</ele><time>2023-03-17T13:37:39Z</time><name>PT3333</name></trkpt>
<trkpt lat="53.172636" lon="-2.085109"><ele>187</ele><time>2023-03-17T13:37:42Z</time><name>PT3334</name></trkpt>
<trkpt lat="53.172586" lon="-2.085145"><ele>187</ele><time>2023-03-17T13:37:45Z</time><name>PT3335</name></trkpt>
<trkpt lat="53.172547" lon="-2.085186"><ele>186</ele><time>2023-03-17T13:37:49Z</time><name>PT3336</name></trkpt>
<trkpt lat="53.172517" lon="-2.085228"><ele>186</ele><time>2023-03-17T13:37:52Z</time><name>PT3337</name></trkpt>
<trkpt lat="53.172479" lon="-2.085262"><ele>185</ele><time>2023-03-17T13:37:57Z</time><name>PT3338</name></trkpt>
<trkpt lat="53.172451" lon="-2.085288"><ele>185</ele><time>2023-03-17T13:38:00Z</time><name>PT3339</name></trkpt>
<trkpt lat="53.172414" lon="-2.085335"><ele>184</ele><time>2023-03-17T13:38:03Z</time><name>PT3340</name></trkpt>
<trkpt lat="53.172380" lon="-2.085378"><ele>184</ele><time>2023-03-17T13:38:07Z</time><name>PT3341</name></trkpt>
<trkpt lat="53.172348" lon="-2.085415"><ele>184</ele><time>2023-03-17T13:38:10Z</time><name>PT3342</name></trkpt>
<trkpt lat="53.172311" lon="-2.085475"><ele>183</ele><time>2023-03-17T13:38:15Z</time><name>PT3343</name></trkpt>
<trkpt lat="53.172287" lon="-2.085515"><ele>182</ele><time>2023-03-17T13:38:18Z</time><name>PT3344</name></trkpt>
<trkpt lat="53.172254" lon="-2.085562"><ele>181</ele><time>2023-03-17T13:38:21Z</time><name>PT3345</name></trkpt>
<trkpt lat="53.172230" lon="-2.085590"><ele>180</ele><time>2023-03-17T13:38:24Z</time><name>PT3346</name></trkpt>
<trkpt lat="53.172195" lon="-2.085628"><ele>179</ele><time>2023-03-17T13:38:28Z</time><name>PT3347</name></trkpt>
<trkpt lat="53.172181" lon="-2.085665"><ele>178</ele><time>2023-03-17T13:38:31Z</time><name>PT3348</name></trkpt>
<trkpt lat="53.172159" lon="-2.085713"><ele>177</ele><time>2023-03-17T13:38:34Z</time><name>PT3349</name></trkpt>
<trkpt lat="53.172138" lon="-2.085752"><ele>177</ele><time>2023-03-17T13:38:37Z</time><name>PT3350</name></trkpt>
<trkpt lat="53.172100" lon="-2.085803"><ele>175</ele><time>2023-03-17T13:38:42Z</time><name>PT3351</name></trkpt>
<trkpt lat="53.172071" lon="-2.085863"><ele>175</ele><time>2023-03-17T13:38:45Z</time><name>PT3352</name></trkpt>
<trkpt lat="53.172040" lon="-2.085919"><ele>174</ele><time>2023-03-17T13:38:48Z</time><name>PT3353</name></trkpt>
<trkpt lat="53.172005" lon="-2.085965"><ele>172</ele><time>2023-03-17T13:38:52Z</time><name>PT3354</name></trkpt>
<trkpt lat="53.171967" lon="-2.086015"><ele>173</ele><time>2023-03-17T13:38:55Z</time><name>PT3355</name></trkpt>
<trkpt lat="53.171942" lon="-2.086062"><ele>173</ele><time>2023-03-17T13:38:58Z</time><name>PT3356</name></trkpt>
<trkpt lat="53.171907" lon="-2.086129"><ele>172</ele><time>2023-03-17T13:39:03Z</time><name>PT3357</name></trkpt>
<trkpt lat="53.171863" lon="-2.086180"><ele>172</ele><time>2023-03-17T13:39:06Z</time><name>PT3358</name></trkpt>
<trkpt lat="53.171829" lon="-2.086234"><ele>172</ele><time>2023-03-17T13:39:09Z</time><name>PT3359</name></trkpt>
<trkpt lat="53.171792" lon="-2.086295"><ele>173</ele><time>2023-03-17T13:39:13Z</time><name>PT3360</name></trkpt>
<trkpt lat="53.171762" lon="-2.086331"><ele>172</ele><time>2023-03-17T13:39:16Z</time><name>PT3361</name></trkpt>
<trkpt lat="53.171727" lon="-2.086388"><ele>172</ele><time>2023-03-17T13:39:21Z</time><name>PT3362</name></trkpt>
<trkpt lat="53.171687" lon="-2.086437"><ele>172</ele><time>2023-03-17T13:39:24Z</time><name>PT3363</name></trkpt>
<trkpt lat="53.171655" lon="-2.086482"><ele>172</ele><time>2023-03-17T13:39:28Z</time><name>PT3364</name></trkpt>
<trkpt lat="53.171612" lon="-2.086526"><ele>171</ele><time>2023-03-17T13:39:33Z</time><name>PT3365</name></trkpt>
<trkpt lat="53.171579" lon="-2.086561"><ele>172</ele><time>2023-03-17T13:39:36Z</time><name>PT3366</name></trkpt>
<trkpt lat="53.171552" lon="-2.086583"><ele>171</ele><time>2023-03-17T13:39:39Z</time><name>PT3367</name></trkpt>
<trkpt lat="53.171529" lon="-2.086603"><ele>172</ele><time>2023-03-17T13:39:42Z</time><name>PT3368</name></trkpt>
<trkpt lat="53.171495" lon="-2.086606"><ele>171</ele><time>2023-03-17T13:39:45Z</time><name>PT3369</name></trkpt>
<trkpt lat="53.171474" lon="-2.086623"><ele>171</ele><time>2023-03-17T13:39:48Z</time><name>PT3370</name></trkpt>
<trkpt lat="53.171442" lon="-2.086645"><ele>170</ele><time>2023-03-17T13:39:52Z</time><name>PT3371</name></trkpt>
<trkpt lat="53.171419" lon="-2.086671"><ele>168</ele><time>2023-03-17T13:39:55Z</time><name>PT3372</name></trkpt>
<trkpt lat="53.171393" lon="-2.086674"><ele>164</ele><time>2023-03-17T13:40:00Z</time><name>PT3373</name></trkpt>
<trkpt lat="53.171373" lon="-2.086668"><ele>162</ele><time>2023-03-17T13:40:03Z</time><name>PT3374</name></trkpt>
<trkpt lat="53.171343" lon="-2.086650"><ele>161</ele><time>2023-03-17T13:40:06Z</time><name>PT3375</name></trkpt>
<trkpt lat="53.171312" lon="-2.086617"><ele>161</ele><time>2023-03-17T13:40:09Z</time><name>PT3376</name></trkpt>
<trkpt lat="53.171279" lon="-2.086590"><ele>160</ele><time>2023-03-17T13:40:13Z</time><name>PT3377</name></trkpt>
<trkpt lat="53.171245" lon="-2.086551"><ele>161</ele><time>2023-03-17T13:40:18Z</time><name>PT3378</name></trkpt>
<trkpt lat="53.171210" lon="-2.086520"><ele>160</ele><time>2023-03-17T13:40:21Z</time><name>PT3379</name></trkpt>
<trkpt lat="53.171177" lon="-2.086512"><ele>159</ele><time>2023-03-17T13:40:25Z</time><name>PT3380</name></trkpt>
<trkpt lat="53.171147" lon="-2.086499"><ele>158</ele><time>2023-03-17T13:40:28Z</time><name>PT3381</name></trkpt>
<trkpt lat="53.171117" lon="-2.086492"><ele>157</ele><time>2023-03-17T13:40:31Z</time><name>PT3382</name></trkpt>
<trkpt lat="53.171094" lon="-2.086473"><ele>158</ele><time>2023-03-17T13:40:36Z</time><name>PT3383</name></trkpt>
<trkpt lat="53.171090" lon="-2.086469"><ele>158</ele><time>2023-03-17T13:40:39Z</time><name>PT3384</name></trkpt>
<trkpt lat="53.171082" lon="-2.086471"><ele>157</ele><time>2023-03-17T13:40:42Z</time><name>PT3385</name></trkpt>
<trkpt lat="53.171054" lon="-2.086425"><ele>158</ele><time>2023-03-17T13:40:45Z</time><name>PT3386</name></trkpt>
<trkpt lat="53.171015" lon="-2.086365"><ele>157</ele><time>2023-03-17T13:40:48Z</time><name>PT3387</name></trkpt>
<trkpt lat="53.170988" lon="-2.086321"><ele>156</ele><time>2023-03-17T13:40:51Z</time><name>PT3388</name></trkpt>
<trkpt lat="53.170961" lon="-2.086285"><ele>154</ele><time>2023-03-17T13:40:54Z</time><name>PT3389</name></trkpt>
<trkpt lat="53.170928" lon="-2.086237"><ele>153</ele><time>2023-03-17T13:40:58Z</time><name>PT3390</name></trkpt>
<trkpt lat="53.170900" lon="-2.086191"><ele>154</ele><time>2023-03-17T13:41:01Z</time><name>PT3391</name></trkpt>
<trkpt lat="53.170871" lon="-2.086149"><ele>153</ele><time>2023-03-17T13:41:04Z</time><name>PT3392</name></trkpt>
<trkpt lat="53.170844" lon="-2.086106"><ele>152</ele><time>2023-03-17T13:41:07Z</time><name>PT3393</name></trkpt>
<trkpt lat="53.170808" lon="-2.086084"><ele>152</ele><time>2023-03-17T13:41:10Z</time><name>PT3394</name></trkpt>
<trkpt lat="53.170766" lon="-2.086057"><ele>152</ele><time>2023-03-17T13:41:15Z</time><name>PT3395</name></trkpt>
<trkpt lat="53.170708" lon="-2.086013"><ele>153</ele><time>2023-03-17T13:41:18Z</time><name>PT3396</name></trkpt>
<trkpt lat="53.170657" lon="-2.085996"><ele>153</ele><time>2023-03-17T13:41:22Z</time><name>PT3397</name></trkpt>
<trkpt lat="53.170606" lon="-2.085983"><ele>152</ele><time>2023-03-17T13:41:27Z</time><name>PT3398</name></trkpt>
<trkpt lat="53.170553" lon="-2.085973"><ele>151</ele><time>2023-03-17T13:41:30Z</time><name>PT3399</name></trkpt>
<trkpt lat="53.170500" lon="-2.085949"><ele>151</ele><time>2023-03-17T13:41:34Z</time><name>PT3400</name></trkpt>
<trkpt lat="53.170442" lon="-2.085916"><ele>151</ele><time>2023-03-17T13:41:39Z</time><name>PT3401</name></trkpt>
<trkpt lat="53.170387" lon="-2.085912"><ele>153</ele><time>2023-03-17T13:41:42Z</time><name>PT3402</name></trkpt>
<trkpt lat="53.170341" lon="-2.085905"><ele>153</ele><time>2023-03-17T13:41:46Z</time><name>PT3403</name></trkpt>
<trkpt lat="53.170291" lon="-2.085908"><ele>153</ele><time>2023-03-17T13:41:51Z</time><name>PT3404</name></trkpt>
<trkpt lat="53.170241" lon="-2.085903"><ele>152</ele><time>2023-03-17T13:41:54Z</time><name>PT3405</name></trkpt>
<trkpt lat="53.170200" lon="-2.085903"><ele>151</ele><time>2023-03-17T13:41:57Z</time><name>PT3406</name></trkpt>
<trkpt lat="53.170151" lon="-2.085879"><ele>151</ele><time>2023-03-17T13:42:01Z</time><name>PT3407</name></trkpt>
<trkpt lat="53.170126" lon="-2.085860"><ele>151</ele><time>2023-03-17T13:42:04Z</time><name>PT3408</name></trkpt>
<trkpt lat="53.170090" lon="-2.085817"><ele>151</ele><time>2023-03-17T13:42:09Z</time><name>PT3409</name></trkpt>
<trkpt lat="53.170064" lon="-2.085780"><ele>151</ele><time>2023-03-17T13:42:12Z</time><name>PT3410</name></trkpt>
<trkpt lat="53.170035" lon="-2.085713"><ele>152</ele><time>2023-03-17T13:42:15Z</time><name>PT3411</name></trkpt>
<trkpt lat="53.170013" lon="-2.085663"><ele>153</ele><time>2023-03-17T13:42:18Z</time><name>PT3412</name></trkpt>
<trkpt lat="53.169997" lon="-2.085585"><ele>154</ele><time>2023-03-17T13:42:22Z</time><name>PT3413</name></trkpt>
<trkpt lat="53.169987" lon="-2.085510"><ele>155</ele><time>2023-03-17T13:42:27Z</time><name>PT3414</name></trkpt>
<trkpt lat="53.169986" lon="-2.085453"><ele>155</ele><time>2023-03-17T13:42:30Z</time><name>PT3415</name></trkpt>
<trkpt lat="53.169987" lon="-2.085381"><ele>155</ele><time>2023-03-17T13:42:33Z</time><name>PT3416</name></trkpt>
<trkpt lat="53.169989" lon="-2.085316"><ele>154</ele><time>2023-03-17T13:42:37Z</time><name>PT3417</name></trkpt>
<trkpt lat="53.169994" lon="-2.085237"><ele>155</ele><time>2023-03-17T13:42:42Z</time><name>PT3418</name></trkpt>
<trkpt lat="53.169997" lon="-2.085172"><ele>156</ele><time>2023-03-17T13:42:45Z</time><name>PT3419</name></trkpt>
<trkpt lat="53.170006" lon="-2.085092"><ele>156</ele><time>2023-03-17T13:42:48Z</time><name>PT3420</name></trkpt>
<trkpt lat="53.170003" lon="-2.085041"><ele>156</ele><time>2023-03-17T13:42:52Z</time><name>PT3421</name></trkpt>
<trkpt lat="53.170011" lon="-2.084963"><ele>157</ele><time>2023-03-17T13:42:57Z</time><name>PT3422</name></trkpt>
<trkpt lat="53.170005" lon="-2.084916"><ele>157</ele><time>2023-03-17T13:43:00Z</time><name>PT3423</name></trkpt>
<trkpt lat="53.170004" lon="-2.084868"><ele>157</ele><time>2023-03-17T13:43:03Z</time><name>PT3424</name></trkpt>
<trkpt lat="53.169993" lon="-2.084812"><ele>157</ele><time>2023-03-17T13:43:06Z</time><name>PT3425</name></trkpt>
<trkpt lat="53.169983" lon="-2.084764"><ele>157</ele><time>2023-03-17T13:43:09Z</time><name>PT3426</name></trkpt>
<trkpt lat="53.169972" lon="-2.084688"><ele>157</ele><time>2023-03-17T13:43:13Z</time><name>PT3427</name></trkpt>
<trkpt lat="53.169960" lon="-2.084638"><ele>156</ele><time>2023-03-17T13:43:16Z</time><name>PT3428</name></trkpt>
<trkpt lat="53.169929" lon="-2.084527"><ele>158</ele><time>2023-03-17T13:43:21Z</time><name>PT3429</name></trkpt>
<trkpt lat="53.169906" lon="-2.084447"><ele>159</ele><time>2023-03-17T13:43:24Z</time><name>PT3430</name></trkpt>
<trkpt lat="53.169894" lon="-2.084372"><ele>159</ele><time>2023-03-17T13:43:28Z</time><name>PT3431</name></trkpt>
<trkpt lat="53.169883" lon="-2.084296"><ele>160</ele><time>2023-03-17T13:43:33Z</time><name>PT3432</name></trkpt>
<trkpt lat="53.169882" lon="-2.084237"><ele>160</ele><time>2023-03-17T13:43:36Z</time><name>PT3433</name></trkpt>
<trkpt lat="53.169878" lon="-2.084181"><ele>161</ele><time>2023-03-17T13:43:39Z</time><name>PT3434</name></trkpt>
<trkpt lat="53.169881" lon="-2.084119"><ele>162</ele><time>2023-03-17T13:43:42Z</time><name>PT3435</name></trkpt>
<trkpt lat="53.169887" lon="-2.084048"><ele>162</ele><time>2023-03-17T13:43:45Z</time><name>PT3436</name></trkpt>
<trkpt lat="53.169890" lon="-2.083960"><ele>162</ele><time>2023-03-17T13:43:49Z</time><name>PT3437</name></trkpt>
<trkpt lat="53.169893" lon="-2.083895"><ele>162</ele><time>2023-03-17T13:43:52Z</time><name>PT3438</name></trkpt>
<trkpt lat="53.169896" lon="-2.083816"><ele>162</ele><time>2023-03-17T13:43:57Z</time><name>PT3439</name></trkpt>
<trkpt lat="53.169902" lon="-2.083730"><ele>162</ele><time>2023-03-17T13:44:00Z</time><name>PT3440</name></trkpt>
<trkpt lat="53.169903" lon="-2.083643"><ele>163</ele><time>2023-03-17T13:44:04Z</time><name>PT3441</name></trkpt>
<trkpt lat="53.169909" lon="-2.083575"><ele>163</ele><time>2023-03-17T13:44:07Z</time><name>PT3442</name></trkpt>
<trkpt lat="53.169918" lon="-2.083494"><ele>164</ele><time>2023-03-17T13:44:12Z</time><name>PT3443</name></trkpt>
<trkpt lat="53.169920" lon="-2.083438"><ele>164</ele><time>2023-03-17T13:44:15Z</time><name>PT3444</name></trkpt>
<trkpt lat="53.169921" lon="-2.083380"><ele>164</ele><time>2023-03-17T13:44:18Z</time><name>PT3445</name></trkpt>
<trkpt lat="53.169920" lon="-2.083299"><ele>164</ele><time>2023-03-17T13:44:21Z</time><name>PT3446</name></trkpt>
<trkpt lat="53.169915" lon="-2.083252"><ele>164</ele><time>2023-03-17T13:44:24Z</time><name>PT3447</name></trkpt>
<trkpt lat="53.169918" lon="-2.083188"><ele>164</ele><time>2023-03-17T13:44:28Z</time><name>PT3448</name></trkpt>
<trkpt lat="53.169912" lon="-2.083142"><ele>164</ele><time>2023-03-17T13:44:31Z</time><name>PT3449</name></trkpt>
<trkpt lat="53.169906" lon="-2.083092"><ele>163</ele><time>2023-03-17T13:44:34Z</time><name>PT3450</name></trkpt>
<trkpt lat="53.169898" lon="-2.083025"><ele>162</ele><time>2023-03-17T13:44:39Z</time><name>PT3451</name></trkpt>
<trkpt lat="53.169886" lon="-2.083011"><ele>164</ele><time>2023-03-17T13:44:42Z</time><name>PT3452</name></trkpt>
<trkpt lat="53.169881" lon="-2.082998"><ele>165</ele><time>2023-03-17T13:44:45Z</time><name>PT3453</name></trkpt>
<trkpt lat="53.169873" lon="-2.083001"><ele>164</ele><time>2023-03-17T13:44:52Z</time><name>PT3454</name></trkpt>
<trkpt lat="53.169864" lon="-2.083008"><ele>163</ele><time>2023-03-17T13:44:55Z</time><name>PT3455</name></trkpt>
<trkpt lat="53.169870" lon="-2.083021"><ele>163</ele><time>2023-03-17T13:45:00Z</time><name>PT3456</name></trkpt>
<trkpt lat="53.169867" lon="-2.083035"><ele>163</ele><time>2023-03-17T13:45:03Z</time><name>PT3457</name></trkpt>
<trkpt lat="53.169862" lon="-2.083053"><ele>162</ele><time>2023-03-17T13:45:06Z</time><name>PT3458</name></trkpt>
<trkpt lat="53.169856" lon="-2.083092"><ele>160</ele><time>2023-03-17T13:45:10Z</time><name>PT3459</name></trkpt>
<trkpt lat="53.169841" lon="-2.083149"><ele>159</ele><time>2023-03-17T13:45:15Z</time><name>PT3460</name></trkpt>
<trkpt lat="53.169829" lon="-2.083193"><ele>158</ele><time>2023-03-17T13:45:18Z</time><name>PT3461</name></trkpt>
<trkpt lat="53.169823" lon="-2.083242"><ele>158</ele><time>2023-03-17T13:45:21Z</time><name>PT3462</name></trkpt>
<trkpt lat="53.169815" lon="-2.083294"><ele>156</ele><time>2023-03-17T13:45:24Z</time><name>PT3463</name></trkpt>
<trkpt lat="53.169790" lon="-2.083362"><ele>156</ele><time>2023-03-17T13:45:28Z</time><name>PT3464</name></trkpt>
<trkpt lat="53.169785" lon="-2.083420"><ele>156</ele><time>2023-03-17T13:45:33Z</time><name>PT3465</name></trkpt>
<trkpt lat="53.169764" lon="-2.083477"><ele>157</ele><time>2023-03-17T13:45:36Z</time><name>PT3466</name></trkpt>
<trkpt lat="53.169735" lon="-2.083569"><ele>159</ele><time>2023-03-17T13:45:39Z</time><name>PT3467</name></trkpt>
<trkpt lat="53.169713" lon="-2.083660"><ele>160</ele><time>2023-03-17T13:45:42Z</time><name>PT3468</name></trkpt>
<trkpt lat="53.169685" lon="-2.083758"><ele>162</ele><time>2023-03-17T13:45:46Z</time><name>PT3469</name></trkpt>
<trkpt lat="53.169673" lon="-2.083835"><ele>162</ele><time>2023-03-17T13:45:51Z</time><name>PT3470</name></trkpt>
<trkpt lat="53.169658" lon="-2.083878"><ele>161</ele><time>2023-03-17T13:45:54Z</time><name>PT3471</name></trkpt>
<trkpt lat="53.169636" lon="-2.083924"><ele>159</ele><time>2023-03-17T13:45:57Z</time><name>PT3472</name></trkpt>
<trkpt lat="53.169620" lon="-2.083979"><ele>160</ele><time>2023-03-17T13:46:01Z</time><name>PT3473</name></trkpt>
<trkpt lat="53.169614" lon="-2.084022"><ele>160</ele><time>2023-03-17T13:46:06Z</time><name>PT3474</name></trkpt>
<trkpt lat="53.169605" lon="-2.084052"><ele>158</ele><time>2023-03-17T13:46:09Z</time><name>PT3475</name></trkpt>
<trkpt lat="53.169598" lon="-2.084098"><ele>158</ele><time>2023-03-17T13:46:12Z</time><name>PT3476</name></trkpt>
<trkpt lat="53.169592" lon="-2.084151"><ele>158</ele><time>2023-03-17T13:46:15Z</time><name>PT3477</name></trkpt>
<trkpt lat="53.169570" lon="-2.084207"><ele>157</ele><time>2023-03-17T13:46:18Z</time><name>PT3478</name></trkpt>
<trkpt lat="53.169556" lon="-2.084280"><ele>157</ele><time>2023-03-17T13:46:22Z</time><name>PT3479</name></trkpt>
<trkpt lat="53.169536" lon="-2.084344"><ele>157</ele><time>2023-03-17T13:46:27Z</time><name>PT3480</name></trkpt>
<trkpt lat="53.169528" lon="-2.084406"><ele>156</ele><time>2023-03-17T13:46:30Z</time><name>PT3481</name></trkpt>
<trkpt lat="53.169525" lon="-2.084469"><ele>154</ele><time>2023-03-17T13:46:34Z</time><name>PT3482</name></trkpt>
<trkpt lat="53.169512" lon="-2.084531"><ele>156</ele><time>2023-03-17T13:46:37Z</time><name>PT3483</name></trkpt>
<trkpt lat="53.169508" lon="-2.084613"><ele>161</ele><time>2023-03-17T13:46:40Z</time><name>PT3484</name></trkpt>
<trkpt lat="53.169489" lon="-2.084721"><ele>164</ele><time>2023-03-17T13:46:43Z</time><name>PT3485</name></trkpt>
<trkpt lat="53.169475" lon="-2.084813"><ele>165</ele><time>2023-03-17T13:46:48Z</time><name>PT3486</name></trkpt>
<trkpt lat="53.169457" lon="-2.084877"><ele>163</ele><time>2023-03-17T13:46:51Z</time><name>PT3487</name></trkpt>
<trkpt lat="53.169448" lon="-2.084967"><ele>162</ele><time>2023-03-17T13:46:54Z</time><name>PT3488</name></trkpt>
<trkpt lat="53.169437" lon="-2.085058"><ele>160</ele><time>2023-03-17T13:46:58Z</time><name>PT3489</name></trkpt>
<trkpt lat="53.169440" lon="-2.085121"><ele>160</ele><time>2023-03-17T13:47:01Z</time><name>PT3490</name></trkpt>
<trkpt lat="53.169437" lon="-2.085208"><ele>159</ele><time>2023-03-17T13:47:06Z</time><name>PT3491</name></trkpt>
<trkpt lat="53.169434" lon="-2.085269"><ele>158</ele><time>2023-03-17T13:47:09Z</time><name>PT3492</name></trkpt>
<trkpt lat="53.169441" lon="-2.085301"><ele>156</ele><time>2023-03-17T13:47:12Z</time><name>PT3493</name></trkpt>
<trkpt lat="53.169428" lon="-2.085381"><ele>156</ele><time>2023-03-17T13:47:15Z</time><name>PT3494</name></trkpt>
<trkpt lat="53.169440" lon="-2.085481"><ele>157</ele><time>2023-03-17T13:47:18Z</time><name>PT3495</name></trkpt>
<trkpt lat="53.169439" lon="-2.085555"><ele>155</ele><time>2023-03-17T13:47:22Z</time><name>PT3496</name></trkpt>
<trkpt lat="53.169437" lon="-2.085620"><ele>155</ele><time>2023-03-17T13:47:25Z</time><name>PT3497</name></trkpt>
<trkpt lat="53.169435" lon="-2.085709"><ele>156</ele><time>2023-03-17T13:47:30Z</time><name>PT3498</name></trkpt>
<trkpt lat="53.169450" lon="-2.085785"><ele>157</ele><time>2023-03-17T13:47:33Z</time><name>PT3499</name></trkpt>
<trkpt lat="53.169443" lon="-2.085900"><ele>160</ele><time>2023-03-17T13:47:37Z</time><name>PT3500</name></trkpt>
<trkpt lat="53.169453" lon="-2.085972"><ele>160</ele><time>2023-03-17T13:47:40Z</time><name>PT3501</name></trkpt>
<trkpt lat="53.169463" lon="-2.086047"><ele>160</ele><time>2023-03-17T13:47:45Z</time><name>PT3502</name></trkpt>
<trkpt lat="53.169462" lon="-2.086117"><ele>160</ele><time>2023-03-17T13:47:48Z</time><name>PT3503</name></trkpt>
<trkpt lat="53.169468" lon="-2.086187"><ele>160</ele><time>2023-03-17T13:47:51Z</time><name>PT3504</name></trkpt>
<trkpt lat="53.169466" lon="-2.086243"><ele>160</ele><time>2023-03-17T13:47:54Z</time><name>PT3505</name></trkpt>
<trkpt lat="53.169457" lon="-2.086327"><ele>162</ele><time>2023-03-17T13:47:58Z</time><name>PT3506</name></trkpt>
<trkpt lat="53.169463" lon="-2.086399"><ele>163</ele><time>2023-03-17T13:48:03Z</time><name>PT3507</name></trkpt>
<trkpt lat="53.169454" lon="-2.086471"><ele>164</ele><time>2023-03-17T13:48:06Z</time><name>PT3508</name></trkpt>
<trkpt lat="53.169446" lon="-2.086525"><ele>163</ele><time>2023-03-17T13:48:09Z</time><name>PT3509</name></trkpt>
<trkpt lat="53.169446" lon="-2.086567"><ele>161</ele><time>2023-03-17T13:48:13Z</time><name>PT3510</name></trkpt>
<trkpt lat="53.169447" lon="-2.086589"><ele>161</ele><time>2023-03-17T13:48:16Z</time><name>PT3511</name></trkpt>
<trkpt lat="53.169450" lon="-2.086627"><ele>161</ele><time>2023-03-17T13:48:19Z</time><name>PT3512</name></trkpt>
<trkpt lat="53.169438" lon="-2.086706"><ele>160</ele><time>2023-03-17T13:48:24Z</time><name>PT3513</name></trkpt>
<trkpt lat="53.169428" lon="-2.086781"><ele>160</ele><time>2023-03-17T13:48:27Z</time><name>PT3514</name></trkpt>
<trkpt lat="53.169432" lon="-2.086820"><ele>160</ele><time>2023-03-17T13:48:30Z</time><name>PT3515</name></trkpt>
<trkpt lat="53.169418" lon="-2.086877"><ele>158</ele><time>2023-03-17T13:48:33Z</time><name>PT3516</name></trkpt>
<trkpt lat="53.169421" lon="-2.086922"><ele>159</ele><time>2023-03-17T13:48:36Z</time><name>PT3517</name></trkpt>
<trkpt lat="53.169412" lon="-2.087040"><ele>160</ele><time>2023-03-17T13:48:40Z</time><name>PT3518</name></trkpt>
<trkpt lat="53.169409" lon="-2.087121"><ele>160</ele><time>2023-03-17T13:48:45Z</time><name>PT3519</name></trkpt>
<trkpt lat="53.169404" lon="-2.087236"><ele>160</ele><time>2023-03-17T13:48:48Z</time><name>PT3520</name></trkpt>
<trkpt lat="53.169389" lon="-2.087408"><ele>163</ele><time>2023-03-17T13:48:52Z</time><name>PT3521</name></trkpt>
<trkpt lat="53.169393" lon="-2.087486"><ele>164</ele><time>2023-03-17T13:48:55Z</time><name>PT3522</name></trkpt>
<trkpt lat="53.169399" lon="-2.087572"><ele>163</ele><time>2023-03-17T13:49:00Z</time><name>PT3523</name></trkpt>
<trkpt lat="53.169405" lon="-2.087691"><ele>164</ele><time>2023-03-17T13:49:03Z</time><name>PT3524</name></trkpt>
<trkpt lat="53.169428" lon="-2.087780"><ele>164</ele><time>2023-03-17T13:49:07Z</time><name>PT3525</name></trkpt>
<trkpt lat="53.169442" lon="-2.087879"><ele>165</ele><time>2023-03-17T13:49:12Z</time><name>PT3526</name></trkpt>
<trkpt lat="53.169466" lon="-2.087966"><ele>164</ele><time>2023-03-17T13:49:15Z</time><name>PT3527</name></trkpt>
<trkpt lat="53.169488" lon="-2.088042"><ele>164</ele><time>2023-03-17T13:49:19Z</time><name>PT3528</name></trkpt>
<trkpt lat="53.169514" lon="-2.088126"><ele>164</ele><time>2023-03-17T13:49:24Z</time><name>PT3529</name></trkpt>
<trkpt lat="53.169529" lon="-2.088171"><ele>164</ele><time>2023-03-17T13:49:27Z</time><name>PT3530</name></trkpt>
<trkpt lat="53.169537" lon="-2.088234"><ele>163</ele><time>2023-03-17T13:49:30Z</time><name>PT3531</name></trkpt>
<trkpt lat="53.169548" lon="-2.088307"><ele>163</ele><time>2023-03-17T13:49:33Z</time><name>PT3532</name></trkpt>
<trkpt lat="53.169563" lon="-2.088379"><ele>164</ele><time>2023-03-17T13:49:36Z</time><name>PT3533</name></trkpt>
<trkpt lat="53.169573" lon="-2.088428"><ele>163</ele><time>2023-03-17T13:49:39Z</time><name>PT3534</name></trkpt>
<trkpt lat="53.169595" lon="-2.088487"><ele>161</ele><time>2023-03-17T13:49:43Z</time><name>PT3535</name></trkpt>
<trkpt lat="53.169616" lon="-2.088538"><ele>160</ele><time>2023-03-17T13:49:46Z</time><name>PT3536</name></trkpt>
<trkpt lat="53.169624" lon="-2.088592"><ele>158</ele><time>2023-03-17T13:49:49Z</time><name>PT3537</name></trkpt>
<trkpt lat="53.169649" lon="-2.088658"><ele>157</ele><time>2023-03-17T13:49:54Z</time><name>PT3538</name></trkpt>
<trkpt lat="53.169676" lon="-2.088707"><ele>158</ele><time>2023-03-17T13:49:57Z</time><name>PT3539</name></trkpt>
<trkpt lat="53.169686" lon="-2.088762"><ele>157</ele><time>2023-03-17T13:50:00Z</time><name>PT3540</name></trkpt>
<trkpt lat="53.169708" lon="-2.088819"><ele>157</ele><time>2023-03-17T13:50:03Z</time><name>PT3541</name></trkpt>
<trkpt lat="53.169736" lon="-2.088860"><ele>156</ele><time>2023-03-17T13:50:06Z</time><name>PT3542</name></trkpt>
<trkpt lat="53.169778" lon="-2.088926"><ele>158</ele><time>2023-03-17T13:50:10Z</time><name>PT3543</name></trkpt>
<trkpt lat="53.169816" lon="-2.088978"><ele>159</ele><time>2023-03-17T13:50:15Z</time><name>PT3544</name></trkpt>
<trkpt lat="53.169838" lon="-2.089039"><ele>161</ele><time>2023-03-17T13:50:18Z</time><name>PT3545</name></trkpt>
<trkpt lat="53.169860" lon="-2.089082"><ele>162</ele><time>2023-03-17T13:50:21Z</time><name>PT3546</name></trkpt>
<trkpt lat="53.169878" lon="-2.089117"><ele>160</ele><time>2023-03-17T13:50:24Z</time><name>PT3547</name></trkpt>
<trkpt lat="53.169903" lon="-2.089204"><ele>160</ele><time>2023-03-17T13:50:27Z</time><name>PT3548</name></trkpt>
<trkpt lat="53.169941" lon="-2.089254"><ele>160</ele><time>2023-03-17T13:50:31Z</time><name>PT3549</name></trkpt>
<trkpt lat="53.169982" lon="-2.089299"><ele>161</ele><time>2023-03-17T13:50:36Z</time><name>PT3550</name></trkpt>
<trkpt lat="53.170018" lon="-2.089335"><ele>162</ele><time>2023-03-17T13:50:39Z</time><name>PT3551</name></trkpt>
<trkpt lat="53.170057" lon="-2.089367"><ele>163</ele><time>2023-03-17T13:50:42Z</time><name>PT3552</name></trkpt>
<trkpt lat="53.170096" lon="-2.089429"><ele>165</ele><time>2023-03-17T13:50:46Z</time><name>PT3553</name></trkpt>
<trkpt lat="53.170135" lon="-2.089466"><ele>165</ele><time>2023-03-17T13:50:49Z</time><name>PT3554</name></trkpt>
<trkpt lat="53.170151" lon="-2.089533"><ele>167</ele><time>2023-03-17T13:50:52Z</time><name>PT3555</name></trkpt>
<trkpt lat="53.170182" lon="-2.089583"><ele>167</ele><time>2023-03-17T13:50:57Z</time><name>PT3556</name></trkpt>
<trkpt lat="53.170218" lon="-2.089618"><ele>166</ele><time>2023-03-17T13:51:00Z</time><name>PT3557</name></trkpt>
<trkpt lat="53.170248" lon="-2.089640"><ele>165</ele><time>2023-03-17T13:51:03Z</time><name>PT3558</name></trkpt>
<trkpt lat="53.170299" lon="-2.089680"><ele>165</ele><time>2023-03-17T13:51:06Z</time><name>PT3559</name></trkpt>
<trkpt lat="53.170348" lon="-2.089728"><ele>162</ele><time>2023-03-17T13:51:09Z</time><name>PT3560</name></trkpt>
<trkpt lat="53.170412" lon="-2.089756"><ele>164</ele><time>2023-03-17T13:51:12Z</time><name>PT3561</name></trkpt>
<trkpt lat="53.170457" lon="-2.089782"><ele>164</ele><time>2023-03-17T13:51:16Z</time><name>PT3562</name></trkpt>
<trkpt lat="53.170494" lon="-2.089801"><ele>164</ele><time>2023-03-17T13:51:21Z</time><name>PT3563</name></trkpt>
<trkpt lat="53.170535" lon="-2.089839"><ele>164</ele><time>2023-03-17T13:51:24Z</time><name>PT3564</name></trkpt>
<trkpt lat="53.170573" lon="-2.089873"><ele>163</ele><time>2023-03-17T13:51:28Z</time><name>PT3565</name></trkpt>
<trkpt lat="53.170600" lon="-2.089900"><ele>162</ele><time>2023-03-17T13:51:31Z</time><name>PT3566</name></trkpt>
<trkpt lat="53.170624" lon="-2.089918"><ele>161</ele><time>2023-03-17T13:51:34Z</time><name>PT3567</name></trkpt>
<trkpt lat="53.170669" lon="-2.089951"><ele>161</ele><time>2023-03-17T13:51:39Z</time><name>PT3568</name></trkpt>
<trkpt lat="53.170700" lon="-2.089989"><ele>161</ele><time>2023-03-17T13:51:42Z</time><name>PT3569</name></trkpt>
<trkpt lat="53.170745" lon="-2.090051"><ele>159</ele><time>2023-03-17T13:51:46Z</time><name>PT3570</name></trkpt>
<trkpt lat="53.170773" lon="-2.090098"><ele>158</ele><time>2023-03-17T13:51:49Z</time><name>PT3571</name></trkpt>
<trkpt lat="53.170800" lon="-2.090162"><ele>157</ele><time>2023-03-17T13:51:54Z</time><name>PT3572</name></trkpt>
<trkpt lat="53.170830" lon="-2.090221"><ele>154</ele><time>2023-03-17T13:51:57Z</time><name>PT3573</name></trkpt>
<trkpt lat="53.170862" lon="-2.090277"><ele>153</ele><time>2023-03-17T13:52:00Z</time><name>PT3574</name></trkpt>
<trkpt lat="53.170876" lon="-2.090324"><ele>152</ele><time>2023-03-17T13:52:03Z</time><name>PT3575</name></trkpt>
<trkpt lat="53.170899" lon="-2.090401"><ele>151</ele><time>2023-03-17T13:52:07Z</time><name>PT3576</name></trkpt>
<trkpt lat="53.170941" lon="-2.090430"><ele>151</ele><time>2023-03-17T13:52:10Z</time><name>PT3577</name></trkpt>
<trkpt lat="53.170964" lon="-2.090487"><ele>152</ele><time>2023-03-17T13:52:13Z</time><name>PT3578</name></trkpt>
<trkpt lat="53.170990" lon="-2.090545"><ele>153</ele><time>2023-03-17T13:52:16Z</time><name>PT3579</name></trkpt>
<trkpt lat="53.171028" lon="-2.090604"><ele>153</ele><time>2023-03-17T13:52:21Z</time><name>PT3580</name></trkpt>
<trkpt lat="53.171033" lon="-2.090664"><ele>153</ele><time>2023-03-17T13:52:24Z</time><name>PT3581</name></trkpt>
<trkpt lat="53.171054" lon="-2.090734"><ele>152</ele><time>2023-03-17T13:52:27Z</time><name>PT3582</name></trkpt>
<trkpt lat="53.171071" lon="-2.090782"><ele>152</ele><time>2023-03-17T13:52:30Z</time><name>PT3583</name></trkpt>
<trkpt lat="53.171084" lon="-2.090847"><ele>152</ele><time>2023-03-17T13:52:33Z</time><name>PT3584</name></trkpt>
<trkpt lat="53.171104" lon="-2.090890"><ele>152</ele><time>2023-03-17T13:52:36Z</time><name>PT3585</name></trkpt>
<trkpt lat="53.171128" lon="-2.090963"><ele>153</ele><time>2023-03-17T13:52:40Z</time><name>PT3586</name></trkpt>
<trkpt lat="53.171153" lon="-2.091030"><ele>151</ele><time>2023-03-17T13:52:45Z</time><name>PT3587</name></trkpt>
<trkpt lat="53.171160" lon="-2.091112"><ele>150</ele><time>2023-03-17T13:52:48Z</time><name>PT3588</name></trkpt>
<trkpt lat="53.171178" lon="-2.091196"><ele>150</ele><time>2023-03-17T13:52:52Z</time><name>PT3589</name></trkpt>
<trkpt lat="53.171211" lon="-2.091257"><ele>151</ele><time>2023-03-17T13:52:55Z</time><name>PT3590</name></trkpt>
<trkpt lat="53.171262" lon="-2.091333"><ele>155</ele><time>2023-03-17T13:53:00Z</time><name>PT3591</name></trkpt>
<trkpt lat="53.171288" lon="-2.091396"><ele>155</ele><time>2023-03-17T13:53:03Z</time><name>PT3592</name></trkpt>
<trkpt lat="53.171312" lon="-2.091477"><ele>156</ele><time>2023-03-17T13:53:06Z</time><name>PT3593</name></trkpt>
<trkpt lat="53.171321" lon="-2.091536"><ele>155</ele><time>2023-03-17T13:53:10Z</time><name>PT3594</name></trkpt>
<trkpt lat="53.171326" lon="-2.091571"><ele>154</ele><time>2023-03-17T13:53:13Z</time><name>PT3595</name></trkpt>
<trkpt lat="53.171347" lon="-2.091670"><ele>152</ele><time>2023-03-17T13:53:18Z</time><name>PT3596</name></trkpt>
<trkpt lat="53.171369" lon="-2.091765"><ele>151</ele><time>2023-03-17T13:53:21Z</time><name>PT3597</name></trkpt>
<trkpt lat="53.171372" lon="-2.091880"><ele>148</ele><time>2023-03-17T13:53:24Z</time><name>PT3598</name></trkpt>
<trkpt lat="53.171374" lon="-2.091931"><ele>148</ele><time>2023-03-17T13:53:27Z</time><name>PT3599</name></trkpt>
<trkpt lat="53.171370" lon="-2.092004"><ele>147</ele><time>2023-03-17T13:53:31Z</time><name>PT3600</name></trkpt>
<trkpt lat="53.171370" lon="-2.092068"><ele>147</ele><time>2023-03-17T13:53:34Z</time><name>PT3601</name></trkpt>
<trkpt lat="53.171365" lon="-2.092130"><ele>148</ele><time>2023-03-17T13:53:39Z</time><name>PT3602</name></trkpt>
<trkpt lat="53.171352" lon="-2.092183"><ele>148</ele><time>2023-03-17T13:53:42Z</time><name>PT3603</name></trkpt>
<trkpt lat="53.171338" lon="-2.092226"><ele>150</ele><time>2023-03-17T13:53:45Z</time><name>PT3604</name></trkpt>
<trkpt lat="53.171326" lon="-2.092302"><ele>151</ele><time>2023-03-17T13:53:48Z</time><name>PT3605</name></trkpt>
<trkpt lat="53.171322" lon="-2.092322"><ele>151</ele><time>2023-03-17T13:53:51Z</time><name>PT3606</name></trkpt>
<trkpt lat="53.171314" lon="-2.092366"><ele>149</ele><time>2023-03-17T13:53:55Z</time><name>PT3607</name></trkpt>
<trkpt lat="53.171295" lon="-2.092406"><ele>148</ele><time>2023-03-17T13:53:58Z</time><name>PT3608</name></trkpt>
<trkpt lat="53.171287" lon="-2.092429"><ele>148</ele><time>2023-03-17T13:54:01Z</time><name>PT3609</name></trkpt>
<trkpt lat="53.171277" lon="-2.092469"><ele>146</ele><time>2023-03-17T13:54:06Z</time><name>PT3610</name></trkpt>
<trkpt lat="53.171261" lon="-2.092510"><ele>145</ele><time>2023-03-17T13:54:09Z</time><name>PT3611</name></trkpt>
<trkpt lat="53.171244" lon="-2.092552"><ele>145</ele><time>2023-03-17T13:54:12Z</time><name>PT3612</name></trkpt>
<trkpt lat="53.171207" lon="-2.092600"><ele>143</ele><time>2023-03-17T13:54:15Z</time><name>PT3613</name></trkpt>
<trkpt lat="53.171191" lon="-2.092627"><ele>142</ele><time>2023-03-17T13:54:18Z</time><name>PT3614</name></trkpt>
<trkpt lat="53.171163" lon="-2.092663"><ele>142</ele><time>2023-03-17T13:54:22Z</time><name>PT3615</name></trkpt>
<trkpt lat="53.171135" lon="-2.092690"><ele>142</ele><time>2023-03-17T13:54:27Z</time><name>PT3616</name></trkpt>
<trkpt lat="53.171110" lon="-2.092759"><ele>143</ele><time>2023-03-17T13:54:30Z</time><name>PT3617</name></trkpt>
<trkpt lat="53.171103" lon="-2.092784"><ele>144</ele><time>2023-03-17T13:54:33Z</time><name>PT3618</name></trkpt>
<trkpt lat="53.171083" lon="-2.092820"><ele>147</ele><time>2023-03-17T13:54:36Z</time><name>PT3619</name></trkpt>
<trkpt lat="53.171061" lon="-2.092874"><ele>149</ele><time>2023-03-17T13:54:39Z</time><name>PT3620</name></trkpt>
<trkpt lat="53.171029" lon="-2.092912"><ele>148</ele><time>2023-03-17T13:54:43Z</time><name>PT3621</name></trkpt>
<trkpt lat="53.171012" lon="-2.092952"><ele>147</ele><time>2023-03-17T13:54:46Z</time><name>PT3622</name></trkpt>
<trkpt lat="53.170991" lon="-2.092990"><ele>147</ele><time>2023-03-17T13:54:49Z</time><name>PT3623</name></trkpt>
<trkpt lat="53.170958" lon="-2.093057"><ele>146</ele><time>2023-03-17T13:54:54Z</time><name>PT3624</name></trkpt>
<trkpt lat="53.170941" lon="-2.093072"><ele>146</ele><time>2023-03-17T13:54:57Z</time><name>PT3625</name></trkpt>
<trkpt lat="53.170916" lon="-2.093141"><ele>145</ele><time>2023-03-17T13:55:00Z</time><name>PT3626</name></trkpt>
<trkpt lat="53.170896" lon="-2.093182"><ele>146</ele><time>2023-03-17T13:55:03Z</time><name>PT3627</name></trkpt>
<trkpt lat="53.170863" lon="-2.093248"><ele>147</ele><time>2023-03-17T13:55:07Z</time><name>PT3628</name></trkpt>
<trkpt lat="53.170845" lon="-2.093272"><ele>147</ele><time>2023-03-17T13:55:10Z</time><name>PT3629</name></trkpt>
<trkpt lat="53.170812" lon="-2.093314"><ele>148</ele><time>2023-03-17T13:55:13Z</time><name>PT3630</name></trkpt>
<trkpt lat="53.170784" lon="-2.093401"><ele>149</ele><time>2023-03-17T13:55:18Z</time><name>PT3631</name></trkpt>
<trkpt lat="53.170767" lon="-2.093463"><ele>150</ele><time>2023-03-17T13:55:21Z</time><name>PT3632</name></trkpt>
<trkpt lat="53.170728" lon="-2.093542"><ele>149</ele><time>2023-03-17T13:55:24Z</time><name>PT3633</name></trkpt>
<trkpt lat="53.170706" lon="-2.093601"><ele>149</ele><time>2023-03-17T13:55:27Z</time><name>PT3634</name></trkpt>
<trkpt lat="53.170683" lon="-2.093702"><ele>151</ele><time>2023-03-17T13:55:31Z</time><name>PT3635</name></trkpt>
<trkpt lat="53.170670" lon="-2.093792"><ele>154</ele><time>2023-03-17T13:55:36Z</time><name>PT3636</name></trkpt>
<trkpt lat="53.170650" lon="-2.093869"><ele>155</ele><time>2023-03-17T13:55:39Z</time><name>PT3637</name></trkpt>
<trkpt lat="53.170630" lon="-2.093927"><ele>155</ele><time>2023-03-17T13:55:42Z</time><name>PT3638</name></trkpt>
<trkpt lat="53.170623" lon="-2.093969"><ele>156</ele><time>2023-03-17T13:55:45Z</time><name>PT3639</name></trkpt>
<trkpt lat="53.170607" lon="-2.094025"><ele>157</ele><time>2023-03-17T13:55:48Z</time><name>PT3640</name></trkpt>
<trkpt lat="53.170581" lon="-2.094113"><ele>156</ele><time>2023-03-17T13:55:52Z</time><name>PT3641</name></trkpt>
<trkpt lat="53.170568" lon="-2.094179"><ele>157</ele><time>2023-03-17T13:55:55Z</time><name>PT3642</name></trkpt>
<trkpt lat="53.170542" lon="-2.094286"><ele>158</ele><time>2023-03-17T13:56:00Z</time><name>PT3643</name></trkpt>
<trkpt lat="53.170517" lon="-2.094376"><ele>159</ele><time>2023-03-17T13:56:03Z</time><name>PT3644</name></trkpt>
<trkpt lat="53.170494" lon="-2.094451"><ele>159</ele><time>2023-03-17T13:56:07Z</time><name>PT3645</name></trkpt>
<trkpt lat="53.170489" lon="-2.094519"><ele>160</ele><time>2023-03-17T13:56:12Z</time><name>PT3646</name></trkpt>
<trkpt lat="53.170472" lon="-2.094585"><ele>160</ele><time>2023-03-17T13:56:15Z</time><name>PT3647</name></trkpt>
<trkpt lat="53.170450" lon="-2.094654"><ele>160</ele><time>2023-03-17T13:56:19Z</time><name>PT3648</name></trkpt>
<trkpt lat="53.170441" lon="-2.094689"><ele>160</ele><time>2023-03-17T13:56:22Z</time><name>PT3649</name></trkpt>
<trkpt lat="53.170429" lon="-2.094787"><ele>159</ele><time>2023-03-17T13:56:33Z</time><name>PT3650</name></trkpt>
<trkpt lat="53.170413" lon="-2.094844"><ele>160</ele><time>2023-03-17T13:56:36Z</time><name>PT3651</name></trkpt>
<trkpt lat="53.170404" lon="-2.094889"><ele>159</ele><time>2023-03-17T13:56:39Z</time><name>PT3652</name></trkpt>
<trkpt lat="53.170384" lon="-2.094964"><ele>159</ele><time>2023-03-17T13:56:43Z</time><name>PT3653</name></trkpt>
<trkpt lat="53.170367" lon="-2.095044"><ele>158</ele><time>2023-03-17T13:56:48Z</time><name>PT3654</name></trkpt>
<trkpt lat="53.170351" lon="-2.095091"><ele>158</ele><time>2023-03-17T13:56:51Z</time><name>PT3655</name></trkpt>
<trkpt lat="53.170350" lon="-2.095114"><ele>157</ele><time>2023-03-17T13:56:54Z</time><name>PT3656</name></trkpt>
<trkpt lat="53.170312" lon="-2.095167"><ele>156</ele><time>2023-03-17T13:56:58Z</time><name>PT3657</name></trkpt>
<trkpt lat="53.170297" lon="-2.095218"><ele>154</ele><time>2023-03-17T13:57:03Z</time><name>PT3658</name></trkpt>
<trkpt lat="53.170302" lon="-2.095231"><ele>154</ele><time>2023-03-17T13:57:06Z</time><name>PT3659</name></trkpt>
<trkpt lat="53.170287" lon="-2.095288"><ele>153</ele><time>2023-03-17T13:57:09Z</time><name>PT3660</name></trkpt>
<trkpt lat="53.170270" lon="-2.095384"><ele>151</ele><time>2023-03-17T13:57:12Z</time><name>PT3661</name></trkpt>
<trkpt lat="53.170256" lon="-2.095429"><ele>149</ele><time>2023-03-17T13:57:15Z</time><name>PT3662</name></trkpt>
<trkpt lat="53.170221" lon="-2.095503"><ele>149</ele><time>2023-03-17T13:57:19Z</time><name>PT3663</name></trkpt>
<trkpt lat="53.170218" lon="-2.095528"><ele>149</ele><time>2023-03-17T13:57:24Z</time><name>PT3664</name></trkpt>
<trkpt lat="53.170197" lon="-2.095604"><ele>146</ele><time>2023-03-17T13:57:30Z</time><name>PT3665</name></trkpt>
<trkpt lat="53.170165" lon="-2.095659"><ele>145</ele><time>2023-03-17T13:57:34Z</time><name>PT3666</name></trkpt>
<trkpt lat="53.170135" lon="-2.095700"><ele>143</ele><time>2023-03-17T13:57:39Z</time><name>PT3667</name></trkpt>
<trkpt lat="53.170106" lon="-2.095754"><ele>144</ele><time>2023-03-17T13:57:42Z</time><name>PT3668</name></trkpt>
<trkpt lat="53.170099" lon="-2.095795"><ele>142</ele><time>2023-03-17T13:57:45Z</time><name>PT3669</name></trkpt>
<trkpt lat="53.170073" lon="-2.095872"><ele>142</ele><time>2023-03-17T13:57:48Z</time><name>PT3670</name></trkpt>
<trkpt lat="53.170047" lon="-2.095908"><ele>142</ele><time>2023-03-17T13:57:51Z</time><name>PT3671</name></trkpt>
<trkpt lat="53.170009" lon="-2.095972"><ele>141</ele><time>2023-03-17T13:57:55Z</time><name>PT3672</name></trkpt>
<trkpt lat="53.169989" lon="-2.096019"><ele>140</ele><time>2023-03-17T13:58:00Z</time><name>PT3673</name></trkpt>
<trkpt lat="53.169965" lon="-2.096078"><ele>141</ele><time>2023-03-17T13:58:03Z</time><name>PT3674</name></trkpt>
<trkpt lat="53.169948" lon="-2.096101"><ele>139</ele><time>2023-03-17T13:58:06Z</time><name>PT3675</name></trkpt>
<trkpt lat="53.169916" lon="-2.096179"><ele>139</ele><time>2023-03-17T13:58:09Z</time><name>PT3676</name></trkpt>
<trkpt lat="53.169882" lon="-2.096260"><ele>141</ele><time>2023-03-17T13:58:13Z</time><name>PT3677</name></trkpt>
<trkpt lat="53.169861" lon="-2.096307"><ele>141</ele><time>2023-03-17T13:58:16Z</time><name>PT3678</name></trkpt>
<trkpt lat="53.169831" lon="-2.096384"><ele>144</ele><time>2023-03-17T13:58:21Z</time><name>PT3679</name></trkpt>
<trkpt lat="53.169812" lon="-2.096446"><ele>146</ele><time>2023-03-17T13:58:24Z</time><name>PT3680</name></trkpt>
<trkpt lat="53.169767" lon="-2.096525"><ele>148</ele><time>2023-03-17T13:58:27Z</time><name>PT3681</name></trkpt>
<trkpt lat="53.169738" lon="-2.096582"><ele>150</ele><time>2023-03-17T13:58:31Z</time><name>PT3682</name></trkpt>
<trkpt lat="53.169716" lon="-2.096637"><ele>151</ele><time>2023-03-17T13:58:34Z</time><name>PT3683</name></trkpt>
<trkpt lat="53.169686" lon="-2.096707"><ele>153</ele><time>2023-03-17T13:58:39Z</time><name>PT3684</name></trkpt>
<trkpt lat="53.169663" lon="-2.096758"><ele>153</ele><time>2023-03-17T13:58:42Z</time><name>PT3685</name></trkpt>
<trkpt lat="53.169641" lon="-2.096815"><ele>153</ele><time>2023-03-17T13:58:45Z</time><name>PT3686</name></trkpt>
<trkpt lat="53.169620" lon="-2.096878"><ele>154</ele><time>2023-03-17T13:58:48Z</time><name>PT3687</name></trkpt>
<trkpt lat="53.169586" lon="-2.096927"><ele>153</ele><time>2023-03-17T13:58:52Z</time><name>PT3688</name></trkpt>
<trkpt lat="53.169560" lon="-2.096977"><ele>154</ele><time>2023-03-17T13:58:55Z</time><name>PT3689</name></trkpt>
<trkpt lat="53.169530" lon="-2.097022"><ele>153</ele><time>2023-03-17T13:59:00Z</time><name>PT3690</name></trkpt>
<trkpt lat="53.169505" lon="-2.097064"><ele>154</ele><time>2023-03-17T13:59:03Z</time><name>PT3691</name></trkpt>
<trkpt lat="53.169496" lon="-2.097095"><ele>155</ele><time>2023-03-17T13:59:06Z</time><name>PT3692</name></trkpt>
<trkpt lat="53.169480" lon="-2.097146"><ele>154</ele><time>2023-03-17T13:59:10Z</time><name>PT3693</name></trkpt>
<trkpt lat="53.169459" lon="-2.097180"><ele>154</ele><time>2023-03-17T13:59:14Z</time><name>PT3694</name></trkpt>
<trkpt lat="53.169424" lon="-2.097207"><ele>154</ele><time>2023-03-17T13:59:18Z</time><name>PT3695</name></trkpt>
<trkpt lat="53.169415" lon="-2.097244"><ele>153</ele><time>2023-03-17T13:59:21Z</time><name>PT3696</name></trkpt>
<trkpt lat="53.169406" lon="-2.097294"><ele>153</ele><time>2023-03-17T13:59:24Z</time><name>PT3697</name></trkpt>
<trkpt lat="53.169374" lon="-2.097398"><ele>155</ele><time>2023-03-17T13:59:28Z</time><name>PT3698</name></trkpt>
<trkpt lat="53.169348" lon="-2.097427"><ele>155</ele><time>2023-03-17T13:59:31Z</time><name>PT3699</name></trkpt>
<trkpt lat="53.169321" lon="-2.097488"><ele>154</ele><time>2023-03-17T13:59:34Z</time><name>PT3700</name></trkpt>
<trkpt lat="53.169291" lon="-2.097548"><ele>155</ele><time>2023-03-17T13:59:37Z</time><name>PT3701</name></trkpt>
<trkpt lat="53.169243" lon="-2.097644"><ele>155</ele><time>2023-03-17T13:59:42Z</time><name>PT3702</name></trkpt>
<trkpt lat="53.169199" lon="-2.097703"><ele>155</ele><time>2023-03-17T13:59:45Z</time><name>PT3703</name></trkpt>
<trkpt lat="53.169160" lon="-2.097766"><ele>156</ele><time>2023-03-17T13:59:48Z</time><name>PT3704</name></trkpt>
<trkpt lat="53.169133" lon="-2.097781"><ele>155</ele><time>2023-03-17T13:59:51Z</time><name>PT3705</name></trkpt>
<trkpt lat="53.169102" lon="-2.097810"><ele>155</ele><time>2023-03-17T13:59:55Z</time><name>PT3706</name></trkpt>
<trkpt lat="53.169075" lon="-2.097844"><ele>155</ele><time>2023-03-17T14:00:00Z</time><name>PT3707</name></trkpt>
<trkpt lat="53.169057" lon="-2.097896"><ele>156</ele><time>2023-03-17T14:00:03Z</time><name>PT3708</name></trkpt>
<trkpt lat="53.169023" lon="-2.097967"><ele>157</ele><time>2023-03-17T14:00:06Z</time><name>PT3709</name></trkpt>
<trkpt lat="53.168994" lon="-2.097987"><ele>156</ele><time>2023-03-17T14:00:09Z</time><name>PT3710</name></trkpt>
<trkpt lat="53.168955" lon="-2.098035"><ele>157</ele><time>2023-03-17T14:00:13Z</time><name>PT3711</name></trkpt>
<trkpt lat="53.168927" lon="-2.098079"><ele>156</ele><time>2023-03-17T14:00:18Z</time><name>PT3712</name></trkpt>
<trkpt lat="53.168892" lon="-2.098135"><ele>156</ele><time>2023-03-17T14:00:21Z</time><name>PT3713</name></trkpt>
<trkpt lat="53.168861" lon="-2.098160"><ele>155</ele><time>2023-03-17T14:00:25Z</time><name>PT3714</name></trkpt>
<trkpt lat="53.168835" lon="-2.098194"><ele>155</ele><time>2023-03-17T14:00:28Z</time><name>PT3715</name></trkpt>
<trkpt lat="53.168803" lon="-2.098222"><ele>154</ele><time>2023-03-17T14:00:33Z</time><name>PT3716</name></trkpt>
<trkpt lat="53.168767" lon="-2.098266"><ele>154</ele><time>2023-03-17T14:00:36Z</time><name>PT3717</name></trkpt>
<trkpt lat="53.168737" lon="-2.098299"><ele>155</ele><time>2023-03-17T14:00:39Z</time><name>PT3718</name></trkpt>
<trkpt lat="53.168688" lon="-2.098318"><ele>154</ele><time>2023-03-17T14:00:43Z</time><name>PT3719</name></trkpt>
<trkpt lat="53.168663" lon="-2.098332"><ele>152</ele><time>2023-03-17T14:00:46Z</time><name>PT3720</name></trkpt>
<trkpt lat="53.168620" lon="-2.098343"><ele>152</ele><time>2023-03-17T14:00:51Z</time><name>PT3721</name></trkpt>
<trkpt lat="53.168590" lon="-2.098371"><ele>152</ele><time>2023-03-17T14:00:54Z</time><name>PT3722</name></trkpt>
<trkpt lat="53.168561" lon="-2.098403"><ele>152</ele><time>2023-03-17T14:00:57Z</time><name>PT3723</name></trkpt>
<trkpt lat="53.168541" lon="-2.098418"><ele>152</ele><time>2023-03-17T14:01:00Z</time><name>PT3724</name></trkpt>
<trkpt lat="53.168528" lon="-2.098439"><ele>154</ele><time>2023-03-17T14:01:04Z</time><name>PT3725</name></trkpt>
<trkpt lat="53.168508" lon="-2.098464"><ele>154</ele><time>2023-03-17T14:01:09Z</time><name>PT3726</name></trkpt>
<trkpt lat="53.168486" lon="-2.098480"><ele>153</ele><time>2023-03-17T14:01:12Z</time><name>PT3727</name></trkpt>
<trkpt lat="53.168463" lon="-2.098499"><ele>152</ele><time>2023-03-17T14:01:15Z</time><name>PT3728</name></trkpt>
<trkpt lat="53.168422" lon="-2.098520"><ele>151</ele><time>2023-03-17T14:01:18Z</time><name>PT3729</name></trkpt>
<trkpt lat="53.168367" lon="-2.098551"><ele>151</ele><time>2023-03-17T14:01:22Z</time><name>PT3730</name></trkpt>
<trkpt lat="53.168337" lon="-2.098588"><ele>152</ele><time>2023-03-17T14:01:25Z</time><name>PT3731</name></trkpt>
<trkpt lat="53.168297" lon="-2.098644"><ele>152</ele><time>2023-03-17T14:01:30Z</time><name>PT3732</name></trkpt>
<trkpt lat="53.168263" lon="-2.098687"><ele>153</ele><time>2023-03-17T14:01:33Z</time><name>PT3733</name></trkpt>
<trkpt lat="53.168231" lon="-2.098714"><ele>154</ele><time>2023-03-17T14:01:36Z</time><name>PT3734</name></trkpt>
<trkpt lat="53.168188" lon="-2.098748"><ele>156</ele><time>2023-03-17T14:01:39Z</time><name>PT3735</name></trkpt>
<trkpt lat="53.168142" lon="-2.098792"><ele>155</ele><time>2023-03-17T14:01:43Z</time><name>PT3736</name></trkpt>
<trkpt lat="53.168110" lon="-2.098836"><ele>156</ele><time>2023-03-17T14:01:48Z</time><name>PT3737</name></trkpt>
<trkpt lat="53.168086" lon="-2.098864"><ele>156</ele><time>2023-03-17T14:01:51Z</time><name>PT3738</name></trkpt>
<trkpt lat="53.168050" lon="-2.098923"><ele>157</ele><time>2023-03-17T14:01:54Z</time><name>PT3739</name></trkpt>
<trkpt lat="53.168011" lon="-2.098986"><ele>159</ele><time>2023-03-17T14:01:58Z</time><name>PT3740</name></trkpt>
<trkpt lat="53.167977" lon="-2.099040"><ele>160</ele><time>2023-03-17T14:02:03Z</time><name>PT3741</name></trkpt>
<trkpt lat="53.167948" lon="-2.099088"><ele>160</ele><time>2023-03-17T14:02:06Z</time><name>PT3742</name></trkpt>
<trkpt lat="53.167925" lon="-2.099121"><ele>159</ele><time>2023-03-17T14:02:09Z</time><name>PT3743</name></trkpt>
<trkpt lat="53.167910" lon="-2.099144"><ele>158</ele><time>2023-03-17T14:02:12Z</time><name>PT3744</name></trkpt>
<trkpt lat="53.167888" lon="-2.099209"><ele>157</ele><time>2023-03-17T14:02:16Z</time><name>PT3745</name></trkpt>
<trkpt lat="53.167870" lon="-2.099251"><ele>158</ele><time>2023-03-17T14:02:19Z</time><name>PT3746</name></trkpt>
<trkpt lat="53.167852" lon="-2.099306"><ele>158</ele><time>2023-03-17T14:02:22Z</time><name>PT3747</name></trkpt>
<trkpt lat="53.167837" lon="-2.099344"><ele>157</ele><time>2023-03-17T14:02:25Z</time><name>PT3748</name></trkpt>
<trkpt lat="53.167821" lon="-2.099385"><ele>157</ele><time>2023-03-17T14:02:30Z</time><name>PT3749</name></trkpt>
<trkpt lat="53.167811" lon="-2.099426"><ele>157</ele><time>2023-03-17T14:02:33Z</time><name>PT3750</name></trkpt>
<trkpt lat="53.167809" lon="-2.099462"><ele>158</ele><time>2023-03-17T14:02:36Z</time><name>PT3751</name></trkpt>
<trkpt lat="53.167808" lon="-2.099469"><ele>157</ele><time>2023-03-17T14:02:39Z</time><name>PT3752</name></trkpt>
<trkpt lat="53.167798" lon="-2.099487"><ele>157</ele><time>2023-03-17T14:02:42Z</time><name>PT3753</name></trkpt>
<trkpt lat="53.167782" lon="-2.099513"><ele>158</ele><time>2023-03-17T14:02:46Z</time><name>PT3754</name></trkpt>
<trkpt lat="53.167777" lon="-2.099543"><ele>159</ele><time>2023-03-17T14:02:49Z</time><name>PT3755</name></trkpt>
<trkpt lat="53.167774" lon="-2.099553"><ele>159</ele><time>2023-03-17T14:02:56Z</time><name>PT3756</name></trkpt>
<trkpt lat="53.167771" lon="-2.099555"><ele>159</ele><time>2023-03-17T14:03:00Z</time><name>PT3757</name></trkpt>
<trkpt lat="53.167749" lon="-2.099550"><ele>159</ele><time>2023-03-17T14:03:13Z</time><name>PT3758</name></trkpt>
<trkpt lat="53.167741" lon="-2.099530"><ele>160</ele><time>2023-03-17T14:03:16Z</time><name>PT3759</name></trkpt>
<trkpt lat="53.167745" lon="-2.099516"><ele>160</ele><time>2023-03-17T14:03:21Z</time><name>PT3760</name></trkpt>
<trkpt lat="53.167754" lon="-2.099529"><ele>160</ele><time>2023-03-17T14:03:31Z</time><name>PT3761</name></trkpt>
<trkpt lat="53.167756" lon="-2.099534"><ele>160</ele><time>2023-03-17T14:03:34Z</time><name>PT3762</name></trkpt>
<trkpt lat="53.167755" lon="-2.099549"><ele>160</ele><time>2023-03-17T14:03:45Z</time><name>PT3763</name></trkpt>
<trkpt lat="53.167753" lon="-2.099557"><ele>160</ele><time>2023-03-17T14:04:06Z</time><name>PT3764</name></trkpt>
<trkpt lat="53.167758" lon="-2.099569"><ele>161</ele><time>2023-03-17T14:04:27Z</time><name>PT3765</name></trkpt>
<trkpt lat="53.167752" lon="-2.099598"><ele>162</ele><time>2023-03-17T14:04:40Z</time><name>PT3766</name></trkpt>
<trkpt lat="53.167738" lon="-2.099634"><ele>162</ele><time>2023-03-17T14:04:45Z</time><name>PT3767</name></trkpt>
<trkpt lat="53.167714" lon="-2.099683"><ele>162</ele><time>2023-03-17T14:04:48Z</time><name>PT3768</name></trkpt>
<trkpt lat="53.167693" lon="-2.099745"><ele>161</ele><time>2023-03-17T14:04:51Z</time><name>PT3769</name></trkpt>
<trkpt lat="53.167686" lon="-2.099789"><ele>161</ele><time>2023-03-17T14:04:55Z</time><name>PT3770</name></trkpt>
<trkpt lat="53.167677" lon="-2.099852"><ele>162</ele><time>2023-03-17T14:05:00Z</time><name>PT3771</name></trkpt>
<trkpt lat="53.167669" lon="-2.099877"><ele>162</ele><time>2023-03-17T14:05:03Z</time><name>PT3772</name></trkpt>
<trkpt lat="53.167663" lon="-2.099914"><ele>162</ele><time>2023-03-17T14:05:06Z</time><name>PT3773</name></trkpt>
<trkpt lat="53.167644" lon="-2.099978"><ele>162</ele><time>2023-03-17T14:05:09Z</time><name>PT3774</name></trkpt>
<trkpt lat="53.167627" lon="-2.100047"><ele>163</ele><time>2023-03-17T14:05:13Z</time><name>PT3775</name></trkpt>
<trkpt lat="53.167610" lon="-2.100085"><ele>162</ele><time>2023-03-17T14:05:16Z</time><name>PT3776</name></trkpt>
<trkpt lat="53.167588" lon="-2.100129"><ele>162</ele><time>2023-03-17T14:05:19Z</time><name>PT3777</name></trkpt>
<trkpt lat="53.167576" lon="-2.100195"><ele>162</ele><time>2023-03-17T14:05:24Z</time><name>PT3778</name></trkpt>
<trkpt lat="53.167559" lon="-2.100244"><ele>161</ele><time>2023-03-17T14:05:27Z</time><name>PT3779</name></trkpt>
<trkpt lat="53.167541" lon="-2.100305"><ele>161</ele><time>2023-03-17T14:05:30Z</time><name>PT3780</name></trkpt>
<trkpt lat="53.167522" lon="-2.100365"><ele>160</ele><time>2023-03-17T14:05:34Z</time><name>PT3781</name></trkpt>
<trkpt lat="53.167514" lon="-2.100398"><ele>160</ele><time>2023-03-17T14:05:37Z</time><name>PT3782</name></trkpt>
<trkpt lat="53.167499" lon="-2.100431"><ele>160</ele><time>2023-03-17T14:05:40Z</time><name>PT3783</name></trkpt>
<trkpt lat="53.167491" lon="-2.100484"><ele>161</ele><time>2023-03-17T14:05:43Z</time><name>PT3784</name></trkpt>
<trkpt lat="53.167477" lon="-2.100550"><ele>161</ele><time>2023-03-17T14:05:48Z</time><name>PT3785</name></trkpt>
<trkpt lat="53.167460" lon="-2.100595"><ele>161</ele><time>2023-03-17T14:05:51Z</time><name>PT3786</name></trkpt>
<trkpt lat="53.167452" lon="-2.100661"><ele>162</ele><time>2023-03-17T14:05:55Z</time><name>PT3787</name></trkpt>
<trkpt lat="53.167427" lon="-2.100709"><ele>161</ele><time>2023-03-17T14:06:00Z</time><name>PT3788</name></trkpt>
<trkpt lat="53.167410" lon="-2.100742"><ele>160</ele><time>2023-03-17T14:06:03Z</time><name>PT3789</name></trkpt>
<trkpt lat="53.167390" lon="-2.100799"><ele>161</ele><time>2023-03-17T14:06:06Z</time><name>PT3790</name></trkpt>
<trkpt lat="53.167363" lon="-2.100855"><ele>161</ele><time>2023-03-17T14:06:10Z</time><name>PT3791</name></trkpt>
<trkpt lat="53.167338" lon="-2.100921"><ele>162</ele><time>2023-03-17T14:06:15Z</time><name>PT3792</name></trkpt>
<trkpt lat="53.167321" lon="-2.100970"><ele>162</ele><time>2023-03-17T14:06:18Z</time><name>PT3793</name></trkpt>
<trkpt lat="53.167306" lon="-2.101032"><ele>163</ele><time>2023-03-17T14:06:21Z</time><name>PT3794</name></trkpt>
<trkpt lat="53.167284" lon="-2.101114"><ele>164</ele><time>2023-03-17T14:06:24Z</time><name>PT3795</name></trkpt>
<trkpt lat="53.167256" lon="-2.101141"><ele>162</ele><time>2023-03-17T14:06:27Z</time><name>PT3796</name></trkpt>
<trkpt lat="53.167235" lon="-2.101196"><ele>162</ele><time>2023-03-17T14:06:30Z</time><name>PT3797</name></trkpt>
<trkpt lat="53.167212" lon="-2.101260"><ele>163</ele><time>2023-03-17T14:06:34Z</time><name>PT3798</name></trkpt>
<trkpt lat="53.167183" lon="-2.101331"><ele>163</ele><time>2023-03-17T14:06:39Z</time><name>PT3799</name></trkpt>
<trkpt lat="53.167166" lon="-2.101376"><ele>163</ele><time>2023-03-17T14:06:42Z</time><name>PT3800</name></trkpt>
<trkpt lat="53.167140" lon="-2.101414"><ele>162</ele><time>2023-03-17T14:06:45Z</time><name>PT3801</name></trkpt>
<trkpt lat="53.167118" lon="-2.101465"><ele>162</ele><time>2023-03-17T14:06:48Z</time><name>PT3802</name></trkpt>
<trkpt lat="53.167096" lon="-2.101530"><ele>162</ele><time>2023-03-17T14:06:52Z</time><name>PT3803</name></trkpt>
<trkpt lat="53.167077" lon="-2.101581"><ele>162</ele><time>2023-03-17T14:06:55Z</time><name>PT3804</name></trkpt>
<trkpt lat="53.167057" lon="-2.101628"><ele>162</ele><time>2023-03-17T14:06:58Z</time><name>PT3805</name></trkpt>
<trkpt lat="53.167029" lon="-2.101685"><ele>162</ele><time>2023-03-17T14:07:03Z</time><name>PT3806</name></trkpt>
<trkpt lat="53.166996" lon="-2.101750"><ele>163</ele><time>2023-03-17T14:07:06Z</time><name>PT3807</name></trkpt>
<trkpt lat="53.166974" lon="-2.101800"><ele>162</ele><time>2023-03-17T14:07:09Z</time><name>PT3808</name></trkpt>
<trkpt lat="53.166960" lon="-2.101822"><ele>161</ele><time>2023-03-17T14:07:12Z</time><name>PT3809</name></trkpt>
<trkpt lat="53.166924" lon="-2.101858"><ele>160</ele><time>2023-03-17T14:07:16Z</time><name>PT3810</name></trkpt>
<trkpt lat="53.166895" lon="-2.101884"><ele>160</ele><time>2023-03-17T14:07:21Z</time><name>PT3811</name></trkpt>
<trkpt lat="53.166868" lon="-2.101909"><ele>160</ele><time>2023-03-17T14:07:24Z</time><name>PT3812</name></trkpt>
<trkpt lat="53.166841" lon="-2.101950"><ele>160</ele><time>2023-03-17T14:07:27Z</time><name>PT3813</name></trkpt>
<trkpt lat="53.166808" lon="-2.101985"><ele>160</ele><time>2023-03-17T14:07:30Z</time><name>PT3814</name></trkpt>
<trkpt lat="53.166779" lon="-2.102005"><ele>160</ele><time>2023-03-17T14:07:33Z</time><name>PT3815</name></trkpt>
<trkpt lat="53.166728" lon="-2.102071"><ele>161</ele><time>2023-03-17T14:07:37Z</time><name>PT3816</name></trkpt>
<trkpt lat="53.166694" lon="-2.102115"><ele>162</ele><time>2023-03-17T14:07:40Z</time><name>PT3817</name></trkpt>
<trkpt lat="53.166674" lon="-2.102137"><ele>163</ele><time>2023-03-17T14:07:43Z</time><name>PT3818</name></trkpt>
<trkpt lat="53.166664" lon="-2.102145"><ele>164</ele><time>2023-03-17T14:07:48Z</time><name>PT3819</name></trkpt>
<trkpt lat="53.166648" lon="-2.102142"><ele>164</ele><time>2023-03-17T14:07:51Z</time><name>PT3820</name></trkpt>
<trkpt lat="53.166627" lon="-2.102139"><ele>165</ele><time>2023-03-17T14:07:54Z</time><name>PT3821</name></trkpt>
<trkpt lat="53.166613" lon="-2.102132"><ele>165</ele><time>2023-03-17T14:07:58Z</time><name>PT3822</name></trkpt>
<trkpt lat="53.166601" lon="-2.102146"><ele>165</ele><time>2023-03-17T14:08:01Z</time><name>PT3823</name></trkpt>
<trkpt lat="53.166557" lon="-2.102183"><ele>164</ele><time>2023-03-17T14:08:06Z</time><name>PT3824</name></trkpt>
<trkpt lat="53.166518" lon="-2.102207"><ele>163</ele><time>2023-03-17T14:08:09Z</time><name>PT3825</name></trkpt>
<trkpt lat="53.166485" lon="-2.102230"><ele>162</ele><time>2023-03-17T14:08:13Z</time><name>PT3826</name></trkpt>
<trkpt lat="53.166448" lon="-2.102267"><ele>161</ele><time>2023-03-17T14:08:18Z</time><name>PT3827</name></trkpt>
<trkpt lat="53.166417" lon="-2.102272"><ele>160</ele><time>2023-03-17T14:08:21Z</time><name>PT3828</name></trkpt>
<trkpt lat="53.166378" lon="-2.102300"><ele>160</ele><time>2023-03-17T14:08:24Z</time><name>PT3829</name></trkpt>
<trkpt lat="53.166330" lon="-2.102332"><ele>160</ele><time>2023-03-17T14:08:28Z</time><name>PT3830</name></trkpt>
<trkpt lat="53.166291" lon="-2.102359"><ele>161</ele><time>2023-03-17T14:08:31Z</time><name>PT3831</name></trkpt>
<trkpt lat="53.166245" lon="-2.102398"><ele>162</ele><time>2023-03-17T14:08:36Z</time><name>PT3832</name></trkpt>
<trkpt lat="53.166207" lon="-2.102423"><ele>160</ele><time>2023-03-17T14:08:39Z</time><name>PT3833</name></trkpt>
<trkpt lat="53.166173" lon="-2.102448"><ele>160</ele><time>2023-03-17T14:08:42Z</time><name>PT3834</name></trkpt>
<trkpt lat="53.166126" lon="-2.102471"><ele>161</ele><time>2023-03-17T14:08:45Z</time><name>PT3835</name></trkpt>
<trkpt lat="53.166091" lon="-2.102495"><ele>160</ele><time>2023-03-17T14:08:48Z</time><name>PT3836</name></trkpt>
<trkpt lat="53.166051" lon="-2.102502"><ele>160</ele><time>2023-03-17T14:08:52Z</time><name>PT3837</name></trkpt>
<trkpt lat="53.166007" lon="-2.102517"><ele>158</ele><time>2023-03-17T14:08:57Z</time><name>PT3838</name></trkpt>
<trkpt lat="53.165970" lon="-2.102513"><ele>158</ele><time>2023-03-17T14:09:00Z</time><name>PT3839</name></trkpt>
<trkpt lat="53.165926" lon="-2.102513"><ele>158</ele><time>2023-03-17T14:09:03Z</time><name>PT3840</name></trkpt>
<trkpt lat="53.165877" lon="-2.102494"><ele>157</ele><time>2023-03-17T14:09:07Z</time><name>PT3841</name></trkpt>
<trkpt lat="53.165847" lon="-2.102501"><ele>157</ele><time>2023-03-17T14:09:10Z</time><name>PT3842</name></trkpt>
<trkpt lat="53.165799" lon="-2.102501"><ele>157</ele><time>2023-03-17T14:09:15Z</time><name>PT3843</name></trkpt>
<trkpt lat="53.165766" lon="-2.102495"><ele>158</ele><time>2023-03-17T14:09:18Z</time><name>PT3844</name></trkpt>
<trkpt lat="53.165723" lon="-2.102479"><ele>157</ele><time>2023-03-17T14:09:21Z</time><name>PT3845</name></trkpt>
<trkpt lat="53.165682" lon="-2.102454"><ele>154</ele><time>2023-03-17T14:09:25Z</time><name>PT3846</name></trkpt>
<trkpt lat="53.165648" lon="-2.102438"><ele>152</ele><time>2023-03-17T14:09:28Z</time><name>PT3847</name></trkpt>
<trkpt lat="53.165609" lon="-2.102427"><ele>152</ele><time>2023-03-17T14:09:33Z</time><name>PT3848</name></trkpt>
<trkpt lat="53.165576" lon="-2.102438"><ele>153</ele><time>2023-03-17T14:09:36Z</time><name>PT3849</name></trkpt>
<trkpt lat="53.165538" lon="-2.102437"><ele>152</ele><time>2023-03-17T14:09:39Z</time><name>PT3850</name></trkpt>
<trkpt lat="53.165497" lon="-2.102430"><ele>150</ele><time>2023-03-17T14:09:42Z</time><name>PT3851</name></trkpt>
<trkpt lat="53.165438" lon="-2.102413"><ele>151</ele><time>2023-03-17T14:09:45Z</time><name>PT3852</name></trkpt>
<trkpt lat="53.165395" lon="-2.102415"><ele>151</ele><time>2023-03-17T14:09:49Z</time><name>PT3853</name></trkpt>
<trkpt lat="53.165361" lon="-2.102398"><ele>151</ele><time>2023-03-17T14:09:52Z</time><name>PT3854</name></trkpt>
<trkpt lat="53.165325" lon="-2.102399"><ele>152</ele><time>2023-03-17T14:09:55Z</time><name>PT3855</name></trkpt>
<trkpt lat="53.165287" lon="-2.102386"><ele>151</ele><time>2023-03-17T14:10:00Z</time><name>PT3856</name></trkpt>
<trkpt lat="53.165234" lon="-2.102386"><ele>154</ele><time>2023-03-17T14:10:03Z</time><name>PT3857</name></trkpt>
<trkpt lat="53.165182" lon="-2.102383"><ele>155</ele><time>2023-03-17T14:10:06Z</time><name>PT3858</name></trkpt>
<trkpt lat="53.165145" lon="-2.102362"><ele>155</ele><time>2023-03-17T14:10:09Z</time><name>PT3859</name></trkpt>
<trkpt lat="53.165092" lon="-2.102370"><ele>155</ele><time>2023-03-17T14:10:12Z</time><name>PT3860</name></trkpt>
<trkpt lat="53.165038" lon="-2.102381"><ele>159</ele><time>2023-03-17T14:10:15Z</time><name>PT3861</name></trkpt>
<trkpt lat="53.164986" lon="-2.102384"><ele>158</ele><time>2023-03-17T14:10:19Z</time><name>PT3862</name></trkpt>
<trkpt lat="53.164926" lon="-2.102386"><ele>159</ele><time>2023-03-17T14:10:24Z</time><name>PT3863</name></trkpt>
<trkpt lat="53.164888" lon="-2.102390"><ele>160</ele><time>2023-03-17T14:10:27Z</time><name>PT3864</name></trkpt>
<trkpt lat="53.164850" lon="-2.102392"><ele>162</ele><time>2023-03-17T14:10:30Z</time><name>PT3865</name></trkpt>
<trkpt lat="53.164805" lon="-2.102366"><ele>160</ele><time>2023-03-17T14:10:33Z</time><name>PT3866</name></trkpt>
<trkpt lat="53.164772" lon="-2.102382"><ele>159</ele><time>2023-03-17T14:10:36Z</time><name>PT3867</name></trkpt>
<trkpt lat="53.164733" lon="-2.102382"><ele>159</ele><time>2023-03-17T14:10:39Z</time><name>PT3868</name></trkpt>
<trkpt lat="53.164688" lon="-2.102378"><ele>158</ele><time>2023-03-17T14:10:43Z</time><name>PT3869</name></trkpt>
<trkpt lat="53.164653" lon="-2.102367"><ele>157</ele><time>2023-03-17T14:10:48Z</time><name>PT3870</name></trkpt>
<trkpt lat="53.164609" lon="-2.102357"><ele>158</ele><time>2023-03-17T14:10:51Z</time><name>PT3871</name></trkpt>
<trkpt lat="53.164556" lon="-2.102359"><ele>158</ele><time>2023-03-17T14:10:54Z</time><name>PT3872</name></trkpt>
<trkpt lat="53.164498" lon="-2.102377"><ele>158</ele><time>2023-03-17T14:10:58Z</time><name>PT3873</name></trkpt>
<trkpt lat="53.164453" lon="-2.102367"><ele>157</ele><time>2023-03-17T14:11:03Z</time><name>PT3874</name></trkpt>
<trkpt lat="53.164418" lon="-2.102353"><ele>157</ele><time>2023-03-17T14:11:06Z</time><name>PT3875</name></trkpt>
<trkpt lat="53.164368" lon="-2.102339"><ele>155</ele><time>2023-03-17T14:11:09Z</time><name>PT3876</name></trkpt>
<trkpt lat="53.164330" lon="-2.102351"><ele>156</ele><time>2023-03-17T14:11:13Z</time><name>PT3877</name></trkpt>
<trkpt lat="53.164278" lon="-2.102332"><ele>157</ele><time>2023-03-17T14:11:18Z</time><name>PT3878</name></trkpt>
<trkpt lat="53.164245" lon="-2.102329"><ele>158</ele><time>2023-03-17T14:11:21Z</time><name>PT3879</name></trkpt>
<trkpt lat="53.164194" lon="-2.102336"><ele>158</ele><time>2023-03-17T14:11:24Z</time><name>PT3880</name></trkpt>
<trkpt lat="53.164148" lon="-2.102311"><ele>156</ele><time>2023-03-17T14:11:27Z</time><name>PT3881</name></trkpt>
<trkpt lat="53.164111" lon="-2.102291"><ele>154</ele><time>2023-03-17T14:11:30Z</time><name>PT3882</name></trkpt>
<trkpt lat="53.164060" lon="-2.102319"><ele>155</ele><time>2023-03-17T14:11:34Z</time><name>PT3883</name></trkpt>
<trkpt lat="53.164022" lon="-2.102309"><ele>154</ele><time>2023-03-17T14:11:37Z</time><name>PT3884</name></trkpt>
<trkpt lat="53.163973" lon="-2.102303"><ele>155</ele><time>2023-03-17T14:11:42Z</time><name>PT3885</name></trkpt>
<trkpt lat="53.163945" lon="-2.102303"><ele>155</ele><time>2023-03-17T14:11:45Z</time><name>PT3886</name></trkpt>
<trkpt lat="53.163899" lon="-2.102280"><ele>155</ele><time>2023-03-17T14:11:48Z</time><name>PT3887</name></trkpt>
<trkpt lat="53.163845" lon="-2.102283"><ele>156</ele><time>2023-03-17T14:11:52Z</time><name>PT3888</name></trkpt>
<trkpt lat="53.163796" lon="-2.102279"><ele>157</ele><time>2023-03-17T14:11:57Z</time><name>PT3889</name></trkpt>
<trkpt lat="53.163764" lon="-2.102282"><ele>157</ele><time>2023-03-17T14:12:00Z</time><name>PT3890</name></trkpt>
<trkpt lat="53.163724" lon="-2.102257"><ele>158</ele><time>2023-03-17T14:12:04Z</time><name>PT3891</name></trkpt>
<trkpt lat="53.163697" lon="-2.102237"><ele>157</ele><time>2023-03-17T14:12:07Z</time><name>PT3892</name></trkpt>
<trkpt lat="53.163655" lon="-2.102225"><ele>158</ele><time>2023-03-17T14:12:12Z</time><name>PT3893</name></trkpt>
<trkpt lat="53.163632" lon="-2.102217"><ele>159</ele><time>2023-03-17T14:12:15Z</time><name>PT3894</name></trkpt>
<trkpt lat="53.163582" lon="-2.102186"><ele>160</ele><time>2023-03-17T14:12:18Z</time><name>PT3895</name></trkpt>
<trkpt lat="53.163538" lon="-2.102161"><ele>160</ele><time>2023-03-17T14:12:22Z</time><name>PT3896</name></trkpt>
<trkpt lat="53.163510" lon="-2.102139"><ele>160</ele><time>2023-03-17T14:12:25Z</time><name>PT3897</name></trkpt>
<trkpt lat="53.163457" lon="-2.102110"><ele>162</ele><time>2023-03-17T14:12:30Z</time><name>PT3898</name></trkpt>
<trkpt lat="53.163426" lon="-2.102084"><ele>163</ele><time>2023-03-17T14:12:33Z</time><name>PT3899</name></trkpt>
<trkpt lat="53.163377" lon="-2.102040"><ele>164</ele><time>2023-03-17T14:12:36Z</time><name>PT3900</name></trkpt>
<trkpt lat="53.163342" lon="-2.102012"><ele>163</ele><time>2023-03-17T14:12:40Z</time><name>PT3901</name></trkpt>
<trkpt lat="53.163308" lon="-2.101991"><ele>163</ele><time>2023-03-17T14:12:43Z</time><name>PT3902</name></trkpt>
<trkpt lat="53.163263" lon="-2.101948"><ele>164</ele><time>2023-03-17T14:12:48Z</time><name>PT3903</name></trkpt>
<trkpt lat="53.163242" lon="-2.101924"><ele>163</ele><time>2023-03-17T14:12:51Z</time><name>PT3904</name></trkpt>
<trkpt lat="53.163205" lon="-2.101875"><ele>161</ele><time>2023-03-17T14:12:54Z</time><name>PT3905</name></trkpt>
<trkpt lat="53.163149" lon="-2.101833"><ele>161</ele><time>2023-03-17T14:12:58Z</time><name>PT3906</name></trkpt>
<trkpt lat="53.163113" lon="-2.101801"><ele>162</ele><time>2023-03-17T14:13:01Z</time><name>PT3907</name></trkpt>
<trkpt lat="53.163067" lon="-2.101757"><ele>162</ele><time>2023-03-17T14:13:04Z</time><name>PT3908</name></trkpt>
<trkpt lat="53.163016" lon="-2.101720"><ele>162</ele><time>2023-03-17T14:13:09Z</time><name>PT3909</name></trkpt>
<trkpt lat="53.162971" lon="-2.101688"><ele>162</ele><time>2023-03-17T14:13:12Z</time><name>PT3910</name></trkpt>
<trkpt lat="53.162933" lon="-2.101659"><ele>162</ele><time>2023-03-17T14:13:15Z</time><name>PT3911</name></trkpt>
<trkpt lat="53.162897" lon="-2.101616"><ele>162</ele><time>2023-03-17T14:13:18Z</time><name>PT3912</name></trkpt>
<trkpt lat="53.162868" lon="-2.101584"><ele>162</ele><time>2023-03-17T14:13:21Z</time><name>PT3913</name></trkpt>
<trkpt lat="53.162832" lon="-2.101519"><ele>161</ele><time>2023-03-17T14:13:25Z</time><name>PT3914</name></trkpt>
<trkpt lat="53.162806" lon="-2.101475"><ele>161</ele><time>2023-03-17T14:13:28Z</time><name>PT3915</name></trkpt>
<trkpt lat="53.162767" lon="-2.101431"><ele>161</ele><time>2023-03-17T14:13:33Z</time><name>PT3916</name></trkpt>
<trkpt lat="53.162745" lon="-2.101398"><ele>161</ele><time>2023-03-17T14:13:36Z</time><name>PT3917</name></trkpt>
<trkpt lat="53.162717" lon="-2.101360"><ele>160</ele><time>2023-03-17T14:13:39Z</time><name>PT3918</name></trkpt>
<trkpt lat="53.162691" lon="-2.101316"><ele>160</ele><time>2023-03-17T14:13:42Z</time><name>PT3919</name></trkpt>
<trkpt lat="53.162662" lon="-2.101256"><ele>160</ele><time>2023-03-17T14:13:46Z</time><name>PT3920</name></trkpt>
<trkpt lat="53.162647" lon="-2.101206"><ele>160</ele><time>2023-03-17T14:13:49Z</time><name>PT3921</name></trkpt>
<trkpt lat="53.162624" lon="-2.101114"><ele>161</ele><time>2023-03-17T14:13:54Z</time><name>PT3922</name></trkpt>
<trkpt lat="53.162622" lon="-2.101055"><ele>161</ele><time>2023-03-17T14:13:57Z</time><name>PT3923</name></trkpt>
<trkpt lat="53.162600" lon="-2.100991"><ele>162</ele><time>2023-03-17T14:14:00Z</time><name>PT3924</name></trkpt>
<trkpt lat="53.162569" lon="-2.100918"><ele>162</ele><time>2023-03-17T14:14:03Z</time><name>PT3925</name></trkpt>
<trkpt lat="53.162554" lon="-2.100835"><ele>162</ele><time>2023-03-17T14:14:07Z</time><name>PT3926</name></trkpt>
<trkpt lat="53.162517" lon="-2.100759"><ele>163</ele><time>2023-03-17T14:14:12Z</time><name>PT3927</name></trkpt>
<trkpt lat="53.162497" lon="-2.100699"><ele>160</ele><time>2023-03-17T14:14:15Z</time><name>PT3928</name></trkpt>
<trkpt lat="53.162472" lon="-2.100610"><ele>159</ele><time>2023-03-17T14:14:18Z</time><name>PT3929</name></trkpt>
<trkpt lat="53.162439" lon="-2.100528"><ele>159</ele><time>2023-03-17T14:14:22Z</time><name>PT3930</name></trkpt>
<trkpt lat="53.162424" lon="-2.100471"><ele>160</ele><time>2023-03-17T14:14:25Z</time><name>PT3931</name></trkpt>
<trkpt lat="53.162397" lon="-2.100390"><ele>161</ele><time>2023-03-17T14:14:30Z</time><name>PT3932</name></trkpt>
<trkpt lat="53.162374" lon="-2.100335"><ele>161</ele><time>2023-03-17T14:14:33Z</time><name>PT3933</name></trkpt>
<trkpt lat="53.162368" lon="-2.100284"><ele>161</ele><time>2023-03-17T14:14:36Z</time><name>PT3934</name></trkpt>
<trkpt lat="53.162337" lon="-2.100224"><ele>162</ele><time>2023-03-17T14:14:39Z</time><name>PT3935</name></trkpt>
<trkpt lat="53.162332" lon="-2.100168"><ele>160</ele><time>2023-03-17T14:14:42Z</time><name>PT3936</name></trkpt>
<trkpt lat="53.162302" lon="-2.100110"><ele>159</ele><time>2023-03-17T14:14:46Z</time><name>PT3937</name></trkpt>
<trkpt lat="53.162281" lon="-2.100059"><ele>158</ele><time>2023-03-17T14:14:49Z</time><name>PT3938</name></trkpt>
<trkpt lat="53.162259" lon="-2.099999"><ele>156</ele><time>2023-03-17T14:14:54Z</time><name>PT3939</name></trkpt>
<trkpt lat="53.162244" lon="-2.099940"><ele>154</ele><time>2023-03-17T14:14:57Z</time><name>PT3940</name></trkpt>
<trkpt lat="53.162220" lon="-2.099881"><ele>153</ele><time>2023-03-17T14:15:01Z</time><name>PT3941</name></trkpt>
<trkpt lat="53.162207" lon="-2.099814"><ele>155</ele><time>2023-03-17T14:15:04Z</time><name>PT3942</name></trkpt>
<trkpt lat="53.162194" lon="-2.099755"><ele>154</ele><time>2023-03-17T14:15:07Z</time><name>PT3943</name></trkpt>
<trkpt lat="53.162178" lon="-2.099711"><ele>157</ele><time>2023-03-17T14:15:10Z</time><name>PT3944</name></trkpt>
<trkpt lat="53.162167" lon="-2.099649"><ele>158</ele><time>2023-03-17T14:15:15Z</time><name>PT3945</name></trkpt>
<trkpt lat="53.162156" lon="-2.099571"><ele>156</ele><time>2023-03-17T14:15:18Z</time><name>PT3946</name></trkpt>
<trkpt lat="53.162124" lon="-2.099489"><ele>160</ele><time>2023-03-17T14:15:22Z</time><name>PT3947</name></trkpt>
<trkpt lat="53.162105" lon="-2.099421"><ele>161</ele><time>2023-03-17T14:15:27Z</time><name>PT3948</name></trkpt>
<trkpt lat="53.162084" lon="-2.099377"><ele>163</ele><time>2023-03-17T14:15:30Z</time><name>PT3949</name></trkpt>
<trkpt lat="53.162072" lon="-2.099337"><ele>164</ele><time>2023-03-17T14:15:33Z</time><name>PT3950</name></trkpt>
<trkpt lat="53.162061" lon="-2.099317"><ele>165</ele><time>2023-03-17T14:15:36Z</time><name>PT3951</name></trkpt>
<trkpt lat="53.162062" lon="-2.099306"><ele>165</ele><time>2023-03-17T14:15:39Z</time><name>PT3952</name></trkpt>
<trkpt lat="53.162040" lon="-2.099238"><ele>166</ele><time>2023-03-17T14:15:42Z</time><name>PT3953</name></trkpt>
<trkpt lat="53.162015" lon="-2.099138"><ele>166</ele><time>2023-03-17T14:15:46Z</time><name>PT3954</name></trkpt>
<trkpt lat="53.161996" lon="-2.099078"><ele>166</ele><time>2023-03-17T14:15:49Z</time><name>PT3955</name></trkpt>
<trkpt lat="53.161981" lon="-2.099020"><ele>166</ele><time>2023-03-17T14:15:52Z</time><name>PT3956</name></trkpt>
<trkpt lat="53.161963" lon="-2.098941"><ele>166</ele><time>2023-03-17T14:15:57Z</time><name>PT3957</name></trkpt>
<trkpt lat="53.161939" lon="-2.098870"><ele>166</ele><time>2023-03-17T14:16:00Z</time><name>PT3958</name></trkpt>
<trkpt lat="53.161920" lon="-2.098792"><ele>167</ele><time>2023-03-17T14:16:04Z</time><name>PT3959</name></trkpt>
<trkpt lat="53.161912" lon="-2.098716"><ele>166</ele><time>2023-03-17T14:16:09Z</time><name>PT3960</name></trkpt>
<trkpt lat="53.161904" lon="-2.098648"><ele>164</ele><time>2023-03-17T14:16:12Z</time><name>PT3961</name></trkpt>
<trkpt lat="53.161905" lon="-2.098593"><ele>162</ele><time>2023-03-17T14:16:15Z</time><name>PT3962</name></trkpt>
<trkpt lat="53.161899" lon="-2.098515"><ele>164</ele><time>2023-03-17T14:16:19Z</time><name>PT3963</name></trkpt>
<trkpt lat="53.161901" lon="-2.098431"><ele>164</ele><time>2023-03-17T14:16:24Z</time><name>PT3964</name></trkpt>
<trkpt lat="53.161910" lon="-2.098373"><ele>164</ele><time>2023-03-17T14:16:27Z</time><name>PT3965</name></trkpt>
<trkpt lat="53.161919" lon="-2.098296"><ele>164</ele><time>2023-03-17T14:16:30Z</time><name>PT3966</name></trkpt>
<trkpt lat="53.161927" lon="-2.098228"><ele>165</ele><time>2023-03-17T14:16:34Z</time><name>PT3967</name></trkpt>
<trkpt lat="53.161948" lon="-2.098167"><ele>165</ele><time>2023-03-17T14:16:37Z</time><name>PT3968</name></trkpt>
<trkpt lat="53.161959" lon="-2.098115"><ele>165</ele><time>2023-03-17T14:16:40Z</time><name>PT3969</name></trkpt>
<trkpt lat="53.161972" lon="-2.098070"><ele>164</ele><time>2023-03-17T14:16:43Z</time><name>PT3970</name></trkpt>
<trkpt lat="53.161983" lon="-2.098031"><ele>164</ele><time>2023-03-17T14:16:46Z</time><name>PT3971</name></trkpt>
<trkpt lat="53.161993" lon="-2.097998"><ele>165</ele><time>2023-03-17T14:16:49Z</time><name>PT3972</name></trkpt>
<trkpt lat="53.162013" lon="-2.097951"><ele>164</ele><time>2023-03-17T14:16:54Z</time><name>PT3973</name></trkpt>
<trkpt lat="53.162028" lon="-2.097902"><ele>164</ele><time>2023-03-17T14:16:57Z</time><name>PT3974</name></trkpt>
<trkpt lat="53.162035" lon="-2.097847"><ele>163</ele><time>2023-03-17T14:17:00Z</time><name>PT3975</name></trkpt>
<trkpt lat="53.162045" lon="-2.097781"><ele>163</ele><time>2023-03-17T14:17:04Z</time><name>PT3976</name></trkpt>
<trkpt lat="53.162050" lon="-2.097661"><ele>163</ele><time>2023-03-17T14:17:07Z</time><name>PT3977</name></trkpt>
<trkpt lat="53.162057" lon="-2.097572"><ele>162</ele><time>2023-03-17T14:17:10Z</time><name>PT3978</name></trkpt>
<trkpt lat="53.162068" lon="-2.097487"><ele>163</ele><time>2023-03-17T14:17:13Z</time><name>PT3979</name></trkpt>
<trkpt lat="53.162072" lon="-2.097457"><ele>164</ele><time>2023-03-17T14:17:16Z</time><name>PT3980</name></trkpt>
<trkpt lat="53.162075" lon="-2.097386"><ele>165</ele><time>2023-03-17T14:17:21Z</time><name>PT3981</name></trkpt>
<trkpt lat="53.162077" lon="-2.097332"><ele>165</ele><time>2023-03-17T14:17:24Z</time><name>PT3982</name></trkpt>
<trkpt lat="53.162081" lon="-2.097327"><ele>165</ele><time>2023-03-17T14:17:28Z</time><name>PT3983</name></trkpt>
<trkpt lat="53.162086" lon="-2.097281"><ele>165</ele><time>2023-03-17T14:17:33Z</time><name>PT3984</name></trkpt>
<trkpt lat="53.162087" lon="-2.097262"><ele>165</ele><time>2023-03-17T14:17:36Z</time><name>PT3985</name></trkpt>
<trkpt lat="53.162077" lon="-2.097260"><ele>163</ele><time>2023-03-17T14:17:45Z</time><name>PT3986</name></trkpt>
<trkpt lat="53.162055" lon="-2.097251"><ele>161</ele><time>2023-03-17T14:17:48Z</time><name>PT3987</name></trkpt>
<trkpt lat="53.161997" lon="-2.097252"><ele>160</ele><time>2023-03-17T14:17:52Z</time><name>PT3988</name></trkpt>
<trkpt lat="53.161960" lon="-2.097282"><ele>158</ele><time>2023-03-17T14:17:57Z</time><name>PT3989</name></trkpt>
<trkpt lat="53.161938" lon="-2.097319"><ele>157</ele><time>2023-03-17T14:18:00Z</time><name>PT3990</name></trkpt>
<trkpt lat="53.161906" lon="-2.097355"><ele>156</ele><time>2023-03-17T14:18:03Z</time><name>PT3991</name></trkpt>
<trkpt lat="53.161871" lon="-2.097380"><ele>156</ele><time>2023-03-17T14:18:06Z</time><name>PT3992</name></trkpt>
<trkpt lat="53.161813" lon="-2.097430"><ele>159</ele><time>2023-03-17T14:18:09Z</time><name>PT3993</name></trkpt>
<trkpt lat="53.161771" lon="-2.097457"><ele>159</ele><time>2023-03-17T14:18:12Z</time><name>PT3994</name></trkpt>
<trkpt lat="53.161717" lon="-2.097491"><ele>159</ele><time>2023-03-17T14:18:16Z</time><name>PT3995</name></trkpt>
<trkpt lat="53.161690" lon="-2.097522"><ele>158</ele><time>2023-03-17T14:18:19Z</time><name>PT3996</name></trkpt>
<trkpt lat="53.161681" lon="-2.097524"><ele>158</ele><time>2023-03-17T14:18:24Z</time><name>PT3997</name></trkpt>
<trkpt lat="53.161639" lon="-2.097526"><ele>157</ele><time>2023-03-17T14:18:27Z</time><name>PT3998</name></trkpt>
<trkpt lat="53.161629" lon="-2.097545"><ele>157</ele><time>2023-03-17T14:18:30Z</time><name>PT3999</name></trkpt>
<trkpt lat="53.161628" lon="-2.097547"><ele>157</ele><time>2023-03-17T14:18:33Z</time><name>PT4000</name></trkpt>
<trkpt lat="53.161635" lon="-2.097593"><ele>157</ele><time>2023-03-17T14:18:40Z</time><name>PT4001</name></trkpt>
<trkpt lat="53.161627" lon="-2.097624"><ele>157</ele><time>2023-03-17T14:18:45Z</time><name>PT4002</name></trkpt>
<trkpt lat="53.161626" lon="-2.097631"><ele>157</ele><time>2023-03-17T14:18:48Z</time><name>PT4003</name></trkpt>
<trkpt lat="53.161613" lon="-2.097647"><ele>157</ele><time>2023-03-17T14:19:06Z</time><name>PT4004</name></trkpt>
<trkpt lat="53.161589" lon="-2.097674"><ele>154</ele><time>2023-03-17T14:19:09Z</time><name>PT4005</name></trkpt>
<trkpt lat="53.161569" lon="-2.097680"><ele>152</ele><time>2023-03-17T14:19:12Z</time><name>PT4006</name></trkpt>
<trkpt lat="53.161530" lon="-2.097690"><ele>151</ele><time>2023-03-17T14:19:16Z</time><name>PT4007</name></trkpt>
<trkpt lat="53.161483" lon="-2.097732"><ele>150</ele><time>2023-03-17T14:19:19Z</time><name>PT4008</name></trkpt>
<trkpt lat="53.161440" lon="-2.097787"><ele>153</ele><time>2023-03-17T14:19:22Z</time><name>PT4009</name></trkpt>
<trkpt lat="53.161391" lon="-2.097833"><ele>154</ele><time>2023-03-17T14:19:27Z</time><name>PT4010</name></trkpt>
<trkpt lat="53.161335" lon="-2.097885"><ele>156</ele><time>2023-03-17T14:19:30Z</time><name>PT4011</name></trkpt>
<trkpt lat="53.161289" lon="-2.097911"><ele>156</ele><time>2023-03-17T14:19:34Z</time><name>PT4012</name></trkpt>
<trkpt lat="53.161250" lon="-2.097928"><ele>155</ele><time>2023-03-17T14:19:39Z</time><name>PT4013</name></trkpt>
<trkpt lat="53.161215" lon="-2.097942"><ele>154</ele><time>2023-03-17T14:19:42Z</time><name>PT4014</name></trkpt>
<trkpt lat="53.161168" lon="-2.098002"><ele>155</ele><time>2023-03-17T14:19:45Z</time><name>PT4015</name></trkpt>
<trkpt lat="53.161135" lon="-2.098028"><ele>155</ele><time>2023-03-17T14:19:48Z</time><name>PT4016</name></trkpt>
<trkpt lat="53.161099" lon="-2.098071"><ele>154</ele><time>2023-03-17T14:19:51Z</time><name>PT4017</name></trkpt>
<trkpt lat="53.161071" lon="-2.098100"><ele>154</ele><time>2023-03-17T14:19:54Z</time><name>PT4018</name></trkpt>
<trkpt lat="53.161037" lon="-2.098131"><ele>154</ele><time>2023-03-17T14:19:57Z</time><name>PT4019</name></trkpt>
<trkpt lat="53.160995" lon="-2.098170"><ele>152</ele><time>2023-03-17T14:20:01Z</time><name>PT4020</name></trkpt>
<trkpt lat="53.160960" lon="-2.098204"><ele>152</ele><time>2023-03-17T14:20:04Z</time><name>PT4021</name></trkpt>
<trkpt lat="53.160923" lon="-2.098236"><ele>152</ele><time>2023-03-17T14:20:07Z</time><name>PT4022</name></trkpt>
<trkpt lat="53.160872" lon="-2.098275"><ele>152</ele><time>2023-03-17T14:20:12Z</time><name>PT4023</name></trkpt>
<trkpt lat="53.160831" lon="-2.098324"><ele>153</ele><time>2023-03-17T14:20:15Z</time><name>PT4024</name></trkpt>
<trkpt lat="53.160792" lon="-2.098351"><ele>153</ele><time>2023-03-17T14:20:18Z</time><name>PT4025</name></trkpt>
<trkpt lat="53.160746" lon="-2.098398"><ele>154</ele><time>2023-03-17T14:20:21Z</time><name>PT4026</name></trkpt>
<trkpt lat="53.160703" lon="-2.098441"><ele>153</ele><time>2023-03-17T14:20:25Z</time><name>PT4027</name></trkpt>
<trkpt lat="53.160660" lon="-2.098511"><ele>154</ele><time>2023-03-17T14:20:30Z</time><name>PT4028</name></trkpt>
<trkpt lat="53.160626" lon="-2.098548"><ele>154</ele><time>2023-03-17T14:20:33Z</time><name>PT4029</name></trkpt>
<trkpt lat="53.160591" lon="-2.098588"><ele>153</ele><time>2023-03-17T14:20:36Z</time><name>PT4030</name></trkpt>
<trkpt lat="53.160554" lon="-2.098631"><ele>154</ele><time>2023-03-17T14:20:40Z</time><name>PT4031</name></trkpt>
<trkpt lat="53.160524" lon="-2.098684"><ele>154</ele><time>2023-03-17T14:20:45Z</time><name>PT4032</name></trkpt>
<trkpt lat="53.160492" lon="-2.098716"><ele>154</ele><time>2023-03-17T14:20:48Z</time><name>PT4033</name></trkpt>
<trkpt lat="53.160482" lon="-2.098739"><ele>154</ele><time>2023-03-17T14:20:51Z</time><name>PT4034</name></trkpt>
<trkpt lat="53.160476" lon="-2.098806"><ele>152</ele><time>2023-03-17T14:20:55Z</time><name>PT4035</name></trkpt>
<trkpt lat="53.160464" lon="-2.098833"><ele>152</ele><time>2023-03-17T14:21:00Z</time><name>PT4036</name></trkpt>
<trkpt lat="53.160455" lon="-2.098876"><ele>153</ele><time>2023-03-17T14:21:03Z</time><name>PT4037</name></trkpt>
<trkpt lat="53.160430" lon="-2.098904"><ele>153</ele><time>2023-03-17T14:21:06Z</time><name>PT4038</name></trkpt>
<trkpt lat="53.160423" lon="-2.098925"><ele>152</ele><time>2023-03-17T14:21:09Z</time><name>PT4039</name></trkpt>
<trkpt lat="53.160418" lon="-2.098938"><ele>151</ele><time>2023-03-17T14:21:12Z</time><name>PT4040</name></trkpt>
<trkpt lat="53.160394" lon="-2.098934"><ele>149</ele><time>2023-03-17T14:21:16Z</time><name>PT4041</name></trkpt>
<trkpt lat="53.160375" lon="-2.098920"><ele>148</ele><time>2023-03-17T14:21:19Z</time><name>PT4042</name></trkpt>
<trkpt lat="53.160353" lon="-2.098910"><ele>149</ele><time>2023-03-17T14:21:22Z</time><name>PT4043</name></trkpt>
<trkpt lat="53.160337" lon="-2.098890"><ele>151</ele><time>2023-03-17T14:21:27Z</time><name>PT4044</name></trkpt>
<trkpt lat="53.160313" lon="-2.098871"><ele>151</ele><time>2023-03-17T14:21:30Z</time><name>PT4045</name></trkpt>
<trkpt lat="53.160281" lon="-2.098848"><ele>151</ele><time>2023-03-17T14:21:33Z</time><name>PT4046</name></trkpt>
<trkpt lat="53.160267" lon="-2.098841"><ele>152</ele><time>2023-03-17T14:21:36Z</time><name>PT4047</name></trkpt>
<trkpt lat="53.160239" lon="-2.098814"><ele>151</ele><time>2023-03-17T14:21:40Z</time><name>PT4048</name></trkpt>
<trkpt lat="53.160209" lon="-2.098770"><ele>151</ele><time>2023-03-17T14:21:45Z</time><name>PT4049</name></trkpt>
<trkpt lat="53.160180" lon="-2.098729"><ele>153</ele><time>2023-03-17T14:21:48Z</time><name>PT4050</name></trkpt>
<trkpt lat="53.160166" lon="-2.098699"><ele>153</ele><time>2023-03-17T14:21:51Z</time><name>PT4051</name></trkpt>
<trkpt lat="53.160140" lon="-2.098661"><ele>154</ele><time>2023-03-17T14:21:54Z</time><name>PT4052</name></trkpt>
<trkpt lat="53.160098" lon="-2.098609"><ele>154</ele><time>2023-03-17T14:21:57Z</time><name>PT4053</name></trkpt>
<trkpt lat="53.160055" lon="-2.098539"><ele>155</ele><time>2023-03-17T14:22:01Z</time><name>PT4054</name></trkpt>
<trkpt lat="53.160021" lon="-2.098484"><ele>155</ele><time>2023-03-17T14:22:06Z</time><name>PT4055</name></trkpt>
<trkpt lat="53.159981" lon="-2.098415"><ele>157</ele><time>2023-03-17T14:22:09Z</time><name>PT4056</name></trkpt>
<trkpt lat="53.159939" lon="-2.098348"><ele>157</ele><time>2023-03-17T14:22:13Z</time><name>PT4057</name></trkpt>
<trkpt lat="53.159907" lon="-2.098308"><ele>156</ele><time>2023-03-17T14:22:16Z</time><name>PT4058</name></trkpt>
<trkpt lat="53.159876" lon="-2.098249"><ele>154</ele><time>2023-03-17T14:22:21Z</time><name>PT4059</name></trkpt>
<trkpt lat="53.159834" lon="-2.098187"><ele>154</ele><time>2023-03-17T14:22:24Z</time><name>PT4060</name></trkpt>
<trkpt lat="53.159805" lon="-2.098143"><ele>153</ele><time>2023-03-17T14:22:27Z</time><name>PT4061</name></trkpt>
<trkpt lat="53.159760" lon="-2.098086"><ele>154</ele><time>2023-03-17T14:22:31Z</time><name>PT4062</name></trkpt>
<trkpt lat="53.159719" lon="-2.098010"><ele>154</ele><time>2023-03-17T14:22:36Z</time><name>PT4063</name></trkpt>
<trkpt lat="53.159681" lon="-2.097966"><ele>154</ele><time>2023-03-17T14:22:39Z</time><name>PT4064</name></trkpt>
<trkpt lat="53.159634" lon="-2.097899"><ele>155</ele><time>2023-03-17T14:22:42Z</time><name>PT4065</name></trkpt>
<trkpt lat="53.159602" lon="-2.097855"><ele>155</ele><time>2023-03-17T14:22:45Z</time><name>PT4066</name></trkpt>
<trkpt lat="53.159560" lon="-2.097784"><ele>157</ele><time>2023-03-17T14:22:49Z</time><name>PT4067</name></trkpt>
<trkpt lat="53.159546" lon="-2.097738"><ele>158</ele><time>2023-03-17T14:22:52Z</time><name>PT4068</name></trkpt>
<trkpt lat="53.159535" lon="-2.097698"><ele>158</ele><time>2023-03-17T14:22:57Z</time><name>PT4069</name></trkpt>
<trkpt lat="53.159520" lon="-2.097657"><ele>158</ele><time>2023-03-17T14:23:00Z</time><name>PT4070</name></trkpt>
<trkpt lat="53.159497" lon="-2.097613"><ele>159</ele><time>2023-03-17T14:23:04Z</time><name>PT4071</name></trkpt>
<trkpt lat="53.159486" lon="-2.097571"><ele>158</ele><time>2023-03-17T14:23:07Z</time><name>PT4072</name></trkpt>
<trkpt lat="53.159475" lon="-2.097546"><ele>157</ele><time>2023-03-17T14:23:10Z</time><name>PT4073</name></trkpt>
<trkpt lat="53.159461" lon="-2.097492"><ele>155</ele><time>2023-03-17T14:23:15Z</time><name>PT4074</name></trkpt>
<trkpt lat="53.159455" lon="-2.097441"><ele>154</ele><time>2023-03-17T14:23:18Z</time><name>PT4075</name></trkpt>
<trkpt lat="53.159440" lon="-2.097382"><ele>154</ele><time>2023-03-17T14:23:21Z</time><name>PT4076</name></trkpt>
<trkpt lat="53.159409" lon="-2.097344"><ele>154</ele><time>2023-03-17T14:23:24Z</time><name>PT4077</name></trkpt>
<trkpt lat="53.159372" lon="-2.097286"><ele>157</ele><time>2023-03-17T14:23:28Z</time><name>PT4078</name></trkpt>
<trkpt lat="53.159332" lon="-2.097240"><ele>159</ele><time>2023-03-17T14:23:33Z</time><name>PT4079</name></trkpt>
<trkpt lat="53.159299" lon="-2.097196"><ele>160</ele><time>2023-03-17T14:23:36Z</time><name>PT4080</name></trkpt>
<trkpt lat="53.159253" lon="-2.097157"><ele>160</ele><time>2023-03-17T14:23:39Z</time><name>PT4081</name></trkpt>
<trkpt lat="53.159212" lon="-2.097111"><ele>161</ele><time>2023-03-17T14:23:43Z</time><name>PT4082</name></trkpt>
<trkpt lat="53.159179" lon="-2.097081"><ele>162</ele><time>2023-03-17T14:23:46Z</time><name>PT4083</name></trkpt>
<trkpt lat="53.159144" lon="-2.097046"><ele>162</ele><time>2023-03-17T14:23:51Z</time><name>PT4084</name></trkpt>
<trkpt lat="53.159114" lon="-2.097014"><ele>163</ele><time>2023-03-17T14:23:54Z</time><name>PT4085</name></trkpt>
<trkpt lat="53.159081" lon="-2.096981"><ele>163</ele><time>2023-03-17T14:23:57Z</time><name>PT4086</name></trkpt>
<trkpt lat="53.159061" lon="-2.096951"><ele>164</ele><time>2023-03-17T14:24:00Z</time><name>PT4087</name></trkpt>
<trkpt lat="53.159038" lon="-2.096940"><ele>164</ele><time>2023-03-17T14:24:03Z</time><name>PT4088</name></trkpt>
<trkpt lat="53.159008" lon="-2.096912"><ele>164</ele><time>2023-03-17T14:24:07Z</time><name>PT4089</name></trkpt>
<trkpt lat="53.158993" lon="-2.096902"><ele>165</ele><time>2023-03-17T14:24:10Z</time><name>PT4090</name></trkpt>
<trkpt lat="53.158950" lon="-2.096878"><ele>164</ele><time>2023-03-17T14:24:15Z</time><name>PT4091</name></trkpt>
<trkpt lat="53.158912" lon="-2.096859"><ele>161</ele><time>2023-03-17T14:24:18Z</time><name>PT4092</name></trkpt>
<trkpt lat="53.158871" lon="-2.096846"><ele>159</ele><time>2023-03-17T14:24:22Z</time><name>PT4093</name></trkpt>
<trkpt lat="53.158835" lon="-2.096843"><ele>157</ele><time>2023-03-17T14:24:27Z</time><name>PT4094</name></trkpt>
<trkpt lat="53.158804" lon="-2.096824"><ele>158</ele><time>2023-03-17T14:24:30Z</time><name>PT4095</name></trkpt>
<trkpt lat="53.158773" lon="-2.096812"><ele>160</ele><time>2023-03-17T14:24:33Z</time><name>PT4096</name></trkpt>
<trkpt lat="53.158766" lon="-2.096812"><ele>161</ele><time>2023-03-17T14:24:37Z</time><name>PT4097</name></trkpt>
<trkpt lat="53.158719" lon="-2.096768"><ele>163</ele><time>2023-03-17T14:24:48Z</time><name>PT4098</name></trkpt></trkseg></trk></gpx>